<?xml version='1.0' encoding='UTF-8'?><gpx version="1.1" creator="JPX - https://github.com/jenetics/jpx" xmlns="http://www.topografix.com/GPX/1/1"><trk><trkseg><trkpt lat="14.557944968444248" lon="120.99489346279377"><ele>8.0</ele><time>2026-04-09T03:13:56.911Z</time></trkpt><trkpt lat="14.557989167149904" lon="120.99482465979652"><ele>8.0</ele><time>2026-04-09T03:13:58.911Z</time></trkpt><trkpt lat="14.558091393015859" lon="120.99480024535755"><ele>8.0</ele><time>2026-04-09T03:14:00.911Z</time></trkpt><trkpt lat="14.558171193374712" lon="120.99477389580544"><ele>8.0</ele><time>2026-04-09T03:14:03Z</time></trkpt><trkpt lat="14.558314020893704" lon="120.99476735028813"><ele>8.0</ele><time>2026-04-09T03:14:06Z</time></trkpt><trkpt lat="14.558426615166244" lon="120.994753732325"><ele>7.999999999999999</ele><time>2026-04-09T03:14:08Z</time></trkpt><trkpt lat="14.558541363482734" lon="120.99474707128635"><ele>8.0</ele><time>2026-04-09T03:14:10Z</time></trkpt><trkpt lat="14.55865276222153" lon="120.99472169768724"><ele>8.0</ele><time>2026-04-09T03:14:12Z</time></trkpt><trkpt lat="14.558727335322711" lon="120.99471013243202"><ele>8.0</ele><time>2026-04-09T03:14:14Z</time></trkpt><trkpt lat="14.55880351943253" lon="120.99471213453546"><ele>7.999999999999999</ele><time>2026-04-09T03:14:18Z</time></trkpt><trkpt lat="14.558871082508107" lon="120.99471316153797"><ele>8.0</ele><time>2026-04-09T03:14:20Z</time></trkpt><trkpt lat="14.558938787175187" lon="120.99469997028146"><ele>8.25</ele><time>2026-04-09T03:14:22Z</time></trkpt><trkpt lat="14.559038031054106" lon="120.99471606206878"><ele>8.5</ele><time>2026-04-09T03:14:24Z</time></trkpt><trkpt lat="14.55914712837407" lon="120.99470658055459"><ele>8.75</ele><time>2026-04-09T03:14:26Z</time></trkpt><trkpt lat="14.559262450227548" lon="120.99468799285833"><ele>9.0</ele><time>2026-04-09T03:14:28Z</time></trkpt><trkpt lat="14.559377128396056" lon="120.9946352074622"><ele>9.0</ele><time>2026-04-09T03:14:30Z</time></trkpt><trkpt lat="14.559489981366674" lon="120.9946181200936"><ele>9.0</ele><time>2026-04-09T03:14:32Z</time></trkpt><trkpt lat="14.559598129186556" lon="120.99459830815134"><ele>9.0</ele><time>2026-04-09T03:14:34Z</time></trkpt><trkpt lat="14.559708222335923" lon="120.99457809270002"><ele>9.0</ele><time>2026-04-09T03:14:36Z</time></trkpt><trkpt lat="14.55981768616696" lon="120.99455806919046"><ele>9.0</ele><time>2026-04-09T03:14:38Z</time></trkpt><trkpt lat="14.559909462299107" lon="120.99453975696633"><ele>9.2</ele><time>2026-04-09T03:14:40Z</time></trkpt><trkpt lat="14.559970845356833" lon="120.99451597858685"><ele>9.4</ele><time>2026-04-09T03:14:43Z</time></trkpt><trkpt lat="14.559996176794336" lon="120.99439534741059"><ele>9.6</ele><time>2026-04-09T03:14:48Z</time></trkpt><trkpt lat="14.559983531044255" lon="120.9942984289693"><ele>9.8</ele><time>2026-04-09T03:14:50Z</time></trkpt><trkpt lat="14.559976173958079" lon="120.9941910546104"><ele>10.0</ele><time>2026-04-09T03:14:52Z</time></trkpt><trkpt lat="14.559940443499604" lon="120.99406794449101"><ele>10.0</ele><time>2026-04-09T03:14:54Z</time></trkpt><trkpt lat="14.559927000849626" lon="120.99399517421206"><ele>10.0</ele><time>2026-04-09T03:14:55Z</time></trkpt><trkpt lat="14.559911035771727" lon="120.99391984639054"><ele>10.0</ele><time>2026-04-09T03:14:56.001Z</time></trkpt><trkpt lat="14.55989415099533" lon="120.99384530917868"><ele>10.0</ele><time>2026-04-09T03:14:57.001Z</time></trkpt><trkpt lat="14.559867081047123" lon="120.99372310224123"><ele>10.0</ele><time>2026-04-09T03:14:59.001Z</time></trkpt><trkpt lat="14.559855291622934" lon="120.99359467668613"><ele>10.0</ele><time>2026-04-09T03:15:01.001Z</time></trkpt><trkpt lat="14.559845573999464" lon="120.99352889187719"><ele>10.0</ele><time>2026-04-09T03:15:02.001Z</time></trkpt><trkpt lat="14.559833889915755" lon="120.99346489426823"><ele>10.0</ele><time>2026-04-09T03:15:03.001Z</time></trkpt><trkpt lat="14.559812337425226" lon="120.99334572726892"><ele>10.0</ele><time>2026-04-09T03:15:05.001Z</time></trkpt><trkpt lat="14.559799369826761" lon="120.9932351110271"><ele>10.0</ele><time>2026-04-09T03:15:07.001Z</time></trkpt><trkpt lat="14.559777985143661" lon="120.99313468787999"><ele>9.4</ele><time>2026-04-09T03:15:09.001Z</time></trkpt><trkpt lat="14.559761399854121" lon="120.9930454220799"><ele>8.8</ele><time>2026-04-09T03:15:11.001Z</time></trkpt><trkpt lat="14.559733684889174" lon="120.99297943104193"><ele>8.2</ele><time>2026-04-09T03:15:14.001Z</time></trkpt><trkpt lat="14.559679989637521" lon="120.99294024285113"><ele>7.6</ele><time>2026-04-09T03:15:18.001Z</time></trkpt><trkpt lat="14.55959742627083" lon="120.99294299264751"><ele>7.0</ele><time>2026-04-09T03:15:23.001Z</time></trkpt><trkpt lat="14.559459808631585" lon="120.99305273195563"><ele>6.8</ele><time>2026-04-09T03:15:28.001Z</time></trkpt><trkpt lat="14.559356914580961" lon="120.99306928434434"><ele>6.6</ele><time>2026-04-09T03:15:30.001Z</time></trkpt><trkpt lat="14.559268010029253" lon="120.99311490005375"><ele>6.3999999999999995</ele><time>2026-04-09T03:15:32.001Z</time></trkpt><trkpt lat="14.55917258641433" lon="120.9931480667169"><ele>6.199999999999999</ele><time>2026-04-09T03:15:34.001Z</time></trkpt><trkpt lat="14.559084405002709" lon="120.99317483957708"><ele>6.0</ele><time>2026-04-09T03:15:36.001Z</time></trkpt><trkpt lat="14.55900222377508" lon="120.99320434756486"><ele>5.999999999999999</ele><time>2026-04-09T03:15:38.001Z</time></trkpt><trkpt lat="14.558931778351118" lon="120.99322441439374"><ele>6.0</ele><time>2026-04-09T03:15:40.001Z</time></trkpt><trkpt lat="14.558855368389176" lon="120.99324347196145"><ele>6.0</ele><time>2026-04-09T03:15:42.001Z</time></trkpt><trkpt lat="14.558780306429805" lon="120.99326388823525"><ele>6.0</ele><time>2026-04-09T03:15:44.001Z</time></trkpt><trkpt lat="14.558704812805813" lon="120.99328368911566"><ele>6.0</ele><time>2026-04-09T03:15:46.001Z</time></trkpt><trkpt lat="14.558641219211665" lon="120.99330201083049"><ele>5.999999999999999</ele><time>2026-04-09T03:15:48.001Z</time></trkpt><trkpt lat="14.558579064729186" lon="120.99331714724104"><ele>6.0</ele><time>2026-04-09T03:15:50.001Z</time></trkpt><trkpt lat="14.558493702259304" lon="120.9933327800561"><ele>6.6</ele><time>2026-04-09T03:15:52.001Z</time></trkpt><trkpt lat="14.558394680210998" lon="120.9933394584976"><ele>7.199999999999999</ele><time>2026-04-09T03:15:54.001Z</time></trkpt><trkpt lat="14.558301185358356" lon="120.99336266050787"><ele>7.800000000000001</ele><time>2026-04-09T03:15:56.001Z</time></trkpt><trkpt lat="14.558211522002596" lon="120.99338059593222"><ele>8.4</ele><time>2026-04-09T03:15:58.001Z</time></trkpt><trkpt lat="14.55812937017484" lon="120.9934041676815"><ele>9.0</ele><time>2026-04-09T03:16:01.001Z</time></trkpt><trkpt lat="14.558039848535373" lon="120.99341473107059"><ele>9.0</ele><time>2026-04-09T03:16:04.001Z</time></trkpt><trkpt lat="14.557975200812223" lon="120.99343814277273"><ele>9.0</ele><time>2026-04-09T03:16:09.001Z</time></trkpt><trkpt lat="14.557977070382739" lon="120.99327267807575"><ele>9.0</ele><time>2026-04-09T03:16:13.001Z</time></trkpt><trkpt lat="14.557956091536397" lon="120.99320573865246"><ele>9.0</ele><time>2026-04-09T03:16:17.001Z</time></trkpt><trkpt lat="14.557928182320056" lon="120.99311488294374"><ele>9.0</ele><time>2026-04-09T03:16:20.001Z</time></trkpt><trkpt lat="14.557909436849188" lon="120.99305233706798"><ele>9.166666666666666</ele><time>2026-04-09T03:16:22.001Z</time></trkpt><trkpt lat="14.55789943355078" lon="120.99298514845162"><ele>9.333333333333334</ele><time>2026-04-09T03:16:24.001Z</time></trkpt><trkpt lat="14.557873329823117" lon="120.99290985696246"><ele>9.5</ele><time>2026-04-09T03:16:26.001Z</time></trkpt><trkpt lat="14.557844031273182" lon="120.99281805718768"><ele>9.666666666666668</ele><time>2026-04-09T03:16:31.001Z</time></trkpt><trkpt lat="14.557815906959899" lon="120.99273321475535"><ele>9.833333333333334</ele><time>2026-04-09T03:16:33.001Z</time></trkpt><trkpt lat="14.557787310320853" lon="120.9926374903547"><ele>10.0</ele><time>2026-04-09T03:16:35.001Z</time></trkpt><trkpt lat="14.557755671612702" lon="120.99254583598317"><ele>9.6</ele><time>2026-04-09T03:16:37.001Z</time></trkpt><trkpt lat="14.557725169953352" lon="120.9924476829702"><ele>9.2</ele><time>2026-04-09T03:16:39.001Z</time></trkpt><trkpt lat="14.557694538365094" lon="120.99235426363252"><ele>8.8</ele><time>2026-04-09T03:16:41.001Z</time></trkpt><trkpt lat="14.557670045187358" lon="120.99225889659928"><ele>8.4</ele><time>2026-04-09T03:16:43.001Z</time></trkpt><trkpt lat="14.557647884291901" lon="120.9921771181094"><ele>8.0</ele><time>2026-04-09T03:16:45.001Z</time></trkpt><trkpt lat="14.557625789123932" lon="120.99208964739941"><ele>7.999999999999999</ele><time>2026-04-09T03:16:48.001Z</time></trkpt><trkpt lat="14.557600312673221" lon="120.9920113817262"><ele>8.0</ele><time>2026-04-09T03:16:51.001Z</time></trkpt><trkpt lat="14.557574175236812" lon="120.99192867183642"><ele>8.0</ele><time>2026-04-09T03:16:54.001Z</time></trkpt><trkpt lat="14.557550890827912" lon="120.99184325507582"><ele>8.0</ele><time>2026-04-09T03:16:56.001Z</time></trkpt><trkpt lat="14.557525768380179" lon="120.99176020827831"><ele>7.999999999999999</ele><time>2026-04-09T03:16:58.001Z</time></trkpt><trkpt lat="14.557500965344236" lon="120.9916802114487"><ele>8.0</ele><time>2026-04-09T03:17:00.001Z</time></trkpt><trkpt lat="14.55747465035829" lon="120.99158813632114"><ele>7.800000000000001</ele><time>2026-04-09T03:17:02.001Z</time></trkpt><trkpt lat="14.557445208932888" lon="120.99149541005313"><ele>7.6000000000000005</ele><time>2026-04-09T03:17:04.001Z</time></trkpt><trkpt lat="14.557416704337479" lon="120.99140857091847"><ele>7.3999999999999995</ele><time>2026-04-09T03:17:06.001Z</time></trkpt><trkpt lat="14.557391129056192" lon="120.99130907268284"><ele>7.199999999999999</ele><time>2026-04-09T03:17:08.001Z</time></trkpt><trkpt lat="14.557362031666706" lon="120.99120431048591"><ele>7.0</ele><time>2026-04-09T03:17:10.001Z</time></trkpt><trkpt lat="14.557325974091555" lon="120.99109860612334"><ele>7.000000000000001</ele><time>2026-04-09T03:17:12.001Z</time></trkpt><trkpt lat="14.557292675332102" lon="120.99099553943965"><ele>7.0</ele><time>2026-04-09T03:17:14.001Z</time></trkpt><trkpt lat="14.557260966164401" lon="120.99089956662294"><ele>7.0</ele><time>2026-04-09T03:17:16.001Z</time></trkpt><trkpt lat="14.557231630237888" lon="120.99081373194142"><ele>7.0</ele><time>2026-04-09T03:17:18.001Z</time></trkpt><trkpt lat="14.557206202647352" lon="120.99073034989932"><ele>7.000000000000001</ele><time>2026-04-09T03:17:21.001Z</time></trkpt><trkpt lat="14.557182149704834" lon="120.99066350851616"><ele>7.0</ele><time>2026-04-09T03:17:32.001Z</time></trkpt><trkpt lat="14.557109270123142" lon="120.99067115603653"><ele>6.8</ele><time>2026-04-09T03:17:34.001Z</time></trkpt><trkpt lat="14.557040859272789" lon="120.99068782587835"><ele>6.6</ele><time>2026-04-09T03:17:37.001Z</time></trkpt><trkpt lat="14.556977631054936" lon="120.99071571321359"><ele>6.3999999999999995</ele><time>2026-04-09T03:17:39.001Z</time></trkpt><trkpt lat="14.557069587305827" lon="120.99068343740736"><ele>6.199999999999999</ele><time>2026-04-09T03:17:40.001Z</time></trkpt><trkpt lat="14.556896059609505" lon="120.99075931536834"><ele>6.0</ele><time>2026-04-09T03:17:41.001Z</time></trkpt><trkpt lat="14.556818633867092" lon="120.99078630197737"><ele>6.0</ele><time>2026-04-09T03:17:43.001Z</time></trkpt><trkpt lat="14.556738662560429" lon="120.9908202965415"><ele>6.0</ele><time>2026-04-09T03:17:45.001Z</time></trkpt><trkpt lat="14.556660472071606" lon="120.99084989485016"><ele>6.0</ele><time>2026-04-09T03:17:47.001Z</time></trkpt><trkpt lat="14.556582964793382" lon="120.99087773482348"><ele>6.0</ele><time>2026-04-09T03:17:49.001Z</time></trkpt><trkpt lat="14.556507588711387" lon="120.99090514803481"><ele>6.0</ele><time>2026-04-09T03:17:51.001Z</time></trkpt><trkpt lat="14.556436133048498" lon="120.99093018730335"><ele>6.0</ele><time>2026-04-09T03:17:53.001Z</time></trkpt><trkpt lat="14.556374106826539" lon="120.99095377429366"><ele>6.0</ele><time>2026-04-09T03:17:55.001Z</time></trkpt><trkpt lat="14.556308077257931" lon="120.99095919484043"><ele>6.0</ele><time>2026-04-09T03:17:57.001Z</time></trkpt><trkpt lat="14.556242531102244" lon="120.9909813281335"><ele>6.0</ele><time>2026-04-09T03:17:59.001Z</time></trkpt><trkpt lat="14.55615964652903" lon="120.99100931109753"><ele>6.0</ele><time>2026-04-09T03:18:01.001Z</time></trkpt><trkpt lat="14.556073581860282" lon="120.9910548929543"><ele>6.0</ele><time>2026-04-09T03:18:03.001Z</time></trkpt><trkpt lat="14.555973625024794" lon="120.99108490540519"><ele>6.0</ele><time>2026-04-09T03:18:05.001Z</time></trkpt><trkpt lat="14.555873402097728" lon="120.99111354507957"><ele>6.4</ele><time>2026-04-09T03:18:07.001Z</time></trkpt><trkpt lat="14.555777605923955" lon="120.99114270699465"><ele>6.8</ele><time>2026-04-09T03:18:09.001Z</time></trkpt><trkpt lat="14.555683998133198" lon="120.99115729207824"><ele>7.200000000000001</ele><time>2026-04-09T03:18:11.001Z</time></trkpt><trkpt lat="14.555563681149215" lon="120.99119453643304"><ele>7.6000000000000005</ele><time>2026-04-09T03:18:13.001Z</time></trkpt><trkpt lat="14.555496653480462" lon="120.99121535404582"><ele>8.0</ele><time>2026-04-09T03:18:14.001Z</time></trkpt><trkpt lat="14.555426000378207" lon="120.99123729783297"><ele>8.0</ele><time>2026-04-09T03:18:15.001Z</time></trkpt><trkpt lat="14.555352552084003" lon="120.99125838700112"><ele>7.999999999999999</ele><time>2026-04-09T03:18:16.001Z</time></trkpt><trkpt lat="14.555280432389159" lon="120.99128142165009"><ele>8.0</ele><time>2026-04-09T03:18:17.001Z</time></trkpt><trkpt lat="14.555210651537877" lon="120.99130304222051"><ele>8.0</ele><time>2026-04-09T03:18:18.001Z</time></trkpt><trkpt lat="14.555141281975809" lon="120.99132487840131"><ele>7.999999999999999</ele><time>2026-04-09T03:18:19.001Z</time></trkpt><trkpt lat="14.555071721471268" lon="120.99134667186254"><ele>8.0</ele><time>2026-04-09T03:18:20.001Z</time></trkpt><trkpt lat="14.55499895593162" lon="120.99136905824216"><ele>8.0</ele><time>2026-04-09T03:18:21.001Z</time></trkpt><trkpt lat="14.554923451571405" lon="120.99139226976395"><ele>7.999999999999999</ele><time>2026-04-09T03:18:22.001Z</time></trkpt><trkpt lat="14.554846248160107" lon="120.99141600361249"><ele>8.0</ele><time>2026-04-09T03:18:23Z</time></trkpt><trkpt lat="14.554772468657655" lon="120.99145554919946"><ele>8.0</ele><time>2026-04-09T03:18:24Z</time></trkpt><trkpt lat="14.554694462582303" lon="120.99147722224622"><ele>8.0</ele><time>2026-04-09T03:18:25Z</time></trkpt><trkpt lat="14.554622624626312" lon="120.99149883989493"><ele>7.999999999999999</ele><time>2026-04-09T03:18:26Z</time></trkpt><trkpt lat="14.554554692938355" lon="120.99151921212489"><ele>8.0</ele><time>2026-04-09T03:18:27Z</time></trkpt><trkpt lat="14.554488639027921" lon="120.99153904635097"><ele>7.6000000000000005</ele><time>2026-04-09T03:18:28Z</time></trkpt><trkpt lat="14.554423906993673" lon="120.99155837684347"><ele>7.200000000000001</ele><time>2026-04-09T03:18:29Z</time></trkpt><trkpt lat="14.554360506515682" lon="120.9915774158287"><ele>6.8</ele><time>2026-04-09T03:18:30Z</time></trkpt><trkpt lat="14.554249316813248" lon="120.99161261909522"><ele>6.4</ele><time>2026-04-09T03:18:32Z</time></trkpt><trkpt lat="14.554143129355461" lon="120.99164592147125"><ele>6.0</ele><time>2026-04-09T03:18:34Z</time></trkpt><trkpt lat="14.554036112742159" lon="120.99167700668754"><ele>6.8</ele><time>2026-04-09T03:18:36Z</time></trkpt><trkpt lat="14.55392075954643" lon="120.99170891243462"><ele>7.6</ele><time>2026-04-09T03:18:38Z</time></trkpt><trkpt lat="14.553859810908875" lon="120.9917264201662"><ele>8.4</ele><time>2026-04-09T03:18:39Z</time></trkpt><trkpt lat="14.553746473856794" lon="120.99174188078284"><ele>9.2</ele><time>2026-04-09T03:18:41Z</time></trkpt><trkpt lat="14.553638082551284" lon="120.99176267743135"><ele>10.0</ele><time>2026-04-09T03:18:43Z</time></trkpt><trkpt lat="14.553540200385406" lon="120.99179067433514"><ele>10.0</ele><time>2026-04-09T03:18:45Z</time></trkpt><trkpt lat="14.553446444212941" lon="120.99182468801045"><ele>10.0</ele><time>2026-04-09T03:18:47Z</time></trkpt><trkpt lat="14.553368274503184" lon="120.99184991379256"><ele>10.0</ele><time>2026-04-09T03:18:49Z</time></trkpt><trkpt lat="14.553293241438197" lon="120.99187574985594"><ele>10.0</ele><time>2026-04-09T03:18:51Z</time></trkpt><trkpt lat="14.55321167157328" lon="120.99188402983077"><ele>10.0</ele><time>2026-04-09T03:18:54Z</time></trkpt><trkpt lat="14.55314756245053" lon="120.99182745070577"><ele>10.0</ele><time>2026-04-09T03:18:57Z</time></trkpt><trkpt lat="14.553101871420845" lon="120.99175074251457"><ele>9.833333333333334</ele><time>2026-04-09T03:18:59Z</time></trkpt><trkpt lat="14.553064997091726" lon="120.99162077182235"><ele>9.666666666666668</ele><time>2026-04-09T03:19:01Z</time></trkpt><trkpt lat="14.553045339279405" lon="120.99155291874241"><ele>9.5</ele><time>2026-04-09T03:19:02Z</time></trkpt><trkpt lat="14.55302459636453" lon="120.9914867829516"><ele>9.333333333333334</ele><time>2026-04-09T03:19:03Z</time></trkpt><trkpt lat="14.55300229890028" lon="120.9914198972324"><ele>9.166666666666666</ele><time>2026-04-09T03:19:04Z</time></trkpt><trkpt lat="14.552978488201482" lon="120.99135138638533"><ele>9.0</ele><time>2026-04-09T03:19:05Z</time></trkpt><trkpt lat="14.552951035875907" lon="120.99128029943165"><ele>9.0</ele><time>2026-04-09T03:19:06Z</time></trkpt><trkpt lat="14.552924570876181" lon="120.99120519371323"><ele>9.0</ele><time>2026-04-09T03:19:07Z</time></trkpt><trkpt lat="14.552900216857633" lon="120.99112627028397"><ele>9.0</ele><time>2026-04-09T03:19:08Z</time></trkpt><trkpt lat="14.552878288302162" lon="120.9910433973537"><ele>9.0</ele><time>2026-04-09T03:19:09Z</time></trkpt><trkpt lat="14.552854478036428" lon="120.99095926517516"><ele>9.0</ele><time>2026-04-09T03:19:10Z</time></trkpt><trkpt lat="14.552829630749798" lon="120.99087129854678"><ele>9.0</ele><time>2026-04-09T03:19:11Z</time></trkpt><trkpt lat="14.552803570718808" lon="120.99078034606568"><ele>9.2</ele><time>2026-04-09T03:19:12Z</time></trkpt><trkpt lat="14.552776911893663" lon="120.99068593940324"><ele>9.4</ele><time>2026-04-09T03:19:13Z</time></trkpt><trkpt lat="14.552747739494489" lon="120.99058886475542"><ele>9.6</ele><time>2026-04-09T03:19:14Z</time></trkpt><trkpt lat="14.55272416425148" lon="120.99048891058703"><ele>9.8</ele><time>2026-04-09T03:19:15Z</time></trkpt><trkpt lat="14.552693932245305" lon="120.99038835408015"><ele>10.0</ele><time>2026-04-09T03:19:16Z</time></trkpt><trkpt lat="14.552662136913709" lon="120.99028650702608"><ele>10.0</ele><time>2026-04-09T03:19:17Z</time></trkpt><trkpt lat="14.552630277516917" lon="120.99018511735028"><ele>10.0</ele><time>2026-04-09T03:19:18Z</time></trkpt><trkpt lat="14.55259782413013" lon="120.99008547368804"><ele>10.0</ele><time>2026-04-09T03:19:19Z</time></trkpt><trkpt lat="14.552566565675303" lon="120.98998833714677"><ele>10.0</ele><time>2026-04-09T03:19:20Z</time></trkpt><trkpt lat="14.552535476601557" lon="120.9898987309033"><ele>10.0</ele><time>2026-04-09T03:19:21Z</time></trkpt><trkpt lat="14.552507456621205" lon="120.989815048913"><ele>10.0</ele><time>2026-04-09T03:19:22Z</time></trkpt><trkpt lat="14.552480147249993" lon="120.98973725917715"><ele>10.0</ele><time>2026-04-09T03:19:23Z</time></trkpt><trkpt lat="14.552455749567375" lon="120.98966246668498"><ele>10.0</ele><time>2026-04-09T03:19:24Z</time></trkpt><trkpt lat="14.5524334952849" lon="120.98959118271591"><ele>10.0</ele><time>2026-04-09T03:19:25Z</time></trkpt><trkpt lat="14.552412025221503" lon="120.98952517782432"><ele>10.0</ele><time>2026-04-09T03:19:26Z</time></trkpt><trkpt lat="14.552379587412966" lon="120.98941057447207"><ele>10.0</ele><time>2026-04-09T03:19:28Z</time></trkpt><trkpt lat="14.552358209879959" lon="120.98932605163901"><ele>10.0</ele><time>2026-04-09T03:19:30Z</time></trkpt><trkpt lat="14.552329802667963" lon="120.98924334532218"><ele>10.0</ele><time>2026-04-09T03:19:32Z</time></trkpt><trkpt lat="14.552298476103388" lon="120.98915480313839"><ele>10.0</ele><time>2026-04-09T03:19:34Z</time></trkpt><trkpt lat="14.552260720368286" lon="120.98903018364756"><ele>10.0</ele><time>2026-04-09T03:19:36Z</time></trkpt><trkpt lat="14.552239747737518" lon="120.98896067517282"><ele>10.0</ele><time>2026-04-09T03:19:37Z</time></trkpt><trkpt lat="14.552220696497995" lon="120.98888802908287"><ele>10.0</ele><time>2026-04-09T03:19:38Z</time></trkpt><trkpt lat="14.552202999516217" lon="120.98881723880588"><ele>9.333333333333334</ele><time>2026-04-09T03:19:39Z</time></trkpt><trkpt lat="14.55218382799059" lon="120.98874770576013"><ele>8.666666666666668</ele><time>2026-04-09T03:19:40Z</time></trkpt><trkpt lat="14.552165135005053" lon="120.98867696905057"><ele>8.0</ele><time>2026-04-09T03:19:41Z</time></trkpt><trkpt lat="14.552147530412459" lon="120.98860927555735"><ele>7.333333333333334</ele><time>2026-04-09T03:19:42Z</time></trkpt><trkpt lat="14.55211918978903" lon="120.98849729459808"><ele>6.666666666666667</ele><time>2026-04-09T03:19:44Z</time></trkpt><trkpt lat="14.552086180435824" lon="120.98841246361792"><ele>6.0</ele><time>2026-04-09T03:19:47Z</time></trkpt><trkpt lat="14.552080189796497" lon="120.98834539748032"><ele>5.8</ele><time>2026-04-09T03:19:53Z</time></trkpt><trkpt lat="14.551950775810843" lon="120.98836646386627"><ele>5.6</ele><time>2026-04-09T03:19:56Z</time></trkpt><trkpt lat="14.551875680815153" lon="120.98846203371214"><ele>5.4</ele><time>2026-04-09T03:19:59Z</time></trkpt><trkpt lat="14.551862609015448" lon="120.98856721204115"><ele>5.2</ele><time>2026-04-09T03:20:01Z</time></trkpt><trkpt lat="14.551914104455353" lon="120.98862668995874"><ele>5.0</ele><time>2026-04-09T03:20:02Z</time></trkpt><trkpt lat="14.551926882897734" lon="120.98874017577184"><ele>5.0</ele><time>2026-04-09T03:20:04Z</time></trkpt><trkpt lat="14.551935143033466" lon="120.98880476245563"><ele>5.0</ele><time>2026-04-09T03:20:05Z</time></trkpt><trkpt lat="14.551944761961856" lon="120.98887135767747"><ele>5.0</ele><time>2026-04-09T03:20:06Z</time></trkpt><trkpt lat="14.551958975962783" lon="120.98893591143468"><ele>5.0</ele><time>2026-04-09T03:20:07Z</time></trkpt><trkpt lat="14.551989451081967" lon="120.98905697192396"><ele>5.0</ele><time>2026-04-09T03:20:09Z</time></trkpt><trkpt lat="14.552022002645659" lon="120.98917138354012"><ele>5.0</ele><time>2026-04-09T03:20:11Z</time></trkpt><trkpt lat="14.552070284750755" lon="120.98927016059322"><ele>5.8</ele><time>2026-04-09T03:20:13Z</time></trkpt><trkpt lat="14.552094924734932" lon="120.98934416116924"><ele>6.6</ele><time>2026-04-09T03:20:15Z</time></trkpt><trkpt lat="14.552001938484779" lon="120.98944500930325"><ele>7.4</ele><time>2026-04-09T03:20:19Z</time></trkpt><trkpt lat="14.551909144277294" lon="120.98947111307116"><ele>8.2</ele><time>2026-04-09T03:20:21Z</time></trkpt><trkpt lat="14.551783529797193" lon="120.98949930259208"><ele>9.0</ele><time>2026-04-09T03:20:23Z</time></trkpt><trkpt lat="14.551712191512328" lon="120.98951506783543"><ele>9.0</ele><time>2026-04-09T03:20:24Z</time></trkpt><trkpt lat="14.551635036434767" lon="120.98953188735018"><ele>9.0</ele><time>2026-04-09T03:20:25Z</time></trkpt><trkpt lat="14.551553280383057" lon="120.98955077901158"><ele>9.0</ele><time>2026-04-09T03:20:26Z</time></trkpt><trkpt lat="14.55146911173981" lon="120.9895704476385"><ele>9.0</ele><time>2026-04-09T03:20:27Z</time></trkpt><trkpt lat="14.551382915375537" lon="120.98958973270388"><ele>9.0</ele><time>2026-04-09T03:20:28Z</time></trkpt><trkpt lat="14.551293115974365" lon="120.98961150222337"><ele>9.0</ele><time>2026-04-09T03:20:29Z</time></trkpt><trkpt lat="14.55120282518581" lon="120.98963429750853"><ele>8.6</ele><time>2026-04-09T03:20:30Z</time></trkpt><trkpt lat="14.551109927665873" lon="120.98965783574087"><ele>8.2</ele><time>2026-04-09T03:20:31Z</time></trkpt><trkpt lat="14.551014074875118" lon="120.98968107429238"><ele>7.799999999999999</ele><time>2026-04-09T03:20:32Z</time></trkpt><trkpt lat="14.550915689264112" lon="120.9897039835849"><ele>7.3999999999999995</ele><time>2026-04-09T03:20:33Z</time></trkpt><trkpt lat="14.550814339094545" lon="120.98972750987322"><ele>7.0</ele><time>2026-04-09T03:20:34Z</time></trkpt><trkpt lat="14.550711245474442" lon="120.98975168661428"><ele>7.0</ele><time>2026-04-09T03:20:35Z</time></trkpt><trkpt lat="14.55060461810172" lon="120.98977733537473"><ele>7.0</ele><time>2026-04-09T03:20:36Z</time></trkpt><trkpt lat="14.550495823728632" lon="120.9898028190604"><ele>7.0</ele><time>2026-04-09T03:20:37Z</time></trkpt><trkpt lat="14.550384729981268" lon="120.98982892491776"><ele>7.0</ele><time>2026-04-09T03:20:38Z</time></trkpt><trkpt lat="14.55027251370559" lon="120.98985426152221"><ele>7.25</ele><time>2026-04-09T03:20:39Z</time></trkpt><trkpt lat="14.550158458706933" lon="120.98987877002459"><ele>7.5</ele><time>2026-04-09T03:20:40Z</time></trkpt><trkpt lat="14.550044539693472" lon="120.98990656678217"><ele>7.75</ele><time>2026-04-09T03:20:41Z</time></trkpt><trkpt lat="14.549927476304283" lon="120.98993468758812"><ele>8.0</ele><time>2026-04-09T03:20:42Z</time></trkpt><trkpt lat="14.549810406557272" lon="120.98996250497905"><ele>8.0</ele><time>2026-04-09T03:20:43Z</time></trkpt><trkpt lat="14.549688390437064" lon="120.98999300904222"><ele>8.0</ele><time>2026-04-09T03:20:44Z</time></trkpt><trkpt lat="14.549561334580249" lon="120.99002492697309"><ele>8.0</ele><time>2026-04-09T03:20:45Z</time></trkpt><trkpt lat="14.549441485677326" lon="120.99005518441184"><ele>8.0</ele><time>2026-04-09T03:20:46Z</time></trkpt><trkpt lat="14.549326021289671" lon="120.99008389326016"><ele>8.0</ele><time>2026-04-09T03:20:47Z</time></trkpt><trkpt lat="14.549213732991843" lon="120.99011292348374"><ele>8.0</ele><time>2026-04-09T03:20:48Z</time></trkpt><trkpt lat="14.549108831742487" lon="120.99014256009788"><ele>8.0</ele><time>2026-04-09T03:20:49Z</time></trkpt><trkpt lat="14.549008364559663" lon="120.99017458223466"><ele>8.0</ele><time>2026-04-09T03:20:50Z</time></trkpt><trkpt lat="14.548913485042569" lon="120.99020921408163"><ele>8.0</ele><time>2026-04-09T03:20:51Z</time></trkpt><trkpt lat="14.548818583860704" lon="120.9902443111072"><ele>8.0</ele><time>2026-04-09T03:20:52Z</time></trkpt><trkpt lat="14.548718201694385" lon="120.990275438154"><ele>8.0</ele><time>2026-04-09T03:20:53Z</time></trkpt><trkpt lat="14.54861265730535" lon="120.99030519987396"><ele>8.0</ele><time>2026-04-09T03:20:54Z</time></trkpt><trkpt lat="14.54850525389736" lon="120.9903350437924"><ele>8.0</ele><time>2026-04-09T03:20:55Z</time></trkpt><trkpt lat="14.548399676517988" lon="120.9903657815091"><ele>8.0</ele><time>2026-04-09T03:20:56Z</time></trkpt><trkpt lat="14.548292713988115" lon="120.99039758914371"><ele>8.0</ele><time>2026-04-09T03:20:57Z</time></trkpt><trkpt lat="14.54818298410664" lon="120.99042896931653"><ele>8.0</ele><time>2026-04-09T03:20:58Z</time></trkpt><trkpt lat="14.548068840977749" lon="120.99046226593414"><ele>8.0</ele><time>2026-04-09T03:20:59Z</time></trkpt><trkpt lat="14.54795182123231" lon="120.9904952840942"><ele>8.0</ele><time>2026-04-09T03:21:00Z</time></trkpt><trkpt lat="14.54783178491409" lon="120.99053024765075"><ele>8.0</ele><time>2026-04-09T03:21:01Z</time></trkpt><trkpt lat="14.547709736461005" lon="120.9905655865885"><ele>8.0</ele><time>2026-04-09T03:21:02Z</time></trkpt><trkpt lat="14.547585363348063" lon="120.99060132752115"><ele>8.0</ele><time>2026-04-09T03:21:03Z</time></trkpt><trkpt lat="14.547460072942856" lon="120.99063600897456"><ele>8.0</ele><time>2026-04-09T03:21:04Z</time></trkpt><trkpt lat="14.547335084410463" lon="120.99067017127983"><ele>8.0</ele><time>2026-04-09T03:21:05Z</time></trkpt><trkpt lat="14.547210998466252" lon="120.9907032932727"><ele>8.0</ele><time>2026-04-09T03:21:06Z</time></trkpt><trkpt lat="14.547087226076073" lon="120.99073401518665"><ele>8.0</ele><time>2026-04-09T03:21:07Z</time></trkpt><trkpt lat="14.546964760221893" lon="120.99076539348309"><ele>8.0</ele><time>2026-04-09T03:21:08Z</time></trkpt><trkpt lat="14.54684482090572" lon="120.99079593965426"><ele>7.75</ele><time>2026-04-09T03:21:09Z</time></trkpt><trkpt lat="14.54672421092042" lon="120.99082783728679"><ele>7.5</ele><time>2026-04-09T03:21:10Z</time></trkpt><trkpt lat="14.54659883767463" lon="120.99085947016671"><ele>7.25</ele><time>2026-04-09T03:21:11Z</time></trkpt><trkpt lat="14.54647219918583" lon="120.9908911469787"><ele>7.0</ele><time>2026-04-09T03:21:12Z</time></trkpt><trkpt lat="14.546345255088687" lon="120.99092157366523"><ele>7.0</ele><time>2026-04-09T03:21:13Z</time></trkpt><trkpt lat="14.546217695074576" lon="120.99095303037599"><ele>7.0</ele><time>2026-04-09T03:21:14Z</time></trkpt><trkpt lat="14.546091253208642" lon="120.99098459754607"><ele>7.0</ele><time>2026-04-09T03:21:15Z</time></trkpt><trkpt lat="14.545965758312558" lon="120.99101487836617"><ele>7.0</ele><time>2026-04-09T03:21:16Z</time></trkpt><trkpt lat="14.54583911812112" lon="120.99104625675793"><ele>7.0</ele><time>2026-04-09T03:21:17Z</time></trkpt><trkpt lat="14.545715931004443" lon="120.99107640157008"><ele>7.0</ele><time>2026-04-09T03:21:18Z</time></trkpt><trkpt lat="14.545592522009906" lon="120.99110676341108"><ele>7.0</ele><time>2026-04-09T03:21:19Z</time></trkpt><trkpt lat="14.54546944341112" lon="120.99113623279682"><ele>7.0</ele><time>2026-04-09T03:21:20Z</time></trkpt><trkpt lat="14.545345056550538" lon="120.99116454111004"><ele>8.0</ele><time>2026-04-09T03:21:21Z</time></trkpt><trkpt lat="14.545221235149521" lon="120.99119351575897"><ele>9.0</ele><time>2026-04-09T03:21:22Z</time></trkpt><trkpt lat="14.545098568197078" lon="120.99122055627313"><ele>10.0</ele><time>2026-04-09T03:21:23Z</time></trkpt><trkpt lat="14.544976156209001" lon="120.9912452669166"><ele>11.0</ele><time>2026-04-09T03:21:24Z</time></trkpt><trkpt lat="14.544854823738762" lon="120.99126805218286"><ele>11.0</ele><time>2026-04-09T03:21:25Z</time></trkpt><trkpt lat="14.544732546314334" lon="120.99128992764453"><ele>11.0</ele><time>2026-04-09T03:21:26Z</time></trkpt><trkpt lat="14.544607436778174" lon="120.99131186898953"><ele>11.0</ele><time>2026-04-09T03:21:27Z</time></trkpt><trkpt lat="14.544480997533487" lon="120.9913337392749"><ele>11.0</ele><time>2026-04-09T03:21:28Z</time></trkpt><trkpt lat="14.54435490535972" lon="120.9913553427011"><ele>10.25</ele><time>2026-04-09T03:21:29Z</time></trkpt><trkpt lat="14.544227850116757" lon="120.9913774649985"><ele>9.5</ele><time>2026-04-09T03:21:30Z</time></trkpt><trkpt lat="14.544100103262645" lon="120.99140055029414"><ele>8.75</ele><time>2026-04-09T03:21:31Z</time></trkpt><trkpt lat="14.54397371042976" lon="120.99142102727224"><ele>8.0</ele><time>2026-04-09T03:21:32Z</time></trkpt><trkpt lat="14.543845439851882" lon="120.99144377655361"><ele>8.0</ele><time>2026-04-09T03:21:33Z</time></trkpt><trkpt lat="14.543716242145635" lon="120.99146595623976"><ele>8.0</ele><time>2026-04-09T03:21:34Z</time></trkpt><trkpt lat="14.543586776833541" lon="120.99148966604633"><ele>8.0</ele><time>2026-04-09T03:21:35Z</time></trkpt><trkpt lat="14.543456558882568" lon="120.99151317768782"><ele>8.0</ele><time>2026-04-09T03:21:36Z</time></trkpt><trkpt lat="14.543327965497177" lon="120.9915359440705"><ele>7.5</ele><time>2026-04-09T03:21:37Z</time></trkpt><trkpt lat="14.543201470112582" lon="120.99155887407018"><ele>7.0</ele><time>2026-04-09T03:21:38Z</time></trkpt><trkpt lat="14.54307449770917" lon="120.99158119232519"><ele>6.5</ele><time>2026-04-09T03:21:39Z</time></trkpt><trkpt lat="14.542949680052907" lon="120.99160341810094"><ele>6.0</ele><time>2026-04-09T03:21:40Z</time></trkpt><trkpt lat="14.542825233922246" lon="120.99162504054026"><ele>5.75</ele><time>2026-04-09T03:21:41Z</time></trkpt><trkpt lat="14.542701951814765" lon="120.99164658661591"><ele>5.5</ele><time>2026-04-09T03:21:42Z</time></trkpt><trkpt lat="14.542580153895916" lon="120.99166899422168"><ele>5.25</ele><time>2026-04-09T03:21:43Z</time></trkpt><trkpt lat="14.54246097093493" lon="120.99168986486423"><ele>5.0</ele><time>2026-04-09T03:21:44Z</time></trkpt><trkpt lat="14.542340539739012" lon="120.99170988742009"><ele>5.5</ele><time>2026-04-09T03:21:45Z</time></trkpt><trkpt lat="14.54221919994308" lon="120.99173200760178"><ele>6.0</ele><time>2026-04-09T03:21:46Z</time></trkpt><trkpt lat="14.542096242557955" lon="120.99175409222275"><ele>6.5</ele><time>2026-04-09T03:21:47Z</time></trkpt><trkpt lat="14.541973802382948" lon="120.99177673739318"><ele>7.0</ele><time>2026-04-09T03:21:48Z</time></trkpt><trkpt lat="14.541850404978346" lon="120.99179878608594"><ele>7.0</ele><time>2026-04-09T03:21:49Z</time></trkpt><trkpt lat="14.541728329757689" lon="120.99182261176838"><ele>7.0</ele><time>2026-04-09T03:21:50Z</time></trkpt><trkpt lat="14.54160695214305" lon="120.9918448674929"><ele>7.0</ele><time>2026-04-09T03:21:51Z</time></trkpt><trkpt lat="14.541485840504714" lon="120.99186647288872"><ele>7.0</ele><time>2026-04-09T03:21:52Z</time></trkpt><trkpt lat="14.541364937492144" lon="120.99188643021455"><ele>7.0</ele><time>2026-04-09T03:21:53Z</time></trkpt><trkpt lat="14.541249092506577" lon="120.99190604023856"><ele>7.0</ele><time>2026-04-09T03:21:54Z</time></trkpt><trkpt lat="14.54112880807239" lon="120.99192883289035"><ele>7.0</ele><time>2026-04-09T03:21:55Z</time></trkpt><trkpt lat="14.541010411807067" lon="120.99195099108724"><ele>7.0</ele><time>2026-04-09T03:21:56Z</time></trkpt><trkpt lat="14.540892564860801" lon="120.99197118078177"><ele>10.25</ele><time>2026-04-09T03:21:57Z</time></trkpt><trkpt lat="14.540775124351498" lon="120.99199083786401"><ele>13.5</ele><time>2026-04-09T03:21:58Z</time></trkpt><trkpt lat="14.54065974303261" lon="120.99200778924946"><ele>16.75</ele><time>2026-04-09T03:21:59Z</time></trkpt><trkpt lat="14.540544162242327" lon="120.99202560422684"><ele>20.0</ele><time>2026-04-09T03:22:00Z</time></trkpt><trkpt lat="14.54043080188499" lon="120.99204065762254"><ele>17.25</ele><time>2026-04-09T03:22:01Z</time></trkpt><trkpt lat="14.540319537399958" lon="120.99205528280758"><ele>14.5</ele><time>2026-04-09T03:22:02Z</time></trkpt><trkpt lat="14.540206291539594" lon="120.9920686059652"><ele>11.75</ele><time>2026-04-09T03:22:03Z</time></trkpt><trkpt lat="14.54009446389436" lon="120.99208024017865"><ele>9.0</ele><time>2026-04-09T03:22:04Z</time></trkpt><trkpt lat="14.53998027627134" lon="120.99209403678428"><ele>9.0</ele><time>2026-04-09T03:22:05Z</time></trkpt><trkpt lat="14.539866898189953" lon="120.99210713333174"><ele>9.0</ele><time>2026-04-09T03:22:06Z</time></trkpt><trkpt lat="14.539756556780544" lon="120.99211911537176"><ele>9.0</ele><time>2026-04-09T03:22:07Z</time></trkpt><trkpt lat="14.539650770768196" lon="120.9921307878553"><ele>9.0</ele><time>2026-04-09T03:22:08Z</time></trkpt><trkpt lat="14.539544561731457" lon="120.99214386124765"><ele>9.0</ele><time>2026-04-09T03:22:09Z</time></trkpt><trkpt lat="14.53944547679516" lon="120.99215714873539"><ele>8.4</ele><time>2026-04-09T03:22:10Z</time></trkpt><trkpt lat="14.539346364841283" lon="120.99217108150542"><ele>7.800000000000001</ele><time>2026-04-09T03:22:11Z</time></trkpt><trkpt lat="14.539246223925824" lon="120.99218336164625"><ele>7.199999999999999</ele><time>2026-04-09T03:22:12Z</time></trkpt><trkpt lat="14.53914174362092" lon="120.99219727823196"><ele>6.6</ele><time>2026-04-09T03:22:13Z</time></trkpt><trkpt lat="14.539035505845979" lon="120.99221384543495"><ele>6.0</ele><time>2026-04-09T03:22:14Z</time></trkpt><trkpt lat="14.538928005770194" lon="120.99222671736958"><ele>6.0</ele><time>2026-04-09T03:22:15Z</time></trkpt><trkpt lat="14.53881863621425" lon="120.99223984720913"><ele>6.0</ele><time>2026-04-09T03:22:16Z</time></trkpt><trkpt lat="14.538709486419453" lon="120.99225231879403"><ele>6.0</ele><time>2026-04-09T03:22:17Z</time></trkpt><trkpt lat="14.53860125045973" lon="120.99226466130168"><ele>6.0</ele><time>2026-04-09T03:22:18Z</time></trkpt><trkpt lat="14.538492918345964" lon="120.99227723886007"><ele>6.0</ele><time>2026-04-09T03:22:19Z</time></trkpt><trkpt lat="14.538386531336325" lon="120.99229035513305"><ele>5.8</ele><time>2026-04-09T03:22:20Z</time></trkpt><trkpt lat="14.538280247699568" lon="120.99230359713789"><ele>5.6</ele><time>2026-04-09T03:22:21Z</time></trkpt><trkpt lat="14.538173341952746" lon="120.99231526406011"><ele>5.4</ele><time>2026-04-09T03:22:22Z</time></trkpt><trkpt lat="14.538066789183487" lon="120.99232740227332"><ele>5.2</ele><time>2026-04-09T03:22:23Z</time></trkpt><trkpt lat="14.537960456279812" lon="120.9923400021082"><ele>5.0</ele><time>2026-04-09T03:22:24Z</time></trkpt><trkpt lat="14.537855214743265" lon="120.99235280927017"><ele>5.0</ele><time>2026-04-09T03:22:25Z</time></trkpt><trkpt lat="14.53774895301471" lon="120.99236605542724"><ele>5.0</ele><time>2026-04-09T03:22:26Z</time></trkpt><trkpt lat="14.537644976219282" lon="120.99237732261265"><ele>5.0</ele><time>2026-04-09T03:22:27Z</time></trkpt><trkpt lat="14.537546590871107" lon="120.99238855963225"><ele>5.0</ele><time>2026-04-09T03:22:28Z</time></trkpt><trkpt lat="14.53745071835298" lon="120.99240008935801"><ele>5.0</ele><time>2026-04-09T03:22:29Z</time></trkpt><trkpt lat="14.537350912244131" lon="120.99241212784784"><ele>5.0</ele><time>2026-04-09T03:22:30Z</time></trkpt><trkpt lat="14.537249622304927" lon="120.99242273791522"><ele>5.0</ele><time>2026-04-09T03:22:31Z</time></trkpt><trkpt lat="14.537145740110331" lon="120.99243456067948"><ele>5.0</ele><time>2026-04-09T03:22:32Z</time></trkpt><trkpt lat="14.537041644936123" lon="120.99244603038942"><ele>5.0</ele><time>2026-04-09T03:22:33Z</time></trkpt><trkpt lat="14.53693560856601" lon="120.992458282212"><ele>5.0</ele><time>2026-04-09T03:22:34Z</time></trkpt><trkpt lat="14.536829102136549" lon="120.99247050692188"><ele>4.8</ele><time>2026-04-09T03:22:35Z</time></trkpt><trkpt lat="14.536722023007336" lon="120.99248355259869"><ele>4.6</ele><time>2026-04-09T03:22:36Z</time></trkpt><trkpt lat="14.536614081167018" lon="120.99249579918983"><ele>4.4</ele><time>2026-04-09T03:22:37Z</time></trkpt><trkpt lat="14.53650619069853" lon="120.99250898959556"><ele>4.2</ele><time>2026-04-09T03:22:38Z</time></trkpt><trkpt lat="14.536399735820906" lon="120.9925224504912"><ele>4.0</ele><time>2026-04-09T03:22:39Z</time></trkpt><trkpt lat="14.536292633267717" lon="120.99253591960368"><ele>5.25</ele><time>2026-04-09T03:22:40Z</time></trkpt><trkpt lat="14.536183822513346" lon="120.99254831700569"><ele>6.5</ele><time>2026-04-09T03:22:41Z</time></trkpt><trkpt lat="14.536073080498953" lon="120.99256023258918"><ele>7.75</ele><time>2026-04-09T03:22:42Z</time></trkpt><trkpt lat="14.535960908414463" lon="120.99257270022034"><ele>9.0</ele><time>2026-04-09T03:22:43Z</time></trkpt><trkpt lat="14.535845160361713" lon="120.99258707478688"><ele>9.0</ele><time>2026-04-09T03:22:44Z</time></trkpt><trkpt lat="14.535727103780458" lon="120.99259878517323"><ele>9.0</ele><time>2026-04-09T03:22:45Z</time></trkpt><trkpt lat="14.535608894139921" lon="120.99261299692785"><ele>9.0</ele><time>2026-04-09T03:22:46Z</time></trkpt><trkpt lat="14.535489779272087" lon="120.99262712457143"><ele>9.0</ele><time>2026-04-09T03:22:47Z</time></trkpt><trkpt lat="14.535371342178252" lon="120.9926402457059"><ele>9.0</ele><time>2026-04-09T03:22:48Z</time></trkpt><trkpt lat="14.535256685086242" lon="120.99265416014158"><ele>9.0</ele><time>2026-04-09T03:22:49Z</time></trkpt><trkpt lat="14.53515143685894" lon="120.99266704639143"><ele>9.0</ele><time>2026-04-09T03:22:50Z</time></trkpt><trkpt lat="14.535057863377256" lon="120.9926776018666"><ele>9.0</ele><time>2026-04-09T03:22:51Z</time></trkpt><trkpt lat="14.534971147166749" lon="120.99268535320503"><ele>9.0</ele><time>2026-04-09T03:22:52Z</time></trkpt><trkpt lat="14.534886940507159" lon="120.99269228684818"><ele>9.0</ele><time>2026-04-09T03:22:53Z</time></trkpt><trkpt lat="14.534803132377494" lon="120.9926984562331"><ele>9.0</ele><time>2026-04-09T03:22:54Z</time></trkpt><trkpt lat="14.534717103274172" lon="120.99270495658705"><ele>9.0</ele><time>2026-04-09T03:22:55Z</time></trkpt><trkpt lat="14.534626483081263" lon="120.99271357085875"><ele>9.0</ele><time>2026-04-09T03:22:56Z</time></trkpt><trkpt lat="14.534534037713584" lon="120.9927227592038"><ele>9.0</ele><time>2026-04-09T03:22:57Z</time></trkpt><trkpt lat="14.534436917346035" lon="120.99273369831441"><ele>8.6</ele><time>2026-04-09T03:22:58Z</time></trkpt><trkpt lat="14.534336378429213" lon="120.99274458603082"><ele>8.2</ele><time>2026-04-09T03:22:59Z</time></trkpt><trkpt lat="14.53423478784911" lon="120.99275537329812"><ele>7.799999999999999</ele><time>2026-04-09T03:23:00Z</time></trkpt><trkpt lat="14.534130489071467" lon="120.99276710955228"><ele>7.3999999999999995</ele><time>2026-04-09T03:23:01Z</time></trkpt><trkpt lat="14.53402460082397" lon="120.99277887973949"><ele>7.0</ele><time>2026-04-09T03:23:02Z</time></trkpt><trkpt lat="14.533916459319608" lon="120.99279095074901"><ele>7.0</ele><time>2026-04-09T03:23:03Z</time></trkpt><trkpt lat="14.533806540673357" lon="120.99280307954332"><ele>6.999999999999999</ele><time>2026-04-09T03:23:04Z</time></trkpt><trkpt lat="14.533697364752417" lon="120.99281420096473"><ele>6.999999999999999</ele><time>2026-04-09T03:23:05Z</time></trkpt><trkpt lat="14.533586542999434" lon="120.99282656018428"><ele>7.0</ele><time>2026-04-09T03:23:06Z</time></trkpt><trkpt lat="14.533475768528113" lon="120.99284009702886"><ele>7.0</ele><time>2026-04-09T03:23:07Z</time></trkpt><trkpt lat="14.53336812397033" lon="120.99285491807787"><ele>7.199999999999999</ele><time>2026-04-09T03:23:08Z</time></trkpt><trkpt lat="14.533259600924813" lon="120.9928703387734"><ele>7.3999999999999995</ele><time>2026-04-09T03:23:09Z</time></trkpt><trkpt lat="14.53315071332614" lon="120.99288391122369"><ele>7.6000000000000005</ele><time>2026-04-09T03:23:10Z</time></trkpt><trkpt lat="14.53304024240228" lon="120.99289807961745"><ele>7.800000000000001</ele><time>2026-04-09T03:23:11Z</time></trkpt><trkpt lat="14.53292813584461" lon="120.99291161651495"><ele>8.0</ele><time>2026-04-09T03:23:12Z</time></trkpt><trkpt lat="14.532814773370529" lon="120.99292593475252"><ele>8.0</ele><time>2026-04-09T03:23:13Z</time></trkpt><trkpt lat="14.532701235278056" lon="120.99294051158633"><ele>8.0</ele><time>2026-04-09T03:23:14Z</time></trkpt><trkpt lat="14.532584105595179" lon="120.99295457431501"><ele>8.0</ele><time>2026-04-09T03:23:15Z</time></trkpt><trkpt lat="14.532466824245207" lon="120.99296807528236"><ele>8.0</ele><time>2026-04-09T03:23:16Z</time></trkpt><trkpt lat="14.532351439496955" lon="120.99297415856763"><ele>8.0</ele><time>2026-04-09T03:23:17Z</time></trkpt><trkpt lat="14.532232368891956" lon="120.99299269070228"><ele>8.0</ele><time>2026-04-09T03:23:18Z</time></trkpt><trkpt lat="14.532113151880543" lon="120.99300801851234"><ele>8.0</ele><time>2026-04-09T03:23:19Z</time></trkpt><trkpt lat="14.531990220181651" lon="120.99302341179568"><ele>8.0</ele><time>2026-04-09T03:23:20Z</time></trkpt><trkpt lat="14.531866222320673" lon="120.99303893522888"><ele>7.5</ele><time>2026-04-09T03:23:21Z</time></trkpt><trkpt lat="14.531737903510823" lon="120.99305537445909"><ele>7.0</ele><time>2026-04-09T03:23:22Z</time></trkpt><trkpt lat="14.531608609783172" lon="120.99307357101549"><ele>6.5</ele><time>2026-04-09T03:23:23Z</time></trkpt><trkpt lat="14.531478216128587" lon="120.993091721419"><ele>6.0</ele><time>2026-04-09T03:23:24Z</time></trkpt><trkpt lat="14.531353428789929" lon="120.99310797734377"><ele>6.0</ele><time>2026-04-09T03:23:25Z</time></trkpt><trkpt lat="14.531229047910527" lon="120.99312272090214"><ele>6.0</ele><time>2026-04-09T03:23:26Z</time></trkpt><trkpt lat="14.531105504378957" lon="120.99313637821672"><ele>6.0</ele><time>2026-04-09T03:23:27Z</time></trkpt><trkpt lat="14.530980576860937" lon="120.99315217339812"><ele>6.0</ele><time>2026-04-09T03:23:28Z</time></trkpt><trkpt lat="14.530853528222869" lon="120.99316849414394"><ele>6.25</ele><time>2026-04-09T03:23:29Z</time></trkpt><trkpt lat="14.530727637132504" lon="120.99318400480892"><ele>6.5</ele><time>2026-04-09T03:23:30Z</time></trkpt><trkpt lat="14.53060051726499" lon="120.9932004493828"><ele>6.75</ele><time>2026-04-09T03:23:31Z</time></trkpt><trkpt lat="14.530472058565108" lon="120.99321699671454"><ele>7.0</ele><time>2026-04-09T03:23:32Z</time></trkpt><trkpt lat="14.5303448865926" lon="120.99322976154586"><ele>7.0</ele><time>2026-04-09T03:23:33Z</time></trkpt><trkpt lat="14.530219454106424" lon="120.9932424150803"><ele>7.0</ele><time>2026-04-09T03:23:34Z</time></trkpt><trkpt lat="14.530096768020302" lon="120.99325517007881"><ele>7.0</ele><time>2026-04-09T03:23:35Z</time></trkpt><trkpt lat="14.52997537324177" lon="120.99327009805134"><ele>7.0</ele><time>2026-04-09T03:23:36Z</time></trkpt><trkpt lat="14.529854658628027" lon="120.99328412753226"><ele>7.0</ele><time>2026-04-09T03:23:37Z</time></trkpt><trkpt lat="14.529735927357956" lon="120.9932990263922"><ele>7.0</ele><time>2026-04-09T03:23:38Z</time></trkpt><trkpt lat="14.529618096780968" lon="120.99331479652183"><ele>7.0</ele><time>2026-04-09T03:23:39Z</time></trkpt><trkpt lat="14.52950231670408" lon="120.9933279994753"><ele>7.0</ele><time>2026-04-09T03:23:40Z</time></trkpt><trkpt lat="14.529388240092048" lon="120.99333918407592"><ele>7.0</ele><time>2026-04-09T03:23:41Z</time></trkpt><trkpt lat="14.529278465047113" lon="120.99335006432953"><ele>6.999999999999999</ele><time>2026-04-09T03:23:42Z</time></trkpt><trkpt lat="14.529171403500406" lon="120.99336074469849"><ele>6.999999999999999</ele><time>2026-04-09T03:23:43Z</time></trkpt><trkpt lat="14.529067686191336" lon="120.99337196185475"><ele>7.0</ele><time>2026-04-09T03:23:44Z</time></trkpt><trkpt lat="14.528969651353144" lon="120.99338266798671"><ele>7.0</ele><time>2026-04-09T03:23:45Z</time></trkpt><trkpt lat="14.528876682652125" lon="120.99339215625984"><ele>7.000000000000001</ele><time>2026-04-09T03:23:46Z</time></trkpt><trkpt lat="14.528787472357521" lon="120.99340077839574"><ele>7.0</ele><time>2026-04-09T03:23:47Z</time></trkpt><trkpt lat="14.528702174596585" lon="120.99340911630222"><ele>7.0</ele><time>2026-04-09T03:23:48Z</time></trkpt><trkpt lat="14.528620415605804" lon="120.99341732175141"><ele>7.0</ele><time>2026-04-09T03:23:49Z</time></trkpt><trkpt lat="14.528543280150128" lon="120.99342484518985"><ele>7.000000000000001</ele><time>2026-04-09T03:23:50Z</time></trkpt><trkpt lat="14.528470157225778" lon="120.99343196506084"><ele>7.0</ele><time>2026-04-09T03:23:51Z</time></trkpt><trkpt lat="14.528400548664607" lon="120.99343931315468"><ele>7.333333333333334</ele><time>2026-04-09T03:23:52Z</time></trkpt><trkpt lat="14.52833168837202" lon="120.9934462411908"><ele>7.666666666666667</ele><time>2026-04-09T03:23:53Z</time></trkpt><trkpt lat="14.528265644919088" lon="120.99345378679533"><ele>8.0</ele><time>2026-04-09T03:23:54Z</time></trkpt><trkpt lat="14.528202379805506" lon="120.99346076667378"><ele>8.333333333333334</ele><time>2026-04-09T03:23:55Z</time></trkpt><trkpt lat="14.528094411040973" lon="120.9934719734832"><ele>8.666666666666666</ele><time>2026-04-09T03:23:57Z</time></trkpt><trkpt lat="14.528012537213653" lon="120.99348155336133"><ele>9.0</ele><time>2026-04-09T03:23:59Z</time></trkpt><trkpt lat="14.527942218732113" lon="120.99348716642825"><ele>9.2</ele><time>2026-04-09T03:24:02Z</time></trkpt><trkpt lat="14.52784689129992" lon="120.99349962104007"><ele>9.4</ele><time>2026-04-09T03:24:15Z</time></trkpt><trkpt lat="14.527753856208973" lon="120.99351054361398"><ele>9.6</ele><time>2026-04-09T03:24:17Z</time></trkpt><trkpt lat="14.527632364295513" lon="120.99352244557753"><ele>9.8</ele><time>2026-04-09T03:24:19Z</time></trkpt><trkpt lat="14.527561235424374" lon="120.99352973392331"><ele>10.0</ele><time>2026-04-09T03:24:20Z</time></trkpt><trkpt lat="14.527480722196819" lon="120.99353935572617"><ele>10.0</ele><time>2026-04-09T03:24:21Z</time></trkpt><trkpt lat="14.527394511231298" lon="120.99354771621489"><ele>10.0</ele><time>2026-04-09T03:24:22Z</time></trkpt><trkpt lat="14.527301852638615" lon="120.99355781487269"><ele>10.0</ele><time>2026-04-09T03:24:23Z</time></trkpt><trkpt lat="14.527204428807845" lon="120.99356873143401"><ele>10.0</ele><time>2026-04-09T03:24:24Z</time></trkpt><trkpt lat="14.527102313557432" lon="120.9935799349993"><ele>10.0</ele><time>2026-04-09T03:24:25Z</time></trkpt><trkpt lat="14.526995391197419" lon="120.99359061140505"><ele>9.25</ele><time>2026-04-09T03:24:26Z</time></trkpt><trkpt lat="14.526885054430801" lon="120.99359996884111"><ele>8.5</ele><time>2026-04-09T03:24:27Z</time></trkpt><trkpt lat="14.526771350874911" lon="120.99361020765677"><ele>7.75</ele><time>2026-04-09T03:24:28Z</time></trkpt><trkpt lat="14.526653628528955" lon="120.99361721953487"><ele>7.0</ele><time>2026-04-09T03:24:29Z</time></trkpt><trkpt lat="14.52653227112893" lon="120.99362394577756"><ele>7.0</ele><time>2026-04-09T03:24:30Z</time></trkpt><trkpt lat="14.52640897181829" lon="120.99362860688834"><ele>7.0</ele><time>2026-04-09T03:24:31Z</time></trkpt><trkpt lat="14.526278605859519" lon="120.99363106304462"><ele>7.0</ele><time>2026-04-09T03:24:32Z</time></trkpt><trkpt lat="14.526148286755776" lon="120.99363360948857"><ele>7.0</ele><time>2026-04-09T03:24:33Z</time></trkpt><trkpt lat="14.526014504848511" lon="120.99363412835042"><ele>9.0</ele><time>2026-04-09T03:24:34Z</time></trkpt><trkpt lat="14.525879208822705" lon="120.99363351585016"><ele>11.0</ele><time>2026-04-09T03:24:35Z</time></trkpt><trkpt lat="14.52574295928262" lon="120.99363330756611"><ele>13.0</ele><time>2026-04-09T03:24:36Z</time></trkpt><trkpt lat="14.525606582511607" lon="120.9936319176296"><ele>15.0</ele><time>2026-04-09T03:24:37Z</time></trkpt><trkpt lat="14.525471147265401" lon="120.9936325804673"><ele>13.5</ele><time>2026-04-09T03:24:38Z</time></trkpt><trkpt lat="14.525333610596594" lon="120.99363150932986"><ele>12.0</ele><time>2026-04-09T03:24:39Z</time></trkpt><trkpt lat="14.525194749606579" lon="120.99362933174346"><ele>10.5</ele><time>2026-04-09T03:24:40Z</time></trkpt><trkpt lat="14.525053158609026" lon="120.99362743715989"><ele>9.0</ele><time>2026-04-09T03:24:41Z</time></trkpt><trkpt lat="14.524912799896779" lon="120.99362611310013"><ele>9.0</ele><time>2026-04-09T03:24:42Z</time></trkpt><trkpt lat="14.524771491878981" lon="120.99362617392786"><ele>9.0</ele><time>2026-04-09T03:24:43Z</time></trkpt><trkpt lat="14.524629244119616" lon="120.99362470372854"><ele>9.0</ele><time>2026-04-09T03:24:44Z</time></trkpt><trkpt lat="14.52448573164657" lon="120.99362279484166"><ele>9.0</ele><time>2026-04-09T03:24:45Z</time></trkpt><trkpt lat="14.52434087485825" lon="120.99362011335496"><ele>8.75</ele><time>2026-04-09T03:24:46Z</time></trkpt><trkpt lat="14.524195877511787" lon="120.99361759699978"><ele>8.5</ele><time>2026-04-09T03:24:47Z</time></trkpt><trkpt lat="14.524051872101774" lon="120.9936145597652"><ele>8.25</ele><time>2026-04-09T03:24:48Z</time></trkpt><trkpt lat="14.523905192182823" lon="120.99361601870355"><ele>8.0</ele><time>2026-04-09T03:24:49Z</time></trkpt><trkpt lat="14.52375917001111" lon="120.99361458742759"><ele>8.0</ele><time>2026-04-09T03:24:50Z</time></trkpt><trkpt lat="14.52361317487333" lon="120.9936137895949"><ele>8.0</ele><time>2026-04-09T03:24:51Z</time></trkpt><trkpt lat="14.523468545678089" lon="120.99361262038927"><ele>8.0</ele><time>2026-04-09T03:24:52Z</time></trkpt><trkpt lat="14.523324922331144" lon="120.99361174330814"><ele>8.0</ele><time>2026-04-09T03:24:53Z</time></trkpt><trkpt lat="14.523182000955247" lon="120.99361130947467"><ele>8.0</ele><time>2026-04-09T03:24:54Z</time></trkpt><trkpt lat="14.523040380887819" lon="120.99360950353135"><ele>8.0</ele><time>2026-04-09T03:24:55Z</time></trkpt><trkpt lat="14.522899778395605" lon="120.99360769929247"><ele>8.0</ele><time>2026-04-09T03:24:56Z</time></trkpt><trkpt lat="14.522758715934675" lon="120.99360725738569"><ele>8.0</ele><time>2026-04-09T03:24:57Z</time></trkpt><trkpt lat="14.522617855112394" lon="120.99360677043545"><ele>7.25</ele><time>2026-04-09T03:24:58Z</time></trkpt><trkpt lat="14.522476037185795" lon="120.99360327532187"><ele>6.5</ele><time>2026-04-09T03:24:59Z</time></trkpt><trkpt lat="14.522335679689608" lon="120.9936015381527"><ele>5.75</ele><time>2026-04-09T03:25:00Z</time></trkpt><trkpt lat="14.522195930438203" lon="120.99359861128848"><ele>5.0</ele><time>2026-04-09T03:25:01Z</time></trkpt><trkpt lat="14.52205759887258" lon="120.99359474251794"><ele>5.0</ele><time>2026-04-09T03:25:02Z</time></trkpt><trkpt lat="14.521919429868593" lon="120.9935884270963"><ele>5.0</ele><time>2026-04-09T03:25:03Z</time></trkpt><trkpt lat="14.521778963954553" lon="120.99357972711216"><ele>5.0</ele><time>2026-04-09T03:25:04Z</time></trkpt><trkpt lat="14.521637573403861" lon="120.99357038140288"><ele>5.0</ele><time>2026-04-09T03:25:05Z</time></trkpt><trkpt lat="14.521495966527983" lon="120.99356002564821"><ele>5.0</ele><time>2026-04-09T03:25:06Z</time></trkpt><trkpt lat="14.521354106830822" lon="120.99354955020588"><ele>5.0</ele><time>2026-04-09T03:25:07Z</time></trkpt><trkpt lat="14.521210869553727" lon="120.99353840797089"><ele>5.0</ele><time>2026-04-09T03:25:08Z</time></trkpt><trkpt lat="14.521067992182036" lon="120.99352691142545"><ele>5.0</ele><time>2026-04-09T03:25:09Z</time></trkpt><trkpt lat="14.520923950142361" lon="120.99351710989865"><ele>5.0</ele><time>2026-04-09T03:25:10Z</time></trkpt><trkpt lat="14.520781692976232" lon="120.99350805949953"><ele>5.0</ele><time>2026-04-09T03:25:11Z</time></trkpt><trkpt lat="14.52064130462806" lon="120.99349810682918"><ele>5.0</ele><time>2026-04-09T03:25:12Z</time></trkpt><trkpt lat="14.520501021270483" lon="120.99348878601641"><ele>5.0</ele><time>2026-04-09T03:25:13Z</time></trkpt><trkpt lat="14.520362041760604" lon="120.9934815288726"><ele>5.75</ele><time>2026-04-09T03:25:14Z</time></trkpt><trkpt lat="14.520223564281245" lon="120.99347526748079"><ele>6.5</ele><time>2026-04-09T03:25:15Z</time></trkpt><trkpt lat="14.52008635699579" lon="120.99346867470237"><ele>7.25</ele><time>2026-04-09T03:25:16Z</time></trkpt><trkpt lat="14.519949094531281" lon="120.9934614715401"><ele>8.0</ele><time>2026-04-09T03:25:17Z</time></trkpt><trkpt lat="14.51981529734875" lon="120.99345225912762"><ele>8.0</ele><time>2026-04-09T03:25:18Z</time></trkpt><trkpt lat="14.519682247132524" lon="120.99344375887071"><ele>8.0</ele><time>2026-04-09T03:25:19Z</time></trkpt><trkpt lat="14.519551668123906" lon="120.99343378928339"><ele>8.0</ele><time>2026-04-09T03:25:20Z</time></trkpt><trkpt lat="14.51942046209674" lon="120.99342334150988"><ele>8.0</ele><time>2026-04-09T03:25:21Z</time></trkpt><trkpt lat="14.51929410957182" lon="120.99341493578116"><ele>12.75</ele><time>2026-04-09T03:25:22Z</time></trkpt><trkpt lat="14.519166661800591" lon="120.9934081246134"><ele>17.5</ele><time>2026-04-09T03:25:23Z</time></trkpt><trkpt lat="14.519044200085398" lon="120.99339919382818"><ele>22.25</ele><time>2026-04-09T03:25:24Z</time></trkpt><trkpt lat="14.518923654289775" lon="120.99339033440403"><ele>27.0</ele><time>2026-04-09T03:25:25Z</time></trkpt><trkpt lat="14.518807445760453" lon="120.99337953095664"><ele>25.8</ele><time>2026-04-09T03:25:26Z</time></trkpt><trkpt lat="14.51869699211678" lon="120.99336865897807"><ele>24.6</ele><time>2026-04-09T03:25:27Z</time></trkpt><trkpt lat="14.518592736476238" lon="120.99335758894705"><ele>23.400000000000002</ele><time>2026-04-09T03:25:28Z</time></trkpt><trkpt lat="14.518499399931219" lon="120.99334463053171"><ele>22.200000000000003</ele><time>2026-04-09T03:25:29Z</time></trkpt><trkpt lat="14.518413176989087" lon="120.99333491779247"><ele>21.0</ele><time>2026-04-09T03:25:30Z</time></trkpt><trkpt lat="14.518338402822026" lon="120.99332433791709"><ele>19.0</ele><time>2026-04-09T03:25:31Z</time></trkpt><trkpt lat="14.518272106024753" lon="120.99331436726209"><ele>17.0</ele><time>2026-04-09T03:25:32Z</time></trkpt><trkpt lat="14.518169660243458" lon="120.99329762457037"><ele>15.0</ele><time>2026-04-09T03:25:34Z</time></trkpt><trkpt lat="14.518095607484893" lon="120.99328533575107"><ele>13.0</ele><time>2026-04-09T03:25:36Z</time></trkpt><trkpt lat="14.51803226779005" lon="120.993272357243"><ele>11.0</ele><time>2026-04-09T03:25:41Z</time></trkpt><trkpt lat="14.517960844661626" lon="120.99326959563683"><ele>9.0</ele><time>2026-04-09T03:26:00Z</time></trkpt><trkpt lat="14.517871889443587" lon="120.99325366746581"><ele>8.5</ele><time>2026-04-09T03:26:03Z</time></trkpt><trkpt lat="14.517797611260882" lon="120.99324137172651"><ele>8.0</ele><time>2026-04-09T03:26:05Z</time></trkpt><trkpt lat="14.517722531089788" lon="120.99322883115317"><ele>7.5</ele><time>2026-04-09T03:26:07Z</time></trkpt><trkpt lat="14.517653540739712" lon="120.99321739541071"><ele>7.0</ele><time>2026-04-09T03:26:09Z</time></trkpt><trkpt lat="14.517588844690913" lon="120.99321926853109"><ele>6.5</ele><time>2026-04-09T03:26:11Z</time></trkpt><trkpt lat="14.51750359448955" lon="120.99320514431862"><ele>6.0</ele><time>2026-04-09T03:26:14Z</time></trkpt><trkpt lat="14.517421143030806" lon="120.99331339311674"><ele>6.5</ele><time>2026-04-09T03:26:17Z</time></trkpt><trkpt lat="14.517388124215596" lon="120.99337271897673"><ele>7.0</ele><time>2026-04-09T03:26:19Z</time></trkpt><trkpt lat="14.517368946445357" lon="120.99344039311492"><ele>7.5</ele><time>2026-04-09T03:26:21Z</time></trkpt><trkpt lat="14.517354719672923" lon="120.99352152171767"><ele>8.0</ele><time>2026-04-09T03:26:23Z</time></trkpt><trkpt lat="14.517344672938156" lon="120.9936316955446"><ele>8.5</ele><time>2026-04-09T03:26:25Z</time></trkpt><trkpt lat="14.517327936760685" lon="120.99375351729688"><ele>9.0</ele><time>2026-04-09T03:26:27Z</time></trkpt><trkpt lat="14.51733779813566" lon="120.99382166766415"><ele>9.0</ele><time>2026-04-09T03:26:28Z</time></trkpt><trkpt lat="14.517334049131135" lon="120.99395208965363"><ele>9.0</ele><time>2026-04-09T03:26:30Z</time></trkpt><trkpt lat="14.517328124603774" lon="120.99402059410649"><ele>9.0</ele><time>2026-04-09T03:26:31Z</time></trkpt><trkpt lat="14.517320060983158" lon="120.9940875108465"><ele>9.0</ele><time>2026-04-09T03:26:32Z</time></trkpt><trkpt lat="14.517302942232162" lon="120.99415213585512"><ele>9.0</ele><time>2026-04-09T03:26:33Z</time></trkpt><trkpt lat="14.517288168432216" lon="120.99422544047246"><ele>9.0</ele><time>2026-04-09T03:26:34Z</time></trkpt><trkpt lat="14.517272767230084" lon="120.99432375982998"><ele>8.8</ele><time>2026-04-09T03:26:35Z</time></trkpt><trkpt lat="14.517258530807835" lon="120.99442429760643"><ele>8.600000000000001</ele><time>2026-04-09T03:26:36Z</time></trkpt><trkpt lat="14.51724403375467" lon="120.99451455944121"><ele>8.4</ele><time>2026-04-09T03:26:37Z</time></trkpt><trkpt lat="14.517230938964286" lon="120.99460682282357"><ele>8.200000000000001</ele><time>2026-04-09T03:26:38Z</time></trkpt><trkpt lat="14.517219286725446" lon="120.99469717976963"><ele>8.0</ele><time>2026-04-09T03:26:39Z</time></trkpt><trkpt lat="14.517207243473273" lon="120.99479128259607"><ele>7.999999999999999</ele><time>2026-04-09T03:26:40Z</time></trkpt><trkpt lat="14.517192894967781" lon="120.99486735072415"><ele>8.0</ele><time>2026-04-09T03:26:41Z</time></trkpt><trkpt lat="14.517177562313316" lon="120.9949588901155"><ele>8.0</ele><time>2026-04-09T03:26:42Z</time></trkpt><trkpt lat="14.517163412941326" lon="120.99503779978633"><ele>8.0</ele><time>2026-04-09T03:26:43Z</time></trkpt><trkpt lat="14.517147227467744" lon="120.99514011336744"><ele>7.999999999999999</ele><time>2026-04-09T03:26:44Z</time></trkpt><trkpt lat="14.517132665660263" lon="120.99523379542646"><ele>8.0</ele><time>2026-04-09T03:26:45Z</time></trkpt><trkpt lat="14.517117157305684" lon="120.99533178392456"><ele>7.75</ele><time>2026-04-09T03:26:46Z</time></trkpt><trkpt lat="14.517124915335806" lon="120.99547287214322"><ele>7.5</ele><time>2026-04-09T03:26:47Z</time></trkpt><trkpt lat="14.517118285774702" lon="120.99557596436435"><ele>7.25</ele><time>2026-04-09T03:26:48Z</time></trkpt><trkpt lat="14.51710618117074" lon="120.99568721262222"><ele>7.0</ele><time>2026-04-09T03:26:49Z</time></trkpt><trkpt lat="14.517094143442492" lon="120.99579650937754"><ele>7.000000000000001</ele><time>2026-04-09T03:26:50Z</time></trkpt><trkpt lat="14.517082669025426" lon="120.99589393514229"><ele>7.0</ele><time>2026-04-09T03:26:51Z</time></trkpt><trkpt lat="14.517064076953861" lon="120.99599487020407"><ele>7.0</ele><time>2026-04-09T03:26:52Z</time></trkpt><trkpt lat="14.517049654950561" lon="120.9960817807898"><ele>7.0</ele><time>2026-04-09T03:26:53Z</time></trkpt><trkpt lat="14.517035689779012" lon="120.99616430458588"><ele>7.000000000000001</ele><time>2026-04-09T03:26:54Z</time></trkpt><trkpt lat="14.517021264177806" lon="120.99624649154208"><ele>7.0</ele><time>2026-04-09T03:26:55Z</time></trkpt><trkpt lat="14.517005237224781" lon="120.99632552905652"><ele>7.000000000000001</ele><time>2026-04-09T03:26:56Z</time></trkpt><trkpt lat="14.516988331677174" lon="120.9964000052536"><ele>7.0</ele><time>2026-04-09T03:26:57Z</time></trkpt><trkpt lat="14.516972357208727" lon="120.99647601248618"><ele>7.0</ele><time>2026-04-09T03:26:58Z</time></trkpt><trkpt lat="14.516956196350373" lon="120.99654872885567"><ele>7.0</ele><time>2026-04-09T03:26:59Z</time></trkpt><trkpt lat="14.516944301800695" lon="120.99661261029442"><ele>7.000000000000001</ele><time>2026-04-09T03:27:00Z</time></trkpt><trkpt lat="14.516965138093152" lon="120.99667445072456"><ele>7.0</ele><time>2026-04-09T03:27:01Z</time></trkpt><trkpt lat="14.516959160427625" lon="120.996792262449"><ele>6.25</ele><time>2026-04-09T03:27:03Z</time></trkpt><trkpt lat="14.516941041289092" lon="120.99692415746189"><ele>5.5</ele><time>2026-04-09T03:27:05Z</time></trkpt><trkpt lat="14.516930626095364" lon="120.99704986258804"><ele>4.75</ele><time>2026-04-09T03:27:07Z</time></trkpt><trkpt lat="14.516924831831352" lon="120.99716285054241"><ele>4.0</ele><time>2026-04-09T03:27:09Z</time></trkpt><trkpt lat="14.516916893121682" lon="120.99727850953249"><ele>4.0</ele><time>2026-04-09T03:27:11Z</time></trkpt><trkpt lat="14.516907509518655" lon="120.99739706377484"><ele>4.0</ele><time>2026-04-09T03:27:13Z</time></trkpt><trkpt lat="14.516904657253741" lon="120.99751011542051"><ele>4.0</ele><time>2026-04-09T03:27:15Z</time></trkpt><trkpt lat="14.516902087624157" lon="120.9976472477786"><ele>4.0</ele><time>2026-04-09T03:27:17Z</time></trkpt><trkpt lat="14.516900516135742" lon="120.99771816898586"><ele>4.0</ele><time>2026-04-09T03:27:18Z</time></trkpt><trkpt lat="14.516898285368875" lon="120.99779693668894"><ele>4.166666666666666</ele><time>2026-04-09T03:27:19Z</time></trkpt><trkpt lat="14.516896345190558" lon="120.99788797665727"><ele>4.333333333333333</ele><time>2026-04-09T03:27:20Z</time></trkpt><trkpt lat="14.51689157199842" lon="120.99799045232896"><ele>4.5</ele><time>2026-04-09T03:27:21Z</time></trkpt><trkpt lat="14.516891701587337" lon="120.99807805543472"><ele>4.666666666666667</ele><time>2026-04-09T03:27:22Z</time></trkpt><trkpt lat="14.516890182191514" lon="120.99815950128796"><ele>4.833333333333334</ele><time>2026-04-09T03:27:23Z</time></trkpt><trkpt lat="14.516888349891563" lon="120.9982393757309"><ele>5.0</ele><time>2026-04-09T03:27:24Z</time></trkpt><trkpt lat="14.51688610159752" lon="120.99831933944915"><ele>5.2</ele><time>2026-04-09T03:27:25Z</time></trkpt><trkpt lat="14.516884134716186" lon="120.99839625472335"><ele>5.4</ele><time>2026-04-09T03:27:26Z</time></trkpt><trkpt lat="14.51688189320127" lon="120.99846472774614"><ele>5.6</ele><time>2026-04-09T03:27:27Z</time></trkpt><trkpt lat="14.516882552792254" lon="120.99859048081967"><ele>5.8</ele><time>2026-04-09T03:27:29Z</time></trkpt><trkpt lat="14.516889001758189" lon="120.99869928050363"><ele>6.0</ele><time>2026-04-09T03:27:31Z</time></trkpt><trkpt lat="14.516886290055789" lon="120.99878992713559"><ele>6.0</ele><time>2026-04-09T03:27:33Z</time></trkpt><trkpt lat="14.516884808972659" lon="120.9988789196431"><ele>6.0</ele><time>2026-04-09T03:27:35Z</time></trkpt><trkpt lat="14.516878794589674" lon="120.9989782517167"><ele>6.0</ele><time>2026-04-09T03:27:37Z</time></trkpt><trkpt lat="14.51687272153753" lon="120.99908170161379"><ele>6.0</ele><time>2026-04-09T03:27:39Z</time></trkpt><trkpt lat="14.516874222624022" lon="120.99918125663628"><ele>6.0</ele><time>2026-04-09T03:27:41Z</time></trkpt><trkpt lat="14.516886247938164" lon="120.99926748762074"><ele>5.833333333333333</ele><time>2026-04-09T03:27:43Z</time></trkpt><trkpt lat="14.516896104632684" lon="120.99933973167282"><ele>5.666666666666667</ele><time>2026-04-09T03:27:45Z</time></trkpt><trkpt lat="14.516924354952447" lon="120.9994071911721"><ele>5.5</ele><time>2026-04-09T03:27:48Z</time></trkpt><trkpt lat="14.516920379123645" lon="120.99952810373895"><ele>5.333333333333334</ele><time>2026-04-09T03:27:55Z</time></trkpt><trkpt lat="14.516881168924177" lon="120.99962737489079"><ele>5.166666666666667</ele><time>2026-04-09T03:27:57Z</time></trkpt><trkpt lat="14.516894104044763" lon="120.99971538079375"><ele>5.0</ele><time>2026-04-09T03:27:59Z</time></trkpt><trkpt lat="14.51687727690721" lon="120.99984084109187"><ele>5.0</ele><time>2026-04-09T03:28:01Z</time></trkpt><trkpt lat="14.516862296383904" lon="120.99991508321325"><ele>5.0</ele><time>2026-04-09T03:28:02Z</time></trkpt><trkpt lat="14.51685057151826" lon="120.99999444498141"><ele>5.0</ele><time>2026-04-09T03:28:03Z</time></trkpt><trkpt lat="14.516847435510444" lon="121.00007331950948"><ele>5.0</ele><time>2026-04-09T03:28:04Z</time></trkpt><trkpt lat="14.516846170306522" lon="121.00014844040729"><ele>5.0</ele><time>2026-04-09T03:28:05Z</time></trkpt><trkpt lat="14.51684785131531" lon="121.00022733506445"><ele>5.0</ele><time>2026-04-09T03:28:06Z</time></trkpt><trkpt lat="14.516841017367517" lon="121.00030577445725"><ele>5.0</ele><time>2026-04-09T03:28:07Z</time></trkpt><trkpt lat="14.516833668217119" lon="121.000378770563"><ele>5.0</ele><time>2026-04-09T03:28:08Z</time></trkpt><trkpt lat="14.516827352048958" lon="121.00045513753204"><ele>5.0</ele><time>2026-04-09T03:28:09Z</time></trkpt><trkpt lat="14.516815293082098" lon="121.00052978950968"><ele>5.0</ele><time>2026-04-09T03:28:10Z</time></trkpt><trkpt lat="14.516803460746454" lon="121.00060393189237"><ele>5.0</ele><time>2026-04-09T03:28:11Z</time></trkpt><trkpt lat="14.516792204893338" lon="121.00068333972406"><ele>5.0</ele><time>2026-04-09T03:28:12Z</time></trkpt><trkpt lat="14.516776662641606" lon="121.0007694590856"><ele>5.2</ele><time>2026-04-09T03:28:13Z</time></trkpt><trkpt lat="14.516759545192386" lon="121.00085476903102"><ele>5.4</ele><time>2026-04-09T03:28:14Z</time></trkpt><trkpt lat="14.516739221569344" lon="121.0009447133397"><ele>5.6</ele><time>2026-04-09T03:28:15Z</time></trkpt><trkpt lat="14.516715502833234" lon="121.00103639849979"><ele>5.8</ele><time>2026-04-09T03:28:16Z</time></trkpt><trkpt lat="14.516687879713425" lon="121.00112690137458"><ele>6.0</ele><time>2026-04-09T03:28:17Z</time></trkpt><trkpt lat="14.516657904920455" lon="121.00121992461635"><ele>6.0</ele><time>2026-04-09T03:28:18Z</time></trkpt><trkpt lat="14.516624153166653" lon="121.00131525732304"><ele>6.0</ele><time>2026-04-09T03:28:19Z</time></trkpt><trkpt lat="14.516587754112269" lon="121.00141237838173"><ele>6.0</ele><time>2026-04-09T03:28:20Z</time></trkpt><trkpt lat="14.516545927398608" lon="121.00150722578323"><ele>6.0</ele><time>2026-04-09T03:28:21Z</time></trkpt><trkpt lat="14.516503696805229" lon="121.00160148187287"><ele>6.0</ele><time>2026-04-09T03:28:22Z</time></trkpt><trkpt lat="14.51646126440768" lon="121.00169430548007"><ele>6.199999999999999</ele><time>2026-04-09T03:28:23Z</time></trkpt><trkpt lat="14.516419383041008" lon="121.00178650562732"><ele>6.3999999999999995</ele><time>2026-04-09T03:28:24Z</time></trkpt><trkpt lat="14.516378082306803" lon="121.00187892277931"><ele>6.6</ele><time>2026-04-09T03:28:25Z</time></trkpt><trkpt lat="14.516339299282642" lon="121.00196550821754"><ele>6.8</ele><time>2026-04-09T03:28:26Z</time></trkpt><trkpt lat="14.516297809657914" lon="121.00204970921229"><ele>7.0</ele><time>2026-04-09T03:28:27Z</time></trkpt><trkpt lat="14.51625793693005" lon="121.00213209746147"><ele>7.000000000000001</ele><time>2026-04-09T03:28:28Z</time></trkpt><trkpt lat="14.516216113112161" lon="121.00221416262437"><ele>7.0</ele><time>2026-04-09T03:28:29Z</time></trkpt><trkpt lat="14.51617841942913" lon="121.00228974557255"><ele>7.0</ele><time>2026-04-09T03:28:30Z</time></trkpt><trkpt lat="14.516141123229566" lon="121.00236857024814"><ele>7.0</ele><time>2026-04-09T03:28:31Z</time></trkpt><trkpt lat="14.516104666593524" lon="121.00244496243381"><ele>7.000000000000001</ele><time>2026-04-09T03:28:32Z</time></trkpt><trkpt lat="14.516066263157855" lon="121.00252280421718"><ele>7.0</ele><time>2026-04-09T03:28:33Z</time></trkpt><trkpt lat="14.516028471708479" lon="121.0026000306194"><ele>6.8</ele><time>2026-04-09T03:28:34Z</time></trkpt><trkpt lat="14.515992895028841" lon="121.00267205030002"><ele>6.6</ele><time>2026-04-09T03:28:35Z</time></trkpt><trkpt lat="14.515958463957787" lon="121.00274264647797"><ele>6.3999999999999995</ele><time>2026-04-09T03:28:36Z</time></trkpt><trkpt lat="14.51592592807536" lon="121.00280731207927"><ele>6.199999999999999</ele><time>2026-04-09T03:28:37Z</time></trkpt><trkpt lat="14.515868384692078" lon="121.00292400760141"><ele>6.0</ele><time>2026-04-09T03:28:39Z</time></trkpt><trkpt lat="14.515813359253638" lon="121.00303275757635"><ele>6.0</ele><time>2026-04-09T03:28:41Z</time></trkpt><trkpt lat="14.51576456199265" lon="121.00313744851695"><ele>6.0</ele><time>2026-04-09T03:28:43Z</time></trkpt><trkpt lat="14.515720016759088" lon="121.00324090764063"><ele>6.0</ele><time>2026-04-09T03:28:45Z</time></trkpt><trkpt lat="14.515669461917144" lon="121.00333940840383"><ele>6.0</ele><time>2026-04-09T03:28:47Z</time></trkpt><trkpt lat="14.5156147463192" lon="121.00343848693983"><ele>6.0</ele><time>2026-04-09T03:28:49Z</time></trkpt><trkpt lat="14.515546834755147" lon="121.00353999334219"><ele>6.4</ele><time>2026-04-09T03:28:51Z</time></trkpt><trkpt lat="14.515461595167269" lon="121.0036367717001"><ele>6.8</ele><time>2026-04-09T03:28:53Z</time></trkpt><trkpt lat="14.515414897905" lon="121.00368127085416"><ele>7.200000000000001</ele><time>2026-04-09T03:28:54Z</time></trkpt><trkpt lat="14.51532232557564" lon="121.0037625448905"><ele>7.6000000000000005</ele><time>2026-04-09T03:28:56Z</time></trkpt><trkpt lat="14.515221751470191" lon="121.00382988196095"><ele>8.0</ele><time>2026-04-09T03:28:58Z</time></trkpt><trkpt lat="14.515113289431719" lon="121.00387255024867"><ele>8.142857142857142</ele><time>2026-04-09T03:29:00Z</time></trkpt><trkpt lat="14.515050749723608" lon="121.00388545282924"><ele>8.285714285714285</ele><time>2026-04-09T03:29:01Z</time></trkpt><trkpt lat="14.514983061474954" lon="121.00389135282997"><ele>8.428571428571429</ele><time>2026-04-09T03:29:02Z</time></trkpt><trkpt lat="14.514915411447522" lon="121.00388955085455"><ele>8.571428571428571</ele><time>2026-04-09T03:29:03Z</time></trkpt><trkpt lat="14.514846430754067" lon="121.00388469579488"><ele>8.714285714285715</ele><time>2026-04-09T03:29:04Z</time></trkpt><trkpt lat="14.514778248090733" lon="121.00387268037535"><ele>8.857142857142858</ele><time>2026-04-09T03:29:05Z</time></trkpt><trkpt lat="14.514711736561487" lon="121.00385770745588"><ele>9.0</ele><time>2026-04-09T03:29:06Z</time></trkpt><trkpt lat="14.514649327375924" lon="121.00383865026447"><ele>9.75</ele><time>2026-04-09T03:29:07Z</time></trkpt><trkpt lat="14.51453663440054" lon="121.00380447090858"><ele>10.5</ele><time>2026-04-09T03:29:09Z</time></trkpt><trkpt lat="14.514434275760518" lon="121.00376974045933"><ele>11.25</ele><time>2026-04-09T03:29:11Z</time></trkpt><trkpt lat="14.514333883894913" lon="121.00373222848937"><ele>12.0</ele><time>2026-04-09T03:29:13Z</time></trkpt><trkpt lat="14.51422176183871" lon="121.00368896309492"><ele>11.999999999999998</ele><time>2026-04-09T03:29:15Z</time></trkpt><trkpt lat="14.514160369307865" lon="121.00366653182833"><ele>12.0</ele><time>2026-04-09T03:29:16Z</time></trkpt><trkpt lat="14.514097737083437" lon="121.0036420484266"><ele>12.0</ele><time>2026-04-09T03:29:17Z</time></trkpt><trkpt lat="14.514033678482603" lon="121.00361882524393"><ele>12.0</ele><time>2026-04-09T03:29:18Z</time></trkpt><trkpt lat="14.513970483300543" lon="121.00359591017083"><ele>12.0</ele><time>2026-04-09T03:29:19Z</time></trkpt><trkpt lat="14.513907979745456" lon="121.00357376521389"><ele>11.999999999999998</ele><time>2026-04-09T03:29:20Z</time></trkpt><trkpt lat="14.513845510889144" lon="121.00355583340634"><ele>12.0</ele><time>2026-04-09T03:29:21Z</time></trkpt><trkpt lat="14.51378386004961" lon="121.00353648429305"><ele>11.2</ele><time>2026-04-09T03:29:22Z</time></trkpt><trkpt lat="14.513667208802632" lon="121.00349850453443"><ele>10.399999999999999</ele><time>2026-04-09T03:29:24Z</time></trkpt><trkpt lat="14.513557720134967" lon="121.00345935071103"><ele>9.600000000000001</ele><time>2026-04-09T03:29:26Z</time></trkpt><trkpt lat="14.513458271001086" lon="121.00342265084902"><ele>8.8</ele><time>2026-04-09T03:29:28Z</time></trkpt><trkpt lat="14.51337824319485" lon="121.00339183473024"><ele>8.0</ele><time>2026-04-09T03:29:30Z</time></trkpt><trkpt lat="14.513311218326493" lon="121.00336692657136"><ele>8.0</ele><time>2026-04-09T03:29:34Z</time></trkpt><trkpt lat="14.513246510706237" lon="121.00334142515112"><ele>7.999999999999999</ele><time>2026-04-09T03:29:45Z</time></trkpt><trkpt lat="14.51318316226803" lon="121.00332220384797"><ele>8.0</ele><time>2026-04-09T03:29:49Z</time></trkpt><trkpt lat="14.513120378175088" lon="121.00330331649405"><ele>8.0</ele><time>2026-04-09T03:29:52Z</time></trkpt><trkpt lat="14.513036135135406" lon="121.00327513507912"><ele>7.999999999999999</ele><time>2026-04-09T03:29:55Z</time></trkpt><trkpt lat="14.512961983548946" lon="121.0032512635141"><ele>8.0</ele><time>2026-04-09T03:29:57Z</time></trkpt><trkpt lat="14.512884278665217" lon="121.00322619555972"><ele>8.0</ele><time>2026-04-09T03:29:59Z</time></trkpt><trkpt lat="14.512811094562435" lon="121.00320312197371"><ele>7.999999999999999</ele><time>2026-04-09T03:30:02Z</time></trkpt><trkpt lat="14.512741774215137" lon="121.00318237776902"><ele>8.0</ele><time>2026-04-09T03:30:05Z</time></trkpt><trkpt lat="14.51265772228818" lon="121.0031555867393"><ele>8.0</ele><time>2026-04-09T03:30:08Z</time></trkpt><trkpt lat="14.512596695482385" lon="121.0031353829618"><ele>8.0</ele><time>2026-04-09T03:30:10Z</time></trkpt><trkpt lat="14.512513266060159" lon="121.00310370934432"><ele>7.999999999999999</ele><time>2026-04-09T03:30:12Z</time></trkpt><trkpt lat="14.512414544300336" lon="121.00306891255498"><ele>8.0</ele><time>2026-04-09T03:30:14Z</time></trkpt><trkpt lat="14.512300197424803" lon="121.0030229168431"><ele>7.999999999999999</ele><time>2026-04-09T03:30:16Z</time></trkpt><trkpt lat="14.512231161450503" lon="121.00299484069545"><ele>8.0</ele><time>2026-04-09T03:30:17Z</time></trkpt><trkpt lat="14.512155118996676" lon="121.00296648551644"><ele>8.0</ele><time>2026-04-09T03:30:18Z</time></trkpt><trkpt lat="14.512072661235894" lon="121.00293611888938"><ele>8.0</ele><time>2026-04-09T03:30:19Z</time></trkpt><trkpt lat="14.511985278408897" lon="121.0029028036246"><ele>7.999999999999999</ele><time>2026-04-09T03:30:20Z</time></trkpt><trkpt lat="14.511893105687522" lon="121.00286857455797"><ele>8.0</ele><time>2026-04-09T03:30:21Z</time></trkpt><trkpt lat="14.51179821947656" lon="121.00283259570762"><ele>7.6000000000000005</ele><time>2026-04-09T03:30:22Z</time></trkpt><trkpt lat="14.511699557467791" lon="121.00279608526296"><ele>7.200000000000001</ele><time>2026-04-09T03:30:23Z</time></trkpt><trkpt lat="14.511600553055128" lon="121.00275956838573"><ele>6.8</ele><time>2026-04-09T03:30:24Z</time></trkpt><trkpt lat="14.51149910513049" lon="121.0027233230276"><ele>6.4</ele><time>2026-04-09T03:30:25Z</time></trkpt><trkpt lat="14.511394046685108" lon="121.00268498515946"><ele>6.0</ele><time>2026-04-09T03:30:26Z</time></trkpt><trkpt lat="14.511287704149305" lon="121.00264738372276"><ele>6.0</ele><time>2026-04-09T03:30:27Z</time></trkpt><trkpt lat="14.511181925855901" lon="121.00260858087736"><ele>6.0</ele><time>2026-04-09T03:30:28Z</time></trkpt><trkpt lat="14.51107558914392" lon="121.00256941741058"><ele>6.0</ele><time>2026-04-09T03:30:29Z</time></trkpt><trkpt lat="14.510967791943429" lon="121.00253013556467"><ele>6.0</ele><time>2026-04-09T03:30:30Z</time></trkpt><trkpt lat="14.510859389374952" lon="121.00249116889145"><ele>6.0</ele><time>2026-04-09T03:30:31Z</time></trkpt><trkpt lat="14.510750743125595" lon="121.00245197852529"><ele>6.0</ele><time>2026-04-09T03:30:32Z</time></trkpt><trkpt lat="14.51064299301609" lon="121.00241341610841"><ele>6.0</ele><time>2026-04-09T03:30:33Z</time></trkpt><trkpt lat="14.510537861717452" lon="121.00237500675235"><ele>6.0</ele><time>2026-04-09T03:30:34Z</time></trkpt><trkpt lat="14.510434284194252" lon="121.00234030077455"><ele>6.0</ele><time>2026-04-09T03:30:35Z</time></trkpt><trkpt lat="14.51032616576876" lon="121.00230864294167"><ele>5.8</ele><time>2026-04-09T03:30:36Z</time></trkpt><trkpt lat="14.51022203778257" lon="121.00228220766004"><ele>5.6</ele><time>2026-04-09T03:30:37Z</time></trkpt><trkpt lat="14.51011789147191" lon="121.00225708622672"><ele>5.4</ele><time>2026-04-09T03:30:38Z</time></trkpt><trkpt lat="14.510015373979453" lon="121.00223566397246"><ele>5.2</ele><time>2026-04-09T03:30:39Z</time></trkpt><trkpt lat="14.50991945915806" lon="121.00221511565508"><ele>5.0</ele><time>2026-04-09T03:30:40Z</time></trkpt><trkpt lat="14.509829286421626" lon="121.0021916689899"><ele>5.0</ele><time>2026-04-09T03:30:41Z</time></trkpt><trkpt lat="14.50974166040354" lon="121.00216589772606"><ele>5.0</ele><time>2026-04-09T03:30:42Z</time></trkpt><trkpt lat="14.509655118900897" lon="121.00213801923613"><ele>5.0</ele><time>2026-04-09T03:30:43Z</time></trkpt><trkpt lat="14.509569052581112" lon="121.00210932017671"><ele>5.0</ele><time>2026-04-09T03:30:44Z</time></trkpt><trkpt lat="14.509481696781416" lon="121.00207849144361"><ele>5.0</ele><time>2026-04-09T03:30:45Z</time></trkpt><trkpt lat="14.50939319897763" lon="121.0020477903088"><ele>5.4</ele><time>2026-04-09T03:30:46Z</time></trkpt><trkpt lat="14.509302986893054" lon="121.00201610704066"><ele>5.8</ele><time>2026-04-09T03:30:47Z</time></trkpt><trkpt lat="14.509211560218912" lon="121.0019845073291"><ele>6.199999999999999</ele><time>2026-04-09T03:30:48Z</time></trkpt><trkpt lat="14.509118613563604" lon="121.00195068113815"><ele>6.6</ele><time>2026-04-09T03:30:49Z</time></trkpt><trkpt lat="14.50902870299099" lon="121.00191829998074"><ele>7.0</ele><time>2026-04-09T03:30:50Z</time></trkpt><trkpt lat="14.508936794617965" lon="121.00188589996588"><ele>7.0</ele><time>2026-04-09T03:30:51Z</time></trkpt><trkpt lat="14.508845454101746" lon="121.00185131546492"><ele>6.999999999999999</ele><time>2026-04-09T03:30:52Z</time></trkpt><trkpt lat="14.508756162473222" lon="121.00181804885413"><ele>6.999999999999999</ele><time>2026-04-09T03:30:53Z</time></trkpt><trkpt lat="14.508670529800895" lon="121.00178787919491"><ele>7.0</ele><time>2026-04-09T03:30:54Z</time></trkpt><trkpt lat="14.508585665203805" lon="121.0017583304045"><ele>7.0</ele><time>2026-04-09T03:30:55Z</time></trkpt><trkpt lat="14.50850272174196" lon="121.00172984535632"><ele>7.000000000000001</ele><time>2026-04-09T03:30:56Z</time></trkpt><trkpt lat="14.508420730006861" lon="121.00170078308678"><ele>7.0</ele><time>2026-04-09T03:30:57Z</time></trkpt><trkpt lat="14.508340320431264" lon="121.00167256562811"><ele>7.0</ele><time>2026-04-09T03:30:58Z</time></trkpt><trkpt lat="14.508264405904825" lon="121.00164692387725"><ele>7.0</ele><time>2026-04-09T03:30:59Z</time></trkpt><trkpt lat="14.508186871791565" lon="121.00161825813186"><ele>7.000000000000001</ele><time>2026-04-09T03:31:00Z</time></trkpt><trkpt lat="14.508111467417413" lon="121.00159134363435"><ele>7.0</ele><time>2026-04-09T03:31:01Z</time></trkpt><trkpt lat="14.508035341717035" lon="121.00156281223065"><ele>7.0</ele><time>2026-04-09T03:31:02Z</time></trkpt><trkpt lat="14.507963963659803" lon="121.00153440184954"><ele>7.0</ele><time>2026-04-09T03:31:03Z</time></trkpt><trkpt lat="14.507896480061259" lon="121.00150791422539"><ele>7.0</ele><time>2026-04-09T03:31:04Z</time></trkpt><trkpt lat="14.507831215577655" lon="121.0014834893729"><ele>7.0</ele><time>2026-04-09T03:31:05Z</time></trkpt><trkpt lat="14.507766607940416" lon="121.00145858796276"><ele>7.0</ele><time>2026-04-09T03:31:06Z</time></trkpt><trkpt lat="14.507699366066563" lon="121.00143203204861"><ele>7.0</ele><time>2026-04-09T03:31:07Z</time></trkpt><trkpt lat="14.507624483960047" lon="121.00140681269187"><ele>7.0</ele><time>2026-04-09T03:31:08Z</time></trkpt><trkpt lat="14.507548247103323" lon="121.00137497833279"><ele>7.166666666666667</ele><time>2026-04-09T03:31:09Z</time></trkpt><trkpt lat="14.507473812497562" lon="121.0013463899777"><ele>7.333333333333334</ele><time>2026-04-09T03:31:10Z</time></trkpt><trkpt lat="14.507403008245033" lon="121.00132166936784"><ele>7.5</ele><time>2026-04-09T03:31:11Z</time></trkpt><trkpt lat="14.507335352093527" lon="121.00129869822676"><ele>7.666666666666666</ele><time>2026-04-09T03:31:12Z</time></trkpt><trkpt lat="14.507270336955903" lon="121.00127649546333"><ele>7.833333333333333</ele><time>2026-04-09T03:31:13Z</time></trkpt><trkpt lat="14.507209441728426" lon="121.00125615591271"><ele>8.0</ele><time>2026-04-09T03:31:14Z</time></trkpt><trkpt lat="14.507106888011272" lon="121.00122121995317"><ele>8.333333333333332</ele><time>2026-04-09T03:31:16Z</time></trkpt><trkpt lat="14.507034593795328" lon="121.00119448493092"><ele>8.666666666666666</ele><time>2026-04-09T03:31:18Z</time></trkpt><trkpt lat="14.506964184366005" lon="121.00116940931234"><ele>9.0</ele><time>2026-04-09T03:31:20Z</time></trkpt><trkpt lat="14.506892505428317" lon="121.00114163094537"><ele>9.333333333333334</ele><time>2026-04-09T03:31:22Z</time></trkpt><trkpt lat="14.50680660824974" lon="121.00110890750229"><ele>9.666666666666668</ele><time>2026-04-09T03:31:24Z</time></trkpt><trkpt lat="14.506687151544737" lon="121.00106316266015"><ele>10.0</ele><time>2026-04-09T03:31:26Z</time></trkpt><trkpt lat="14.506621294344832" lon="121.00103544064677"><ele>10.0</ele><time>2026-04-09T03:31:27Z</time></trkpt><trkpt lat="14.506547462731323" lon="121.00101119151901"><ele>10.0</ele><time>2026-04-09T03:31:28Z</time></trkpt><trkpt lat="14.506463117497931" lon="121.00098529813276"><ele>10.0</ele><time>2026-04-09T03:31:29Z</time></trkpt><trkpt lat="14.506375677490286" lon="121.00095435185101"><ele>10.0</ele><time>2026-04-09T03:31:30Z</time></trkpt><trkpt lat="14.506286163141437" lon="121.00092119938465"><ele>10.0</ele><time>2026-04-09T03:31:31Z</time></trkpt><trkpt lat="14.50619159009" lon="121.00087927967431"><ele>10.0</ele><time>2026-04-09T03:31:32Z</time></trkpt><trkpt lat="14.50608993524716" lon="121.00083054450008"><ele>10.0</ele><time>2026-04-09T03:31:33Z</time></trkpt><trkpt lat="14.505986422357045" lon="121.00077567430247"><ele>10.0</ele><time>2026-04-09T03:31:34Z</time></trkpt><trkpt lat="14.505882633117858" lon="121.00071650087366"><ele>10.0</ele><time>2026-04-09T03:31:35Z</time></trkpt><trkpt lat="14.505781559316969" lon="121.00065626347345"><ele>10.0</ele><time>2026-04-09T03:31:36Z</time></trkpt><trkpt lat="14.505684542517773" lon="121.00059822789314"><ele>10.0</ele><time>2026-04-09T03:31:37Z</time></trkpt><trkpt lat="14.505587669715952" lon="121.00054306669693"><ele>10.0</ele><time>2026-04-09T03:31:38Z</time></trkpt><trkpt lat="14.505492536263025" lon="121.00049047280875"><ele>10.0</ele><time>2026-04-09T03:31:39Z</time></trkpt><trkpt lat="14.505401324882445" lon="121.00043937119537"><ele>10.0</ele><time>2026-04-09T03:31:40Z</time></trkpt><trkpt lat="14.505313191806763" lon="121.00039042051576"><ele>9.4</ele><time>2026-04-09T03:31:41Z</time></trkpt><trkpt lat="14.50523059900511" lon="121.00034308368994"><ele>8.8</ele><time>2026-04-09T03:31:42Z</time></trkpt><trkpt lat="14.50514577263967" lon="121.00029478677409"><ele>8.2</ele><time>2026-04-09T03:31:43Z</time></trkpt><trkpt lat="14.505059791771798" lon="121.00024059215167"><ele>7.6</ele><time>2026-04-09T03:31:44Z</time></trkpt><trkpt lat="14.504970168576447" lon="121.0001855663529"><ele>7.0</ele><time>2026-04-09T03:31:45Z</time></trkpt><trkpt lat="14.5048786523195" lon="121.0001288040787"><ele>7.0</ele><time>2026-04-09T03:31:46Z</time></trkpt><trkpt lat="14.504789050225732" lon="121.00007273877027"><ele>6.999999999999999</ele><time>2026-04-09T03:31:47Z</time></trkpt><trkpt lat="14.504696219937777" lon="121.0000142134365"><ele>6.999999999999999</ele><time>2026-04-09T03:31:48Z</time></trkpt><trkpt lat="14.50460319003715" lon="120.99995650473946"><ele>7.0</ele><time>2026-04-09T03:31:49Z</time></trkpt><trkpt lat="14.504508138383878" lon="120.99989720780745"><ele>7.0</ele><time>2026-04-09T03:31:50Z</time></trkpt><trkpt lat="14.504411898798768" lon="120.99983721830343"><ele>7.6</ele><time>2026-04-09T03:31:51Z</time></trkpt><trkpt lat="14.504315582939851" lon="120.99977689038604"><ele>8.2</ele><time>2026-04-09T03:31:52Z</time></trkpt><trkpt lat="14.504219114503456" lon="120.99971913568446"><ele>8.8</ele><time>2026-04-09T03:31:53Z</time></trkpt><trkpt lat="14.504122633672814" lon="120.99966347515601"><ele>9.4</ele><time>2026-04-09T03:31:54Z</time></trkpt><trkpt lat="14.504028975408826" lon="120.99960550767385"><ele>10.0</ele><time>2026-04-09T03:31:55Z</time></trkpt><trkpt lat="14.503938192846645" lon="120.99954829172803"><ele>10.0</ele><time>2026-04-09T03:31:56Z</time></trkpt><trkpt lat="14.50384739679002" lon="120.99949267035882"><ele>10.0</ele><time>2026-04-09T03:31:57Z</time></trkpt><trkpt lat="14.50375853772164" lon="120.9994358088431"><ele>10.0</ele><time>2026-04-09T03:31:58Z</time></trkpt><trkpt lat="14.503669681731441" lon="120.999380458334"><ele>10.0</ele><time>2026-04-09T03:31:59Z</time></trkpt><trkpt lat="14.503582992349655" lon="120.99932638945535"><ele>10.0</ele><time>2026-04-09T03:32:00Z</time></trkpt><trkpt lat="14.503495526640501" lon="120.99927195931012"><ele>9.8</ele><time>2026-04-09T03:32:01Z</time></trkpt><trkpt lat="14.503407681205687" lon="120.99921968953964"><ele>9.6</ele><time>2026-04-09T03:32:02Z</time></trkpt><trkpt lat="14.503321093144145" lon="120.99916602042093"><ele>9.4</ele><time>2026-04-09T03:32:03Z</time></trkpt><trkpt lat="14.503237144188377" lon="120.9991154737649"><ele>9.2</ele><time>2026-04-09T03:32:04Z</time></trkpt><trkpt lat="14.503152420110915" lon="120.99906319505985"><ele>9.0</ele><time>2026-04-09T03:32:05Z</time></trkpt><trkpt lat="14.503068246822686" lon="120.99901206986378"><ele>9.0</ele><time>2026-04-09T03:32:06Z</time></trkpt><trkpt lat="14.502979510904431" lon="120.99896105972839"><ele>9.0</ele><time>2026-04-09T03:32:07Z</time></trkpt><trkpt lat="14.502889854662255" lon="120.99890479977948"><ele>9.0</ele><time>2026-04-09T03:32:08Z</time></trkpt><trkpt lat="14.502804455907134" lon="120.99885174608426"><ele>9.0</ele><time>2026-04-09T03:32:09Z</time></trkpt><trkpt lat="14.502727316066094" lon="120.99879947548612"><ele>9.0</ele><time>2026-04-09T03:32:10Z</time></trkpt><trkpt lat="14.50266378590636" lon="120.9987566512849"><ele>9.0</ele><time>2026-04-09T03:32:11Z</time></trkpt><trkpt lat="14.502578637347371" lon="120.99870516211068"><ele>9.0</ele><time>2026-04-09T03:32:13Z</time></trkpt><trkpt lat="14.502530818525338" lon="120.9986526610264"><ele>9.0</ele><time>2026-04-09T03:33:25Z</time></trkpt><trkpt lat="14.50246213038631" lon="120.99860797523849"><ele>9.0</ele><time>2026-04-09T03:33:27Z</time></trkpt><trkpt lat="14.502349374796715" lon="120.9985421993523"><ele>9.0</ele><time>2026-04-09T03:33:29Z</time></trkpt><trkpt lat="14.502280008905625" lon="120.9985044290407"><ele>9.0</ele><time>2026-04-09T03:33:30Z</time></trkpt><trkpt lat="14.502200315964789" lon="120.99845990334424"><ele>9.0</ele><time>2026-04-09T03:33:31Z</time></trkpt><trkpt lat="14.502113777376762" lon="120.99841453609058"><ele>9.0</ele><time>2026-04-09T03:33:32Z</time></trkpt><trkpt lat="14.502025063620533" lon="120.99836556617339"><ele>9.0</ele><time>2026-04-09T03:33:33Z</time></trkpt><trkpt lat="14.501932932868005" lon="120.99831331477617"><ele>9.0</ele><time>2026-04-09T03:33:34Z</time></trkpt><trkpt lat="14.501839170384402" lon="120.9982578073846"><ele>8.25</ele><time>2026-04-09T03:33:35Z</time></trkpt><trkpt lat="14.50174308585468" lon="120.99820041867909"><ele>7.5</ele><time>2026-04-09T03:33:36Z</time></trkpt><trkpt lat="14.501645716003567" lon="120.99814001522647"><ele>6.75</ele><time>2026-04-09T03:33:37Z</time></trkpt><trkpt lat="14.501545457448243" lon="120.99807704684457"><ele>6.0</ele><time>2026-04-09T03:33:38Z</time></trkpt><trkpt lat="14.50144173712956" lon="120.99801356448909"><ele>6.0</ele><time>2026-04-09T03:33:39Z</time></trkpt><trkpt lat="14.501336077729956" lon="120.99794669132994"><ele>6.0</ele><time>2026-04-09T03:33:40Z</time></trkpt><trkpt lat="14.501228547350255" lon="120.9978804341052"><ele>6.0</ele><time>2026-04-09T03:33:41Z</time></trkpt><trkpt lat="14.501120033900024" lon="120.99781268327264"><ele>6.0</ele><time>2026-04-09T03:33:42Z</time></trkpt><trkpt lat="14.501010979414973" lon="120.99774401503032"><ele>6.0</ele><time>2026-04-09T03:33:43Z</time></trkpt><trkpt lat="14.500905517844036" lon="120.99767445082334"><ele>6.0</ele><time>2026-04-09T03:33:44Z</time></trkpt><trkpt lat="14.500802683499568" lon="120.99760340134134"><ele>6.0</ele><time>2026-04-09T03:33:45Z</time></trkpt><trkpt lat="14.50070240679243" lon="120.9975300925413"><ele>6.0</ele><time>2026-04-09T03:33:46Z</time></trkpt><trkpt lat="14.500604768043335" lon="120.99745403942566"><ele>6.0</ele><time>2026-04-09T03:33:47Z</time></trkpt><trkpt lat="14.500505661988166" lon="120.99737468894408"><ele>6.0</ele><time>2026-04-09T03:33:48Z</time></trkpt><trkpt lat="14.500410604178995" lon="120.99729066940229"><ele>6.0</ele><time>2026-04-09T03:33:49Z</time></trkpt><trkpt lat="14.500315800013869" lon="120.9972028390527"><ele>6.0</ele><time>2026-04-09T03:33:50Z</time></trkpt><trkpt lat="14.500223413212645" lon="120.99711335649282"><ele>6.0</ele><time>2026-04-09T03:33:51Z</time></trkpt><trkpt lat="14.500135800665918" lon="120.99701867529089"><ele>6.0</ele><time>2026-04-09T03:33:52Z</time></trkpt><trkpt lat="14.50004974397765" lon="120.9969153840193"><ele>6.0</ele><time>2026-04-09T03:33:53Z</time></trkpt><trkpt lat="14.49996683163843" lon="120.99681334892605"><ele>6.0</ele><time>2026-04-09T03:33:54Z</time></trkpt><trkpt lat="14.499888016479465" lon="120.99671142207536"><ele>6.75</ele><time>2026-04-09T03:33:55Z</time></trkpt><trkpt lat="14.499814333508747" lon="120.99661073833262"><ele>7.5</ele><time>2026-04-09T03:33:56Z</time></trkpt><trkpt lat="14.499746258715343" lon="120.99650683959891"><ele>8.25</ele><time>2026-04-09T03:33:57Z</time></trkpt><trkpt lat="14.499682577539161" lon="120.99640190181508"><ele>9.0</ele><time>2026-04-09T03:33:58Z</time></trkpt><trkpt lat="14.499620444366805" lon="120.99629385221563"><ele>8.75</ele><time>2026-04-09T03:33:59Z</time></trkpt><trkpt lat="14.499560311152196" lon="120.99618507854704"><ele>8.5</ele><time>2026-04-09T03:34:00Z</time></trkpt><trkpt lat="14.499503867424124" lon="120.99607504938511"><ele>8.25</ele><time>2026-04-09T03:34:01Z</time></trkpt><trkpt lat="14.499448835408915" lon="120.99596181827114"><ele>8.0</ele><time>2026-04-09T03:34:02Z</time></trkpt><trkpt lat="14.4993960032068" lon="120.99584717263552"><ele>7.0</ele><time>2026-04-09T03:34:03Z</time></trkpt><trkpt lat="14.499345953784243" lon="120.99572997993064"><ele>6.0</ele><time>2026-04-09T03:34:04Z</time></trkpt><trkpt lat="14.499299321654211" lon="120.99560899767873"><ele>5.0</ele><time>2026-04-09T03:34:05Z</time></trkpt><trkpt lat="14.499256675392738" lon="120.99548557490148"><ele>4.0</ele><time>2026-04-09T03:34:06Z</time></trkpt><trkpt lat="14.499216493973362" lon="120.99536133512335"><ele>4.0</ele><time>2026-04-09T03:34:07Z</time></trkpt><trkpt lat="14.499179574433038" lon="120.99523668587206"><ele>4.0</ele><time>2026-04-09T03:34:08Z</time></trkpt><trkpt lat="14.499146093685184" lon="120.99511271834518"><ele>4.0</ele><time>2026-04-09T03:34:09Z</time></trkpt><trkpt lat="14.499117643222345" lon="120.99499197859954"><ele>4.0</ele><time>2026-04-09T03:34:10Z</time></trkpt><trkpt lat="14.499092196261131" lon="120.99487478079317"><ele>4.0</ele><time>2026-04-09T03:34:11Z</time></trkpt><trkpt lat="14.499076812030271" lon="120.99475992471645"><ele>4.0</ele><time>2026-04-09T03:34:12Z</time></trkpt><trkpt lat="14.499053309393078" lon="120.99465111328914"><ele>4.0</ele><time>2026-04-09T03:34:13Z</time></trkpt><trkpt lat="14.499030127067071" lon="120.99454528676546"><ele>4.0</ele><time>2026-04-09T03:34:14Z</time></trkpt><trkpt lat="14.49900776899654" lon="120.99444333950562"><ele>4.0</ele><time>2026-04-09T03:34:15Z</time></trkpt><trkpt lat="14.498985728150052" lon="120.99434306920847"><ele>4.0</ele><time>2026-04-09T03:34:16Z</time></trkpt><trkpt lat="14.498964915402794" lon="120.99423994105183"><ele>4.0</ele><time>2026-04-09T03:34:17Z</time></trkpt><trkpt lat="14.498945456529773" lon="120.99414219953238"><ele>4.0</ele><time>2026-04-09T03:34:18Z</time></trkpt><trkpt lat="14.498932154012902" lon="120.99404527010621"><ele>4.0</ele><time>2026-04-09T03:34:19Z</time></trkpt><trkpt lat="14.498919639980855" lon="120.99394731743497"><ele>4.0</ele><time>2026-04-09T03:34:20Z</time></trkpt><trkpt lat="14.49890108651588" lon="120.99384108707922"><ele>4.2</ele><time>2026-04-09T03:34:21Z</time></trkpt><trkpt lat="14.498882154013966" lon="120.99373623191238"><ele>4.4</ele><time>2026-04-09T03:34:22Z</time></trkpt><trkpt lat="14.498862366872837" lon="120.99363292381665"><ele>4.6</ele><time>2026-04-09T03:34:23Z</time></trkpt><trkpt lat="14.498842403785961" lon="120.9935285540192"><ele>4.8</ele><time>2026-04-09T03:34:24Z</time></trkpt><trkpt lat="14.49882317182839" lon="120.99342701985833"><ele>5.0</ele><time>2026-04-09T03:34:25Z</time></trkpt><trkpt lat="14.498802264749932" lon="120.99332729890675"><ele>5.4</ele><time>2026-04-09T03:34:26Z</time></trkpt><trkpt lat="14.498782084101942" lon="120.99323905833533"><ele>5.8</ele><time>2026-04-09T03:34:27Z</time></trkpt><trkpt lat="14.498759896362618" lon="120.99314380877028"><ele>6.199999999999999</ele><time>2026-04-09T03:34:28Z</time></trkpt><trkpt lat="14.498733635039752" lon="120.99305488541357"><ele>6.6</ele><time>2026-04-09T03:34:29Z</time></trkpt><trkpt lat="14.498701332722636" lon="120.99296725495907"><ele>7.0</ele><time>2026-04-09T03:34:30Z</time></trkpt><trkpt lat="14.498660820345346" lon="120.99288116566552"><ele>7.000000000000001</ele><time>2026-04-09T03:34:31Z</time></trkpt><trkpt lat="14.49861097221995" lon="120.99280066185823"><ele>7.0</ele><time>2026-04-09T03:34:32Z</time></trkpt><trkpt lat="14.498553729270192" lon="120.9927291913745"><ele>7.0</ele><time>2026-04-09T03:34:33Z</time></trkpt><trkpt lat="14.498491592674357" lon="120.99266642703327"><ele>7.0</ele><time>2026-04-09T03:34:34Z</time></trkpt><trkpt lat="14.49842600724119" lon="120.99261160260231"><ele>7.000000000000001</ele><time>2026-04-09T03:34:35Z</time></trkpt><trkpt lat="14.49835651645789" lon="120.99256334728071"><ele>7.0</ele><time>2026-04-09T03:34:36Z</time></trkpt><trkpt lat="14.498275993679755" lon="120.99252294597294"><ele>7.0</ele><time>2026-04-09T03:34:37Z</time></trkpt><trkpt lat="14.49818630487137" lon="120.99248825332126"><ele>6.999999999999999</ele><time>2026-04-09T03:34:38Z</time></trkpt><trkpt lat="14.498087425094266" lon="120.99246596447675"><ele>6.999999999999999</ele><time>2026-04-09T03:34:39Z</time></trkpt><trkpt lat="14.497982924976643" lon="120.99245894715733"><ele>7.0</ele><time>2026-04-09T03:34:40Z</time></trkpt><trkpt lat="14.497874098957919" lon="120.99246098383995"><ele>7.0</ele><time>2026-04-09T03:34:41Z</time></trkpt><trkpt lat="14.497762724350434" lon="120.99247355060344"><ele>7.0</ele><time>2026-04-09T03:34:42Z</time></trkpt><trkpt lat="14.497646152181062" lon="120.99249290039454"><ele>7.0</ele><time>2026-04-09T03:34:43Z</time></trkpt><trkpt lat="14.497529971111994" lon="120.9925159362385"><ele>7.0</ele><time>2026-04-09T03:34:44Z</time></trkpt><trkpt lat="14.49741047331625" lon="120.99253887693845"><ele>7.0</ele><time>2026-04-09T03:34:45Z</time></trkpt><trkpt lat="14.497287844643347" lon="120.99255956473287"><ele>7.0</ele><time>2026-04-09T03:34:46Z</time></trkpt><trkpt lat="14.497161541939766" lon="120.99257562877773"><ele>7.0</ele><time>2026-04-09T03:34:47Z</time></trkpt><trkpt lat="14.497032512503468" lon="120.99258548575098"><ele>7.0</ele><time>2026-04-09T03:34:48Z</time></trkpt><trkpt lat="14.496901459120352" lon="120.99259433120476"><ele>7.0</ele><time>2026-04-09T03:34:49Z</time></trkpt><trkpt lat="14.496766983322699" lon="120.99259934981336"><ele>7.0</ele><time>2026-04-09T03:34:50Z</time></trkpt><trkpt lat="14.496631027627743" lon="120.99260129714033"><ele>7.0</ele><time>2026-04-09T03:34:51Z</time></trkpt><trkpt lat="14.496495545086935" lon="120.99259989579626"><ele>7.0</ele><time>2026-04-09T03:34:52Z</time></trkpt><trkpt lat="14.49635863887068" lon="120.99259425025878"><ele>7.0</ele><time>2026-04-09T03:34:53Z</time></trkpt><trkpt lat="14.49622113188765" lon="120.99258554660359"><ele>7.0</ele><time>2026-04-09T03:34:54Z</time></trkpt><trkpt lat="14.496087787021917" lon="120.9925777600432"><ele>7.0</ele><time>2026-04-09T03:34:55Z</time></trkpt><trkpt lat="14.49595731240064" lon="120.99256326543298"><ele>7.0</ele><time>2026-04-09T03:34:56Z</time></trkpt><trkpt lat="14.495828830649334" lon="120.99254481824626"><ele>7.0</ele><time>2026-04-09T03:34:57Z</time></trkpt><trkpt lat="14.495700142753318" lon="120.99252648818707"><ele>7.0</ele><time>2026-04-09T03:34:58Z</time></trkpt><trkpt lat="14.495576814889494" lon="120.9925074127468"><ele>7.0</ele><time>2026-04-09T03:34:59Z</time></trkpt><trkpt lat="14.495452456058828" lon="120.99249046281415"><ele>7.0</ele><time>2026-04-09T03:35:00Z</time></trkpt><trkpt lat="14.495329916057061" lon="120.99247341058962"><ele>7.0</ele><time>2026-04-09T03:35:01Z</time></trkpt><trkpt lat="14.495217414174808" lon="120.9924618216251"><ele>6.8</ele><time>2026-04-09T03:35:02Z</time></trkpt><trkpt lat="14.495109641098892" lon="120.99244807185865"><ele>6.6</ele><time>2026-04-09T03:35:03Z</time></trkpt><trkpt lat="14.495004462341454" lon="120.992430480225"><ele>6.3999999999999995</ele><time>2026-04-09T03:35:04Z</time></trkpt><trkpt lat="14.494903592940187" lon="120.99241197261665"><ele>6.199999999999999</ele><time>2026-04-09T03:35:05Z</time></trkpt><trkpt lat="14.494804618393978" lon="120.99239612539132"><ele>6.0</ele><time>2026-04-09T03:35:06Z</time></trkpt><trkpt lat="14.494705118984646" lon="120.99237964885837"><ele>6.0</ele><time>2026-04-09T03:35:07Z</time></trkpt><trkpt lat="14.494601173199719" lon="120.99236217372331"><ele>6.0</ele><time>2026-04-09T03:35:08Z</time></trkpt><trkpt lat="14.494495397313386" lon="120.99234268633089"><ele>6.0</ele><time>2026-04-09T03:35:09Z</time></trkpt><trkpt lat="14.494389676221331" lon="120.99232501420336"><ele>6.0</ele><time>2026-04-09T03:35:10Z</time></trkpt><trkpt lat="14.49428171467124" lon="120.99230635294904"><ele>6.0</ele><time>2026-04-09T03:35:11Z</time></trkpt><trkpt lat="14.494173613494935" lon="120.99228499333283"><ele>6.25</ele><time>2026-04-09T03:35:12Z</time></trkpt><trkpt lat="14.49405686356519" lon="120.99226355303195"><ele>6.5</ele><time>2026-04-09T03:35:13Z</time></trkpt><trkpt lat="14.49394025959637" lon="120.99224539794754"><ele>6.75</ele><time>2026-04-09T03:35:14Z</time></trkpt><trkpt lat="14.493823951878824" lon="120.99222820034153"><ele>7.0</ele><time>2026-04-09T03:35:15Z</time></trkpt><trkpt lat="14.493702079105223" lon="120.99221334639337"><ele>6.5</ele><time>2026-04-09T03:35:16Z</time></trkpt><trkpt lat="14.493580090839387" lon="120.99219096120595"><ele>6.0</ele><time>2026-04-09T03:35:17Z</time></trkpt><trkpt lat="14.493457220427748" lon="120.9921713246488"><ele>5.5</ele><time>2026-04-09T03:35:18Z</time></trkpt><trkpt lat="14.493336695516469" lon="120.99215400706638"><ele>5.0</ele><time>2026-04-09T03:35:19Z</time></trkpt><trkpt lat="14.493222508642708" lon="120.99213247807855"><ele>5.0</ele><time>2026-04-09T03:35:20Z</time></trkpt><trkpt lat="14.49310988004442" lon="120.99211247370312"><ele>5.0</ele><time>2026-04-09T03:35:21Z</time></trkpt><trkpt lat="14.493001935849462" lon="120.99209088601539"><ele>5.0</ele><time>2026-04-09T03:35:22Z</time></trkpt><trkpt lat="14.492895261730395" lon="120.99207383562613"><ele>5.0</ele><time>2026-04-09T03:35:23Z</time></trkpt><trkpt lat="14.492793571851433" lon="120.99205877367056"><ele>5.0</ele><time>2026-04-09T03:35:24Z</time></trkpt><trkpt lat="14.492700630738545" lon="120.9920454101241"><ele>5.4</ele><time>2026-04-09T03:35:25Z</time></trkpt><trkpt lat="14.492609010633782" lon="120.99203573440097"><ele>5.8</ele><time>2026-04-09T03:35:26Z</time></trkpt><trkpt lat="14.492520393837067" lon="120.99202150181527"><ele>6.199999999999999</ele><time>2026-04-09T03:35:27Z</time></trkpt><trkpt lat="14.49242881285312" lon="120.99199648095842"><ele>6.6</ele><time>2026-04-09T03:35:28Z</time></trkpt><trkpt lat="14.492339584687832" lon="120.9919713826267"><ele>7.0</ele><time>2026-04-09T03:35:29Z</time></trkpt><trkpt lat="14.49224128195534" lon="120.99195467706923"><ele>7.0</ele><time>2026-04-09T03:35:30Z</time></trkpt><trkpt lat="14.492143378723291" lon="120.99193909243546"><ele>6.999999999999999</ele><time>2026-04-09T03:35:31Z</time></trkpt><trkpt lat="14.492046846706476" lon="120.99192395669994"><ele>6.999999999999999</ele><time>2026-04-09T03:35:32Z</time></trkpt><trkpt lat="14.491949779272629" lon="120.99190900776564"><ele>7.0</ele><time>2026-04-09T03:35:33Z</time></trkpt><trkpt lat="14.4918510049235" lon="120.99189085682744"><ele>7.0</ele><time>2026-04-09T03:35:34Z</time></trkpt><trkpt lat="14.491751241549128" lon="120.99187372792402"><ele>7.199999999999999</ele><time>2026-04-09T03:35:35Z</time></trkpt><trkpt lat="14.491649522528" lon="120.99185709531653"><ele>7.3999999999999995</ele><time>2026-04-09T03:35:36Z</time></trkpt><trkpt lat="14.491546553902133" lon="120.99184081159272"><ele>7.6000000000000005</ele><time>2026-04-09T03:35:37Z</time></trkpt><trkpt lat="14.491442490819061" lon="120.99182590927009"><ele>7.800000000000001</ele><time>2026-04-09T03:35:38Z</time></trkpt><trkpt lat="14.491335366969786" lon="120.99180578496932"><ele>8.0</ele><time>2026-04-09T03:35:39Z</time></trkpt><trkpt lat="14.49122768481255" lon="120.99178866127427"><ele>7.4</ele><time>2026-04-09T03:35:40Z</time></trkpt><trkpt lat="14.491118453710646" lon="120.99176884419572"><ele>6.800000000000001</ele><time>2026-04-09T03:35:41Z</time></trkpt><trkpt lat="14.491008572738359" lon="120.99174765690158"><ele>6.2</ele><time>2026-04-09T03:35:42Z</time></trkpt><trkpt lat="14.49089796719741" lon="120.99172797754014"><ele>5.6</ele><time>2026-04-09T03:35:43Z</time></trkpt><trkpt lat="14.490788189129379" lon="120.9917081189432"><ele>5.0</ele><time>2026-04-09T03:35:44Z</time></trkpt><trkpt lat="14.490673859448949" lon="120.99169671892344"><ele>5.0</ele><time>2026-04-09T03:35:45Z</time></trkpt><trkpt lat="14.490559686182674" lon="120.99168380032971"><ele>5.0</ele><time>2026-04-09T03:35:46Z</time></trkpt><trkpt lat="14.490441609911509" lon="120.99166280873794"><ele>5.0</ele><time>2026-04-09T03:35:47Z</time></trkpt><trkpt lat="14.490324876471272" lon="120.99164188658267"><ele>5.0</ele><time>2026-04-09T03:35:48Z</time></trkpt><trkpt lat="14.490206593897335" lon="120.99162437708176"><ele>6.0</ele><time>2026-04-09T03:35:49Z</time></trkpt><trkpt lat="14.490083752081897" lon="120.99160308539777"><ele>7.0</ele><time>2026-04-09T03:35:50Z</time></trkpt><trkpt lat="14.48996356807817" lon="120.99157876031626"><ele>8.0</ele><time>2026-04-09T03:35:51Z</time></trkpt><trkpt lat="14.489847977182649" lon="120.99155531405998"><ele>9.0</ele><time>2026-04-09T03:35:52Z</time></trkpt><trkpt lat="14.489734422211436" lon="120.99153440332046"><ele>9.0</ele><time>2026-04-09T03:35:53Z</time></trkpt><trkpt lat="14.489623043028617" lon="120.99151343703949"><ele>9.0</ele><time>2026-04-09T03:35:54Z</time></trkpt><trkpt lat="14.489512290444805" lon="120.99149264281976"><ele>9.0</ele><time>2026-04-09T03:35:55Z</time></trkpt><trkpt lat="14.489403901301456" lon="120.99147353384295"><ele>9.0</ele><time>2026-04-09T03:35:56Z</time></trkpt><trkpt lat="14.489296573564927" lon="120.99145354219597"><ele>9.0</ele><time>2026-04-09T03:35:57Z</time></trkpt><trkpt lat="14.489186844170113" lon="120.99143304523845"><ele>8.6</ele><time>2026-04-09T03:35:58Z</time></trkpt><trkpt lat="14.489077767119333" lon="120.9914142564812"><ele>8.2</ele><time>2026-04-09T03:35:59Z</time></trkpt><trkpt lat="14.488966476767501" lon="120.99140164684485"><ele>7.799999999999999</ele><time>2026-04-09T03:36:00Z</time></trkpt><trkpt lat="14.48885645864612" lon="120.99138582637916"><ele>7.3999999999999995</ele><time>2026-04-09T03:36:01Z</time></trkpt><trkpt lat="14.488742366600139" lon="120.99137868387285"><ele>7.0</ele><time>2026-04-09T03:36:02Z</time></trkpt><trkpt lat="14.48862645362862" lon="120.99136772638165"><ele>7.0</ele><time>2026-04-09T03:36:03Z</time></trkpt><trkpt lat="14.488515876341772" lon="120.99135661824714"><ele>6.999999999999999</ele><time>2026-04-09T03:36:04Z</time></trkpt><trkpt lat="14.488407961709516" lon="120.99133650129185"><ele>6.999999999999999</ele><time>2026-04-09T03:36:05Z</time></trkpt><trkpt lat="14.48829813848413" lon="120.99132052892399"><ele>7.0</ele><time>2026-04-09T03:36:06Z</time></trkpt><trkpt lat="14.488188931178671" lon="120.99130840367702"><ele>7.0</ele><time>2026-04-09T03:36:07Z</time></trkpt><trkpt lat="14.48807871919429" lon="120.9912960493695"><ele>7.0</ele><time>2026-04-09T03:36:08Z</time></trkpt><trkpt lat="14.4879697897651" lon="120.99128097746494"><ele>7.0</ele><time>2026-04-09T03:36:09Z</time></trkpt><trkpt lat="14.48785703196471" lon="120.9912665071413"><ele>7.0</ele><time>2026-04-09T03:36:10Z</time></trkpt><trkpt lat="14.487741574996544" lon="120.9912504011145"><ele>7.0</ele><time>2026-04-09T03:36:11Z</time></trkpt><trkpt lat="14.48762136941372" lon="120.99123763860435"><ele>7.25</ele><time>2026-04-09T03:36:12Z</time></trkpt><trkpt lat="14.487503074356942" lon="120.99122186326633"><ele>7.5</ele><time>2026-04-09T03:36:13Z</time></trkpt><trkpt lat="14.48738046516996" lon="120.99120629890083"><ele>7.75</ele><time>2026-04-09T03:36:14Z</time></trkpt><trkpt lat="14.487261075811226" lon="120.99119149161956"><ele>8.0</ele><time>2026-04-09T03:36:15Z</time></trkpt><trkpt lat="14.487142384388909" lon="120.99117986407639"><ele>8.0</ele><time>2026-04-09T03:36:16Z</time></trkpt><trkpt lat="14.4870257424975" lon="120.991169286549"><ele>8.0</ele><time>2026-04-09T03:36:17Z</time></trkpt><trkpt lat="14.486913259639776" lon="120.99116232708668"><ele>8.0</ele><time>2026-04-09T03:36:18Z</time></trkpt><trkpt lat="14.486802966099651" lon="120.99115823079909"><ele>8.0</ele><time>2026-04-09T03:36:19Z</time></trkpt><trkpt lat="14.486699831795208" lon="120.99115893744641"><ele>8.0</ele><time>2026-04-09T03:36:20Z</time></trkpt><trkpt lat="14.486595902756617" lon="120.99116332776913"><ele>8.0</ele><time>2026-04-09T03:36:21Z</time></trkpt><trkpt lat="14.486497417485227" lon="120.99117400742206"><ele>8.0</ele><time>2026-04-09T03:36:22Z</time></trkpt><trkpt lat="14.486397090885895" lon="120.99119079262464"><ele>8.0</ele><time>2026-04-09T03:36:23Z</time></trkpt><trkpt lat="14.48629635407995" lon="120.9912137648751"><ele>8.0</ele><time>2026-04-09T03:36:24Z</time></trkpt><trkpt lat="14.486198421677177" lon="120.99124251303449"><ele>8.0</ele><time>2026-04-09T03:36:25Z</time></trkpt><trkpt lat="14.48610568447836" lon="120.99127548093247"><ele>8.4</ele><time>2026-04-09T03:36:26Z</time></trkpt><trkpt lat="14.486014343797155" lon="120.99131112163828"><ele>8.8</ele><time>2026-04-09T03:36:27Z</time></trkpt><trkpt lat="14.485925142250995" lon="120.99134996339448"><ele>9.2</ele><time>2026-04-09T03:36:28Z</time></trkpt><trkpt lat="14.485847404751233" lon="120.99138787045356"><ele>9.6</ele><time>2026-04-09T03:36:29Z</time></trkpt><trkpt lat="14.485780917262662" lon="120.99142491793336"><ele>10.0</ele><time>2026-04-09T03:36:30Z</time></trkpt><trkpt lat="14.485693258968164" lon="120.99148778106004"><ele>10.0</ele><time>2026-04-09T03:36:32Z</time></trkpt><trkpt lat="14.485600962440934" lon="120.99154266408969"><ele>10.0</ele><time>2026-04-09T03:36:34Z</time></trkpt><trkpt lat="14.485550048099062" lon="120.99160450843065"><ele>10.0</ele><time>2026-04-09T03:36:37Z</time></trkpt><trkpt lat="14.485472430560556" lon="120.99167633105851"><ele>10.0</ele><time>2026-04-09T03:36:39Z</time></trkpt><trkpt lat="14.485426756273867" lon="120.99172636543445"><ele>10.0</ele><time>2026-04-09T03:36:40Z</time></trkpt><trkpt lat="14.485376255679512" lon="120.99178295487519"><ele>10.0</ele><time>2026-04-09T03:36:41Z</time></trkpt><trkpt lat="14.485324812112767" lon="120.991845386893"><ele>9.5</ele><time>2026-04-09T03:36:42Z</time></trkpt><trkpt lat="14.485277679402351" lon="120.99191254906845"><ele>9.0</ele><time>2026-04-09T03:36:43Z</time></trkpt><trkpt lat="14.485228530157103" lon="120.99198550024789"><ele>8.5</ele><time>2026-04-09T03:36:44Z</time></trkpt><trkpt lat="14.48518046772685" lon="120.99206246481312"><ele>8.0</ele><time>2026-04-09T03:36:45Z</time></trkpt><trkpt lat="14.485132669658128" lon="120.9921441946698"><ele>7.500000000000001</ele><time>2026-04-09T03:36:46Z</time></trkpt><trkpt lat="14.485086315646814" lon="120.99223464648091"><ele>7.0</ele><time>2026-04-09T03:36:47Z</time></trkpt><trkpt lat="14.485041928133057" lon="120.99233059688824"><ele>7.0</ele><time>2026-04-09T03:36:48Z</time></trkpt><trkpt lat="14.485000045008684" lon="120.99243072842607"><ele>6.999999999999999</ele><time>2026-04-09T03:36:49Z</time></trkpt><trkpt lat="14.48496473332438" lon="120.99253378148376"><ele>6.999999999999999</ele><time>2026-04-09T03:36:50Z</time></trkpt><trkpt lat="14.484935586181571" lon="120.9926438024681"><ele>7.0</ele><time>2026-04-09T03:36:51Z</time></trkpt><trkpt lat="14.484908509155678" lon="120.9927539720525"><ele>7.0</ele><time>2026-04-09T03:36:52Z</time></trkpt><trkpt lat="14.484893651065914" lon="120.99284653037802"><ele>7.000000000000001</ele><time>2026-04-09T03:36:53Z</time></trkpt><trkpt lat="14.484886248356535" lon="120.9929138745024"><ele>7.0</ele><time>2026-04-09T03:36:54Z</time></trkpt><trkpt lat="14.484886105153269" lon="120.99299138095905"><ele>7.0</ele><time>2026-04-09T03:36:56Z</time></trkpt><trkpt lat="14.484879413758028" lon="120.99306948985718"><ele>7.0</ele><time>2026-04-09T03:36:58Z</time></trkpt><trkpt lat="14.484867350013282" lon="120.99313913060095"><ele>7.000000000000001</ele><time>2026-04-09T03:37:00Z</time></trkpt><trkpt lat="14.484857758647076" lon="120.99321620635146"><ele>7.0</ele><time>2026-04-09T03:37:02Z</time></trkpt><trkpt lat="14.484841784532353" lon="120.99332800764739"><ele>6.333333333333334</ele><time>2026-04-09T03:37:04Z</time></trkpt><trkpt lat="14.484843287692438" lon="120.99341196460009"><ele>5.666666666666667</ele><time>2026-04-09T03:37:05Z</time></trkpt><trkpt lat="14.484830287139" lon="120.99349547418059"><ele>5.0</ele><time>2026-04-09T03:37:06Z</time></trkpt><trkpt lat="14.48481582732121" lon="120.99358140498674"><ele>4.333333333333334</ele><time>2026-04-09T03:37:07Z</time></trkpt><trkpt lat="14.484795450204805" lon="120.99367153068366"><ele>3.666666666666667</ele><time>2026-04-09T03:37:08Z</time></trkpt><trkpt lat="14.484767594790451" lon="120.99376178541186"><ele>3.0</ele><time>2026-04-09T03:37:09Z</time></trkpt><trkpt lat="14.48473670588455" lon="120.99384460310046"><ele>3.0</ele><time>2026-04-09T03:37:10Z</time></trkpt><trkpt lat="14.484704694490096" lon="120.99392107968792"><ele>3.0</ele><time>2026-04-09T03:37:11Z</time></trkpt><trkpt lat="14.484665515982796" lon="120.99400001364131"><ele>3.0</ele><time>2026-04-09T03:37:12Z</time></trkpt><trkpt lat="14.4846223736847" lon="120.99407219791983"><ele>3.0</ele><time>2026-04-09T03:37:13Z</time></trkpt><trkpt lat="14.484571484390115" lon="120.99413825587733"><ele>3.0</ele><time>2026-04-09T03:37:14Z</time></trkpt><trkpt lat="14.484517156714947" lon="120.99419930211994"><ele>3.0</ele><time>2026-04-09T03:37:15Z</time></trkpt><trkpt lat="14.484452711872914" lon="120.99425579383664"><ele>4.0</ele><time>2026-04-09T03:37:16Z</time></trkpt><trkpt lat="14.484381064845197" lon="120.99430353454214"><ele>5.0</ele><time>2026-04-09T03:37:17Z</time></trkpt><trkpt lat="14.484306736909348" lon="120.9943549185964"><ele>6.0</ele><time>2026-04-09T03:37:18Z</time></trkpt><trkpt lat="14.484231293846737" lon="120.99440540376928"><ele>7.0</ele><time>2026-04-09T03:37:19Z</time></trkpt><trkpt lat="14.48415490139806" lon="120.99445634427387"><ele>8.0</ele><time>2026-04-09T03:37:20Z</time></trkpt><trkpt lat="14.484079238145542" lon="120.99450513699342"><ele>9.0</ele><time>2026-04-09T03:37:21Z</time></trkpt><trkpt lat="14.484005620804115" lon="120.9945523199443"><ele>9.0</ele><time>2026-04-09T03:37:22Z</time></trkpt><trkpt lat="14.483934484301965" lon="120.99459629349595"><ele>9.0</ele><time>2026-04-09T03:37:23Z</time></trkpt><trkpt lat="14.483866607432555" lon="120.99464192877865"><ele>9.0</ele><time>2026-04-09T03:37:24Z</time></trkpt><trkpt lat="14.483795568499579" lon="120.99468971756819"><ele>9.0</ele><time>2026-04-09T03:37:25Z</time></trkpt><trkpt lat="14.483723271935473" lon="120.99473730269179"><ele>9.0</ele><time>2026-04-09T03:37:26Z</time></trkpt><trkpt lat="14.483652049846107" lon="120.99478718838093"><ele>9.0</ele><time>2026-04-09T03:37:27Z</time></trkpt><trkpt lat="14.483577562209819" lon="120.99483880522047"><ele>9.0</ele><time>2026-04-09T03:37:28Z</time></trkpt><trkpt lat="14.48350088826641" lon="120.99489265073605"><ele>9.0</ele><time>2026-04-09T03:37:29Z</time></trkpt><trkpt lat="14.483420276361107" lon="120.99494943098927"><ele>9.0</ele><time>2026-04-09T03:37:30Z</time></trkpt><trkpt lat="14.483340947826294" lon="120.99500396684358"><ele>9.0</ele><time>2026-04-09T03:37:31Z</time></trkpt><trkpt lat="14.483263832554691" lon="120.99505668918707"><ele>9.0</ele><time>2026-04-09T03:37:32Z</time></trkpt><trkpt lat="14.48318937585247" lon="120.99510960347057"><ele>9.0</ele><time>2026-04-09T03:37:33Z</time></trkpt><trkpt lat="14.483116504604318" lon="120.99516046223556"><ele>9.0</ele><time>2026-04-09T03:37:34Z</time></trkpt><trkpt lat="14.483044528660558" lon="120.99521171664462"><ele>9.0</ele><time>2026-04-09T03:37:35Z</time></trkpt><trkpt lat="14.48297704890588" lon="120.99526028475798"><ele>9.0</ele><time>2026-04-09T03:37:36Z</time></trkpt><trkpt lat="14.482914479058755" lon="120.99530435693855"><ele>9.0</ele><time>2026-04-09T03:37:37Z</time></trkpt><trkpt lat="14.4828547853648" lon="120.99534693566562"><ele>9.0</ele><time>2026-04-09T03:37:38Z</time></trkpt><trkpt lat="14.482798516540106" lon="120.99538656622693"><ele>9.0</ele><time>2026-04-09T03:37:39Z</time></trkpt><trkpt lat="14.482740718744747" lon="120.99542797400059"><ele>9.0</ele><time>2026-04-09T03:37:40Z</time></trkpt><trkpt lat="14.482680321693152" lon="120.99547167949804"><ele>9.0</ele><time>2026-04-09T03:37:41Z</time></trkpt><trkpt lat="14.482618877539503" lon="120.99551725107975"><ele>9.0</ele><time>2026-04-09T03:37:42Z</time></trkpt><trkpt lat="14.482553740879913" lon="120.99556291742034"><ele>9.0</ele><time>2026-04-09T03:37:43Z</time></trkpt><trkpt lat="14.482487144570852" lon="120.99560898210358"><ele>9.0</ele><time>2026-04-09T03:37:44Z</time></trkpt><trkpt lat="14.48241939850168" lon="120.99565623970072"><ele>9.0</ele><time>2026-04-09T03:37:45Z</time></trkpt><trkpt lat="14.482350622913089" lon="120.99570439561356"><ele>9.0</ele><time>2026-04-09T03:37:46Z</time></trkpt><trkpt lat="14.482280747495569" lon="120.9957530317348"><ele>9.0</ele><time>2026-04-09T03:37:47Z</time></trkpt><trkpt lat="14.482211541784633" lon="120.99580044194653"><ele>9.0</ele><time>2026-04-09T03:37:48Z</time></trkpt><trkpt lat="14.482142265376623" lon="120.99584811205389"><ele>9.0</ele><time>2026-04-09T03:37:49Z</time></trkpt><trkpt lat="14.482073295971194" lon="120.9958932413424"><ele>9.0</ele><time>2026-04-09T03:37:50Z</time></trkpt><trkpt lat="14.48200534539172" lon="120.99594025009162"><ele>8.833333333333334</ele><time>2026-04-09T03:37:51Z</time></trkpt><trkpt lat="14.481939242592945" lon="120.99598932850822"><ele>8.666666666666666</ele><time>2026-04-09T03:37:52Z</time></trkpt><trkpt lat="14.481871335747678" lon="120.99604058298898"><ele>8.5</ele><time>2026-04-09T03:37:53Z</time></trkpt><trkpt lat="14.481803413780241" lon="120.99609150019039"><ele>8.333333333333332</ele><time>2026-04-09T03:37:54Z</time></trkpt><trkpt lat="14.481732772398182" lon="120.99614332781829"><ele>8.166666666666666</ele><time>2026-04-09T03:37:55Z</time></trkpt><trkpt lat="14.481662022093412" lon="120.99619379797016"><ele>8.0</ele><time>2026-04-09T03:37:56Z</time></trkpt><trkpt lat="14.481589666759108" lon="120.99624590377046"><ele>7.999999999999999</ele><time>2026-04-09T03:37:57Z</time></trkpt><trkpt lat="14.48151910928198" lon="120.99629744945771"><ele>8.0</ele><time>2026-04-09T03:37:58Z</time></trkpt><trkpt lat="14.481447994606537" lon="120.99634731319206"><ele>8.0</ele><time>2026-04-09T03:37:59Z</time></trkpt><trkpt lat="14.481381154992524" lon="120.99639531425936"><ele>8.0</ele><time>2026-04-09T03:38:00Z</time></trkpt><trkpt lat="14.481316017959482" lon="120.99643896195339"><ele>7.999999999999999</ele><time>2026-04-09T03:38:01Z</time></trkpt><trkpt lat="14.481249969710257" lon="120.99648144930455"><ele>8.0</ele><time>2026-04-09T03:38:02Z</time></trkpt><trkpt lat="14.481187033696687" lon="120.99652196108163"><ele>7.999999999999999</ele><time>2026-04-09T03:38:03Z</time></trkpt><trkpt lat="14.481125638999053" lon="120.99656164837772"><ele>8.0</ele><time>2026-04-09T03:38:04Z</time></trkpt><trkpt lat="14.481070627569153" lon="120.99660084191476"><ele>8.0</ele><time>2026-04-09T03:38:05Z</time></trkpt><trkpt lat="14.480994900902838" lon="120.99665710527002"><ele>8.0</ele><time>2026-04-09T03:38:07Z</time></trkpt><trkpt lat="14.480939922159596" lon="120.99668924266753"><ele>7.999999999999999</ele><time>2026-04-09T03:38:12Z</time></trkpt><trkpt lat="14.480880050217726" lon="120.99674439085919"><ele>8.0</ele><time>2026-04-09T03:39:54Z</time></trkpt><trkpt lat="14.480924757520008" lon="120.99681917996574"><ele>8.0</ele><time>2026-04-09T03:40:05.049Z</time></trkpt><trkpt lat="14.481041446563163" lon="120.99699256357243"><ele>8.0</ele><time>2026-04-09T03:40:06.047Z</time></trkpt><trkpt lat="14.481075577064644" lon="120.99705613831208"><ele>8.0</ele><time>2026-04-09T03:40:09.038Z</time></trkpt><trkpt lat="14.481167552763377" lon="120.99700309058208"><ele>8.0</ele><time>2026-04-09T03:40:10.039Z</time></trkpt><trkpt lat="14.48112792616997" lon="120.9968691274982"><ele>7.999999999999999</ele><time>2026-04-09T03:40:11.04Z</time></trkpt><trkpt lat="14.481198291627505" lon="120.99686146090004"><ele>8.0</ele><time>2026-04-09T03:40:13.042Z</time></trkpt><trkpt lat="14.481179752726232" lon="120.9969857455245"><ele>8.0</ele><time>2026-04-09T03:40:19.04Z</time></trkpt><trkpt lat="14.481123118622962" lon="120.99694099300349"><ele>8.0</ele><time>2026-04-09T03:40:24.038Z</time></trkpt><trkpt lat="14.481093753322863" lon="120.99687622530283"><ele>7.999999999999999</ele><time>2026-04-09T03:40:27Z</time></trkpt><trkpt lat="14.48104686898598" lon="120.99681061058929"><ele>8.0</ele><time>2026-04-09T03:40:29Z</time></trkpt><trkpt lat="14.48098292648595" lon="120.99681262279353"><ele>8.0</ele><time>2026-04-09T03:41:02Z</time></trkpt><trkpt lat="14.48092935020411" lon="120.99684834031602"><ele>8.0</ele><time>2026-04-09T03:41:19Z</time></trkpt><trkpt lat="14.480930090079172" lon="120.9969300258151"><ele>8.0</ele><time>2026-04-09T03:41:26Z</time></trkpt><trkpt lat="14.480865691221569" lon="120.99690224865034"><ele>8.0</ele><time>2026-04-09T03:41:34Z</time></trkpt><trkpt lat="14.48093167160836" lon="120.99662408488648"><ele>8.0</ele><time>2026-04-09T03:43:10.022Z</time></trkpt><trkpt lat="14.480954294324267" lon="120.9967015536816"><ele>7.999999999999999</ele><time>2026-04-09T03:43:58Z</time></trkpt><trkpt lat="14.48089947392935" lon="120.99665966401102"><ele>8.0</ele><time>2026-04-09T04:36:20.999Z</time></trkpt><trkpt lat="14.480844340409526" lon="120.99669840624757"><ele>8.0</ele><time>2026-04-09T04:36:32.999Z</time></trkpt><trkpt lat="14.48078878839327" lon="120.99673880004075"><ele>7.999999999999999</ele><time>2026-04-09T04:36:41.999Z</time></trkpt><trkpt lat="14.48073447864065" lon="120.9967730403478"><ele>8.0</ele><time>2026-04-09T04:36:51Z</time></trkpt><trkpt lat="14.48068459099952" lon="120.99681420290788"><ele>8.0</ele><time>2026-04-09T04:37:00Z</time></trkpt><trkpt lat="14.480629828635896" lon="120.9968522260821"><ele>8.0</ele><time>2026-04-09T04:37:08.001Z</time></trkpt><trkpt lat="14.480564400368605" lon="120.99687939639668"><ele>7.999999999999999</ele><time>2026-04-09T04:37:16.001Z</time></trkpt><trkpt lat="14.480506600119337" lon="120.99691172868388"><ele>8.0</ele><time>2026-04-09T04:37:25.001Z</time></trkpt><trkpt lat="14.480448005399944" lon="120.99694520405775"><ele>8.0</ele><time>2026-04-09T04:37:35.001Z</time></trkpt><trkpt lat="14.480398093365134" lon="120.99699052586112"><ele>7.999999999999999</ele><time>2026-04-09T04:37:41.001Z</time></trkpt><trkpt lat="14.48034821580669" lon="120.99704261047444"><ele>8.0</ele><time>2026-04-09T04:37:47.001Z</time></trkpt><trkpt lat="14.480296856537812" lon="120.99708310779597"><ele>8.0</ele><time>2026-04-09T04:37:53.001Z</time></trkpt><trkpt lat="14.480231665485496" lon="120.99710957400605"><ele>8.142857142857142</ele><time>2026-04-09T04:38:02.001Z</time></trkpt><trkpt lat="14.48018698298069" lon="120.9971598340387"><ele>8.285714285714285</ele><time>2026-04-09T04:38:10.001Z</time></trkpt><trkpt lat="14.480122022585814" lon="120.99718790094757"><ele>8.428571428571429</ele><time>2026-04-09T04:38:16.001Z</time></trkpt><trkpt lat="14.480058867349504" lon="120.9972246180174"><ele>8.571428571428571</ele><time>2026-04-09T04:38:22.001Z</time></trkpt><trkpt lat="14.479994970744986" lon="120.99725952446357"><ele>8.714285714285715</ele><time>2026-04-09T04:38:29.001Z</time></trkpt><trkpt lat="14.479937421854796" lon="120.99729567903341"><ele>8.857142857142858</ele><time>2026-04-09T04:38:35.001Z</time></trkpt><trkpt lat="14.479883523838037" lon="120.99733719937369"><ele>9.0</ele><time>2026-04-09T04:38:44.001Z</time></trkpt><trkpt lat="14.479831810660151" lon="120.99737583304086"><ele>9.0</ele><time>2026-04-09T04:38:51.001Z</time></trkpt><trkpt lat="14.479780388260501" lon="120.99742740256212"><ele>9.0</ele><time>2026-04-09T04:38:58.001Z</time></trkpt><trkpt lat="14.479720216589952" lon="120.99745506141998"><ele>9.0</ele><time>2026-04-09T04:39:04.001Z</time></trkpt><trkpt lat="14.479665709014505" lon="120.99749398769877"><ele>9.0</ele><time>2026-04-09T04:39:12.001Z</time></trkpt><trkpt lat="14.479600440046507" lon="120.99750661204688"><ele>9.0</ele><time>2026-04-09T04:39:25.001Z</time></trkpt><trkpt lat="14.479337126293926" lon="120.99749679956807"><ele>9.0</ele><time>2026-04-09T04:50:08.001Z</time></trkpt><trkpt lat="14.479596930697898" lon="120.99749330061088"><ele>9.0</ele><time>2026-04-09T04:50:11Z</time></trkpt><trkpt lat="14.4797424508686" lon="120.99756389303572"><ele>9.0</ele><time>2026-04-09T04:59:53.001Z</time></trkpt><trkpt lat="14.479686676773952" lon="120.99751968116966"><ele>9.0</ele><time>2026-04-09T05:00:09.001Z</time></trkpt><trkpt lat="14.479771018651276" lon="120.99760856745"><ele>9.0</ele><time>2026-04-09T05:01:36.024Z</time></trkpt><trkpt lat="14.479784221801488" lon="120.99746532846397"><ele>9.0</ele><time>2026-04-09T05:03:36.014Z</time></trkpt><trkpt lat="14.47971516969886" lon="120.9974434038626"><ele>9.0</ele><time>2026-04-09T05:05:46.001Z</time></trkpt><trkpt lat="14.479778798139987" lon="120.99751372273982"><ele>9.0</ele><time>2026-04-09T05:06:53Z</time></trkpt><trkpt lat="14.479742612542458" lon="120.9974593469499"><ele>9.0</ele><time>2026-04-09T05:07:13Z</time></trkpt><trkpt lat="14.479623031017542" lon="120.99737125073372"><ele>9.0</ele><time>2026-04-09T05:21:34Z</time></trkpt><trkpt lat="14.47964549215292" lon="120.9974816036403"><ele>9.0</ele><time>2026-04-09T05:21:59Z</time></trkpt><trkpt lat="14.479699321979053" lon="120.99744270930086"><ele>9.0</ele><time>2026-04-09T05:22:38Z</time></trkpt><trkpt lat="14.479758682872589" lon="120.99740256993846"><ele>9.0</ele><time>2026-04-09T05:22:46Z</time></trkpt><trkpt lat="14.479826461165244" lon="120.99738083307695"><ele>9.000000000000002</ele><time>2026-04-09T05:22:52Z</time></trkpt><trkpt lat="14.479872854706569" lon="120.99733383674665"><ele>9.0</ele><time>2026-04-09T05:22:59Z</time></trkpt><trkpt lat="14.479927610147026" lon="120.99729287633537"><ele>9.0</ele><time>2026-04-09T05:23:05Z</time></trkpt><trkpt lat="14.479993161541763" lon="120.99726916403164"><ele>9.0</ele><time>2026-04-09T05:23:13Z</time></trkpt><trkpt lat="14.480061209536904" lon="120.99722936174422"><ele>9.0</ele><time>2026-04-09T05:23:20Z</time></trkpt><trkpt lat="14.480126052607078" lon="120.99720169634517"><ele>9.000000000000002</ele><time>2026-04-09T05:23:27Z</time></trkpt><trkpt lat="14.480186885999501" lon="120.99716474886752"><ele>9.0</ele><time>2026-04-09T05:23:34Z</time></trkpt><trkpt lat="14.480250516019522" lon="120.99712980038147"><ele>9.000000000000002</ele><time>2026-04-09T05:23:41Z</time></trkpt><trkpt lat="14.480300081635598" lon="120.99708266213337"><ele>9.0</ele><time>2026-04-09T05:23:50Z</time></trkpt><trkpt lat="14.480355060503458" lon="120.99704253620848"><ele>9.0</ele><time>2026-04-09T05:23:57Z</time></trkpt><trkpt lat="14.480414479790323" lon="120.99701215619577"><ele>9.0</ele><time>2026-04-09T05:24:03Z</time></trkpt><trkpt lat="14.480475081853859" lon="120.99697927601375"><ele>9.0</ele><time>2026-04-09T05:24:11Z</time></trkpt><trkpt lat="14.48051322259275" lon="120.99692392545784"><ele>9.000000000000002</ele><time>2026-04-09T05:24:17Z</time></trkpt><trkpt lat="14.480557408804966" lon="120.99687714871362"><ele>9.0</ele><time>2026-04-09T05:24:24Z</time></trkpt><trkpt lat="14.480624462301757" lon="120.99685585413461"><ele>8.833333333333334</ele><time>2026-04-09T05:24:31Z</time></trkpt><trkpt lat="14.480683749870987" lon="120.9968268784368"><ele>8.666666666666666</ele><time>2026-04-09T05:24:38Z</time></trkpt><trkpt lat="14.480742492420909" lon="120.99679012616475"><ele>8.5</ele><time>2026-04-09T05:24:46Z</time></trkpt><trkpt lat="14.480799067019227" lon="120.99674647457226"><ele>8.333333333333332</ele><time>2026-04-09T05:24:54Z</time></trkpt><trkpt lat="14.480864473654949" lon="120.99671351371272"><ele>8.166666666666666</ele><time>2026-04-09T05:25:01Z</time></trkpt><trkpt lat="14.480906945983817" lon="120.99665330412572"><ele>8.0</ele><time>2026-04-09T05:25:27Z</time></trkpt><trkpt lat="14.481009813349992" lon="120.99673875099924"><ele>7.999999999999999</ele><time>2026-04-09T05:26:05Z</time></trkpt><trkpt lat="14.48107532926125" lon="120.99681090373048"><ele>8.0</ele><time>2026-04-09T05:26:07Z</time></trkpt><trkpt lat="14.481040898049718" lon="120.99675111577594"><ele>8.0</ele><time>2026-04-09T05:26:11Z</time></trkpt><trkpt lat="14.480958262831528" lon="120.99673592688646"><ele>8.0</ele><time>2026-04-09T05:28:07.012Z</time></trkpt><trkpt lat="14.480925229599547" lon="120.99665397857908"><ele>7.999999999999999</ele><time>2026-04-09T05:44:09Z</time></trkpt><trkpt lat="14.480914352819351" lon="120.99672752707023"><ele>8.0</ele><time>2026-04-09T05:46:05Z</time></trkpt><trkpt lat="14.480913465091534" lon="120.9967941891682"><ele>8.0</ele><time>2026-04-09T05:46:12Z</time></trkpt><trkpt lat="14.48085154270972" lon="120.99660687485276"><ele>8.0</ele><time>2026-04-09T05:51:04Z</time></trkpt><trkpt lat="14.48090761201133" lon="120.99666579371109"><ele>8.0</ele><time>2026-04-09T05:51:15Z</time></trkpt><trkpt lat="14.4810042837223" lon="120.99663427390144"><ele>8.0</ele><time>2026-04-09T05:53:24Z</time></trkpt><trkpt lat="14.48094711213218" lon="120.99666239817564"><ele>8.0</ele><time>2026-04-09T05:53:31Z</time></trkpt><trkpt lat="14.48088039399518" lon="120.99668016156005"><ele>7.999999999999999</ele><time>2026-04-09T05:54:27Z</time></trkpt><trkpt lat="14.48092352191572" lon="120.99673819670296"><ele>8.0</ele><time>2026-04-09T05:55:29.051Z</time></trkpt><trkpt lat="14.480986551200303" lon="120.99676100269467"><ele>8.0</ele><time>2026-04-09T05:55:32.047Z</time></trkpt><trkpt lat="14.480935226535435" lon="120.99665583356932"><ele>8.0</ele><time>2026-04-09T06:01:09Z</time></trkpt><trkpt lat="14.480901536590734" lon="120.99671283564574"><ele>7.999999999999999</ele><time>2026-04-09T06:02:58Z</time></trkpt><trkpt lat="14.480850673772359" lon="120.99678731848985"><ele>8.0</ele><time>2026-04-09T06:03:00Z</time></trkpt><trkpt lat="14.480817341662895" lon="120.99685458240516"><ele>7.999999999999999</ele><time>2026-04-09T06:03:04Z</time></trkpt><trkpt lat="14.480811034446962" lon="120.99691994429263"><ele>8.0</ele><time>2026-04-09T06:03:09Z</time></trkpt><trkpt lat="14.480898541462155" lon="120.99689029915486"><ele>8.0</ele><time>2026-04-09T06:03:13Z</time></trkpt><trkpt lat="14.48098869412045" lon="120.99684234261608"><ele>8.0</ele><time>2026-04-09T06:03:15Z</time></trkpt><trkpt lat="14.48108194638886" lon="120.9967813265977"><ele>7.999999999999999</ele><time>2026-04-09T06:03:17Z</time></trkpt><trkpt lat="14.481136961202965" lon="120.9967427700722"><ele>8.0</ele><time>2026-04-09T06:03:18Z</time></trkpt><trkpt lat="14.481199185315443" lon="120.99669786676183"><ele>7.999999999999999</ele><time>2026-04-09T06:03:19Z</time></trkpt><trkpt lat="14.481255304853708" lon="120.99665354840249"><ele>8.0</ele><time>2026-04-09T06:03:20Z</time></trkpt><trkpt lat="14.481317801284428" lon="120.99660847967272"><ele>8.0</ele><time>2026-04-09T06:03:21Z</time></trkpt><trkpt lat="14.481381769371705" lon="120.99656523791306"><ele>8.0</ele><time>2026-04-09T06:03:22Z</time></trkpt><trkpt lat="14.481448369133828" lon="120.99651485840565"><ele>7.999999999999999</ele><time>2026-04-09T06:03:23Z</time></trkpt><trkpt lat="14.481565147792404" lon="120.99643118808173"><ele>8.0</ele><time>2026-04-09T06:03:24Z</time></trkpt><trkpt lat="14.481644092632102" lon="120.99637503250005"><ele>8.0</ele><time>2026-04-09T06:03:25Z</time></trkpt><trkpt lat="14.48172106733082" lon="120.99632361291705"><ele>8.0</ele><time>2026-04-09T06:03:26Z</time></trkpt><trkpt lat="14.481801618697627" lon="120.99626818227688"><ele>8.0</ele><time>2026-04-09T06:03:27Z</time></trkpt><trkpt lat="14.481881691688624" lon="120.99620993096202"><ele>8.0</ele><time>2026-04-09T06:03:28Z</time></trkpt><trkpt lat="14.481966490440927" lon="120.99614743389486"><ele>8.0</ele><time>2026-04-09T06:03:29Z</time></trkpt><trkpt lat="14.482051219381093" lon="120.99608733425679"><ele>8.0</ele><time>2026-04-09T06:03:30Z</time></trkpt><trkpt lat="14.48213737749104" lon="120.99602738711383"><ele>8.0</ele><time>2026-04-09T06:03:31Z</time></trkpt><trkpt lat="14.482220074287627" lon="120.995968554673"><ele>8.0</ele><time>2026-04-09T06:03:32Z</time></trkpt><trkpt lat="14.48230103958182" lon="120.99590994602359"><ele>8.0</ele><time>2026-04-09T06:03:33Z</time></trkpt><trkpt lat="14.482378620856442" lon="120.99585060340807"><ele>8.0</ele><time>2026-04-09T06:03:34Z</time></trkpt><trkpt lat="14.482454595693369" lon="120.99579527959877"><ele>8.166666666666666</ele><time>2026-04-09T06:03:35Z</time></trkpt><trkpt lat="14.482530468618299" lon="120.99573947877032"><ele>8.333333333333332</ele><time>2026-04-09T06:03:36Z</time></trkpt><trkpt lat="14.482604932587689" lon="120.99568635794641"><ele>8.5</ele><time>2026-04-09T06:03:37Z</time></trkpt><trkpt lat="14.482673015805986" lon="120.99563756961251"><ele>8.666666666666666</ele><time>2026-04-09T06:03:38Z</time></trkpt><trkpt lat="14.482734274912085" lon="120.99559588541774"><ele>8.833333333333334</ele><time>2026-04-09T06:03:39Z</time></trkpt><trkpt lat="14.482788510455725" lon="120.99555664093636"><ele>9.0</ele><time>2026-04-09T06:03:40Z</time></trkpt><trkpt lat="14.482888162711793" lon="120.99548376060828"><ele>9.2</ele><time>2026-04-09T06:03:42Z</time></trkpt><trkpt lat="14.482966249631797" lon="120.99542532798354"><ele>9.4</ele><time>2026-04-09T06:03:44Z</time></trkpt><trkpt lat="14.483039055864618" lon="120.99537611422328"><ele>9.6</ele><time>2026-04-09T06:03:46Z</time></trkpt><trkpt lat="14.483128172098867" lon="120.99531631303671"><ele>9.8</ele><time>2026-04-09T06:03:48Z</time></trkpt><trkpt lat="14.483227245925677" lon="120.9952410405881"><ele>10.0</ele><time>2026-04-09T06:03:50Z</time></trkpt><trkpt lat="14.483285326218587" lon="120.99519978523956"><ele>10.0</ele><time>2026-04-09T06:03:51Z</time></trkpt><trkpt lat="14.483346055895515" lon="120.99515599315505"><ele>10.0</ele><time>2026-04-09T06:03:52Z</time></trkpt><trkpt lat="14.483408142453694" lon="120.99511006504027"><ele>10.0</ele><time>2026-04-09T06:03:53Z</time></trkpt><trkpt lat="14.483472794864694" lon="120.99506153176382"><ele>10.0</ele><time>2026-04-09T06:03:54Z</time></trkpt><trkpt lat="14.48354150741022" lon="120.99501195040803"><ele>10.0</ele><time>2026-04-09T06:03:55Z</time></trkpt><trkpt lat="14.483616059783232" lon="120.99496128634512"><ele>10.0</ele><time>2026-04-09T06:03:56Z</time></trkpt><trkpt lat="14.483688954032546" lon="120.99491188216884"><ele>9.833333333333334</ele><time>2026-04-09T06:03:57Z</time></trkpt><trkpt lat="14.483763623333521" lon="120.99486039993944"><ele>9.666666666666668</ele><time>2026-04-09T06:03:58Z</time></trkpt><trkpt lat="14.48383473246119" lon="120.99480885206806"><ele>9.5</ele><time>2026-04-09T06:03:59Z</time></trkpt><trkpt lat="14.48390440091364" lon="120.99475799058374"><ele>9.333333333333334</ele><time>2026-04-09T06:04:00Z</time></trkpt><trkpt lat="14.483973687139004" lon="120.99470434143191"><ele>9.166666666666666</ele><time>2026-04-09T06:04:01Z</time></trkpt><trkpt lat="14.484044189511666" lon="120.99465026208136"><ele>9.0</ele><time>2026-04-09T06:04:02Z</time></trkpt><trkpt lat="14.484114730620318" lon="120.994597417699"><ele>9.0</ele><time>2026-04-09T06:04:03Z</time></trkpt><trkpt lat="14.484186963968272" lon="120.99454463302942"><ele>9.0</ele><time>2026-04-09T06:04:04Z</time></trkpt><trkpt lat="14.484257785363077" lon="120.99449314383604"><ele>9.0</ele><time>2026-04-09T06:04:05Z</time></trkpt><trkpt lat="14.484329211582246" lon="120.99444162396601"><ele>9.0</ele><time>2026-04-09T06:04:06Z</time></trkpt><trkpt lat="14.484401165892185" lon="120.99439007749253"><ele>9.0</ele><time>2026-04-09T06:04:07Z</time></trkpt><trkpt lat="14.484471182670553" lon="120.99433774566721"><ele>9.0</ele><time>2026-04-09T06:04:08Z</time></trkpt><trkpt lat="14.484536781924934" lon="120.99428259350597"><ele>8.333333333333334</ele><time>2026-04-09T06:04:09Z</time></trkpt><trkpt lat="14.484597959171623" lon="120.99422507265885"><ele>7.666666666666667</ele><time>2026-04-09T06:04:10Z</time></trkpt><trkpt lat="14.484652206614433" lon="120.9941649100114"><ele>7.0</ele><time>2026-04-09T06:04:11Z</time></trkpt><trkpt lat="14.484700177910753" lon="120.9941023012573"><ele>6.333333333333334</ele><time>2026-04-09T06:04:12Z</time></trkpt><trkpt lat="14.484741365766427" lon="120.99403765256994"><ele>5.666666666666667</ele><time>2026-04-09T06:04:13Z</time></trkpt><trkpt lat="14.484780884486902" lon="120.99397207316157"><ele>5.0</ele><time>2026-04-09T06:04:14Z</time></trkpt><trkpt lat="14.484815710451954" lon="120.99390523992535"><ele>4.666666666666667</ele><time>2026-04-09T06:04:15Z</time></trkpt><trkpt lat="14.48484120908562" lon="120.99383610325474"><ele>4.333333333333334</ele><time>2026-04-09T06:04:16Z</time></trkpt><trkpt lat="14.4848621251341" lon="120.99376773941513"><ele>4.0</ele><time>2026-04-09T06:04:17Z</time></trkpt><trkpt lat="14.484878239227847" lon="120.99370260232236"><ele>3.666666666666667</ele><time>2026-04-09T06:04:18Z</time></trkpt><trkpt lat="14.484898270984868" lon="120.993583145075"><ele>3.3333333333333335</ele><time>2026-04-09T06:04:20Z</time></trkpt><trkpt lat="14.484905615167786" lon="120.99347226361047"><ele>3.0</ele><time>2026-04-09T06:04:22Z</time></trkpt><trkpt lat="14.484912099589447" lon="120.99338940715853"><ele>3.666666666666667</ele><time>2026-04-09T06:04:24Z</time></trkpt><trkpt lat="14.484915343818988" lon="120.9933233637794"><ele>4.333333333333334</ele><time>2026-04-09T06:04:26Z</time></trkpt><trkpt lat="14.484921136678173" lon="120.9932562812846"><ele>5.0</ele><time>2026-04-09T06:04:28Z</time></trkpt><trkpt lat="14.48492765606994" lon="120.99318857299289"><ele>5.666666666666667</ele><time>2026-04-09T06:04:30Z</time></trkpt><trkpt lat="14.484942720038804" lon="120.9931217770676"><ele>6.333333333333334</ele><time>2026-04-09T06:04:32Z</time></trkpt><trkpt lat="14.484943369921734" lon="120.99304926751796"><ele>7.0</ele><time>2026-04-09T06:04:36Z</time></trkpt><trkpt lat="14.484719779726912" lon="120.99296902382385"><ele>7.000000000000001</ele><time>2026-04-09T06:04:40Z</time></trkpt><trkpt lat="14.484638633513878" lon="120.99292349627227"><ele>7.0</ele><time>2026-04-09T06:04:43Z</time></trkpt><trkpt lat="14.484554050237257" lon="120.9928784121606"><ele>7.0</ele><time>2026-04-09T06:04:46Z</time></trkpt><trkpt lat="14.484486535818963" lon="120.99283706769529"><ele>7.0</ele><time>2026-04-09T06:04:49Z</time></trkpt><trkpt lat="14.484428735945162" lon="120.9928008183679"><ele>7.000000000000001</ele><time>2026-04-09T06:04:52Z</time></trkpt><trkpt lat="14.484361465924513" lon="120.99275696635644"><ele>7.0</ele><time>2026-04-09T06:04:54Z</time></trkpt><trkpt lat="14.484280573476676" lon="120.99270138234638"><ele>6.833333333333334</ele><time>2026-04-09T06:04:56Z</time></trkpt><trkpt lat="14.484177812095268" lon="120.99263466823608"><ele>6.666666666666667</ele><time>2026-04-09T06:04:58Z</time></trkpt><trkpt lat="14.484120952000739" lon="120.99259675775261"><ele>6.5</ele><time>2026-04-09T06:04:59Z</time></trkpt><trkpt lat="14.48406029195785" lon="120.99255710696822"><ele>6.333333333333334</ele><time>2026-04-09T06:05:00Z</time></trkpt><trkpt lat="14.483997066387959" lon="120.99251586534888"><ele>6.166666666666667</ele><time>2026-04-09T06:05:01Z</time></trkpt><trkpt lat="14.48393126535861" lon="120.99247470842249"><ele>6.0</ele><time>2026-04-09T06:05:02Z</time></trkpt><trkpt lat="14.483870234784835" lon="120.99243629562693"><ele>5.833333333333333</ele><time>2026-04-09T06:05:03Z</time></trkpt><trkpt lat="14.483808507310027" lon="120.99239696183729"><ele>5.666666666666667</ele><time>2026-04-09T06:05:04Z</time></trkpt><trkpt lat="14.483751012336064" lon="120.99235086077913"><ele>5.5</ele><time>2026-04-09T06:05:05Z</time></trkpt><trkpt lat="14.48369877418316" lon="120.99230583234507"><ele>5.333333333333334</ele><time>2026-04-09T06:05:06Z</time></trkpt><trkpt lat="14.483650963687616" lon="120.99226014787872"><ele>5.166666666666667</ele><time>2026-04-09T06:05:07Z</time></trkpt><trkpt lat="14.48356855995647" lon="120.99217756247572"><ele>5.0</ele><time>2026-04-09T06:05:09Z</time></trkpt><trkpt lat="14.483500227098448" lon="120.9920763112533"><ele>5.333333333333334</ele><time>2026-04-09T06:05:11Z</time></trkpt><trkpt lat="14.483465597247019" lon="120.99201466459958"><ele>5.666666666666667</ele><time>2026-04-09T06:05:12Z</time></trkpt><trkpt lat="14.483432895941906" lon="120.99193273521999"><ele>6.0</ele><time>2026-04-09T06:05:13Z</time></trkpt><trkpt lat="14.483406728115405" lon="120.99185151396074"><ele>6.333333333333334</ele><time>2026-04-09T06:05:14Z</time></trkpt><trkpt lat="14.483382404411895" lon="120.99177905886287"><ele>6.666666666666667</ele><time>2026-04-09T06:05:15Z</time></trkpt><trkpt lat="14.483360132031402" lon="120.99170058921395"><ele>7.0</ele><time>2026-04-09T06:05:16Z</time></trkpt><trkpt lat="14.483338224375663" lon="120.99162448778996"><ele>7.0</ele><time>2026-04-09T06:05:17Z</time></trkpt><trkpt lat="14.483314115131686" lon="120.99154797462423"><ele>7.0</ele><time>2026-04-09T06:05:18Z</time></trkpt><trkpt lat="14.483297319919497" lon="120.99147333742174"><ele>7.0</ele><time>2026-04-09T06:05:19Z</time></trkpt><trkpt lat="14.483280488932166" lon="120.99139671278371"><ele>7.0</ele><time>2026-04-09T06:05:20Z</time></trkpt><trkpt lat="14.483270004482426" lon="120.99131824267283"><ele>7.0</ele><time>2026-04-09T06:05:21Z</time></trkpt><trkpt lat="14.483268542908995" lon="120.99124502051563"><ele>7.0</ele><time>2026-04-09T06:05:22Z</time></trkpt><trkpt lat="14.4832541515361" lon="120.99117413082335"><ele>7.0</ele><time>2026-04-09T06:05:23Z</time></trkpt><trkpt lat="14.483249505921618" lon="120.99107815708561"><ele>7.0</ele><time>2026-04-09T06:05:24Z</time></trkpt><trkpt lat="14.483255320547595" lon="120.99098146410783"><ele>6.999999999999999</ele><time>2026-04-09T06:05:25Z</time></trkpt><trkpt lat="14.483278424169475" lon="120.99088502459846"><ele>6.999999999999999</ele><time>2026-04-09T06:05:26Z</time></trkpt><trkpt lat="14.483300609978546" lon="120.99079260909456"><ele>7.0</ele><time>2026-04-09T06:05:27Z</time></trkpt><trkpt lat="14.483331631906722" lon="120.99068666383671"><ele>7.0</ele><time>2026-04-09T06:05:28Z</time></trkpt><trkpt lat="14.483360831819368" lon="120.99057630328603"><ele>7.0</ele><time>2026-04-09T06:05:29Z</time></trkpt><trkpt lat="14.483407573419342" lon="120.9904696299304"><ele>6.999999999999999</ele><time>2026-04-09T06:05:30Z</time></trkpt><trkpt lat="14.483456105695494" lon="120.99038011435306"><ele>6.999999999999999</ele><time>2026-04-09T06:05:31Z</time></trkpt><trkpt lat="14.48349601907579" lon="120.99027648004703"><ele>7.0</ele><time>2026-04-09T06:05:32Z</time></trkpt><trkpt lat="14.483530626960077" lon="120.99017324024969"><ele>7.0</ele><time>2026-04-09T06:05:33Z</time></trkpt><trkpt lat="14.483550051926267" lon="120.99007736121106"><ele>6.428571428571429</ele><time>2026-04-09T06:05:34Z</time></trkpt><trkpt lat="14.48356408246549" lon="120.99000537576916"><ele>5.857142857142857</ele><time>2026-04-09T06:05:35Z</time></trkpt><trkpt lat="14.483576815298436" lon="120.9899207269769"><ele>5.285714285714286</ele><time>2026-04-09T06:05:36Z</time></trkpt><trkpt lat="14.483574523651999" lon="120.98983316482541"><ele>4.714285714285714</ele><time>2026-04-09T06:05:37Z</time></trkpt><trkpt lat="14.483563140761927" lon="120.98975359883809"><ele>4.142857142857142</ele><time>2026-04-09T06:05:38Z</time></trkpt><trkpt lat="14.483548326751638" lon="120.98968618801082"><ele>3.571428571428571</ele><time>2026-04-09T06:05:39Z</time></trkpt><trkpt lat="14.483529586102076" lon="120.9896218143439"><ele>3.0</ele><time>2026-04-09T06:05:40Z</time></trkpt><trkpt lat="14.48348310069031" lon="120.9895351913666"><ele>3.0</ele><time>2026-04-09T06:05:41Z</time></trkpt><trkpt lat="14.483425717058854" lon="120.98943553426963"><ele>3.0</ele><time>2026-04-09T06:05:42Z</time></trkpt><trkpt lat="14.48336881382309" lon="120.98934014900412"><ele>3.0</ele><time>2026-04-09T06:05:43Z</time></trkpt><trkpt lat="14.48332760348883" lon="120.98925954936166"><ele>3.0</ele><time>2026-04-09T06:05:44Z</time></trkpt><trkpt lat="14.483283017123503" lon="120.98918052122583"><ele>3.0</ele><time>2026-04-09T06:05:45Z</time></trkpt><trkpt lat="14.483239015238818" lon="120.98910298568781"><ele>3.1666666666666665</ele><time>2026-04-09T06:05:46Z</time></trkpt><trkpt lat="14.483193639106448" lon="120.98902220492151"><ele>3.333333333333333</ele><time>2026-04-09T06:05:47Z</time></trkpt><trkpt lat="14.48315042714368" lon="120.98894740208904"><ele>3.5</ele><time>2026-04-09T06:05:48Z</time></trkpt><trkpt lat="14.48310928681268" lon="120.9888735242602"><ele>3.6666666666666665</ele><time>2026-04-09T06:05:49Z</time></trkpt><trkpt lat="14.48307123410436" lon="120.98879751440829"><ele>3.833333333333333</ele><time>2026-04-09T06:05:50Z</time></trkpt><trkpt lat="14.483032749074688" lon="120.98871890078534"><ele>4.0</ele><time>2026-04-09T06:05:51Z</time></trkpt><trkpt lat="14.482992726134842" lon="120.98864284102795"><ele>3.9999999999999996</ele><time>2026-04-09T06:05:52Z</time></trkpt><trkpt lat="14.482945619359285" lon="120.98857077177564"><ele>4.0</ele><time>2026-04-09T06:05:53Z</time></trkpt><trkpt lat="14.482889456883452" lon="120.98850744035933"><ele>4.0</ele><time>2026-04-09T06:05:54Z</time></trkpt><trkpt lat="14.48283013177985" lon="120.98844912329797"><ele>4.0</ele><time>2026-04-09T06:05:55Z</time></trkpt><trkpt lat="14.482766893167094" lon="120.98839740334682"><ele>3.9999999999999996</ele><time>2026-04-09T06:05:56Z</time></trkpt><trkpt lat="14.482700045784362" lon="120.98834779306837"><ele>4.0</ele><time>2026-04-09T06:05:57Z</time></trkpt><trkpt lat="14.482639171855316" lon="120.9883100546543"><ele>3.6666666666666665</ele><time>2026-04-09T06:05:58Z</time></trkpt><trkpt lat="14.482580923438169" lon="120.98827154042725"><ele>3.333333333333333</ele><time>2026-04-09T06:05:59Z</time></trkpt><trkpt lat="14.48252254774352" lon="120.98823304209866"><ele>3.0</ele><time>2026-04-09T06:06:00Z</time></trkpt><trkpt lat="14.482453401637635" lon="120.98819530628634"><ele>2.6666666666666665</ele><time>2026-04-09T06:06:01Z</time></trkpt><trkpt lat="14.482382635005093" lon="120.98815950555182"><ele>2.333333333333333</ele><time>2026-04-09T06:06:02Z</time></trkpt><trkpt lat="14.48230193383701" lon="120.98812773951457"><ele>2.0</ele><time>2026-04-09T06:06:03Z</time></trkpt><trkpt lat="14.482222735310469" lon="120.98809319186314"><ele>2.0</ele><time>2026-04-09T06:06:04Z</time></trkpt><trkpt lat="14.482142989954927" lon="120.98805559701276"><ele>2.0</ele><time>2026-04-09T06:06:05Z</time></trkpt><trkpt lat="14.482061809987911" lon="120.98801461964511"><ele>2.0</ele><time>2026-04-09T06:06:06Z</time></trkpt><trkpt lat="14.481977149871927" lon="120.9879746235359"><ele>2.0</ele><time>2026-04-09T06:06:07Z</time></trkpt><trkpt lat="14.481890703351379" lon="120.98793328197311"><ele>2.0</ele><time>2026-04-09T06:06:08Z</time></trkpt><trkpt lat="14.48180707209841" lon="120.98789066594027"><ele>0.8</ele><time>2026-04-09T06:06:09Z</time></trkpt><trkpt lat="14.481716860378517" lon="120.98784621774509"><ele>-0.3999999999999999</ele><time>2026-04-09T06:06:10Z</time></trkpt><trkpt lat="14.481623821866943" lon="120.9877994357244"><ele>-1.6000000000000003</ele><time>2026-04-09T06:06:11Z</time></trkpt><trkpt lat="14.481528144991362" lon="120.98775224893517"><ele>-2.8000000000000003</ele><time>2026-04-09T06:06:12Z</time></trkpt><trkpt lat="14.481430037779543" lon="120.98770333601846"><ele>-4.0</ele><time>2026-04-09T06:06:13Z</time></trkpt><trkpt lat="14.481329387633126" lon="120.9876543409752"><ele>-3.0</ele><time>2026-04-09T06:06:14Z</time></trkpt><trkpt lat="14.481228006826989" lon="120.987604298835"><ele>-2.0000000000000004</ele><time>2026-04-09T06:06:15Z</time></trkpt><trkpt lat="14.481129894718718" lon="120.9875552621973"><ele>-1.0</ele><time>2026-04-09T06:06:16Z</time></trkpt><trkpt lat="14.481034109188727" lon="120.98750721400019"><ele>0.0</ele><time>2026-04-09T06:06:17Z</time></trkpt><trkpt lat="14.480940925607433" lon="120.9874604908441"><ele>1.0</ele><time>2026-04-09T06:06:18Z</time></trkpt><trkpt lat="14.480853433279377" lon="120.9874178014528"><ele>1.0</ele><time>2026-04-09T06:06:19Z</time></trkpt><trkpt lat="14.48076644924763" lon="120.98737436373393"><ele>1.0</ele><time>2026-04-09T06:06:20Z</time></trkpt><trkpt lat="14.480683640232789" lon="120.98732919757573"><ele>1.0</ele><time>2026-04-09T06:06:21Z</time></trkpt><trkpt lat="14.480603448738924" lon="120.98728019659862"><ele>1.0</ele><time>2026-04-09T06:06:22Z</time></trkpt><trkpt lat="14.480525667502832" lon="120.98722740796025"><ele>1.0</ele><time>2026-04-09T06:06:23Z</time></trkpt><trkpt lat="14.480459785632181" lon="120.98717639626842"><ele>1.5</ele><time>2026-04-09T06:06:24Z</time></trkpt><trkpt lat="14.48039373317147" lon="120.98712733446756"><ele>2.0</ele><time>2026-04-09T06:06:25Z</time></trkpt><trkpt lat="14.480330629724296" lon="120.98707776282022"><ele>2.5</ele><time>2026-04-09T06:06:26Z</time></trkpt><trkpt lat="14.48027010150998" lon="120.98702674545953"><ele>3.0</ele><time>2026-04-09T06:06:27Z</time></trkpt><trkpt lat="14.480210188625563" lon="120.98697120389136"><ele>3.4999999999999996</ele><time>2026-04-09T06:06:28Z</time></trkpt><trkpt lat="14.48014858614777" lon="120.98690904498599"><ele>4.0</ele><time>2026-04-09T06:06:29Z</time></trkpt><trkpt lat="14.480082376373085" lon="120.98684370842746"><ele>4.0</ele><time>2026-04-09T06:06:30Z</time></trkpt><trkpt lat="14.480013213210716" lon="120.98677436580758"><ele>4.0</ele><time>2026-04-09T06:06:31Z</time></trkpt><trkpt lat="14.479939947836161" lon="120.98670137690824"><ele>4.0</ele><time>2026-04-09T06:06:32Z</time></trkpt><trkpt lat="14.47986578167366" lon="120.98662496479479"><ele>4.0</ele><time>2026-04-09T06:06:33Z</time></trkpt><trkpt lat="14.47978977986042" lon="120.98654700373518"><ele>4.0</ele><time>2026-04-09T06:06:34Z</time></trkpt><trkpt lat="14.479714840629445" lon="120.98646496547128"><ele>3.5</ele><time>2026-04-09T06:06:35Z</time></trkpt><trkpt lat="14.479637117541671" lon="120.98638101634789"><ele>3.0</ele><time>2026-04-09T06:06:36Z</time></trkpt><trkpt lat="14.479554089488873" lon="120.98629847295668"><ele>2.5</ele><time>2026-04-09T06:06:37Z</time></trkpt><trkpt lat="14.479468020231637" lon="120.986215655295"><ele>2.0</ele><time>2026-04-09T06:06:38Z</time></trkpt><trkpt lat="14.47938196436092" lon="120.98612753864656"><ele>2.0</ele><time>2026-04-09T06:06:39Z</time></trkpt><trkpt lat="14.479295480220951" lon="120.98604047583528"><ele>2.0</ele><time>2026-04-09T06:06:40Z</time></trkpt><trkpt lat="14.4792080705303" lon="120.98595079698194"><ele>2.0</ele><time>2026-04-09T06:06:41Z</time></trkpt><trkpt lat="14.47912153351489" lon="120.98585629382362"><ele>2.0</ele><time>2026-04-09T06:06:42Z</time></trkpt><trkpt lat="14.479030857972488" lon="120.98576167612869"><ele>2.25</ele><time>2026-04-09T06:06:43Z</time></trkpt><trkpt lat="14.478936503538131" lon="120.98566625503611"><ele>2.5</ele><time>2026-04-09T06:06:44Z</time></trkpt><trkpt lat="14.478840433557355" lon="120.9855689888137"><ele>2.75</ele><time>2026-04-09T06:06:45Z</time></trkpt><trkpt lat="14.478742507108649" lon="120.98547150599744"><ele>3.0</ele><time>2026-04-09T06:06:46Z</time></trkpt><trkpt lat="14.478647260189382" lon="120.98537448046164"><ele>4.0</ele><time>2026-04-09T06:06:47Z</time></trkpt><trkpt lat="14.478552721852962" lon="120.98527555792822"><ele>5.0</ele><time>2026-04-09T06:06:48Z</time></trkpt><trkpt lat="14.478456828905902" lon="120.98517430443299"><ele>6.0</ele><time>2026-04-09T06:06:49Z</time></trkpt><trkpt lat="14.478359416591621" lon="120.98507322881828"><ele>7.0</ele><time>2026-04-09T06:06:50Z</time></trkpt><trkpt lat="14.478260623785717" lon="120.98497139035588"><ele>7.0</ele><time>2026-04-09T06:06:51Z</time></trkpt><trkpt lat="14.47816076550784" lon="120.98486793925308"><ele>7.0</ele><time>2026-04-09T06:06:52Z</time></trkpt><trkpt lat="14.478063165524137" lon="120.9847679101762"><ele>7.0</ele><time>2026-04-09T06:06:53Z</time></trkpt><trkpt lat="14.477964884519235" lon="120.98466757379106"><ele>7.0</ele><time>2026-04-09T06:06:54Z</time></trkpt><trkpt lat="14.477866403199826" lon="120.98456838845514"><ele>5.75</ele><time>2026-04-09T06:06:55Z</time></trkpt><trkpt lat="14.477770907709262" lon="120.98447241917088"><ele>4.5</ele><time>2026-04-09T06:06:56Z</time></trkpt><trkpt lat="14.477674679026936" lon="120.9843765110595"><ele>3.25</ele><time>2026-04-09T06:06:57Z</time></trkpt><trkpt lat="14.47758282549713" lon="120.98428302400538"><ele>2.0</ele><time>2026-04-09T06:06:58Z</time></trkpt><trkpt lat="14.477490553010476" lon="120.9841909482183"><ele>2.0</ele><time>2026-04-09T06:06:59Z</time></trkpt><trkpt lat="14.47740290094065" lon="120.98409917408546"><ele>2.0</ele><time>2026-04-09T06:07:00Z</time></trkpt><trkpt lat="14.477319519464684" lon="120.98401211175822"><ele>2.0</ele><time>2026-04-09T06:07:01Z</time></trkpt><trkpt lat="14.477241748294363" lon="120.98393455531145"><ele>2.0</ele><time>2026-04-09T06:07:02Z</time></trkpt><trkpt lat="14.477170118778762" lon="120.98386335931374"><ele>2.0</ele><time>2026-04-09T06:07:03Z</time></trkpt><trkpt lat="14.477109684106784" lon="120.98380065099023"><ele>1.9999999999999998</ele><time>2026-04-09T06:07:04Z</time></trkpt><trkpt lat="14.477051629094426" lon="120.98374217022241"><ele>2.0</ele><time>2026-04-09T06:07:05Z</time></trkpt><trkpt lat="14.476998853576449" lon="120.9836872248697"><ele>2.0</ele><time>2026-04-09T06:07:06Z</time></trkpt><trkpt lat="14.476952364605586" lon="120.983636876836"><ele>1.9999999999999998</ele><time>2026-04-09T06:07:07Z</time></trkpt><trkpt lat="14.476904884142588" lon="120.98358638897788"><ele>2.0</ele><time>2026-04-09T06:07:08Z</time></trkpt><trkpt lat="14.476857567194898" lon="120.98353740759123"><ele>2.0</ele><time>2026-04-09T06:07:09Z</time></trkpt><trkpt lat="14.476779963131248" lon="120.9834408030213"><ele>2.833333333333333</ele><time>2026-04-09T06:07:11Z</time></trkpt><trkpt lat="14.476736274038668" lon="120.98339026401054"><ele>3.666666666666667</ele><time>2026-04-09T06:07:12Z</time></trkpt><trkpt lat="14.476684218864248" lon="120.98334166633853"><ele>4.5</ele><time>2026-04-09T06:07:13Z</time></trkpt><trkpt lat="14.476630126192681" lon="120.98328745420504"><ele>5.333333333333334</ele><time>2026-04-09T06:07:14Z</time></trkpt><trkpt lat="14.476572268882865" lon="120.98322962425271"><ele>6.166666666666667</ele><time>2026-04-09T06:07:15Z</time></trkpt><trkpt lat="14.476510469969456" lon="120.98316910202013"><ele>7.0</ele><time>2026-04-09T06:07:16Z</time></trkpt><trkpt lat="14.476445030534942" lon="120.9831046545445"><ele>7.0</ele><time>2026-04-09T06:07:17Z</time></trkpt><trkpt lat="14.476379231549817" lon="120.98303762068834"><ele>6.999999999999999</ele><time>2026-04-09T06:07:18Z</time></trkpt><trkpt lat="14.476312973025662" lon="120.98296832942576"><ele>6.999999999999999</ele><time>2026-04-09T06:07:19Z</time></trkpt><trkpt lat="14.476244902589087" lon="120.98289713658947"><ele>7.0</ele><time>2026-04-09T06:07:20Z</time></trkpt><trkpt lat="14.476178261514603" lon="120.98282643697665"><ele>7.0</ele><time>2026-04-09T06:07:21Z</time></trkpt><trkpt lat="14.476107931022042" lon="120.98275595196097"><ele>6.8</ele><time>2026-04-09T06:07:22Z</time></trkpt><trkpt lat="14.476039832369514" lon="120.98268564661586"><ele>6.6</ele><time>2026-04-09T06:07:23Z</time></trkpt><trkpt lat="14.475973195836028" lon="120.98261526961277"><ele>6.3999999999999995</ele><time>2026-04-09T06:07:24Z</time></trkpt><trkpt lat="14.47590544474484" lon="120.9825461407774"><ele>6.199999999999999</ele><time>2026-04-09T06:07:25Z</time></trkpt><trkpt lat="14.475837474649609" lon="120.98247501279796"><ele>6.0</ele><time>2026-04-09T06:07:26Z</time></trkpt><trkpt lat="14.475767836680436" lon="120.98240354594014"><ele>6.4</ele><time>2026-04-09T06:07:27Z</time></trkpt><trkpt lat="14.475697585227024" lon="120.98233052185138"><ele>6.8</ele><time>2026-04-09T06:07:28Z</time></trkpt><trkpt lat="14.475626369061137" lon="120.9822575223562"><ele>7.200000000000001</ele><time>2026-04-09T06:07:29Z</time></trkpt><trkpt lat="14.475558489612004" lon="120.9821849810773"><ele>7.6000000000000005</ele><time>2026-04-09T06:07:30Z</time></trkpt><trkpt lat="14.47549063510698" lon="120.9821169367273"><ele>8.0</ele><time>2026-04-09T06:07:31Z</time></trkpt><trkpt lat="14.475424752594188" lon="120.98204934686203"><ele>8.0</ele><time>2026-04-09T06:07:32Z</time></trkpt><trkpt lat="14.47535804102804" lon="120.9819816990912"><ele>8.0</ele><time>2026-04-09T06:07:33Z</time></trkpt><trkpt lat="14.475288802478541" lon="120.981910563028"><ele>8.0</ele><time>2026-04-09T06:07:34Z</time></trkpt><trkpt lat="14.475219283719895" lon="120.9818379121211"><ele>8.0</ele><time>2026-04-09T06:07:35Z</time></trkpt><trkpt lat="14.475150746726893" lon="120.98176655123709"><ele>8.0</ele><time>2026-04-09T06:07:36Z</time></trkpt><trkpt lat="14.475081037737382" lon="120.9816958774351"><ele>8.0</ele><time>2026-04-09T06:07:37Z</time></trkpt><trkpt lat="14.47500809826561" lon="120.98162146710433"><ele>8.0</ele><time>2026-04-09T06:07:38Z</time></trkpt><trkpt lat="14.474937063180102" lon="120.98154878618948"><ele>8.0</ele><time>2026-04-09T06:07:39Z</time></trkpt><trkpt lat="14.474865104644108" lon="120.98147420085171"><ele>8.0</ele><time>2026-04-09T06:07:40Z</time></trkpt><trkpt lat="14.474792472586325" lon="120.98140077267306"><ele>8.0</ele><time>2026-04-09T06:07:41Z</time></trkpt><trkpt lat="14.474721864866877" lon="120.98132632740969"><ele>8.0</ele><time>2026-04-09T06:07:42Z</time></trkpt><trkpt lat="14.474655621381508" lon="120.98125103880487"><ele>8.0</ele><time>2026-04-09T06:07:43Z</time></trkpt><trkpt lat="14.474590063572263" lon="120.98117695322499"><ele>8.0</ele><time>2026-04-09T06:07:44Z</time></trkpt><trkpt lat="14.474530761999898" lon="120.98109889230452"><ele>8.0</ele><time>2026-04-09T06:07:45Z</time></trkpt><trkpt lat="14.474476334385706" lon="120.98101658104778"><ele>8.0</ele><time>2026-04-09T06:07:46Z</time></trkpt><trkpt lat="14.474424981897602" lon="120.98093216370478"><ele>7.4</ele><time>2026-04-09T06:07:47Z</time></trkpt><trkpt lat="14.474371363980064" lon="120.98084394419158"><ele>6.800000000000001</ele><time>2026-04-09T06:07:48Z</time></trkpt><trkpt lat="14.474320535646541" lon="120.98075209568101"><ele>6.2</ele><time>2026-04-09T06:07:49Z</time></trkpt><trkpt lat="14.474269133100336" lon="120.98065934139109"><ele>5.6</ele><time>2026-04-09T06:07:50Z</time></trkpt><trkpt lat="14.47421857253013" lon="120.98056636294814"><ele>5.0</ele><time>2026-04-09T06:07:51Z</time></trkpt><trkpt lat="14.47416802623716" lon="120.98047559885049"><ele>5.0</ele><time>2026-04-09T06:07:52Z</time></trkpt><trkpt lat="14.474115930374547" lon="120.98038473101107"><ele>5.0</ele><time>2026-04-09T06:07:53Z</time></trkpt><trkpt lat="14.474065698413927" lon="120.98028799893042"><ele>5.0</ele><time>2026-04-09T06:07:54Z</time></trkpt><trkpt lat="14.474023205896758" lon="120.98019305810226"><ele>5.0</ele><time>2026-04-09T06:07:55Z</time></trkpt><trkpt lat="14.473989857876896" lon="120.98009796807473"><ele>5.0</ele><time>2026-04-09T06:07:56Z</time></trkpt><trkpt lat="14.473965227267188" lon="120.98000337916662"><ele>5.2</ele><time>2026-04-09T06:07:57Z</time></trkpt><trkpt lat="14.473948825861042" lon="120.97990597285067"><ele>5.4</ele><time>2026-04-09T06:07:58Z</time></trkpt><trkpt lat="14.47393220965965" lon="120.97980233572063"><ele>5.6</ele><time>2026-04-09T06:07:59Z</time></trkpt><trkpt lat="14.473921257382175" lon="120.97969978459074"><ele>5.8</ele><time>2026-04-09T06:08:00Z</time></trkpt><trkpt lat="14.473908374402198" lon="120.97959780083562"><ele>6.0</ele><time>2026-04-09T06:08:01Z</time></trkpt><trkpt lat="14.473894551955297" lon="120.97950049576633"><ele>6.0</ele><time>2026-04-09T06:08:02Z</time></trkpt><trkpt lat="14.473880825339759" lon="120.97940450681713"><ele>6.0</ele><time>2026-04-09T06:08:03Z</time></trkpt><trkpt lat="14.473864860387765" lon="120.9793065159193"><ele>6.0</ele><time>2026-04-09T06:08:04Z</time></trkpt><trkpt lat="14.473848792392365" lon="120.9792149044779"><ele>6.0</ele><time>2026-04-09T06:08:05Z</time></trkpt><trkpt lat="14.473833580996104" lon="120.9791336718353"><ele>6.0</ele><time>2026-04-09T06:08:06Z</time></trkpt><trkpt lat="14.473822284711787" lon="120.97906563772516"><ele>6.0</ele><time>2026-04-09T06:08:07Z</time></trkpt><trkpt lat="14.473806693203864" lon="120.97894548970449"><ele>6.199999999999999</ele><time>2026-04-09T06:08:09Z</time></trkpt><trkpt lat="14.473794211548753" lon="120.97885137597581"><ele>6.3999999999999995</ele><time>2026-04-09T06:08:11Z</time></trkpt><trkpt lat="14.473802940386609" lon="120.97875715631757"><ele>6.6</ele><time>2026-04-09T06:08:13Z</time></trkpt><trkpt lat="14.473816307538558" lon="120.97865707623033"><ele>6.8</ele><time>2026-04-09T06:08:15Z</time></trkpt><trkpt lat="14.47385555717686" lon="120.9785407392871"><ele>7.0</ele><time>2026-04-09T06:08:17Z</time></trkpt><trkpt lat="14.473897641179425" lon="120.97843582049786"><ele>7.0</ele><time>2026-04-09T06:08:19Z</time></trkpt><trkpt lat="14.473973391321788" lon="120.9783727405632"><ele>7.0</ele><time>2026-04-09T06:08:21Z</time></trkpt><trkpt lat="14.474002984765647" lon="120.9783042912476"><ele>7.0</ele><time>2026-04-09T06:08:23Z</time></trkpt><trkpt lat="14.47402254207879" lon="120.97824144236749"><ele>7.0</ele><time>2026-04-09T06:08:26Z</time></trkpt><trkpt lat="14.474064134843154" lon="120.97818951165493"><ele>7.0</ele><time>2026-04-09T06:10:40Z</time></trkpt><trkpt lat="14.474076032946899" lon="120.97811705864694"><ele>7.0</ele><time>2026-04-09T06:10:42Z</time></trkpt><trkpt lat="14.474084367374997" lon="120.97803577302211"><ele>7.0</ele><time>2026-04-09T06:10:44Z</time></trkpt><trkpt lat="14.47407529096565" lon="120.97795700989653"><ele>7.000000000000001</ele><time>2026-04-09T06:10:46Z</time></trkpt><trkpt lat="14.47405069861041" lon="120.97788738600313"><ele>7.0</ele><time>2026-04-09T06:10:48Z</time></trkpt><trkpt lat="14.474011382689438" lon="120.97780661204467"><ele>7.0</ele><time>2026-04-09T06:10:50Z</time></trkpt><trkpt lat="14.47397269560265" lon="120.97773988636064"><ele>7.0</ele><time>2026-04-09T06:10:51Z</time></trkpt><trkpt lat="14.473938325116729" lon="120.9776761991965"><ele>7.000000000000001</ele><time>2026-04-09T06:10:52Z</time></trkpt><trkpt lat="14.473873251809387" lon="120.97755554636917"><ele>7.0</ele><time>2026-04-09T06:10:54Z</time></trkpt><trkpt lat="14.473829924583814" lon="120.977485998477"><ele>7.000000000000001</ele><time>2026-04-09T06:10:55Z</time></trkpt><trkpt lat="14.47378856087036" lon="120.9774149007906"><ele>7.0</ele><time>2026-04-09T06:10:56Z</time></trkpt><trkpt lat="14.473747116698721" lon="120.97734492495307"><ele>7.0</ele><time>2026-04-09T06:10:57Z</time></trkpt><trkpt lat="14.473704280337753" lon="120.9772746329178"><ele>7.0</ele><time>2026-04-09T06:10:58Z</time></trkpt><trkpt lat="14.473660392931329" lon="120.97720299724838"><ele>7.000000000000001</ele><time>2026-04-09T06:10:59Z</time></trkpt><trkpt lat="14.473617749169957" lon="120.97713414083216"><ele>7.0</ele><time>2026-04-09T06:11:00Z</time></trkpt><trkpt lat="14.473584481579385" lon="120.97706571840266"><ele>7.0</ele><time>2026-04-09T06:11:01Z</time></trkpt><trkpt lat="14.473545109309192" lon="120.97699646796377"><ele>7.0</ele><time>2026-04-09T06:11:02Z</time></trkpt><trkpt lat="14.473502003001839" lon="120.97693170670216"><ele>7.0</ele><time>2026-04-09T06:11:03Z</time></trkpt><trkpt lat="14.473458873533383" lon="120.97686941445603"><ele>7.0</ele><time>2026-04-09T06:11:04Z</time></trkpt><trkpt lat="14.473422337037121" lon="120.97680749215344"><ele>7.0</ele><time>2026-04-09T06:11:05Z</time></trkpt><trkpt lat="14.473382828186928" lon="120.97675078806871"><ele>7.0</ele><time>2026-04-09T06:11:06Z</time></trkpt><trkpt lat="14.473344326391897" lon="120.97669897952287"><ele>7.0</ele><time>2026-04-09T06:11:07Z</time></trkpt><trkpt lat="14.473302730905752" lon="120.97664202263063"><ele>7.0</ele><time>2026-04-09T06:11:08Z</time></trkpt><trkpt lat="14.473262388937572" lon="120.97658888200564"><ele>7.0</ele><time>2026-04-09T06:11:09Z</time></trkpt><trkpt lat="14.473220883144148" lon="120.97653574294604"><ele>7.0</ele><time>2026-04-09T06:11:10Z</time></trkpt><trkpt lat="14.473179180243145" lon="120.9764824129585"><ele>7.0</ele><time>2026-04-09T06:11:11Z</time></trkpt><trkpt lat="14.473140564482023" lon="120.97642946731617"><ele>7.0</ele><time>2026-04-09T06:11:12Z</time></trkpt><trkpt lat="14.473098845291398" lon="120.97637834815231"><ele>7.0</ele><time>2026-04-09T06:11:13Z</time></trkpt><trkpt lat="14.473055821171911" lon="120.9763273758804"><ele>7.0</ele><time>2026-04-09T06:11:14Z</time></trkpt><trkpt lat="14.473012194534313" lon="120.97627527897231"><ele>7.000000000000001</ele><time>2026-04-09T06:11:15Z</time></trkpt><trkpt lat="14.4729668008364" lon="120.97621967467737"><ele>7.0</ele><time>2026-04-09T06:11:16Z</time></trkpt><trkpt lat="14.472919401736538" lon="120.97616256640946"><ele>7.0</ele><time>2026-04-09T06:11:17Z</time></trkpt><trkpt lat="14.472872777193276" lon="120.97610409979777"><ele>7.0</ele><time>2026-04-09T06:11:18Z</time></trkpt><trkpt lat="14.472842891104797" lon="120.97602795015295"><ele>7.000000000000001</ele><time>2026-04-09T06:11:19Z</time></trkpt><trkpt lat="14.472793054504947" lon="120.97596518588475"><ele>7.0</ele><time>2026-04-09T06:11:20Z</time></trkpt><trkpt lat="14.472743107849304" lon="120.97590192593783"><ele>7.000000000000001</ele><time>2026-04-09T06:11:21Z</time></trkpt><trkpt lat="14.472693252287634" lon="120.97583878136571"><ele>7.0</ele><time>2026-04-09T06:11:22Z</time></trkpt><trkpt lat="14.47264309854393" lon="120.97577525909622"><ele>7.0</ele><time>2026-04-09T06:11:23Z</time></trkpt><trkpt lat="14.472594307103957" lon="120.97571346227767"><ele>7.0</ele><time>2026-04-09T06:11:24Z</time></trkpt><trkpt lat="14.4725449195103" lon="120.97565237512632"><ele>7.000000000000001</ele><time>2026-04-09T06:11:25Z</time></trkpt><trkpt lat="14.472495481010546" lon="120.97559192409784"><ele>7.0</ele><time>2026-04-09T06:11:26Z</time></trkpt><trkpt lat="14.47244439857947" lon="120.97553020374332"><ele>7.000000000000001</ele><time>2026-04-09T06:11:27Z</time></trkpt><trkpt lat="14.472395525330068" lon="120.97546791339819"><ele>7.0</ele><time>2026-04-09T06:11:28Z</time></trkpt><trkpt lat="14.472349653858574" lon="120.97539945945145"><ele>7.0</ele><time>2026-04-09T06:11:29Z</time></trkpt><trkpt lat="14.472302975473038" lon="120.97532980134837"><ele>7.0</ele><time>2026-04-09T06:11:30Z</time></trkpt><trkpt lat="14.472256302923713" lon="120.97526015195277"><ele>7.000000000000001</ele><time>2026-04-09T06:11:31Z</time></trkpt><trkpt lat="14.472207361082921" lon="120.97518957707439"><ele>7.0</ele><time>2026-04-09T06:11:32Z</time></trkpt><trkpt lat="14.472157119639272" lon="120.97512048053068"><ele>7.000000000000001</ele><time>2026-04-09T06:11:33Z</time></trkpt><trkpt lat="14.472111864346267" lon="120.97504972058914"><ele>7.0</ele><time>2026-04-09T06:11:34Z</time></trkpt><trkpt lat="14.472066341592459" lon="120.97498184536175"><ele>7.0</ele><time>2026-04-09T06:11:35Z</time></trkpt><trkpt lat="14.472028432490761" lon="120.97491533820094"><ele>7.0</ele><time>2026-04-09T06:11:36Z</time></trkpt><trkpt lat="14.47198877126539" lon="120.97484462000979"><ele>7.000000000000001</ele><time>2026-04-09T06:11:37Z</time></trkpt><trkpt lat="14.471952174376883" lon="120.97477680496056"><ele>7.0</ele><time>2026-04-09T06:11:38Z</time></trkpt><trkpt lat="14.471915610621439" lon="120.97470905131507"><ele>7.000000000000001</ele><time>2026-04-09T06:11:39Z</time></trkpt><trkpt lat="14.471876219048184" lon="120.97463605764568"><ele>7.0</ele><time>2026-04-09T06:11:40Z</time></trkpt><trkpt lat="14.471837983120402" lon="120.97456520541218"><ele>7.0</ele><time>2026-04-09T06:11:41Z</time></trkpt><trkpt lat="14.471797604048398" lon="120.97449453997645"><ele>7.0</ele><time>2026-04-09T06:11:42Z</time></trkpt><trkpt lat="14.471763378041391" lon="120.97442228784504"><ele>7.000000000000001</ele><time>2026-04-09T06:11:43Z</time></trkpt><trkpt lat="14.471727216612145" lon="120.97435026329248"><ele>7.0</ele><time>2026-04-09T06:11:44Z</time></trkpt><trkpt lat="14.471690845297426" lon="120.97427782072033"><ele>7.000000000000001</ele><time>2026-04-09T06:11:45Z</time></trkpt><trkpt lat="14.471650721662124" lon="120.97419790442581"><ele>7.0</ele><time>2026-04-09T06:11:46Z</time></trkpt><trkpt lat="14.471614589207926" lon="120.9741259375828"><ele>7.0</ele><time>2026-04-09T06:11:47Z</time></trkpt><trkpt lat="14.471564248860432" lon="120.97406068823652"><ele>7.0</ele><time>2026-04-09T06:11:48Z</time></trkpt><trkpt lat="14.471526809445363" lon="120.9739794605684"><ele>7.000000000000001</ele><time>2026-04-09T06:11:49Z</time></trkpt><trkpt lat="14.471489491479465" lon="120.97389689532532"><ele>7.0</ele><time>2026-04-09T06:11:50Z</time></trkpt><trkpt lat="14.471446223491444" lon="120.97381408251638"><ele>6.8</ele><time>2026-04-09T06:11:51Z</time></trkpt><trkpt lat="14.47140086466319" lon="120.97373316674637"><ele>6.6</ele><time>2026-04-09T06:11:52Z</time></trkpt><trkpt lat="14.4713633839547" lon="120.97365077225037"><ele>6.3999999999999995</ele><time>2026-04-09T06:11:53Z</time></trkpt><trkpt lat="14.471321240366166" lon="120.97356559617819"><ele>6.199999999999999</ele><time>2026-04-09T06:11:54Z</time></trkpt><trkpt lat="14.471281403985724" lon="120.97347995879515"><ele>6.0</ele><time>2026-04-09T06:11:55Z</time></trkpt><trkpt lat="14.471237927409621" lon="120.97340100701928"><ele>6.166666666666667</ele><time>2026-04-09T06:11:56Z</time></trkpt><trkpt lat="14.471200095330564" lon="120.97332362577707"><ele>6.333333333333334</ele><time>2026-04-09T06:11:57Z</time></trkpt><trkpt lat="14.47116051517751" lon="120.97324864459262"><ele>6.5</ele><time>2026-04-09T06:11:58Z</time></trkpt><trkpt lat="14.471121613367078" lon="120.9731742028667"><ele>6.666666666666667</ele><time>2026-04-09T06:11:59Z</time></trkpt><trkpt lat="14.471084791277763" lon="120.97310205661411"><ele>6.833333333333334</ele><time>2026-04-09T06:12:00Z</time></trkpt><trkpt lat="14.471051285799048" lon="120.97302818428075"><ele>7.0</ele><time>2026-04-09T06:12:01Z</time></trkpt><trkpt lat="14.471017003115813" lon="120.97296880479169"><ele>7.000000000000001</ele><time>2026-04-09T06:12:02Z</time></trkpt><trkpt lat="14.470981024725786" lon="120.97291052407161"><ele>7.0</ele><time>2026-04-09T06:12:03Z</time></trkpt><trkpt lat="14.470927059492773" lon="120.97281527523359"><ele>7.0</ele><time>2026-04-09T06:12:05Z</time></trkpt><trkpt lat="14.47088369595151" lon="120.97272673808904"><ele>7.0</ele><time>2026-04-09T06:12:07Z</time></trkpt><trkpt lat="14.47084036692487" lon="120.97263976404967"><ele>7.000000000000001</ele><time>2026-04-09T06:12:09Z</time></trkpt><trkpt lat="14.4708008829905" lon="120.972567460828"><ele>7.0</ele><time>2026-04-09T06:12:11Z</time></trkpt><trkpt lat="14.470768764521896" lon="120.97250179106884"><ele>7.000000000000001</ele><time>2026-04-09T06:12:13Z</time></trkpt><trkpt lat="14.470727921304038" lon="120.97242922921964"><ele>7.0</ele><time>2026-04-09T06:12:15Z</time></trkpt><trkpt lat="14.470673117784282" lon="120.97233923847963"><ele>7.0</ele><time>2026-04-09T06:12:17Z</time></trkpt><trkpt lat="14.470598054235266" lon="120.97223094548214"><ele>7.0</ele><time>2026-04-09T06:12:19Z</time></trkpt><trkpt lat="14.47055907899372" lon="120.97217461145114"><ele>7.000000000000001</ele><time>2026-04-09T06:12:20Z</time></trkpt><trkpt lat="14.470521650028724" lon="120.97211657124828"><ele>7.0</ele><time>2026-04-09T06:12:21Z</time></trkpt><trkpt lat="14.470483246568461" lon="120.97205617912145"><ele>7.000000000000001</ele><time>2026-04-09T06:12:22Z</time></trkpt><trkpt lat="14.470441992411319" lon="120.97199619460335"><ele>7.0</ele><time>2026-04-09T06:12:23Z</time></trkpt><trkpt lat="14.470403286525672" lon="120.97193116529542"><ele>7.0</ele><time>2026-04-09T06:12:24Z</time></trkpt><trkpt lat="14.470357524235856" lon="120.97186590689508"><ele>7.0</ele><time>2026-04-09T06:12:25Z</time></trkpt><trkpt lat="14.470313984031774" lon="120.97180154757588"><ele>7.000000000000001</ele><time>2026-04-09T06:12:26Z</time></trkpt><trkpt lat="14.470268904709114" lon="120.9717383714731"><ele>7.0</ele><time>2026-04-09T06:12:27Z</time></trkpt><trkpt lat="14.47022447991508" lon="120.97167145800097"><ele>7.000000000000001</ele><time>2026-04-09T06:12:28Z</time></trkpt><trkpt lat="14.47017859174226" lon="120.97160189167418"><ele>7.0</ele><time>2026-04-09T06:12:29Z</time></trkpt><trkpt lat="14.470130637903027" lon="120.97153064079752"><ele>7.0</ele><time>2026-04-09T06:12:30Z</time></trkpt><trkpt lat="14.470076177088252" lon="120.9714566878618"><ele>7.0</ele><time>2026-04-09T06:12:31Z</time></trkpt><trkpt lat="14.470024585973874" lon="120.97138475802878"><ele>7.000000000000001</ele><time>2026-04-09T06:12:32Z</time></trkpt><trkpt lat="14.469974081351362" lon="120.97131667208163"><ele>7.0</ele><time>2026-04-09T06:12:33Z</time></trkpt><trkpt lat="14.469923745496635" lon="120.9712613856282"><ele>7.000000000000001</ele><time>2026-04-09T06:12:34Z</time></trkpt><trkpt lat="14.469878780281174" lon="120.9712138463191"><ele>7.0</ele><time>2026-04-09T06:12:35Z</time></trkpt><trkpt lat="14.469841617322302" lon="120.97113968343757"><ele>7.0</ele><time>2026-04-09T06:12:37Z</time></trkpt><trkpt lat="14.469800846406695" lon="120.97108768825099"><ele>7.0</ele><time>2026-04-09T06:12:42Z</time></trkpt><trkpt lat="14.469736685515894" lon="120.97101810360385"><ele>7.000000000000001</ele><time>2026-04-09T06:12:45Z</time></trkpt><trkpt lat="14.469655407835445" lon="120.97092348471482"><ele>7.0</ele><time>2026-04-09T06:12:47Z</time></trkpt><trkpt lat="14.469608225874815" lon="120.970869238275"><ele>7.166666666666667</ele><time>2026-04-09T06:12:48Z</time></trkpt><trkpt lat="14.469556194535519" lon="120.97080941636672"><ele>7.333333333333334</ele><time>2026-04-09T06:12:49Z</time></trkpt><trkpt lat="14.469489882236589" lon="120.9707544696717"><ele>7.5</ele><time>2026-04-09T06:12:50Z</time></trkpt><trkpt lat="14.46943097705639" lon="120.97068406653328"><ele>7.666666666666666</ele><time>2026-04-09T06:12:51Z</time></trkpt><trkpt lat="14.469367563821594" lon="120.97060938130494"><ele>7.833333333333333</ele><time>2026-04-09T06:12:52Z</time></trkpt><trkpt lat="14.469299725245074" lon="120.9705331129831"><ele>8.0</ele><time>2026-04-09T06:12:53Z</time></trkpt><trkpt lat="14.469231381460478" lon="120.97045508688217"><ele>8.0</ele><time>2026-04-09T06:12:54Z</time></trkpt><trkpt lat="14.469164504691408" lon="120.97037863388445"><ele>8.0</ele><time>2026-04-09T06:12:55Z</time></trkpt><trkpt lat="14.469108224204252" lon="120.97029535434115"><ele>8.0</ele><time>2026-04-09T06:12:56Z</time></trkpt><trkpt lat="14.469016330191993" lon="120.97024356856382"><ele>8.0</ele><time>2026-04-09T06:12:57Z</time></trkpt><trkpt lat="14.468933805665891" lon="120.97018675970133"><ele>8.0</ele><time>2026-04-09T06:12:58Z</time></trkpt><trkpt lat="14.468847218807161" lon="120.97013859085428"><ele>8.0</ele><time>2026-04-09T06:12:59Z</time></trkpt><trkpt lat="14.468759627025733" lon="120.97009675892974"><ele>8.0</ele><time>2026-04-09T06:13:00Z</time></trkpt><trkpt lat="14.46866988851458" lon="120.97006073460878"><ele>8.0</ele><time>2026-04-09T06:13:01Z</time></trkpt><trkpt lat="14.468580126202628" lon="120.97002647726755"><ele>8.0</ele><time>2026-04-09T06:13:02Z</time></trkpt><trkpt lat="14.46849485888342" lon="120.96999531366303"><ele>8.0</ele><time>2026-04-09T06:13:03Z</time></trkpt><trkpt lat="14.468416121008538" lon="120.96996767158555"><ele>7.833333333333333</ele><time>2026-04-09T06:13:04Z</time></trkpt><trkpt lat="14.468333515981715" lon="120.96993914650062"><ele>7.666666666666666</ele><time>2026-04-09T06:13:05Z</time></trkpt><trkpt lat="14.468252312105454" lon="120.96991222446962"><ele>7.5</ele><time>2026-04-09T06:13:06Z</time></trkpt><trkpt lat="14.468175128602672" lon="120.96987376592318"><ele>7.333333333333334</ele><time>2026-04-09T06:13:07Z</time></trkpt><trkpt lat="14.468094807399211" lon="120.9698315640075"><ele>7.166666666666667</ele><time>2026-04-09T06:13:08Z</time></trkpt><trkpt lat="14.468028485079008" lon="120.96976024499212"><ele>7.0</ele><time>2026-04-09T06:13:09Z</time></trkpt><trkpt lat="14.467943590491053" lon="120.9697081740456"><ele>7.0</ele><time>2026-04-09T06:13:10Z</time></trkpt><trkpt lat="14.467862050561997" lon="120.96964812712254"><ele>6.999999999999999</ele><time>2026-04-09T06:13:11Z</time></trkpt><trkpt lat="14.467776200565554" lon="120.96958520482366"><ele>6.999999999999999</ele><time>2026-04-09T06:13:12Z</time></trkpt><trkpt lat="14.467686550346308" lon="120.96951956996556"><ele>7.0</ele><time>2026-04-09T06:13:13Z</time></trkpt><trkpt lat="14.467588493448133" lon="120.96946274458494"><ele>7.0</ele><time>2026-04-09T06:13:14Z</time></trkpt><trkpt lat="14.467499862120572" lon="120.9693908237226"><ele>7.0</ele><time>2026-04-09T06:13:15Z</time></trkpt><trkpt lat="14.467408880347648" lon="120.9693209545443"><ele>7.0</ele><time>2026-04-09T06:13:16Z</time></trkpt><trkpt lat="14.467314503680793" lon="120.96924728479374"><ele>7.0</ele><time>2026-04-09T06:13:17Z</time></trkpt><trkpt lat="14.467223060380642" lon="120.9691740315027"><ele>7.0</ele><time>2026-04-09T06:13:18Z</time></trkpt><trkpt lat="14.467135418414339" lon="120.9691048133891"><ele>7.199999999999999</ele><time>2026-04-09T06:13:19Z</time></trkpt><trkpt lat="14.467046389857497" lon="120.96903452998741"><ele>7.3999999999999995</ele><time>2026-04-09T06:13:20Z</time></trkpt><trkpt lat="14.466962285181793" lon="120.96896796721818"><ele>7.6000000000000005</ele><time>2026-04-09T06:13:21Z</time></trkpt><trkpt lat="14.466881305605337" lon="120.9689046604901"><ele>7.800000000000001</ele><time>2026-04-09T06:13:22Z</time></trkpt><trkpt lat="14.466802890492833" lon="120.96884355266467"><ele>8.0</ele><time>2026-04-09T06:13:23Z</time></trkpt><trkpt lat="14.46672923058186" lon="120.96878353264698"><ele>7.999999999999999</ele><time>2026-04-09T06:13:24Z</time></trkpt><trkpt lat="14.466659204452869" lon="120.96872340393492"><ele>8.0</ele><time>2026-04-09T06:13:25Z</time></trkpt><trkpt lat="14.466594604171993" lon="120.9686574595711"><ele>8.0</ele><time>2026-04-09T06:13:26Z</time></trkpt><trkpt lat="14.466536525544175" lon="120.96858857162121"><ele>8.0</ele><time>2026-04-09T06:13:27Z</time></trkpt><trkpt lat="14.466479220114392" lon="120.96851945214048"><ele>7.999999999999999</ele><time>2026-04-09T06:13:28Z</time></trkpt><trkpt lat="14.46642404803075" lon="120.96845388721712"><ele>8.0</ele><time>2026-04-09T06:13:29Z</time></trkpt><trkpt lat="14.466375984050062" lon="120.96839827685582"><ele>7.833333333333333</ele><time>2026-04-09T06:13:30Z</time></trkpt><trkpt lat="14.466333257283491" lon="120.96834809602824"><ele>7.666666666666666</ele><time>2026-04-09T06:13:31Z</time></trkpt><trkpt lat="14.466248876804423" lon="120.96826526231736"><ele>7.5</ele><time>2026-04-09T06:13:33Z</time></trkpt><trkpt lat="14.466186221517855" lon="120.96819146779117"><ele>7.333333333333334</ele><time>2026-04-09T06:13:35Z</time></trkpt><trkpt lat="14.46617780851444" lon="120.96810489495063"><ele>7.166666666666667</ele><time>2026-04-09T06:13:37Z</time></trkpt><trkpt lat="14.466213124117667" lon="120.96803302439355"><ele>7.0</ele><time>2026-04-09T06:13:39Z</time></trkpt><trkpt lat="14.466282406295132" lon="120.96798280493987"><ele>6.8</ele><time>2026-04-09T06:13:41Z</time></trkpt><trkpt lat="14.466374356086225" lon="120.96794079943743"><ele>6.6</ele><time>2026-04-09T06:13:43Z</time></trkpt><trkpt lat="14.466480201671514" lon="120.96790409318665"><ele>6.3999999999999995</ele><time>2026-04-09T06:13:45Z</time></trkpt><trkpt lat="14.46660083882569" lon="120.96785630379796"><ele>6.199999999999999</ele><time>2026-04-09T06:13:47Z</time></trkpt><trkpt lat="14.466665100128663" lon="120.96782796213218"><ele>6.0</ele><time>2026-04-09T06:13:48Z</time></trkpt><trkpt lat="14.466732002832613" lon="120.96779671626277"><ele>6.0</ele><time>2026-04-09T06:13:49Z</time></trkpt><trkpt lat="14.466803017981805" lon="120.96776381295135"><ele>6.0</ele><time>2026-04-09T06:13:50Z</time></trkpt><trkpt lat="14.466876930145702" lon="120.96772763826712"><ele>6.0</ele><time>2026-04-09T06:13:51Z</time></trkpt><trkpt lat="14.466950667378315" lon="120.9676888771707"><ele>6.0</ele><time>2026-04-09T06:13:52Z</time></trkpt><trkpt lat="14.467023889297526" lon="120.96764785464505"><ele>6.0</ele><time>2026-04-09T06:13:53Z</time></trkpt><trkpt lat="14.467099439283007" lon="120.9676063426223"><ele>6.0</ele><time>2026-04-09T06:13:54Z</time></trkpt><trkpt lat="14.467173598745735" lon="120.96756320058445"><ele>5.6</ele><time>2026-04-09T06:13:55Z</time></trkpt><trkpt lat="14.467248924443048" lon="120.9675166110367"><ele>5.199999999999999</ele><time>2026-04-09T06:13:56Z</time></trkpt><trkpt lat="14.46732193417522" lon="120.96745954794557"><ele>4.800000000000001</ele><time>2026-04-09T06:13:57Z</time></trkpt><trkpt lat="14.467393472879154" lon="120.96739359026044"><ele>4.4</ele><time>2026-04-09T06:13:58Z</time></trkpt><trkpt lat="14.46746129171584" lon="120.9673214571588"><ele>4.0</ele><time>2026-04-09T06:13:59Z</time></trkpt><trkpt lat="14.46753197687777" lon="120.96724935194602"><ele>4.0</ele><time>2026-04-09T06:14:00Z</time></trkpt><trkpt lat="14.467597427658415" lon="120.96717341138152"><ele>4.0</ele><time>2026-04-09T06:14:01Z</time></trkpt><trkpt lat="14.467653234951364" lon="120.96709983854066"><ele>4.0</ele><time>2026-04-09T06:14:02Z</time></trkpt><trkpt lat="14.46770870767624" lon="120.96701891248266"><ele>4.0</ele><time>2026-04-09T06:14:03Z</time></trkpt><trkpt lat="14.467753904715211" lon="120.96693082349518"><ele>4.0</ele><time>2026-04-09T06:14:04Z</time></trkpt><trkpt lat="14.467790099609708" lon="120.96683237440236"><ele>4.0</ele><time>2026-04-09T06:14:05Z</time></trkpt><trkpt lat="14.46781581173694" lon="120.96673223163334"><ele>4.0</ele><time>2026-04-09T06:14:06Z</time></trkpt><trkpt lat="14.467847179994875" lon="120.96662713475048"><ele>4.0</ele><time>2026-04-09T06:14:07Z</time></trkpt><trkpt lat="14.46787734691527" lon="120.96652079265633"><ele>4.0</ele><time>2026-04-09T06:14:08Z</time></trkpt><trkpt lat="14.467905587242775" lon="120.96640277181618"><ele>4.0</ele><time>2026-04-09T06:14:09Z</time></trkpt><trkpt lat="14.467930955688303" lon="120.96627992895687"><ele>4.5</ele><time>2026-04-09T06:14:10Z</time></trkpt><trkpt lat="14.46795770375727" lon="120.9661583172061"><ele>5.0</ele><time>2026-04-09T06:14:11Z</time></trkpt><trkpt lat="14.467982527989001" lon="120.96603529916341"><ele>5.5</ele><time>2026-04-09T06:14:12Z</time></trkpt><trkpt lat="14.468007073842553" lon="120.96591223171562"><ele>6.0</ele><time>2026-04-09T06:14:13Z</time></trkpt><trkpt lat="14.46803075582977" lon="120.96578980700117"><ele>6.0</ele><time>2026-04-09T06:14:14Z</time></trkpt><trkpt lat="14.46805390161302" lon="120.96566699283937"><ele>6.0</ele><time>2026-04-09T06:14:15Z</time></trkpt><trkpt lat="14.468076466631146" lon="120.96554624379759"><ele>6.0</ele><time>2026-04-09T06:14:16Z</time></trkpt><trkpt lat="14.468098799353234" lon="120.96543032383057"><ele>6.0</ele><time>2026-04-09T06:14:17Z</time></trkpt><trkpt lat="14.468120070329531" lon="120.96531749652992"><ele>6.0</ele><time>2026-04-09T06:14:18Z</time></trkpt><trkpt lat="14.468141153463776" lon="120.96520468833381"><ele>6.0</ele><time>2026-04-09T06:14:19Z</time></trkpt><trkpt lat="14.468161108181818" lon="120.96508944446458"><ele>6.0</ele><time>2026-04-09T06:14:20Z</time></trkpt><trkpt lat="14.468178087456918" lon="120.96497711319344"><ele>6.0</ele><time>2026-04-09T06:14:21Z</time></trkpt><trkpt lat="14.468197796153667" lon="120.96486539266192"><ele>6.0</ele><time>2026-04-09T06:14:22Z</time></trkpt><trkpt lat="14.468217566642696" lon="120.96475355440292"><ele>6.199999999999999</ele><time>2026-04-09T06:14:23Z</time></trkpt><trkpt lat="14.468238477887384" lon="120.96464123324525"><ele>6.3999999999999995</ele><time>2026-04-09T06:14:24Z</time></trkpt><trkpt lat="14.468258309510912" lon="120.96452923947473"><ele>6.6</ele><time>2026-04-09T06:14:25Z</time></trkpt><trkpt lat="14.468278172677216" lon="120.96442155387857"><ele>6.8</ele><time>2026-04-09T06:14:26Z</time></trkpt><trkpt lat="14.4682978164085" lon="120.96431824183689"><ele>7.0</ele><time>2026-04-09T06:14:27Z</time></trkpt><trkpt lat="14.468316598621294" lon="120.96421704286178"><ele>7.000000000000001</ele><time>2026-04-09T06:14:28Z</time></trkpt><trkpt lat="14.468334038250743" lon="120.96412181893143"><ele>7.0</ele><time>2026-04-09T06:14:29Z</time></trkpt><trkpt lat="14.468351829349999" lon="120.96403159042188"><ele>7.0</ele><time>2026-04-09T06:14:30Z</time></trkpt><trkpt lat="14.46836850113375" lon="120.96394476717458"><ele>7.0</ele><time>2026-04-09T06:14:31Z</time></trkpt><trkpt lat="14.46838447821248" lon="120.96386145081867"><ele>7.000000000000001</ele><time>2026-04-09T06:14:32Z</time></trkpt><trkpt lat="14.468401166796065" lon="120.96378230562118"><ele>7.0</ele><time>2026-04-09T06:14:33Z</time></trkpt><trkpt lat="14.468415882938976" lon="120.96371070877782"><ele>7.0</ele><time>2026-04-09T06:14:34Z</time></trkpt><trkpt lat="14.468429197590785" lon="120.96363905584234"><ele>6.999999999999999</ele><time>2026-04-09T06:14:35Z</time></trkpt><trkpt lat="14.46844148308308" lon="120.96357075049275"><ele>6.999999999999999</ele><time>2026-04-09T06:14:36Z</time></trkpt><trkpt lat="14.468454363770315" lon="120.96350644930703"><ele>7.0</ele><time>2026-04-09T06:14:37Z</time></trkpt><trkpt lat="14.468487111528656" lon="120.96338500684558"><ele>7.0</ele><time>2026-04-09T06:14:39Z</time></trkpt><trkpt lat="14.468545984650623" lon="120.96326357397751"><ele>7.000000000000001</ele><time>2026-04-09T06:14:41Z</time></trkpt><trkpt lat="14.46858278641941" lon="120.96320399222063"><ele>7.0</ele><time>2026-04-09T06:14:42Z</time></trkpt><trkpt lat="14.468621121498858" lon="120.96314639232264"><ele>7.0</ele><time>2026-04-09T06:14:43Z</time></trkpt><trkpt lat="14.468660472525913" lon="120.96309220847044"><ele>7.0</ele><time>2026-04-09T06:14:44Z</time></trkpt><trkpt lat="14.468697884226215" lon="120.96303983654971"><ele>7.000000000000001</ele><time>2026-04-09T06:14:45Z</time></trkpt><trkpt lat="14.46877714221296" lon="120.96294049828005"><ele>7.0</ele><time>2026-04-09T06:14:47Z</time></trkpt><trkpt lat="14.468821716588312" lon="120.96288869324975"><ele>7.000000000000001</ele><time>2026-04-09T06:14:48Z</time></trkpt><trkpt lat="14.4688692648429" lon="120.9628360528485"><ele>7.0</ele><time>2026-04-09T06:14:49Z</time></trkpt><trkpt lat="14.468919758442688" lon="120.96278682272273"><ele>7.0</ele><time>2026-04-09T06:14:50Z</time></trkpt><trkpt lat="14.468986092443446" lon="120.96274078834972"><ele>7.0</ele><time>2026-04-09T06:14:51Z</time></trkpt><trkpt lat="14.469064450185964" lon="120.96269781309871"><ele>7.000000000000001</ele><time>2026-04-09T06:14:52Z</time></trkpt><trkpt lat="14.46915167665712" lon="120.96265957684035"><ele>7.0</ele><time>2026-04-09T06:14:53Z</time></trkpt><trkpt lat="14.469239637019252" lon="120.96262385583546"><ele>7.0</ele><time>2026-04-09T06:14:54Z</time></trkpt><trkpt lat="14.469332879422288" lon="120.9625882165219"><ele>6.999999999999999</ele><time>2026-04-09T06:14:55Z</time></trkpt><trkpt lat="14.46943316048168" lon="120.9625549023641"><ele>6.999999999999999</ele><time>2026-04-09T06:14:56Z</time></trkpt><trkpt lat="14.469532540860643" lon="120.96251598425651"><ele>7.0</ele><time>2026-04-09T06:14:57Z</time></trkpt><trkpt lat="14.46963541488993" lon="120.96247714867269"><ele>7.0</ele><time>2026-04-09T06:14:58Z</time></trkpt><trkpt lat="14.469741754221817" lon="120.96243607305958"><ele>7.0</ele><time>2026-04-09T06:14:59Z</time></trkpt><trkpt lat="14.469850571295789" lon="120.96239332450887"><ele>7.0</ele><time>2026-04-09T06:15:00Z</time></trkpt><trkpt lat="14.469961468317159" lon="120.96235020532616"><ele>7.0</ele><time>2026-04-09T06:15:01Z</time></trkpt><trkpt lat="14.470074409535934" lon="120.96230661149939"><ele>7.0</ele><time>2026-04-09T06:15:02Z</time></trkpt><trkpt lat="14.470189394954252" lon="120.96226083798597"><ele>7.0</ele><time>2026-04-09T06:15:03Z</time></trkpt><trkpt lat="14.470304674440468" lon="120.96221546070002"><ele>7.0</ele><time>2026-04-09T06:15:04Z</time></trkpt><trkpt lat="14.47042222367899" lon="120.9621703970181"><ele>7.0</ele><time>2026-04-09T06:15:05Z</time></trkpt><trkpt lat="14.470539978910214" lon="120.96212243919769"><ele>7.0</ele><time>2026-04-09T06:15:06Z</time></trkpt><trkpt lat="14.470657197856813" lon="120.96207795253498"><ele>7.0</ele><time>2026-04-09T06:15:07Z</time></trkpt><trkpt lat="14.470773054263288" lon="120.96203277017234"><ele>7.0</ele><time>2026-04-09T06:15:08Z</time></trkpt><trkpt lat="14.470886515439119" lon="120.96198779475367"><ele>7.0</ele><time>2026-04-09T06:15:09Z</time></trkpt><trkpt lat="14.471003041743412" lon="120.96194355488419"><ele>7.0</ele><time>2026-04-09T06:15:10Z</time></trkpt><trkpt lat="14.471119021680664" lon="120.9618987789167"><ele>7.0</ele><time>2026-04-09T06:15:11Z</time></trkpt><trkpt lat="14.471233244275886" lon="120.96185576191496"><ele>7.0</ele><time>2026-04-09T06:15:12Z</time></trkpt><trkpt lat="14.47134579721555" lon="120.96181355829941"><ele>7.0</ele><time>2026-04-09T06:15:13Z</time></trkpt><trkpt lat="14.4714577446753" lon="120.96177135469364"><ele>7.0</ele><time>2026-04-09T06:15:14Z</time></trkpt><trkpt lat="14.471568113921125" lon="120.96173124973589"><ele>5.25</ele><time>2026-04-09T06:15:15Z</time></trkpt><trkpt lat="14.47167989473289" lon="120.96169155902254"><ele>3.5</ele><time>2026-04-09T06:15:16Z</time></trkpt><trkpt lat="14.471794186533353" lon="120.9616577253844"><ele>1.75</ele><time>2026-04-09T06:15:17Z</time></trkpt><trkpt lat="14.471908914759908" lon="120.96163686303923"><ele>0.0</ele><time>2026-04-09T06:15:18Z</time></trkpt><trkpt lat="14.472024625408087" lon="120.96163145980856"><ele>0.0</ele><time>2026-04-09T06:15:19Z</time></trkpt><trkpt lat="14.4721406196971" lon="120.96164077571595"><ele>0.0</ele><time>2026-04-09T06:15:20Z</time></trkpt><trkpt lat="14.472249927703734" lon="120.96166798564238"><ele>0.0</ele><time>2026-04-09T06:15:21Z</time></trkpt><trkpt lat="14.47235271553614" lon="120.96170927587065"><ele>0.0</ele><time>2026-04-09T06:15:22Z</time></trkpt><trkpt lat="14.472433567862272" lon="120.96176751405496"><ele>0.0</ele><time>2026-04-09T06:15:23Z</time></trkpt><trkpt lat="14.472511089670917" lon="120.96183613901188"><ele>0.0</ele><time>2026-04-09T06:15:24Z</time></trkpt><trkpt lat="14.47257571927376" lon="120.96191815843011"><ele>0.0</ele><time>2026-04-09T06:15:25Z</time></trkpt><trkpt lat="14.472625071376543" lon="120.9620080239262"><ele>0.0</ele><time>2026-04-09T06:15:26Z</time></trkpt><trkpt lat="14.472665601899037" lon="120.96210917373902"><ele>0.0</ele><time>2026-04-09T06:15:27Z</time></trkpt><trkpt lat="14.472689502052807" lon="120.96221995221119"><ele>0.0</ele><time>2026-04-09T06:15:28Z</time></trkpt><trkpt lat="14.47269744533139" lon="120.96233070761636"><ele>0.0</ele><time>2026-04-09T06:15:29Z</time></trkpt><trkpt lat="14.472688803183527" lon="120.96243808773937"><ele>0.0</ele><time>2026-04-09T06:15:30Z</time></trkpt><trkpt lat="14.472664782852982" lon="120.9625449055068"><ele>0.0</ele><time>2026-04-09T06:15:31Z</time></trkpt><trkpt lat="14.47262432580621" lon="120.96264619481934"><ele>0.0</ele><time>2026-04-09T06:15:32Z</time></trkpt><trkpt lat="14.472565587305773" lon="120.96274155200669"><ele>0.0</ele><time>2026-04-09T06:15:33Z</time></trkpt><trkpt lat="14.472492548334323" lon="120.96282274959282"><ele>0.2</ele><time>2026-04-09T06:15:34Z</time></trkpt><trkpt lat="14.472411653977165" lon="120.96289478381436"><ele>0.4</ele><time>2026-04-09T06:15:35Z</time></trkpt><trkpt lat="14.47232264741032" lon="120.96295385492206"><ele>0.6000000000000001</ele><time>2026-04-09T06:15:36Z</time></trkpt><trkpt lat="14.47222142777012" lon="120.96299847522427"><ele>0.8</ele><time>2026-04-09T06:15:37Z</time></trkpt><trkpt lat="14.472115772783784" lon="120.96302649145065"><ele>1.0</ele><time>2026-04-09T06:15:38Z</time></trkpt><trkpt lat="14.472005024817282" lon="120.9630341261623"><ele>1.6</ele><time>2026-04-09T06:15:39Z</time></trkpt><trkpt lat="14.471897224527495" lon="120.96302383739364"><ele>2.2</ele><time>2026-04-09T06:15:40Z</time></trkpt><trkpt lat="14.471789671940575" lon="120.96299923657651"><ele>2.8000000000000003</ele><time>2026-04-09T06:15:41Z</time></trkpt><trkpt lat="14.471685726402319" lon="120.96295667619546"><ele>3.4000000000000004</ele><time>2026-04-09T06:15:42Z</time></trkpt><trkpt lat="14.47159316661853" lon="120.96289352329376"><ele>4.0</ele><time>2026-04-09T06:15:43Z</time></trkpt><trkpt lat="14.471507413828231" lon="120.96281893290353"><ele>4.0</ele><time>2026-04-09T06:15:44Z</time></trkpt><trkpt lat="14.47142615845486" lon="120.96273541212837"><ele>4.0</ele><time>2026-04-09T06:15:45Z</time></trkpt><trkpt lat="14.471361448821117" lon="120.96263587429712"><ele>4.0</ele><time>2026-04-09T06:15:46Z</time></trkpt><trkpt lat="14.471305889165384" lon="120.96252180662577"><ele>4.0</ele><time>2026-04-09T06:15:47Z</time></trkpt><trkpt lat="14.471255882685421" lon="120.96240624449118"><ele>4.75</ele><time>2026-04-09T06:15:48Z</time></trkpt><trkpt lat="14.471207275837465" lon="120.96228644401072"><ele>5.5</ele><time>2026-04-09T06:15:49Z</time></trkpt><trkpt lat="14.471158777795482" lon="120.96216630037868"><ele>6.25</ele><time>2026-04-09T06:15:50Z</time></trkpt><trkpt lat="14.471109025490211" lon="120.96204268804547"><ele>7.0</ele><time>2026-04-09T06:15:51Z</time></trkpt><trkpt lat="14.47105890043821" lon="120.96191153240122"><ele>7.0</ele><time>2026-04-09T06:15:52Z</time></trkpt><trkpt lat="14.471009426557933" lon="120.96177606270594"><ele>7.0</ele><time>2026-04-09T06:15:53Z</time></trkpt><trkpt lat="14.470958274578736" lon="120.96163851907822"><ele>7.0</ele><time>2026-04-09T06:15:54Z</time></trkpt><trkpt lat="14.470902679222538" lon="120.96149727778031"><ele>7.0</ele><time>2026-04-09T06:15:55Z</time></trkpt><trkpt lat="14.470843880563306" lon="120.96134613366203"><ele>5.666666666666667</ele><time>2026-04-09T06:15:56Z</time></trkpt><trkpt lat="14.470792337105712" lon="120.96119181003951"><ele>4.333333333333334</ele><time>2026-04-09T06:15:57Z</time></trkpt><trkpt lat="14.470731928482715" lon="120.96103866995999"><ele>3.0</ele><time>2026-04-09T06:15:58Z</time></trkpt><trkpt lat="14.4706688242247" lon="120.96087815341922"><ele>2.0</ele><time>2026-04-09T06:15:59Z</time></trkpt><trkpt lat="14.470602109166341" lon="120.96070886310176"><ele>1.0</ele><time>2026-04-09T06:16:00Z</time></trkpt><trkpt lat="14.470539584108973" lon="120.96054278747548"><ele>0.0</ele><time>2026-04-09T06:16:01Z</time></trkpt><trkpt lat="14.4704723895544" lon="120.96037149524248"><ele>0.0</ele><time>2026-04-09T06:16:02Z</time></trkpt><trkpt lat="14.470404140300825" lon="120.96019796398286"><ele>0.0</ele><time>2026-04-09T06:16:03Z</time></trkpt><trkpt lat="14.470337061621128" lon="120.96002250312746"><ele>0.0</ele><time>2026-04-09T06:16:04Z</time></trkpt><trkpt lat="14.470267763191092" lon="120.95984310585837"><ele>0.0</ele><time>2026-04-09T06:16:05Z</time></trkpt><trkpt lat="14.470198844436553" lon="120.95966440245527"><ele>0.0</ele><time>2026-04-09T06:16:06Z</time></trkpt><trkpt lat="14.470128662149024" lon="120.95948298555749"><ele>0.0</ele><time>2026-04-09T06:16:07Z</time></trkpt><trkpt lat="14.470058315068819" lon="120.95930218765929"><ele>0.0</ele><time>2026-04-09T06:16:08Z</time></trkpt><trkpt lat="14.469988464223816" lon="120.95912178046952"><ele>0.0</ele><time>2026-04-09T06:16:09Z</time></trkpt><trkpt lat="14.469918753053125" lon="120.9589399149544"><ele>0.0</ele><time>2026-04-09T06:16:10Z</time></trkpt><trkpt lat="14.469848060343214" lon="120.95875651620163"><ele>0.0</ele><time>2026-04-09T06:16:11Z</time></trkpt><trkpt lat="14.469779531275384" lon="120.95857378662718"><ele>0.0</ele><time>2026-04-09T06:16:12Z</time></trkpt><trkpt lat="14.469708853702402" lon="120.9583915516508"><ele>0.0</ele><time>2026-04-09T06:16:13Z</time></trkpt><trkpt lat="14.469637168025004" lon="120.95820867947995"><ele>0.0</ele><time>2026-04-09T06:16:14Z</time></trkpt><trkpt lat="14.469568899606893" lon="120.95802887844926"><ele>0.0</ele><time>2026-04-09T06:16:15Z</time></trkpt><trkpt lat="14.46950315622755" lon="120.95785156585404"><ele>0.0</ele><time>2026-04-09T06:16:16Z</time></trkpt><trkpt lat="14.469440445004986" lon="120.95767735204085"><ele>0.0</ele><time>2026-04-09T06:16:17Z</time></trkpt><trkpt lat="14.469381053827858" lon="120.95750855599658"><ele>0.0</ele><time>2026-04-09T06:16:18Z</time></trkpt><trkpt lat="14.469320624587429" lon="120.95734091192249"><ele>0.0</ele><time>2026-04-09T06:16:19Z</time></trkpt><trkpt lat="14.46926105212642" lon="120.95717554093206"><ele>0.0</ele><time>2026-04-09T06:16:20Z</time></trkpt><trkpt lat="14.46919972009286" lon="120.95701192292726"><ele>0.0</ele><time>2026-04-09T06:16:21Z</time></trkpt><trkpt lat="14.469139810171367" lon="120.95684901365713"><ele>0.0</ele><time>2026-04-09T06:16:22Z</time></trkpt><trkpt lat="14.469079953722431" lon="120.95668636698561"><ele>0.0</ele><time>2026-04-09T06:16:23Z</time></trkpt><trkpt lat="14.46901978751824" lon="120.95652515383605"><ele>0.0</ele><time>2026-04-09T06:16:24Z</time></trkpt><trkpt lat="14.468958970722857" lon="120.95636473113531"><ele>0.0</ele><time>2026-04-09T06:16:25Z</time></trkpt><trkpt lat="14.468898246250381" lon="120.95620298279148"><ele>0.0</ele><time>2026-04-09T06:16:26Z</time></trkpt><trkpt lat="14.468838905913836" lon="120.95604152535283"><ele>0.0</ele><time>2026-04-09T06:16:27Z</time></trkpt><trkpt lat="14.468778042757329" lon="120.95587756107895"><ele>0.0</ele><time>2026-04-09T06:16:28Z</time></trkpt><trkpt lat="14.4687174605404" lon="120.95571223581729"><ele>0.0</ele><time>2026-04-09T06:16:29Z</time></trkpt><trkpt lat="14.468656078958167" lon="120.95554401422089"><ele>0.0</ele><time>2026-04-09T06:16:30Z</time></trkpt><trkpt lat="14.468596321350665" lon="120.95537320205263"><ele>0.0</ele><time>2026-04-09T06:16:31Z</time></trkpt><trkpt lat="14.46853864414019" lon="120.95520010743716"><ele>0.0</ele><time>2026-04-09T06:16:32Z</time></trkpt><trkpt lat="14.468479795979537" lon="120.95502507953644"><ele>0.0</ele><time>2026-04-09T06:16:33Z</time></trkpt><trkpt lat="14.468419868410692" lon="120.95484928166522"><ele>0.0</ele><time>2026-04-09T06:16:34Z</time></trkpt><trkpt lat="14.468359441750179" lon="120.95467320420401"><ele>0.0</ele><time>2026-04-09T06:16:35Z</time></trkpt><trkpt lat="14.46829949716216" lon="120.95449817766558"><ele>0.0</ele><time>2026-04-09T06:16:36Z</time></trkpt><trkpt lat="14.468239323491256" lon="120.95432643825923"><ele>0.0</ele><time>2026-04-09T06:16:37Z</time></trkpt><trkpt lat="14.468181233237193" lon="120.95415267041206"><ele>0.0</ele><time>2026-04-09T06:16:38Z</time></trkpt><trkpt lat="14.468123959073658" lon="120.95397640451924"><ele>0.0</ele><time>2026-04-09T06:16:39Z</time></trkpt><trkpt lat="14.468066663764013" lon="120.9537989062374"><ele>0.0</ele><time>2026-04-09T06:16:40Z</time></trkpt><trkpt lat="14.468010166346177" lon="120.95362108597192"><ele>0.0</ele><time>2026-04-09T06:16:41Z</time></trkpt><trkpt lat="14.46795349475649" lon="120.95344348350514"><ele>0.0</ele><time>2026-04-09T06:16:42Z</time></trkpt><trkpt lat="14.46789822282812" lon="120.95326532255183"><ele>0.0</ele><time>2026-04-09T06:16:43Z</time></trkpt><trkpt lat="14.467843034389215" lon="120.9530867338763"><ele>0.0</ele><time>2026-04-09T06:16:44Z</time></trkpt><trkpt lat="14.467786733267467" lon="120.95290647360548"><ele>0.0</ele><time>2026-04-09T06:16:45Z</time></trkpt><trkpt lat="14.46773108163477" lon="120.95272588991635"><ele>0.0</ele><time>2026-04-09T06:16:46Z</time></trkpt><trkpt lat="14.467675622461657" lon="120.95254624483363"><ele>0.0</ele><time>2026-04-09T06:16:47Z</time></trkpt><trkpt lat="14.46762062220617" lon="120.95236584808721"><ele>0.0</ele><time>2026-04-09T06:16:48Z</time></trkpt><trkpt lat="14.46756274360505" lon="120.95218287316241"><ele>0.0</ele><time>2026-04-09T06:16:49Z</time></trkpt><trkpt lat="14.46750276040316" lon="120.95199965641794"><ele>0.0</ele><time>2026-04-09T06:16:50Z</time></trkpt><trkpt lat="14.467443033725514" lon="120.95181116243629"><ele>0.0</ele><time>2026-04-09T06:16:51Z</time></trkpt><trkpt lat="14.467399409954934" lon="120.951615301209"><ele>0.0</ele><time>2026-04-09T06:16:52Z</time></trkpt><trkpt lat="14.467344626978056" lon="120.95142013047024"><ele>0.0</ele><time>2026-04-09T06:16:53Z</time></trkpt><trkpt lat="14.467288626936247" lon="120.9512206234963"><ele>0.0</ele><time>2026-04-09T06:16:54Z</time></trkpt><trkpt lat="14.4672320828328" lon="120.95101917855588"><ele>0.0</ele><time>2026-04-09T06:16:55Z</time></trkpt><trkpt lat="14.467174866049955" lon="120.95081533714112"><ele>0.0</ele><time>2026-04-09T06:16:56Z</time></trkpt><trkpt lat="14.467117066906045" lon="120.95060942097614"><ele>0.0</ele><time>2026-04-09T06:16:57Z</time></trkpt><trkpt lat="14.467059153381356" lon="120.95040309730302"><ele>0.0</ele><time>2026-04-09T06:16:58Z</time></trkpt><trkpt lat="14.46700148055498" lon="120.95019763119423"><ele>0.0</ele><time>2026-04-09T06:16:59Z</time></trkpt><trkpt lat="14.466943773009936" lon="120.94999204134865"><ele>0.0</ele><time>2026-04-09T06:17:00Z</time></trkpt><trkpt lat="14.466875044160272" lon="120.94979306747926"><ele>0.0</ele><time>2026-04-09T06:17:01Z</time></trkpt><trkpt lat="14.466824382534705" lon="120.94958979276471"><ele>0.0</ele><time>2026-04-09T06:17:02Z</time></trkpt><trkpt lat="14.46677397262353" lon="120.94938799478771"><ele>0.0</ele><time>2026-04-09T06:17:03Z</time></trkpt><trkpt lat="14.466722654649626" lon="120.94918543859342"><ele>0.0</ele><time>2026-04-09T06:17:04Z</time></trkpt><trkpt lat="14.46667235348077" lon="120.94898181701106"><ele>0.0</ele><time>2026-04-09T06:17:05Z</time></trkpt><trkpt lat="14.466619205351122" lon="120.94877720445237"><ele>0.0</ele><time>2026-04-09T06:17:06Z</time></trkpt><trkpt lat="14.466567651293875" lon="120.94856988037306"><ele>0.0</ele><time>2026-04-09T06:17:07Z</time></trkpt><trkpt lat="14.466516874920766" lon="120.94835995689324"><ele>0.0</ele><time>2026-04-09T06:17:08Z</time></trkpt><trkpt lat="14.46648073949966" lon="120.94814290224454"><ele>0.0</ele><time>2026-04-09T06:17:09Z</time></trkpt><trkpt lat="14.466432471898111" lon="120.94792725470987"><ele>0.0</ele><time>2026-04-09T06:17:10Z</time></trkpt><trkpt lat="14.466383673534423" lon="120.94770923579739"><ele>0.0</ele><time>2026-04-09T06:17:11Z</time></trkpt><trkpt lat="14.46633445838098" lon="120.94748935478927"><ele>0.0</ele><time>2026-04-09T06:17:12Z</time></trkpt><trkpt lat="14.466284822874615" lon="120.94726759576088"><ele>0.0</ele><time>2026-04-09T06:17:13Z</time></trkpt><trkpt lat="14.466234945314591" lon="120.94704475529544"><ele>0.0</ele><time>2026-04-09T06:17:14Z</time></trkpt><trkpt lat="14.466184603404209" lon="120.94681984021058"><ele>0.0</ele><time>2026-04-09T06:17:15Z</time></trkpt><trkpt lat="14.466118079691666" lon="120.94659788523093"><ele>0.0</ele><time>2026-04-09T06:17:16Z</time></trkpt><trkpt lat="14.46606892815704" lon="120.94637119980288"><ele>0.0</ele><time>2026-04-09T06:17:17Z</time></trkpt><trkpt lat="14.4660206784131" lon="120.94614447460751"><ele>0.0</ele><time>2026-04-09T06:17:18Z</time></trkpt><trkpt lat="14.46597386438985" lon="120.94591732203286"><ele>0.0</ele><time>2026-04-09T06:17:19Z</time></trkpt><trkpt lat="14.465928721676176" lon="120.94568944129286"><ele>0.0</ele><time>2026-04-09T06:17:20Z</time></trkpt><trkpt lat="14.465885762930846" lon="120.94546012087069"><ele>0.0</ele><time>2026-04-09T06:17:21Z</time></trkpt><trkpt lat="14.465843699283823" lon="120.94523107570787"><ele>0.0</ele><time>2026-04-09T06:17:22Z</time></trkpt><trkpt lat="14.465801020354608" lon="120.9450013035112"><ele>0.0</ele><time>2026-04-09T06:17:23Z</time></trkpt><trkpt lat="14.465758408721719" lon="120.94477124922592"><ele>0.0</ele><time>2026-04-09T06:17:24Z</time></trkpt><trkpt lat="14.465716015348473" lon="120.9445420555448"><ele>0.0</ele><time>2026-04-09T06:17:25Z</time></trkpt><trkpt lat="14.465674241274334" lon="120.94431154675074"><ele>0.0</ele><time>2026-04-09T06:17:26Z</time></trkpt><trkpt lat="14.46563264671845" lon="120.94407945961774"><ele>0.0</ele><time>2026-04-09T06:17:27Z</time></trkpt><trkpt lat="14.465591277317507" lon="120.94384683647431"><ele>0.0</ele><time>2026-04-09T06:17:28Z</time></trkpt><trkpt lat="14.465550460160511" lon="120.94361226028639"><ele>0.0</ele><time>2026-04-09T06:17:29Z</time></trkpt><trkpt lat="14.465509733306066" lon="120.94337636012001"><ele>0.0</ele><time>2026-04-09T06:17:30Z</time></trkpt><trkpt lat="14.465467689482201" lon="120.94313974166111"><ele>0.0</ele><time>2026-04-09T06:17:31Z</time></trkpt><trkpt lat="14.465423547069664" lon="120.94290355994089"><ele>0.0</ele><time>2026-04-09T06:17:32Z</time></trkpt><trkpt lat="14.465379567164295" lon="120.94266672210493"><ele>0.0</ele><time>2026-04-09T06:17:33Z</time></trkpt><trkpt lat="14.465334772038245" lon="120.94242961624654"><ele>0.0</ele><time>2026-04-09T06:17:34Z</time></trkpt><trkpt lat="14.465288580637143" lon="120.94219290079779"><ele>0.0</ele><time>2026-04-09T06:17:35Z</time></trkpt><trkpt lat="14.465240404122374" lon="120.94195577875989"><ele>0.0</ele><time>2026-04-09T06:17:36Z</time></trkpt><trkpt lat="14.46519190442575" lon="120.94171768000366"><ele>0.0</ele><time>2026-04-09T06:17:37Z</time></trkpt><trkpt lat="14.465141552799333" lon="120.94147925160378"><ele>0.0</ele><time>2026-04-09T06:17:38Z</time></trkpt><trkpt lat="14.465090183807568" lon="120.9412410526032"><ele>0.0</ele><time>2026-04-09T06:17:39Z</time></trkpt><trkpt lat="14.465038043370923" lon="120.9410013418504"><ele>0.0</ele><time>2026-04-09T06:17:40Z</time></trkpt><trkpt lat="14.464986431157756" lon="120.94076285284642"><ele>0.0</ele><time>2026-04-09T06:17:41Z</time></trkpt><trkpt lat="14.464932820005684" lon="120.9405242336386"><ele>0.0</ele><time>2026-04-09T06:17:42Z</time></trkpt><trkpt lat="14.464878838679969" lon="120.94028677694075"><ele>0.0</ele><time>2026-04-09T06:17:43Z</time></trkpt><trkpt lat="14.464824539520214" lon="120.9400493625987"><ele>0.0</ele><time>2026-04-09T06:17:44Z</time></trkpt><trkpt lat="14.464769912068023" lon="120.93981241522854"><ele>0.0</ele><time>2026-04-09T06:17:45Z</time></trkpt><trkpt lat="14.46471524074606" lon="120.93957588510507"><ele>0.0</ele><time>2026-04-09T06:17:46Z</time></trkpt><trkpt lat="14.46465892123855" lon="120.93933853929016"><ele>0.0</ele><time>2026-04-09T06:17:47Z</time></trkpt><trkpt lat="14.464602230955853" lon="120.93910203137101"><ele>0.0</ele><time>2026-04-09T06:17:48Z</time></trkpt><trkpt lat="14.46454473761466" lon="120.9388662539845"><ele>0.0</ele><time>2026-04-09T06:17:49Z</time></trkpt><trkpt lat="14.464486212162894" lon="120.93863099187273"><ele>0.0</ele><time>2026-04-09T06:17:50Z</time></trkpt><trkpt lat="14.464427459566068" lon="120.93839600865226"><ele>0.0</ele><time>2026-04-09T06:17:51Z</time></trkpt><trkpt lat="14.46436819665355" lon="120.93816206778614"><ele>0.0</ele><time>2026-04-09T06:17:52Z</time></trkpt><trkpt lat="14.464308845838614" lon="120.93793127922447"><ele>0.0</ele><time>2026-04-09T06:17:53Z</time></trkpt><trkpt lat="14.464247956524156" lon="120.93770409049283"><ele>0.0</ele><time>2026-04-09T06:17:54Z</time></trkpt><trkpt lat="14.464187520886448" lon="120.93748066861524"><ele>0.0</ele><time>2026-04-09T06:17:55Z</time></trkpt><trkpt lat="14.46412764578667" lon="120.93726027569448"><ele>0.0</ele><time>2026-04-09T06:17:56Z</time></trkpt><trkpt lat="14.464069384147018" lon="120.93704225014497"><ele>0.0</ele><time>2026-04-09T06:17:57Z</time></trkpt><trkpt lat="14.464012018529024" lon="120.9368302156195"><ele>0.0</ele><time>2026-04-09T06:17:58Z</time></trkpt><trkpt lat="14.463953051556405" lon="120.93661958242421"><ele>0.0</ele><time>2026-04-09T06:17:59Z</time></trkpt><trkpt lat="14.463893948636183" lon="120.93641504064867"><ele>0.0</ele><time>2026-04-09T06:18:00Z</time></trkpt><trkpt lat="14.463834205847355" lon="120.93621426285694"><ele>0.0</ele><time>2026-04-09T06:18:01Z</time></trkpt><trkpt lat="14.463775559191953" lon="120.93601834703357"><ele>0.0</ele><time>2026-04-09T06:18:02Z</time></trkpt><trkpt lat="14.463717271354062" lon="120.93582212471807"><ele>0.0</ele><time>2026-04-09T06:18:03Z</time></trkpt><trkpt lat="14.463659178829703" lon="120.9356273532151"><ele>0.0</ele><time>2026-04-09T06:18:04Z</time></trkpt><trkpt lat="14.463603212291988" lon="120.93543088234483"><ele>0.0</ele><time>2026-04-09T06:18:05Z</time></trkpt><trkpt lat="14.463545725081108" lon="120.93523369570927"><ele>0.0</ele><time>2026-04-09T06:18:06Z</time></trkpt><trkpt lat="14.463485942072891" lon="120.93503421439846"><ele>0.0</ele><time>2026-04-09T06:18:07Z</time></trkpt><trkpt lat="14.463423778815551" lon="120.93483555859338"><ele>0.0</ele><time>2026-04-09T06:18:08Z</time></trkpt><trkpt lat="14.463361326237258" lon="120.93463621934964"><ele>0.0</ele><time>2026-04-09T06:18:09Z</time></trkpt><trkpt lat="14.463295887907329" lon="120.93443715504237"><ele>0.0</ele><time>2026-04-09T06:18:10Z</time></trkpt><trkpt lat="14.463230995564732" lon="120.93423438241372"><ele>0.0</ele><time>2026-04-09T06:18:11Z</time></trkpt><trkpt lat="14.46316513935251" lon="120.93403057315825"><ele>0.0</ele><time>2026-04-09T06:18:12Z</time></trkpt><trkpt lat="14.463098546630581" lon="120.93382586549788"><ele>0.0</ele><time>2026-04-09T06:18:13Z</time></trkpt><trkpt lat="14.463030584907864" lon="120.93362058697927"><ele>0.0</ele><time>2026-04-09T06:18:14Z</time></trkpt><trkpt lat="14.46296177552724" lon="120.93341458379028"><ele>0.0</ele><time>2026-04-09T06:18:15Z</time></trkpt><trkpt lat="14.462892597955578" lon="120.93320792294419"><ele>0.0</ele><time>2026-04-09T06:18:16Z</time></trkpt><trkpt lat="14.46282249968184" lon="120.93300044495412"><ele>0.0</ele><time>2026-04-09T06:18:17Z</time></trkpt><trkpt lat="14.462750670309736" lon="120.93279317037621"><ele>0.0</ele><time>2026-04-09T06:18:18Z</time></trkpt><trkpt lat="14.462678390565513" lon="120.93258564960898"><ele>0.0</ele><time>2026-04-09T06:18:19Z</time></trkpt><trkpt lat="14.462606296257517" lon="120.93237947759738"><ele>0.0</ele><time>2026-04-09T06:18:20Z</time></trkpt><trkpt lat="14.462533248141174" lon="120.93217624446207"><ele>0.0</ele><time>2026-04-09T06:18:21Z</time></trkpt><trkpt lat="14.462461071883576" lon="120.93197123994437"><ele>0.0</ele><time>2026-04-09T06:18:22Z</time></trkpt><trkpt lat="14.462387221432039" lon="120.93176562825987"><ele>0.0</ele><time>2026-04-09T06:18:23Z</time></trkpt><trkpt lat="14.462315327754729" lon="120.9315618247391"><ele>0.0</ele><time>2026-04-09T06:18:24Z</time></trkpt><trkpt lat="14.462239320658615" lon="120.9313546252901"><ele>0.0</ele><time>2026-04-09T06:18:25Z</time></trkpt><trkpt lat="14.462161914898525" lon="120.93114431472138"><ele>0.0</ele><time>2026-04-09T06:18:26Z</time></trkpt><trkpt lat="14.462088605657268" lon="120.93093748246987"><ele>0.0</ele><time>2026-04-09T06:18:27Z</time></trkpt><trkpt lat="14.46201021864305" lon="120.93072616055781"><ele>0.0</ele><time>2026-04-09T06:18:28Z</time></trkpt><trkpt lat="14.461930097793639" lon="120.93051167201048"><ele>0.0</ele><time>2026-04-09T06:18:29Z</time></trkpt><trkpt lat="14.461850621392328" lon="120.93029817465181"><ele>0.0</ele><time>2026-04-09T06:18:30Z</time></trkpt><trkpt lat="14.461767417987476" lon="120.9300828949211"><ele>0.0</ele><time>2026-04-09T06:18:31Z</time></trkpt><trkpt lat="14.461682088616602" lon="120.92986958161752"><ele>0.0</ele><time>2026-04-09T06:18:32Z</time></trkpt><trkpt lat="14.461596506746" lon="120.92965543752769"><ele>0.0</ele><time>2026-04-09T06:18:33Z</time></trkpt><trkpt lat="14.461510255234217" lon="120.92944143879218"><ele>0.0</ele><time>2026-04-09T06:18:34Z</time></trkpt><trkpt lat="14.461422698540455" lon="120.92922657125312"><ele>0.0</ele><time>2026-04-09T06:18:35Z</time></trkpt><trkpt lat="14.461335222201052" lon="120.92901147174757"><ele>0.0</ele><time>2026-04-09T06:18:36Z</time></trkpt><trkpt lat="14.461246247806338" lon="120.9287964868183"><ele>0.0</ele><time>2026-04-09T06:18:37Z</time></trkpt><trkpt lat="14.461157036232866" lon="120.92858231518476"><ele>0.0</ele><time>2026-04-09T06:18:38Z</time></trkpt><trkpt lat="14.46106739163684" lon="120.92837021161967"><ele>0.0</ele><time>2026-04-09T06:18:39Z</time></trkpt><trkpt lat="14.460978552449744" lon="120.92816065068432"><ele>0.0</ele><time>2026-04-09T06:18:40Z</time></trkpt><trkpt lat="14.460889911269355" lon="120.92795356405047"><ele>0.0</ele><time>2026-04-09T06:18:41Z</time></trkpt><trkpt lat="14.460802155373692" lon="120.92774942850635"><ele>0.0</ele><time>2026-04-09T06:18:42Z</time></trkpt><trkpt lat="14.460714987922728" lon="120.92754642622364"><ele>0.0</ele><time>2026-04-09T06:18:43Z</time></trkpt><trkpt lat="14.460627484739828" lon="120.92734648523064"><ele>0.3333333333333333</ele><time>2026-04-09T06:18:44Z</time></trkpt><trkpt lat="14.460538240046493" lon="120.92714569702713"><ele>0.6666666666666666</ele><time>2026-04-09T06:18:45Z</time></trkpt><trkpt lat="14.460451153320212" lon="120.92694601934986"><ele>1.0</ele><time>2026-04-09T06:18:46Z</time></trkpt><trkpt lat="14.460359766278026" lon="120.92674595236895"><ele>2.6666666666666665</ele><time>2026-04-09T06:18:47Z</time></trkpt><trkpt lat="14.460271142395886" lon="120.92654511308639"><ele>4.333333333333333</ele><time>2026-04-09T06:18:48Z</time></trkpt><trkpt lat="14.460182133738675" lon="120.9263460305636"><ele>6.0</ele><time>2026-04-09T06:18:49Z</time></trkpt><trkpt lat="14.460091631136887" lon="120.9261460833021"><ele>6.0</ele><time>2026-04-09T06:18:50Z</time></trkpt><trkpt lat="14.46000107468489" lon="120.92594753473756"><ele>6.0</ele><time>2026-04-09T06:18:51Z</time></trkpt><trkpt lat="14.45991058653028" lon="120.9257486022046"><ele>6.0</ele><time>2026-04-09T06:18:52Z</time></trkpt><trkpt lat="14.459819561927691" lon="120.92555158212792"><ele>5.333333333333333</ele><time>2026-04-09T06:18:53Z</time></trkpt><trkpt lat="14.459727641285596" lon="120.92535774159217"><ele>4.666666666666666</ele><time>2026-04-09T06:18:54Z</time></trkpt><trkpt lat="14.459637452098148" lon="120.92516656270496"><ele>4.0</ele><time>2026-04-09T06:18:55Z</time></trkpt><trkpt lat="14.4595426063341" lon="120.9249736121942"><ele>2.6666666666666665</ele><time>2026-04-09T06:18:56Z</time></trkpt><trkpt lat="14.45944957582632" lon="120.92478256459603"><ele>1.3333333333333333</ele><time>2026-04-09T06:18:57Z</time></trkpt><trkpt lat="14.459353528758227" lon="120.9245894080603"><ele>0.0</ele><time>2026-04-09T06:18:58Z</time></trkpt><trkpt lat="14.459258505682877" lon="120.92439163996715"><ele>0.0</ele><time>2026-04-09T06:18:59Z</time></trkpt><trkpt lat="14.459162642157375" lon="120.92419651054952"><ele>0.0</ele><time>2026-04-09T06:19:00Z</time></trkpt><trkpt lat="14.459064334104136" lon="120.92399921010627"><ele>0.0</ele><time>2026-04-09T06:19:01Z</time></trkpt><trkpt lat="14.458965780529258" lon="120.92380171797126"><ele>0.0</ele><time>2026-04-09T06:19:02Z</time></trkpt><trkpt lat="14.458865947736061" lon="120.92360435939074"><ele>0.0</ele><time>2026-04-09T06:19:03Z</time></trkpt><trkpt lat="14.458763491292741" lon="120.92340441059756"><ele>0.0</ele><time>2026-04-09T06:19:04Z</time></trkpt><trkpt lat="14.4586592158119" lon="120.92320422641033"><ele>1.6666666666666667</ele><time>2026-04-09T06:19:05Z</time></trkpt><trkpt lat="14.458556234636767" lon="120.92300543039659"><ele>3.3333333333333335</ele><time>2026-04-09T06:19:06Z</time></trkpt><trkpt lat="14.458452696398886" lon="120.92280553051769"><ele>5.0</ele><time>2026-04-09T06:19:07Z</time></trkpt><trkpt lat="14.458347945332813" lon="120.92260766941217"><ele>5.0</ele><time>2026-04-09T06:19:08Z</time></trkpt><trkpt lat="14.458242014175944" lon="120.92240911619491"><ele>5.0</ele><time>2026-04-09T06:19:09Z</time></trkpt><trkpt lat="14.458136691798572" lon="120.92221225910501"><ele>5.0</ele><time>2026-04-09T06:19:10Z</time></trkpt><trkpt lat="14.45802877453459" lon="120.92201345171881"><ele>5.333333333333334</ele><time>2026-04-09T06:19:11Z</time></trkpt><trkpt lat="14.457921281898397" lon="120.92181660684489"><ele>5.666666666666667</ele><time>2026-04-09T06:19:12Z</time></trkpt><trkpt lat="14.457812134462225" lon="120.92161932338875"><ele>6.0</ele><time>2026-04-09T06:19:13Z</time></trkpt><trkpt lat="14.457703273926388" lon="120.92142407441803"><ele>6.0</ele><time>2026-04-09T06:19:14Z</time></trkpt><trkpt lat="14.4575951199901" lon="120.92122869375775"><ele>6.0</ele><time>2026-04-09T06:19:15Z</time></trkpt><trkpt lat="14.457487183529828" lon="120.92103390349615"><ele>6.0</ele><time>2026-04-09T06:19:16Z</time></trkpt><trkpt lat="14.457378877593811" lon="120.9208422686065"><ele>5.666666666666667</ele><time>2026-04-09T06:19:17Z</time></trkpt><trkpt lat="14.45726859877571" lon="120.92064917105586"><ele>5.333333333333334</ele><time>2026-04-09T06:19:18Z</time></trkpt><trkpt lat="14.45715526089342" lon="120.92045572044228"><ele>5.0</ele><time>2026-04-09T06:19:19Z</time></trkpt><trkpt lat="14.457044914218505" lon="120.92026442489889"><ele>5.666666666666667</ele><time>2026-04-09T06:19:20Z</time></trkpt><trkpt lat="14.456933631823235" lon="120.92007350248437"><ele>6.333333333333334</ele><time>2026-04-09T06:19:21Z</time></trkpt><trkpt lat="14.4568219853602" lon="120.91988146105138"><ele>7.0</ele><time>2026-04-09T06:19:22Z</time></trkpt><trkpt lat="14.456710508732396" lon="120.91969012423675"><ele>5.333333333333334</ele><time>2026-04-09T06:19:23Z</time></trkpt><trkpt lat="14.45659759336313" lon="120.91949817482843"><ele>3.666666666666667</ele><time>2026-04-09T06:19:24Z</time></trkpt><trkpt lat="14.4564830965353" lon="120.91930660038935"><ele>2.0</ele><time>2026-04-09T06:19:25Z</time></trkpt><trkpt lat="14.456375005906807" lon="120.91912250560006"><ele>1.3333333333333333</ele><time>2026-04-09T06:19:26Z</time></trkpt><trkpt lat="14.456267222893079" lon="120.91894163123582"><ele>0.6666666666666666</ele><time>2026-04-09T06:19:27Z</time></trkpt><trkpt lat="14.45616293488168" lon="120.91876964140063"><ele>0.0</ele><time>2026-04-09T06:19:28Z</time></trkpt><trkpt lat="14.456060805883723" lon="120.91860627292917"><ele>0.0</ele><time>2026-04-09T06:19:29Z</time></trkpt><trkpt lat="14.455964127590265" lon="120.91845574479898"><ele>0.0</ele><time>2026-04-09T06:19:30Z</time></trkpt><trkpt lat="14.455875488993422" lon="120.91832030555499"><ele>0.0</ele><time>2026-04-09T06:19:31Z</time></trkpt><trkpt lat="14.455794535304996" lon="120.91820208277025"><ele>0.0</ele><time>2026-04-09T06:19:32Z</time></trkpt><trkpt lat="14.45571861716051" lon="120.91808939578249"><ele>0.0</ele><time>2026-04-09T06:19:33Z</time></trkpt><trkpt lat="14.455651984598589" lon="120.91798755811637"><ele>0.0</ele><time>2026-04-09T06:19:34Z</time></trkpt><trkpt lat="14.455580380747293" lon="120.91788436056413"><ele>0.0</ele><time>2026-04-09T06:19:35Z</time></trkpt><trkpt lat="14.45550689377812" lon="120.91777639005605"><ele>0.0</ele><time>2026-04-09T06:19:36Z</time></trkpt><trkpt lat="14.455433698589529" lon="120.9176671643663"><ele>0.0</ele><time>2026-04-09T06:19:37Z</time></trkpt><trkpt lat="14.455358561103074" lon="120.91755690989966"><ele>0.0</ele><time>2026-04-09T06:19:38Z</time></trkpt><trkpt lat="14.45528421687565" lon="120.9174498445905"><ele>0.0</ele><time>2026-04-09T06:19:39Z</time></trkpt><trkpt lat="14.455209100841026" lon="120.91734636537724"><ele>0.0</ele><time>2026-04-09T06:19:40Z</time></trkpt><trkpt lat="14.45514210942374" lon="120.91726045814077"><ele>0.0</ele><time>2026-04-09T06:19:41Z</time></trkpt><trkpt lat="14.455049263403959" lon="120.91721434055472"><ele>0.0</ele><time>2026-04-09T06:19:42Z</time></trkpt><trkpt lat="14.454968374869539" lon="120.91715405234466"><ele>0.0</ele><time>2026-04-09T06:19:43Z</time></trkpt><trkpt lat="14.454889548816913" lon="120.91710484287493"><ele>0.0</ele><time>2026-04-09T06:19:44Z</time></trkpt><trkpt lat="14.454810472664247" lon="120.91705545574507"><ele>0.0</ele><time>2026-04-09T06:19:45Z</time></trkpt><trkpt lat="14.454734803020553" lon="120.91700816014736"><ele>0.0</ele><time>2026-04-09T06:19:46Z</time></trkpt><trkpt lat="14.454669838513787" lon="120.91696755555462"><ele>0.0</ele><time>2026-04-09T06:19:47Z</time></trkpt><trkpt lat="14.454608888500236" lon="120.91692946138038"><ele>0.0</ele><time>2026-04-09T06:19:48Z</time></trkpt><trkpt lat="14.454519593306127" lon="120.9168736493958"><ele>0.0</ele><time>2026-04-09T06:19:50Z</time></trkpt><trkpt lat="14.454458200789135" lon="120.91683527739231"><ele>0.0</ele><time>2026-04-09T06:19:54Z</time></trkpt><trkpt lat="14.45436127100064" lon="120.91677154024134"><ele>0.0</ele><time>2026-04-09T06:20:30Z</time></trkpt><trkpt lat="14.454266073512692" lon="120.91671165456225"><ele>0.0</ele><time>2026-04-09T06:20:37Z</time></trkpt><trkpt lat="14.454160773287741" lon="120.91664723771532"><ele>0.0</ele><time>2026-04-09T06:20:39Z</time></trkpt><trkpt lat="14.454090595738107" lon="120.9165879570558"><ele>0.0</ele><time>2026-04-09T06:20:40Z</time></trkpt><trkpt lat="14.453981929090745" lon="120.91652677183423"><ele>0.0</ele><time>2026-04-09T06:20:41Z</time></trkpt><trkpt lat="14.45389781806534" lon="120.91648450232849"><ele>0.0</ele><time>2026-04-09T06:20:42Z</time></trkpt><trkpt lat="14.453813416639031" lon="120.91644296682355"><ele>0.0</ele><time>2026-04-09T06:20:43Z</time></trkpt><trkpt lat="14.453725421475466" lon="120.91639931519228"><ele>0.0</ele><time>2026-04-09T06:20:44Z</time></trkpt><trkpt lat="14.453633842431696" lon="120.91636222506422"><ele>0.0</ele><time>2026-04-09T06:20:45Z</time></trkpt><trkpt lat="14.453534710776099" lon="120.91632383860886"><ele>0.0</ele><time>2026-04-09T06:20:46Z</time></trkpt><trkpt lat="14.453433302308483" lon="120.91628680013596"><ele>0.0</ele><time>2026-04-09T06:20:47Z</time></trkpt><trkpt lat="14.453328981067624" lon="120.91625227839003"><ele>0.0</ele><time>2026-04-09T06:20:48Z</time></trkpt><trkpt lat="14.453218396633053" lon="120.91622100821682"><ele>0.0</ele><time>2026-04-09T06:20:49Z</time></trkpt><trkpt lat="14.45310732180116" lon="120.91619426992797"><ele>0.0</ele><time>2026-04-09T06:20:50Z</time></trkpt><trkpt lat="14.452992430222068" lon="120.91616752012419"><ele>0.0</ele><time>2026-04-09T06:20:51Z</time></trkpt><trkpt lat="14.452871634679363" lon="120.91613992498205"><ele>0.0</ele><time>2026-04-09T06:20:52Z</time></trkpt><trkpt lat="14.452749227062673" lon="120.91611741570766"><ele>0.0</ele><time>2026-04-09T06:20:53Z</time></trkpt><trkpt lat="14.452624276545984" lon="120.91609591018097"><ele>0.0</ele><time>2026-04-09T06:20:54Z</time></trkpt><trkpt lat="14.452495740909397" lon="120.91607761329426"><ele>0.0</ele><time>2026-04-09T06:20:55Z</time></trkpt><trkpt lat="14.452364187904443" lon="120.91606215992395"><ele>0.0</ele><time>2026-04-09T06:20:56Z</time></trkpt><trkpt lat="14.45223028196391" lon="120.91604908612798"><ele>0.0</ele><time>2026-04-09T06:20:57Z</time></trkpt><trkpt lat="14.45209396867084" lon="120.91603728297844"><ele>0.0</ele><time>2026-04-09T06:20:58Z</time></trkpt><trkpt lat="14.451956326938207" lon="120.9160267497973"><ele>0.0</ele><time>2026-04-09T06:20:59Z</time></trkpt><trkpt lat="14.451817701641897" lon="120.91601670356368"><ele>0.0</ele><time>2026-04-09T06:21:00Z</time></trkpt><trkpt lat="14.451679911061946" lon="120.91600620754475"><ele>0.0</ele><time>2026-04-09T06:21:01Z</time></trkpt><trkpt lat="14.451543313178824" lon="120.91599590161115"><ele>0.0</ele><time>2026-04-09T06:21:02Z</time></trkpt><trkpt lat="14.45140884904655" lon="120.91598601192575"><ele>0.75</ele><time>2026-04-09T06:21:03Z</time></trkpt><trkpt lat="14.451274629392696" lon="120.91597648078499"><ele>1.5</ele><time>2026-04-09T06:21:04Z</time></trkpt><trkpt lat="14.45114276469951" lon="120.9159667231033"><ele>2.25</ele><time>2026-04-09T06:21:05Z</time></trkpt><trkpt lat="14.451014323384955" lon="120.91595456089233"><ele>3.0</ele><time>2026-04-09T06:21:06Z</time></trkpt><trkpt lat="14.450891278336876" lon="120.91594188169016"><ele>3.0</ele><time>2026-04-09T06:21:07Z</time></trkpt><trkpt lat="14.45077896190107" lon="120.91592652136383"><ele>3.0</ele><time>2026-04-09T06:21:08Z</time></trkpt><trkpt lat="14.450668726325716" lon="120.91590946829987"><ele>3.0</ele><time>2026-04-09T06:21:09Z</time></trkpt><trkpt lat="14.450564158807595" lon="120.91589131283567"><ele>3.0</ele><time>2026-04-09T06:21:10Z</time></trkpt><trkpt lat="14.450466374459669" lon="120.91587025509943"><ele>3.0</ele><time>2026-04-09T06:21:11Z</time></trkpt><trkpt lat="14.450363936453574" lon="120.91584441309612"><ele>3.2</ele><time>2026-04-09T06:21:12Z</time></trkpt><trkpt lat="14.450259094917765" lon="120.9158160296753"><ele>3.4</ele><time>2026-04-09T06:21:13Z</time></trkpt><trkpt lat="14.450154121152515" lon="120.91577925153707"><ele>3.6000000000000005</ele><time>2026-04-09T06:21:14Z</time></trkpt><trkpt lat="14.450048596592246" lon="120.91574010167339"><ele>3.8000000000000003</ele><time>2026-04-09T06:21:15Z</time></trkpt><trkpt lat="14.449943180550136" lon="120.91569882565439"><ele>4.0</ele><time>2026-04-09T06:21:16Z</time></trkpt><trkpt lat="14.449840955681985" lon="120.9156567502408"><ele>4.0</ele><time>2026-04-09T06:21:17Z</time></trkpt><trkpt lat="14.449741104984303" lon="120.91561342197751"><ele>4.0</ele><time>2026-04-09T06:21:18Z</time></trkpt><trkpt lat="14.449643853326341" lon="120.91557040282578"><ele>4.0</ele><time>2026-04-09T06:21:19Z</time></trkpt><trkpt lat="14.449548663916591" lon="120.91552888320913"><ele>4.0</ele><time>2026-04-09T06:21:20Z</time></trkpt><trkpt lat="14.44946282671037" lon="120.91547025154992"><ele>4.0</ele><time>2026-04-09T06:21:21Z</time></trkpt><trkpt lat="14.449360990454167" lon="120.9154409316327"><ele>3.4000000000000004</ele><time>2026-04-09T06:21:22Z</time></trkpt><trkpt lat="14.44925944971009" lon="120.91543123330428"><ele>2.8000000000000003</ele><time>2026-04-09T06:21:23Z</time></trkpt><trkpt lat="14.449153955503759" lon="120.91545248336936"><ele>2.2</ele><time>2026-04-09T06:21:24Z</time></trkpt><trkpt lat="14.449050680514372" lon="120.9154626950569"><ele>1.6</ele><time>2026-04-09T06:21:25Z</time></trkpt><trkpt lat="14.44894701266657" lon="120.91548620178784"><ele>1.0</ele><time>2026-04-09T06:21:26Z</time></trkpt><trkpt lat="14.448842639038178" lon="120.91552280312943"><ele>1.4</ele><time>2026-04-09T06:21:27Z</time></trkpt><trkpt lat="14.448739639547085" lon="120.9155665847046"><ele>1.8</ele><time>2026-04-09T06:21:28Z</time></trkpt><trkpt lat="14.448636799102735" lon="120.91561491075959"><ele>2.1999999999999997</ele><time>2026-04-09T06:21:29Z</time></trkpt><trkpt lat="14.44853493039994" lon="120.91566335786052"><ele>2.6</ele><time>2026-04-09T06:21:30Z</time></trkpt><trkpt lat="14.448436284447002" lon="120.91570769601272"><ele>3.0</ele><time>2026-04-09T06:21:31Z</time></trkpt><trkpt lat="14.448342509483803" lon="120.91574661995648"><ele>3.0</ele><time>2026-04-09T06:21:32Z</time></trkpt><trkpt lat="14.448245816710381" lon="120.91578114351309"><ele>3.0</ele><time>2026-04-09T06:21:33Z</time></trkpt><trkpt lat="14.448147176855686" lon="120.91581619147433"><ele>3.0</ele><time>2026-04-09T06:21:34Z</time></trkpt><trkpt lat="14.448075378780059" lon="120.91581899910427"><ele>3.0</ele><time>2026-04-09T06:21:35Z</time></trkpt><trkpt lat="14.447994575044838" lon="120.91581485756046"><ele>3.0</ele><time>2026-04-09T06:21:36Z</time></trkpt><trkpt lat="14.447912437532644" lon="120.91580624031036"><ele>3.0</ele><time>2026-04-09T06:21:37Z</time></trkpt><trkpt lat="14.447829853026338" lon="120.91579357827744"><ele>3.3333333333333335</ele><time>2026-04-09T06:21:38Z</time></trkpt><trkpt lat="14.4477492401846" lon="120.91577946247702"><ele>3.666666666666667</ele><time>2026-04-09T06:21:39Z</time></trkpt><trkpt lat="14.447672775884389" lon="120.91576423724429"><ele>4.0</ele><time>2026-04-09T06:21:40Z</time></trkpt><trkpt lat="14.44759986150149" lon="120.91575025629571"><ele>4.333333333333334</ele><time>2026-04-09T06:21:41Z</time></trkpt><trkpt lat="14.447529762691607" lon="120.91573640113313"><ele>4.666666666666667</ele><time>2026-04-09T06:21:42Z</time></trkpt><trkpt lat="14.447431160994935" lon="120.91571509196957"><ele>5.0</ele><time>2026-04-09T06:21:44Z</time></trkpt><trkpt lat="14.447354974932738" lon="120.915701886767"><ele>5.0</ele><time>2026-04-09T06:21:49Z</time></trkpt><trkpt lat="14.447286652536924" lon="120.91568543321658"><ele>5.0</ele><time>2026-04-09T06:21:52Z</time></trkpt><trkpt lat="14.447219970385936" lon="120.91566654771759"><ele>5.0</ele><time>2026-04-09T06:21:57Z</time></trkpt><trkpt lat="14.447146387689033" lon="120.91564405812717"><ele>5.0</ele><time>2026-04-09T06:22:02Z</time></trkpt><trkpt lat="14.447083531138912" lon="120.91562785792205"><ele>5.0</ele><time>2026-04-09T06:22:05Z</time></trkpt><trkpt lat="14.447009635026548" lon="120.91561299335532"><ele>5.0</ele><time>2026-04-09T06:22:09Z</time></trkpt><trkpt lat="14.446942736612689" lon="120.91559362396683"><ele>5.0</ele><time>2026-04-09T06:22:11Z</time></trkpt><trkpt lat="14.446862613127578" lon="120.91555501546517"><ele>5.0</ele><time>2026-04-09T06:22:13Z</time></trkpt><trkpt lat="14.446766910760688" lon="120.9155048843176"><ele>5.0</ele><time>2026-04-09T06:22:15Z</time></trkpt><trkpt lat="14.446663522969967" lon="120.91545497179118"><ele>5.0</ele><time>2026-04-09T06:22:17Z</time></trkpt><trkpt lat="14.44660350218666" lon="120.91542797994764"><ele>5.0</ele><time>2026-04-09T06:22:18Z</time></trkpt><trkpt lat="14.446534175063205" lon="120.91539369586229"><ele>5.0</ele><time>2026-04-09T06:22:19Z</time></trkpt><trkpt lat="14.446459758663082" lon="120.91535280665211"><ele>5.0</ele><time>2026-04-09T06:22:20Z</time></trkpt><trkpt lat="14.446382611408584" lon="120.9153077319794"><ele>5.0</ele><time>2026-04-09T06:22:21Z</time></trkpt><trkpt lat="14.446302598726993" lon="120.9152601074723"><ele>5.0</ele><time>2026-04-09T06:22:22Z</time></trkpt><trkpt lat="14.446218883760913" lon="120.91520909185671"><ele>5.0</ele><time>2026-04-09T06:22:23Z</time></trkpt><trkpt lat="14.446136157023716" lon="120.91515838377484"><ele>5.0</ele><time>2026-04-09T06:22:24Z</time></trkpt><trkpt lat="14.446054345314497" lon="120.91510877182597"><ele>5.0</ele><time>2026-04-09T06:22:25Z</time></trkpt><trkpt lat="14.445977335184931" lon="120.91506324306738"><ele>5.0</ele><time>2026-04-09T06:22:26Z</time></trkpt><trkpt lat="14.445908673120224" lon="120.91502301821183"><ele>5.0</ele><time>2026-04-09T06:22:27Z</time></trkpt><trkpt lat="14.445847022528497" lon="120.91498729875231"><ele>5.0</ele><time>2026-04-09T06:22:28Z</time></trkpt><trkpt lat="14.445783299096796" lon="120.91495086115397"><ele>5.0</ele><time>2026-04-09T06:22:29Z</time></trkpt><trkpt lat="14.445721434661387" lon="120.91491425387892"><ele>5.0</ele><time>2026-04-09T06:22:30Z</time></trkpt><trkpt lat="14.44565957020399" lon="120.91487789338916"><ele>5.0</ele><time>2026-04-09T06:22:31Z</time></trkpt><trkpt lat="14.445592168284987" lon="120.91483916481675"><ele>5.0</ele><time>2026-04-09T06:22:32Z</time></trkpt><trkpt lat="14.445521858726323" lon="120.91479777718156"><ele>5.0</ele><time>2026-04-09T06:22:33Z</time></trkpt><trkpt lat="14.445452216506627" lon="120.91475636223102"><ele>5.0</ele><time>2026-04-09T06:22:34Z</time></trkpt><trkpt lat="14.445383689484615" lon="120.9147160357141"><ele>5.0</ele><time>2026-04-09T06:22:35Z</time></trkpt><trkpt lat="14.445317814691432" lon="120.91467833011808"><ele>5.0</ele><time>2026-04-09T06:22:36Z</time></trkpt><trkpt lat="14.445255333324356" lon="120.91464205828272"><ele>5.0</ele><time>2026-04-09T06:22:37Z</time></trkpt><trkpt lat="14.445199619892382" lon="120.91460992407269"><ele>5.0</ele><time>2026-04-09T06:22:38Z</time></trkpt><trkpt lat="14.445095184584504" lon="120.91454991038427"><ele>5.0</ele><time>2026-04-09T06:22:40Z</time></trkpt><trkpt lat="14.445008236647903" lon="120.9145005030373"><ele>5.0</ele><time>2026-04-09T06:22:42Z</time></trkpt><trkpt lat="14.44494244032627" lon="120.91446379418501"><ele>5.0</ele><time>2026-04-09T06:22:44Z</time></trkpt><trkpt lat="14.444834887997247" lon="120.91447810831319"><ele>5.0</ele><time>2026-04-09T06:22:47Z</time></trkpt><trkpt lat="14.44476837908785" lon="120.91454889818158"><ele>5.0</ele><time>2026-04-09T06:22:49Z</time></trkpt><trkpt lat="14.444702019440221" lon="120.9146273176547"><ele>4.8</ele><time>2026-04-09T06:22:51Z</time></trkpt><trkpt lat="14.444620793521892" lon="120.91472607897396"><ele>4.6</ele><time>2026-04-09T06:22:53Z</time></trkpt><trkpt lat="14.444573611364172" lon="120.91478465549044"><ele>4.4</ele><time>2026-04-09T06:22:54Z</time></trkpt><trkpt lat="14.444522671134502" lon="120.91484680366035"><ele>4.2</ele><time>2026-04-09T06:22:55Z</time></trkpt><trkpt lat="14.444468093829478" lon="120.91491287596101"><ele>4.0</ele><time>2026-04-09T06:22:56Z</time></trkpt><trkpt lat="14.44441141316373" lon="120.91498316243484"><ele>4.0</ele><time>2026-04-09T06:22:57Z</time></trkpt><trkpt lat="14.444353373053639" lon="120.91505911502658"><ele>4.0</ele><time>2026-04-09T06:22:58Z</time></trkpt><trkpt lat="14.44429742968303" lon="120.91514009938341"><ele>4.0</ele><time>2026-04-09T06:22:59Z</time></trkpt><trkpt lat="14.444245169482786" lon="120.9152242355083"><ele>4.0</ele><time>2026-04-09T06:23:00Z</time></trkpt><trkpt lat="14.444194146020443" lon="120.91531131412391"><ele>4.0</ele><time>2026-04-09T06:23:01Z</time></trkpt><trkpt lat="14.444144476735088" lon="120.91540100030225"><ele>4.6</ele><time>2026-04-09T06:23:02Z</time></trkpt><trkpt lat="14.444095970846703" lon="120.91549365618245"><ele>5.2</ele><time>2026-04-09T06:23:03Z</time></trkpt><trkpt lat="14.444050379856213" lon="120.91558785256836"><ele>5.799999999999999</ele><time>2026-04-09T06:23:04Z</time></trkpt><trkpt lat="14.444004839918172" lon="120.91568246129924"><ele>6.3999999999999995</ele><time>2026-04-09T06:23:05Z</time></trkpt><trkpt lat="14.443958259548186" lon="120.91577664300655"><ele>7.0</ele><time>2026-04-09T06:23:06Z</time></trkpt><trkpt lat="14.44390950899606" lon="120.91587168396245"><ele>6.8</ele><time>2026-04-09T06:23:07Z</time></trkpt><trkpt lat="14.443856199001372" lon="120.91596465521471"><ele>6.6</ele><time>2026-04-09T06:23:08Z</time></trkpt><trkpt lat="14.443797275361318" lon="120.91605624228174"><ele>6.3999999999999995</ele><time>2026-04-09T06:23:09Z</time></trkpt><trkpt lat="14.443731874975596" lon="120.91614571815292"><ele>6.199999999999999</ele><time>2026-04-09T06:23:10Z</time></trkpt><trkpt lat="14.443661727688736" lon="120.91623171616071"><ele>6.0</ele><time>2026-04-09T06:23:11Z</time></trkpt><trkpt lat="14.443588107890264" lon="120.91632192126214"><ele>5.75</ele><time>2026-04-09T06:23:12Z</time></trkpt><trkpt lat="14.443511428119505" lon="120.91641188206505"><ele>5.5</ele><time>2026-04-09T06:23:13Z</time></trkpt><trkpt lat="14.443430443530353" lon="120.91650008797774"><ele>5.25</ele><time>2026-04-09T06:23:14Z</time></trkpt><trkpt lat="14.443349672746766" lon="120.9165846639622"><ele>5.0</ele><time>2026-04-09T06:23:15Z</time></trkpt><trkpt lat="14.443267902949245" lon="120.91666429449998"><ele>5.0</ele><time>2026-04-09T06:23:16Z</time></trkpt><trkpt lat="14.443183920759854" lon="120.91673549755527"><ele>5.0</ele><time>2026-04-09T06:23:17Z</time></trkpt><trkpt lat="14.443095580687405" lon="120.9167938941427"><ele>5.0</ele><time>2026-04-09T06:23:18Z</time></trkpt><trkpt lat="14.443005767256787" lon="120.91683785088206"><ele>5.0</ele><time>2026-04-09T06:23:19Z</time></trkpt><trkpt lat="14.442915542770919" lon="120.91686786967709"><ele>5.0</ele><time>2026-04-09T06:23:20Z</time></trkpt><trkpt lat="14.442822592327321" lon="120.91688306122927"><ele>5.6</ele><time>2026-04-09T06:23:21Z</time></trkpt><trkpt lat="14.44272566900478" lon="120.91689455431332"><ele>6.2</ele><time>2026-04-09T06:23:22Z</time></trkpt><trkpt lat="14.442624446853523" lon="120.91690170033536"><ele>6.800000000000001</ele><time>2026-04-09T06:23:23Z</time></trkpt><trkpt lat="14.442521517156422" lon="120.91690759980716"><ele>7.4</ele><time>2026-04-09T06:23:24Z</time></trkpt><trkpt lat="14.442423702793024" lon="120.91691405917969"><ele>8.0</ele><time>2026-04-09T06:23:25Z</time></trkpt><trkpt lat="14.442320610253391" lon="120.9169191658866"><ele>7.999999999999999</ele><time>2026-04-09T06:23:26Z</time></trkpt><trkpt lat="14.442221443764534" lon="120.91692446113815"><ele>8.0</ele><time>2026-04-09T06:23:27Z</time></trkpt><trkpt lat="14.442128843925282" lon="120.91692948986146"><ele>8.0</ele><time>2026-04-09T06:23:28Z</time></trkpt><trkpt lat="14.442040561760203" lon="120.91693670922879"><ele>8.0</ele><time>2026-04-09T06:23:29Z</time></trkpt><trkpt lat="14.441962467078023" lon="120.91694400840483"><ele>7.999999999999999</ele><time>2026-04-09T06:23:30Z</time></trkpt><trkpt lat="14.441894653219347" lon="120.91694903221496"><ele>8.0</ele><time>2026-04-09T06:23:31Z</time></trkpt><trkpt lat="14.441793456985938" lon="120.9169577370844"><ele>7.833333333333333</ele><time>2026-04-09T06:23:33Z</time></trkpt><trkpt lat="14.441704092197941" lon="120.91696657881899"><ele>7.666666666666666</ele><time>2026-04-09T06:23:35Z</time></trkpt><trkpt lat="14.441595906634893" lon="120.91698803965443"><ele>7.5</ele><time>2026-04-09T06:23:37Z</time></trkpt><trkpt lat="14.441527401851456" lon="120.91700042101805"><ele>7.333333333333334</ele><time>2026-04-09T06:23:38Z</time></trkpt><trkpt lat="14.441455654351278" lon="120.91701579922554"><ele>7.166666666666667</ele><time>2026-04-09T06:23:39Z</time></trkpt><trkpt lat="14.441373101293525" lon="120.91703341513461"><ele>7.0</ele><time>2026-04-09T06:23:40Z</time></trkpt><trkpt lat="14.441285819123541" lon="120.91705332239772"><ele>7.0</ele><time>2026-04-09T06:23:41Z</time></trkpt><trkpt lat="14.44119453353445" lon="120.9170750630452"><ele>6.999999999999999</ele><time>2026-04-09T06:23:42Z</time></trkpt><trkpt lat="14.441098692991368" lon="120.91709885698221"><ele>6.999999999999999</ele><time>2026-04-09T06:23:43Z</time></trkpt><trkpt lat="14.440996846791762" lon="120.91712365416201"><ele>7.0</ele><time>2026-04-09T06:23:44Z</time></trkpt><trkpt lat="14.4408947905526" lon="120.91714636107376"><ele>7.0</ele><time>2026-04-09T06:23:45Z</time></trkpt><trkpt lat="14.440790502941361" lon="120.91716750598745"><ele>7.0</ele><time>2026-04-09T06:23:46Z</time></trkpt><trkpt lat="14.440680259942688" lon="120.91718866336413"><ele>7.0</ele><time>2026-04-09T06:23:47Z</time></trkpt><trkpt lat="14.440568116078706" lon="120.91720900977992"><ele>7.0</ele><time>2026-04-09T06:23:48Z</time></trkpt><trkpt lat="14.440458240195229" lon="120.91723110327953"><ele>7.0</ele><time>2026-04-09T06:23:49Z</time></trkpt><trkpt lat="14.440349305880964" lon="120.91725901195392"><ele>6.6</ele><time>2026-04-09T06:23:50Z</time></trkpt><trkpt lat="14.440248128758173" lon="120.91729324985967"><ele>6.199999999999999</ele><time>2026-04-09T06:23:51Z</time></trkpt><trkpt lat="14.440151940982933" lon="120.91733360559876"><ele>5.8</ele><time>2026-04-09T06:23:52Z</time></trkpt><trkpt lat="14.440059088370942" lon="120.91738224649384"><ele>5.4</ele><time>2026-04-09T06:23:53Z</time></trkpt><trkpt lat="14.439967316441914" lon="120.91744095415734"><ele>5.0</ele><time>2026-04-09T06:23:54Z</time></trkpt><trkpt lat="14.43987605556086" lon="120.91750759650616"><ele>4.75</ele><time>2026-04-09T06:23:55Z</time></trkpt><trkpt lat="14.439793716157547" lon="120.9175797657485"><ele>4.5</ele><time>2026-04-09T06:23:56Z</time></trkpt><trkpt lat="14.439707799417405" lon="120.91765616396344"><ele>4.25</ele><time>2026-04-09T06:23:57Z</time></trkpt><trkpt lat="14.439617012020863" lon="120.91773723194467"><ele>4.0</ele><time>2026-04-09T06:23:58Z</time></trkpt><trkpt lat="14.439523782295907" lon="120.9178189979495"><ele>4.0</ele><time>2026-04-09T06:23:59Z</time></trkpt><trkpt lat="14.439428447106403" lon="120.91790141473274"><ele>4.0</ele><time>2026-04-09T06:24:00Z</time></trkpt><trkpt lat="14.439327801396757" lon="120.91798928637887"><ele>4.0</ele><time>2026-04-09T06:24:01Z</time></trkpt><trkpt lat="14.439227087612153" lon="120.91807796320106"><ele>4.0</ele><time>2026-04-09T06:24:02Z</time></trkpt><trkpt lat="14.43912176482258" lon="120.91817488859841"><ele>4.0</ele><time>2026-04-09T06:24:03Z</time></trkpt><trkpt lat="14.439014558676359" lon="120.91827348138717"><ele>4.0</ele><time>2026-04-09T06:24:04Z</time></trkpt><trkpt lat="14.43890610200316" lon="120.918374706373"><ele>4.0</ele><time>2026-04-09T06:24:05Z</time></trkpt><trkpt lat="14.438795838284067" lon="120.91847475662534"><ele>4.0</ele><time>2026-04-09T06:24:06Z</time></trkpt><trkpt lat="14.43868403946096" lon="120.91857914154811"><ele>5.0</ele><time>2026-04-09T06:24:07Z</time></trkpt><trkpt lat="14.438569618245886" lon="120.91868559561449"><ele>6.0</ele><time>2026-04-09T06:24:08Z</time></trkpt><trkpt lat="14.438455147696263" lon="120.91879085522328"><ele>7.0</ele><time>2026-04-09T06:24:09Z</time></trkpt><trkpt lat="14.438336542920188" lon="120.91890080658077"><ele>7.0</ele><time>2026-04-09T06:24:10Z</time></trkpt><trkpt lat="14.438219554882691" lon="120.9190087977557"><ele>7.0</ele><time>2026-04-09T06:24:11Z</time></trkpt><trkpt lat="14.438100784154198" lon="120.91911904684969"><ele>7.0</ele><time>2026-04-09T06:24:12Z</time></trkpt><trkpt lat="14.437983409953704" lon="120.9192278356334"><ele>6.666666666666667</ele><time>2026-04-09T06:24:13Z</time></trkpt><trkpt lat="14.437865254048248" lon="120.91933851022246"><ele>6.333333333333334</ele><time>2026-04-09T06:24:14Z</time></trkpt><trkpt lat="14.437748387181179" lon="120.91944987722917"><ele>6.0</ele><time>2026-04-09T06:24:15Z</time></trkpt><trkpt lat="14.437631041509567" lon="120.91956212179898"><ele>6.0</ele><time>2026-04-09T06:24:16Z</time></trkpt><trkpt lat="14.43751531602061" lon="120.91967959242626"><ele>6.0</ele><time>2026-04-09T06:24:17Z</time></trkpt><trkpt lat="14.437401882115797" lon="120.91979690688589"><ele>6.0</ele><time>2026-04-09T06:24:18Z</time></trkpt><trkpt lat="14.437289555302858" lon="120.91991474250842"><ele>6.0</ele><time>2026-04-09T06:24:19Z</time></trkpt><trkpt lat="14.437178258588967" lon="120.9200349705901"><ele>6.0</ele><time>2026-04-09T06:24:20Z</time></trkpt><trkpt lat="14.437065664964647" lon="120.9201550209574"><ele>6.0</ele><time>2026-04-09T06:24:21Z</time></trkpt><trkpt lat="14.436951651255805" lon="120.92027595014369"><ele>6.333333333333334</ele><time>2026-04-09T06:24:22Z</time></trkpt><trkpt lat="14.436836262611763" lon="120.92039478576467"><ele>6.666666666666667</ele><time>2026-04-09T06:24:23Z</time></trkpt><trkpt lat="14.436722041063815" lon="120.92051362023453"><ele>7.0</ele><time>2026-04-09T06:24:24Z</time></trkpt><trkpt lat="14.43660820341341" lon="120.92063524635228"><ele>7.0</ele><time>2026-04-09T06:24:25Z</time></trkpt><trkpt lat="14.436492262222222" lon="120.92075792807204"><ele>7.0</ele><time>2026-04-09T06:24:26Z</time></trkpt><trkpt lat="14.43637821823147" lon="120.92088127050951"><ele>7.0</ele><time>2026-04-09T06:24:27Z</time></trkpt><trkpt lat="14.436263160880072" lon="120.92100482052261"><ele>7.333333333333334</ele><time>2026-04-09T06:24:28Z</time></trkpt><trkpt lat="14.43614898419698" lon="120.92112742217364"><ele>7.666666666666666</ele><time>2026-04-09T06:24:29Z</time></trkpt><trkpt lat="14.436035321827678" lon="120.92124980425476"><ele>8.0</ele><time>2026-04-09T06:24:30Z</time></trkpt><trkpt lat="14.435923625203149" lon="120.92136962592605"><ele>8.0</ele><time>2026-04-09T06:24:31Z</time></trkpt><trkpt lat="14.43581433532946" lon="120.92148722617829"><ele>8.0</ele><time>2026-04-09T06:24:32Z</time></trkpt><trkpt lat="14.435707464287827" lon="120.92160345217067"><ele>8.0</ele><time>2026-04-09T06:24:33Z</time></trkpt><trkpt lat="14.435604234821358" lon="120.92171543775743"><ele>8.0</ele><time>2026-04-09T06:24:34Z</time></trkpt><trkpt lat="14.43550848611109" lon="120.92181651979534"><ele>8.0</ele><time>2026-04-09T06:24:35Z</time></trkpt><trkpt lat="14.435415688407858" lon="120.92190672767937"><ele>8.0</ele><time>2026-04-09T06:24:36Z</time></trkpt><trkpt lat="14.435317331181054" lon="120.92198522754695"><ele>8.0</ele><time>2026-04-09T06:24:37Z</time></trkpt><trkpt lat="14.435214358615609" lon="120.92204626082383"><ele>8.0</ele><time>2026-04-09T06:24:38Z</time></trkpt><trkpt lat="14.435103485000234" lon="120.92204374015218"><ele>8.0</ele><time>2026-04-09T06:24:39Z</time></trkpt><trkpt lat="14.4350013509708" lon="120.92203856242323"><ele>8.0</ele><time>2026-04-09T06:24:40Z</time></trkpt><trkpt lat="14.434891092928579" lon="120.92203208756936"><ele>8.0</ele><time>2026-04-09T06:24:41Z</time></trkpt><trkpt lat="14.434771516409493" lon="120.9220179361866"><ele>8.0</ele><time>2026-04-09T06:24:42Z</time></trkpt><trkpt lat="14.434646842185328" lon="120.92200269292923"><ele>7.75</ele><time>2026-04-09T06:24:43Z</time></trkpt><trkpt lat="14.43451943131486" lon="120.92198585507612"><ele>7.5</ele><time>2026-04-09T06:24:44Z</time></trkpt><trkpt lat="14.434389458586953" lon="120.92196395825904"><ele>7.25</ele><time>2026-04-09T06:24:45Z</time></trkpt><trkpt lat="14.434253386112305" lon="120.92193918418873"><ele>7.0</ele><time>2026-04-09T06:24:46Z</time></trkpt><trkpt lat="14.434112669667348" lon="120.92191305973942"><ele>7.0</ele><time>2026-04-09T06:24:47Z</time></trkpt><trkpt lat="14.433968842415139" lon="120.92188612045781"><ele>7.0</ele><time>2026-04-09T06:24:48Z</time></trkpt><trkpt lat="14.433823736973693" lon="120.9218589417716"><ele>7.0</ele><time>2026-04-09T06:24:49Z</time></trkpt><trkpt lat="14.433679714899931" lon="120.92183159539316"><ele>7.0</ele><time>2026-04-09T06:24:50Z</time></trkpt><trkpt lat="14.4335334764827" lon="120.92180356854341"><ele>7.25</ele><time>2026-04-09T06:24:51Z</time></trkpt><trkpt lat="14.433386334775474" lon="120.92177536857123"><ele>7.5</ele><time>2026-04-09T06:24:52Z</time></trkpt><trkpt lat="14.433241018670293" lon="120.92174751847914"><ele>7.75</ele><time>2026-04-09T06:24:53Z</time></trkpt><trkpt lat="14.433098988216496" lon="120.92172142155368"><ele>8.0</ele><time>2026-04-09T06:24:54Z</time></trkpt><trkpt lat="14.432955046518373" lon="120.92171448978664"><ele>8.25</ele><time>2026-04-09T06:24:55Z</time></trkpt><trkpt lat="14.432817993823381" lon="120.92171325145712"><ele>8.5</ele><time>2026-04-09T06:24:56Z</time></trkpt><trkpt lat="14.432682879960966" lon="120.92171207123295"><ele>8.75</ele><time>2026-04-09T06:24:57Z</time></trkpt><trkpt lat="14.432550203887216" lon="120.92171091230261"><ele>9.0</ele><time>2026-04-09T06:24:58Z</time></trkpt><trkpt lat="14.432422684498095" lon="120.92170905737994"><ele>9.0</ele><time>2026-04-09T06:24:59Z</time></trkpt><trkpt lat="14.432292544458058" lon="120.9217233140535"><ele>9.0</ele><time>2026-04-09T06:25:00Z</time></trkpt><trkpt lat="14.432168837489098" lon="120.92175347490367"><ele>9.0</ele><time>2026-04-09T06:25:01Z</time></trkpt><trkpt lat="14.432054864332356" lon="120.92180253571995"><ele>9.0</ele><time>2026-04-09T06:25:02Z</time></trkpt><trkpt lat="14.431959255745356" lon="120.92188685627734"><ele>9.0</ele><time>2026-04-09T06:25:03Z</time></trkpt><trkpt lat="14.431857998260512" lon="120.92196085346892"><ele>9.0</ele><time>2026-04-09T06:25:04Z</time></trkpt><trkpt lat="14.43175736627601" lon="120.9220361584241"><ele>9.0</ele><time>2026-04-09T06:25:05Z</time></trkpt><trkpt lat="14.431658058823878" lon="120.9221118551693"><ele>9.0</ele><time>2026-04-09T06:25:06Z</time></trkpt><trkpt lat="14.431563818494856" lon="120.92218626069518"><ele>9.0</ele><time>2026-04-09T06:25:07Z</time></trkpt><trkpt lat="14.431469289201607" lon="120.92225547173801"><ele>9.0</ele><time>2026-04-09T06:25:08Z</time></trkpt><trkpt lat="14.431379793377952" lon="120.92232466704938"><ele>9.0</ele><time>2026-04-09T06:25:09Z</time></trkpt><trkpt lat="14.431300050050208" lon="120.92238173732451"><ele>9.0</ele><time>2026-04-09T06:25:10Z</time></trkpt><trkpt lat="14.431224509266203" lon="120.92242965762657"><ele>9.0</ele><time>2026-04-09T06:25:11Z</time></trkpt><trkpt lat="14.431140771908913" lon="120.92245481152987"><ele>9.2</ele><time>2026-04-09T06:25:12Z</time></trkpt><trkpt lat="14.431061203841073" lon="120.92246907623984"><ele>9.4</ele><time>2026-04-09T06:25:13Z</time></trkpt><trkpt lat="14.430972076705155" lon="120.92248471014435"><ele>9.6</ele><time>2026-04-09T06:25:14Z</time></trkpt><trkpt lat="14.430884709038926" lon="120.92246898130254"><ele>9.8</ele><time>2026-04-09T06:25:15Z</time></trkpt><trkpt lat="14.43078568673836" lon="120.92246495566091"><ele>10.0</ele><time>2026-04-09T06:25:16Z</time></trkpt><trkpt lat="14.430683154853858" lon="120.92245933504877"><ele>10.0</ele><time>2026-04-09T06:25:17Z</time></trkpt><trkpt lat="14.430577754885114" lon="120.9224526357217"><ele>10.0</ele><time>2026-04-09T06:25:18Z</time></trkpt><trkpt lat="14.430468642335583" lon="120.9224454346544"><ele>10.0</ele><time>2026-04-09T06:25:19Z</time></trkpt><trkpt lat="14.430357625531425" lon="120.92243697818235"><ele>10.0</ele><time>2026-04-09T06:25:20Z</time></trkpt><trkpt lat="14.430247209551094" lon="120.92242790289653"><ele>10.0</ele><time>2026-04-09T06:25:21Z</time></trkpt><trkpt lat="14.430126325619604" lon="120.92246264850792"><ele>9.75</ele><time>2026-04-09T06:25:22Z</time></trkpt><trkpt lat="14.430011794540295" lon="120.92244896304737"><ele>9.5</ele><time>2026-04-09T06:25:23Z</time></trkpt><trkpt lat="14.429894457454807" lon="120.9224341835542"><ele>9.25</ele><time>2026-04-09T06:25:24Z</time></trkpt><trkpt lat="14.429779154654188" lon="120.92241936506038"><ele>9.0</ele><time>2026-04-09T06:25:25Z</time></trkpt><trkpt lat="14.429673029054257" lon="120.92236210766055"><ele>9.0</ele><time>2026-04-09T06:25:26Z</time></trkpt><trkpt lat="14.429563683705835" lon="120.92234843949396"><ele>9.0</ele><time>2026-04-09T06:25:27Z</time></trkpt><trkpt lat="14.429457533412771" lon="120.92233517070498"><ele>9.0</ele><time>2026-04-09T06:25:28Z</time></trkpt><trkpt lat="14.429358654835298" lon="120.92232281097033"><ele>9.0</ele><time>2026-04-09T06:25:29Z</time></trkpt><trkpt lat="14.429255038663117" lon="120.92232007465915"><ele>9.0</ele><time>2026-04-09T06:25:30Z</time></trkpt><trkpt lat="14.429158148198276" lon="120.92232564424346"><ele>9.0</ele><time>2026-04-09T06:25:31Z</time></trkpt><trkpt lat="14.42906998774932" lon="120.92231106745291"><ele>9.0</ele><time>2026-04-09T06:25:32Z</time></trkpt><trkpt lat="14.428974697345902" lon="120.9222994730382"><ele>9.0</ele><time>2026-04-09T06:25:33Z</time></trkpt><trkpt lat="14.428890121727697" lon="120.9222893706377"><ele>9.0</ele><time>2026-04-09T06:25:34Z</time></trkpt><trkpt lat="14.42881658088651" lon="120.92228054949851"><ele>9.0</ele><time>2026-04-09T06:25:35Z</time></trkpt><trkpt lat="14.428753382537657" lon="120.92227296892226"><ele>9.0</ele><time>2026-04-09T06:25:36Z</time></trkpt><trkpt lat="14.428675006597258" lon="120.92226356782382"><ele>9.2</ele><time>2026-04-09T06:25:38Z</time></trkpt><trkpt lat="14.428611356527894" lon="120.9222559330711"><ele>9.4</ele><time>2026-04-09T06:25:45Z</time></trkpt><trkpt lat="14.428541169432297" lon="120.92225570193806"><ele>9.6</ele><time>2026-04-09T06:25:49Z</time></trkpt><trkpt lat="14.42843314071742" lon="120.9222561310158"><ele>9.8</ele><time>2026-04-09T06:25:52Z</time></trkpt><trkpt lat="14.428318613181737" lon="120.92225658590586"><ele>10.0</ele><time>2026-04-09T06:25:54Z</time></trkpt><trkpt lat="14.42819634255947" lon="120.92229986672984"><ele>10.0</ele><time>2026-04-09T06:25:56Z</time></trkpt><trkpt lat="14.42807441425748" lon="120.92227756269526"><ele>10.0</ele><time>2026-04-09T06:25:58Z</time></trkpt><trkpt lat="14.427953819688884" lon="120.92226597222155"><ele>10.0</ele><time>2026-04-09T06:26:00Z</time></trkpt><trkpt lat="14.427888531883822" lon="120.92226344853893"><ele>10.0</ele><time>2026-04-09T06:26:01Z</time></trkpt><trkpt lat="14.427819758750424" lon="120.92226329664301"><ele>10.0</ele><time>2026-04-09T06:26:02Z</time></trkpt><trkpt lat="14.427746340184022" lon="120.92226548013419"><ele>10.0</ele><time>2026-04-09T06:26:03Z</time></trkpt><trkpt lat="14.427671710901988" lon="120.92227076830436"><ele>10.0</ele><time>2026-04-09T06:26:04Z</time></trkpt><trkpt lat="14.42754433032673" lon="120.92265754188044"><ele>10.0</ele><time>2026-04-09T06:26:05Z</time></trkpt><trkpt lat="14.427462922388692" lon="120.92270897388735"><ele>10.0</ele><time>2026-04-09T06:26:06Z</time></trkpt><trkpt lat="14.42738643182647" lon="120.92275774093365"><ele>10.0</ele><time>2026-04-09T06:26:07Z</time></trkpt><trkpt lat="14.42731239273282" lon="120.92280505925285"><ele>10.0</ele><time>2026-04-09T06:26:08Z</time></trkpt><trkpt lat="14.427242619311706" lon="120.92285014912162"><ele>10.0</ele><time>2026-04-09T06:26:09Z</time></trkpt><trkpt lat="14.427177000746731" lon="120.92289488544083"><ele>10.0</ele><time>2026-04-09T06:26:10Z</time></trkpt><trkpt lat="14.427113547133223" lon="120.92293619744456"><ele>10.0</ele><time>2026-04-09T06:26:11Z</time></trkpt><trkpt lat="14.427053301720791" lon="120.92297610491319"><ele>10.0</ele><time>2026-04-09T06:26:12Z</time></trkpt><trkpt lat="14.426993282779636" lon="120.92301588596679"><ele>10.0</ele><time>2026-04-09T06:26:13Z</time></trkpt><trkpt lat="14.426934991633356" lon="120.92305381083142"><ele>10.0</ele><time>2026-04-09T06:26:14Z</time></trkpt><trkpt lat="14.426881340769894" lon="120.92308858587765"><ele>10.0</ele><time>2026-04-09T06:26:15Z</time></trkpt><trkpt lat="14.426782268943068" lon="120.92314855652245"><ele>10.0</ele><time>2026-04-09T06:26:17Z</time></trkpt><trkpt lat="14.426693998768215" lon="120.92319271269135"><ele>10.0</ele><time>2026-04-09T06:26:19Z</time></trkpt><trkpt lat="14.426598372297095" lon="120.92322006718884"><ele>10.0</ele><time>2026-04-09T06:26:21Z</time></trkpt><trkpt lat="14.426484316563602" lon="120.92323121760651"><ele>10.0</ele><time>2026-04-09T06:26:23Z</time></trkpt><trkpt lat="14.426360195105996" lon="120.9232352795817"><ele>10.0</ele><time>2026-04-09T06:26:25Z</time></trkpt><trkpt lat="14.426292838251834" lon="120.92323626703865"><ele>10.0</ele><time>2026-04-09T06:26:26Z</time></trkpt><trkpt lat="14.426222916543363" lon="120.92323473433143"><ele>10.0</ele><time>2026-04-09T06:26:27Z</time></trkpt><trkpt lat="14.426151895092978" lon="120.92323091721119"><ele>10.0</ele><time>2026-04-09T06:26:28Z</time></trkpt><trkpt lat="14.426084592104631" lon="120.92322727692695"><ele>10.0</ele><time>2026-04-09T06:26:29Z</time></trkpt><trkpt lat="14.426017806930835" lon="120.92322522936905"><ele>10.0</ele><time>2026-04-09T06:26:30Z</time></trkpt><trkpt lat="14.42589203397451" lon="120.9232204415533"><ele>10.0</ele><time>2026-04-09T06:26:32Z</time></trkpt><trkpt lat="14.4258269569271" lon="120.92321925132968"><ele>10.0</ele><time>2026-04-09T06:26:33Z</time></trkpt><trkpt lat="14.42575597441216" lon="120.92321950461965"><ele>10.0</ele><time>2026-04-09T06:26:34Z</time></trkpt><trkpt lat="14.425683215071677" lon="120.92321877524238"><ele>10.0</ele><time>2026-04-09T06:26:35Z</time></trkpt><trkpt lat="14.425607225456867" lon="120.92321912200454"><ele>10.0</ele><time>2026-04-09T06:26:36Z</time></trkpt><trkpt lat="14.42552799673759" lon="120.9232182396272"><ele>10.0</ele><time>2026-04-09T06:26:37Z</time></trkpt><trkpt lat="14.425445216604375" lon="120.92321778148175"><ele>10.0</ele><time>2026-04-09T06:26:38Z</time></trkpt><trkpt lat="14.425361486362533" lon="120.9232172555409"><ele>10.0</ele><time>2026-04-09T06:26:39Z</time></trkpt><trkpt lat="14.425277225719462" lon="120.9232166042297"><ele>10.333333333333334</ele><time>2026-04-09T06:26:40Z</time></trkpt><trkpt lat="14.425191422545053" lon="120.92321625806194"><ele>10.666666666666668</ele><time>2026-04-09T06:26:41Z</time></trkpt><trkpt lat="14.425100084805347" lon="120.9232168279897"><ele>11.0</ele><time>2026-04-09T06:26:42Z</time></trkpt><trkpt lat="14.42501095477383" lon="120.92321902397977"><ele>11.333333333333334</ele><time>2026-04-09T06:26:43Z</time></trkpt><trkpt lat="14.424921188499523" lon="120.9232190115901"><ele>11.666666666666666</ele><time>2026-04-09T06:26:44Z</time></trkpt><trkpt lat="14.424829721599657" lon="120.92321903306929"><ele>12.0</ele><time>2026-04-09T06:26:45Z</time></trkpt><trkpt lat="14.42474091249718" lon="120.92322142546345"><ele>12.0</ele><time>2026-04-09T06:26:46Z</time></trkpt><trkpt lat="14.424656011913138" lon="120.9232238480314"><ele>12.0</ele><time>2026-04-09T06:26:47Z</time></trkpt><trkpt lat="14.424573607461467" lon="120.92322423919109"><ele>12.0</ele><time>2026-04-09T06:26:48Z</time></trkpt><trkpt lat="14.424493398986026" lon="120.92322552134313"><ele>12.0</ele><time>2026-04-09T06:26:49Z</time></trkpt><trkpt lat="14.424412260727003" lon="120.9232262016279"><ele>12.0</ele><time>2026-04-09T06:26:50Z</time></trkpt><trkpt lat="14.424330696373259" lon="120.92322847016257"><ele>12.0</ele><time>2026-04-09T06:26:51Z</time></trkpt><trkpt lat="14.424244536230372" lon="120.92323160063563"><ele>12.0</ele><time>2026-04-09T06:26:52Z</time></trkpt><trkpt lat="14.424157331518654" lon="120.9232340515069"><ele>12.0</ele><time>2026-04-09T06:26:53Z</time></trkpt><trkpt lat="14.424068332959045" lon="120.92323756532167"><ele>12.0</ele><time>2026-04-09T06:26:54Z</time></trkpt><trkpt lat="14.423978899147649" lon="120.9232227856175"><ele>12.0</ele><time>2026-04-09T06:26:55Z</time></trkpt><trkpt lat="14.423892158307806" lon="120.92322510955208"><ele>12.0</ele><time>2026-04-09T06:26:56Z</time></trkpt><trkpt lat="14.423808595273801" lon="120.9232471146223"><ele>12.0</ele><time>2026-04-09T06:26:57Z</time></trkpt><trkpt lat="14.42372713420966" lon="120.92325047633472"><ele>11.833333333333334</ele><time>2026-04-09T06:26:58Z</time></trkpt><trkpt lat="14.423645581197933" lon="120.92325427621641"><ele>11.666666666666666</ele><time>2026-04-09T06:26:59Z</time></trkpt><trkpt lat="14.42356614133872" lon="120.92325886291722"><ele>11.5</ele><time>2026-04-09T06:27:00Z</time></trkpt><trkpt lat="14.423489772463553" lon="120.92326327423507"><ele>11.333333333333332</ele><time>2026-04-09T06:27:01Z</time></trkpt><trkpt lat="14.42342282032987" lon="120.92326496965774"><ele>11.166666666666666</ele><time>2026-04-09T06:27:02Z</time></trkpt><trkpt lat="14.423311617713896" lon="120.92326620894472"><ele>11.0</ele><time>2026-04-09T06:27:04Z</time></trkpt><trkpt lat="14.423223214490436" lon="120.92326756960725"><ele>11.0</ele><time>2026-04-09T06:27:06Z</time></trkpt><trkpt lat="14.423149825161932" lon="120.92326727876726"><ele>11.0</ele><time>2026-04-09T06:27:08Z</time></trkpt><trkpt lat="14.423084315399466" lon="120.92327509072322"><ele>11.0</ele><time>2026-04-09T06:27:12Z</time></trkpt><trkpt lat="14.423197295804789" lon="120.92326097737768"><ele>11.0</ele><time>2026-04-09T06:29:06Z</time></trkpt><trkpt lat="14.423254284124061" lon="120.92322026345504"><ele>11.0</ele><time>2026-04-09T06:29:12Z</time></trkpt><trkpt lat="14.423317100315032" lon="120.92320542241518"><ele>11.0</ele><time>2026-04-09T06:29:23Z</time></trkpt><trkpt lat="14.423355208950108" lon="120.92315216928336"><ele>11.0</ele><time>2026-04-09T06:29:44Z</time></trkpt><trkpt lat="14.423298232557633" lon="120.92319279517626"><ele>11.0</ele><time>2026-04-09T06:29:50Z</time></trkpt><trkpt lat="14.423277572415428" lon="120.92325881801321"><ele>11.0</ele><time>2026-04-09T06:29:56Z</time></trkpt><trkpt lat="14.423211273360481" lon="120.92327485259852"><ele>11.0</ele><time>2026-04-09T06:30:02Z</time></trkpt><trkpt lat="14.423155283319486" lon="120.92331106678823"><ele>11.0</ele><time>2026-04-09T06:30:09Z</time></trkpt><trkpt lat="14.423087759342545" lon="120.92328957318378"><ele>11.0</ele><time>2026-04-09T06:30:15Z</time></trkpt><trkpt lat="14.423120865028238" lon="120.92334715319062"><ele>11.0</ele><time>2026-04-09T06:32:30Z</time></trkpt><trkpt lat="14.423128013364519" lon="120.9234127347123"><ele>21.0</ele><time>2026-04-09T06:36:17.999Z</time></trkpt><trkpt lat="14.411212227098254" lon="120.92400639949281"><ele>21.0</ele><time>2026-04-09T07:21:32.001Z</time></trkpt><trkpt lat="14.411111727490704" lon="120.92401424630224"><ele>21.0</ele><time>2026-04-09T07:21:33.001Z</time></trkpt><trkpt lat="14.411014682907973" lon="120.92402949571205"><ele>21.0</ele><time>2026-04-09T07:21:34.001Z</time></trkpt><trkpt lat="14.410921316112146" lon="120.92405350993688"><ele>21.0</ele><time>2026-04-09T07:21:35.001Z</time></trkpt><trkpt lat="14.410834129225892" lon="120.92408254742577"><ele>21.0</ele><time>2026-04-09T07:21:36.001Z</time></trkpt><trkpt lat="14.41075483306312" lon="120.92411132938427"><ele>21.0</ele><time>2026-04-09T07:21:37.001Z</time></trkpt><trkpt lat="14.410679199018157" lon="120.92414232252975"><ele>21.0</ele><time>2026-04-09T07:21:38.001Z</time></trkpt><trkpt lat="14.410541626719054" lon="120.92420537923188"><ele>21.0</ele><time>2026-04-09T07:21:40.001Z</time></trkpt><trkpt lat="14.410475256131702" lon="120.9242356465937"><ele>21.0</ele><time>2026-04-09T07:21:41.001Z</time></trkpt><trkpt lat="14.410404666310457" lon="120.92426748679449"><ele>21.0</ele><time>2026-04-09T07:21:42.001Z</time></trkpt><trkpt lat="14.410331694855904" lon="120.92429605949556"><ele>20.714285714285715</ele><time>2026-04-09T07:21:43.001Z</time></trkpt><trkpt lat="14.41025697580895" lon="120.92432779777101"><ele>20.42857142857143</ele><time>2026-04-09T07:21:44.001Z</time></trkpt><trkpt lat="14.410184287299154" lon="120.92435932594566"><ele>20.142857142857142</ele><time>2026-04-09T07:21:45.001Z</time></trkpt><trkpt lat="14.410115695842396" lon="120.92438712086367"><ele>19.857142857142858</ele><time>2026-04-09T07:21:46.001Z</time></trkpt><trkpt lat="14.410051236414034" lon="120.9244135274995"><ele>19.571428571428573</ele><time>2026-04-09T07:21:47.001Z</time></trkpt><trkpt lat="14.40998647496528" lon="120.92443985585412"><ele>19.285714285714285</ele><time>2026-04-09T07:21:48.001Z</time></trkpt><trkpt lat="14.409923261205252" lon="120.92446660620483"><ele>19.0</ele><time>2026-04-09T07:21:49.001Z</time></trkpt><trkpt lat="14.409857218801818" lon="120.92449266040916"><ele>19.0</ele><time>2026-04-09T07:21:50.001Z</time></trkpt><trkpt lat="14.409788543936523" lon="120.92452106040439"><ele>19.0</ele><time>2026-04-09T07:21:51.001Z</time></trkpt><trkpt lat="14.409720883453046" lon="120.92455092305258"><ele>19.0</ele><time>2026-04-09T07:21:52.001Z</time></trkpt><trkpt lat="14.409653551458895" lon="120.9245791328354"><ele>19.0</ele><time>2026-04-09T07:21:53.001Z</time></trkpt><trkpt lat="14.409588972898554" lon="120.9246052980542"><ele>19.0</ele><time>2026-04-09T07:21:54.001Z</time></trkpt><trkpt lat="14.40952895528946" lon="120.92462728605973"><ele>19.0</ele><time>2026-04-09T07:21:55.001Z</time></trkpt><trkpt lat="14.409430351564268" lon="120.92465549679403"><ele>18.599999999999998</ele><time>2026-04-09T07:21:57.001Z</time></trkpt><trkpt lat="14.409357274310148" lon="120.92464960891884"><ele>18.2</ele><time>2026-04-09T07:21:59.001Z</time></trkpt><trkpt lat="14.409258301369638" lon="120.92452764953389"><ele>17.799999999999997</ele><time>2026-04-09T07:22:04.001Z</time></trkpt><trkpt lat="14.409242995970374" lon="120.92444617602305"><ele>17.4</ele><time>2026-04-09T07:22:06.001Z</time></trkpt><trkpt lat="14.409224129251086" lon="120.92432781208561"><ele>17.0</ele><time>2026-04-09T07:22:08.001Z</time></trkpt><trkpt lat="14.409211907124627" lon="120.92425885605283"><ele>16.666666666666668</ele><time>2026-04-09T07:22:09.001Z</time></trkpt><trkpt lat="14.409200307975691" lon="120.9241861666607"><ele>16.333333333333336</ele><time>2026-04-09T07:22:10.001Z</time></trkpt><trkpt lat="14.409187248053144" lon="120.92410869081174"><ele>16.0</ele><time>2026-04-09T07:22:11.001Z</time></trkpt><trkpt lat="14.409174627925553" lon="120.92402827882364"><ele>15.666666666666668</ele><time>2026-04-09T07:22:12.001Z</time></trkpt><trkpt lat="14.409162955305721" lon="120.92394271715114"><ele>15.333333333333334</ele><time>2026-04-09T07:22:13.001Z</time></trkpt><trkpt lat="14.409148658917918" lon="120.92385299029837"><ele>15.0</ele><time>2026-04-09T07:22:14.001Z</time></trkpt><trkpt lat="14.409133041609929" lon="120.92375817239096"><ele>15.0</ele><time>2026-04-09T07:22:15.001Z</time></trkpt><trkpt lat="14.409116176711361" lon="120.92366127402676"><ele>15.0</ele><time>2026-04-09T07:22:16.001Z</time></trkpt><trkpt lat="14.40909767022427" lon="120.92356705075267"><ele>15.0</ele><time>2026-04-09T07:22:17.001Z</time></trkpt><trkpt lat="14.409079504458797" lon="120.92347257733611"><ele>15.0</ele><time>2026-04-09T07:22:18.001Z</time></trkpt><trkpt lat="14.409063020162058" lon="120.92337780560028"><ele>15.0</ele><time>2026-04-09T07:22:19.001Z</time></trkpt><trkpt lat="14.409047722749655" lon="120.92328352227885"><ele>15.2</ele><time>2026-04-09T07:22:20.001Z</time></trkpt><trkpt lat="14.409016599358049" lon="120.92309505974019"><ele>15.4</ele><time>2026-04-09T07:22:22.001Z</time></trkpt><trkpt lat="14.409004443922237" lon="120.92300466675378"><ele>15.600000000000001</ele><time>2026-04-09T07:22:23.001Z</time></trkpt><trkpt lat="14.408991434062179" lon="120.92291867555319"><ele>15.8</ele><time>2026-04-09T07:22:24.001Z</time></trkpt><trkpt lat="14.408978184366882" lon="120.92283803900463"><ele>16.0</ele><time>2026-04-09T07:22:25.001Z</time></trkpt><trkpt lat="14.408965388578485" lon="120.92275770811143"><ele>16.0</ele><time>2026-04-09T07:22:26.001Z</time></trkpt><trkpt lat="14.40894756118328" lon="120.92268269325297"><ele>15.999999999999998</ele><time>2026-04-09T07:22:27.001Z</time></trkpt><trkpt lat="14.408920256268832" lon="120.9226150391729"><ele>16.0</ele><time>2026-04-09T07:22:28.001Z</time></trkpt><trkpt lat="14.408884363676307" lon="120.92255524346857"><ele>16.0</ele><time>2026-04-09T07:22:29.001Z</time></trkpt><trkpt lat="14.408837859881226" lon="120.92250369413175"><ele>15.999999999999998</ele><time>2026-04-09T07:22:30.001Z</time></trkpt><trkpt lat="14.408778503520061" lon="120.9224646338283"><ele>16.0</ele><time>2026-04-09T07:22:31.001Z</time></trkpt><trkpt lat="14.408717301279715" lon="120.92243982023636"><ele>16.0</ele><time>2026-04-09T07:22:32.001Z</time></trkpt><trkpt lat="14.40865395414996" lon="120.92241727311315"><ele>16.0</ele><time>2026-04-09T07:22:33.001Z</time></trkpt><trkpt lat="14.408552361698346" lon="120.92235709454849"><ele>16.0</ele><time>2026-04-09T07:22:35.001Z</time></trkpt><trkpt lat="14.408483398041362" lon="120.92226452463008"><ele>16.0</ele><time>2026-04-09T07:22:37.001Z</time></trkpt><trkpt lat="14.40844590665261" lon="120.92217012212393"><ele>16.0</ele><time>2026-04-09T07:22:39.001Z</time></trkpt><trkpt lat="14.408427954435787" lon="120.92208530484939"><ele>16.0</ele><time>2026-04-09T07:22:41.001Z</time></trkpt><trkpt lat="14.408390997384922" lon="120.92189107040001"><ele>16.0</ele><time>2026-04-09T07:22:45.001Z</time></trkpt><trkpt lat="14.408379332156727" lon="120.9218259451395"><ele>15.999999999999998</ele><time>2026-04-09T07:22:46.002Z</time></trkpt><trkpt lat="14.408364216806095" lon="120.92175843576227"><ele>16.0</ele><time>2026-04-09T07:22:47.002Z</time></trkpt><trkpt lat="14.40834540089879" lon="120.92168412018293"><ele>16.0</ele><time>2026-04-09T07:22:48.002Z</time></trkpt><trkpt lat="14.408328637048973" lon="120.92160403062225"><ele>15.999999999999998</ele><time>2026-04-09T07:22:49.002Z</time></trkpt><trkpt lat="14.408315612342872" lon="120.921523037131"><ele>16.0</ele><time>2026-04-09T07:22:50.002Z</time></trkpt><trkpt lat="14.408306290721283" lon="120.92144282630852"><ele>16.0</ele><time>2026-04-09T07:22:51.002Z</time></trkpt><trkpt lat="14.4082918799575" lon="120.92136333346978"><ele>16.142857142857142</ele><time>2026-04-09T07:22:52.002Z</time></trkpt><trkpt lat="14.40827700329029" lon="120.92129012246993"><ele>16.285714285714285</ele><time>2026-04-09T07:22:53.002Z</time></trkpt><trkpt lat="14.408262895946283" lon="120.92121968455766"><ele>16.428571428571427</ele><time>2026-04-09T07:22:54.002Z</time></trkpt><trkpt lat="14.408248652436647" lon="120.92114527455693"><ele>16.57142857142857</ele><time>2026-04-09T07:22:55.002Z</time></trkpt><trkpt lat="14.408233914928093" lon="120.92107135146597"><ele>16.714285714285715</ele><time>2026-04-09T07:22:56.002Z</time></trkpt><trkpt lat="14.408218623176902" lon="120.92100185397092"><ele>16.857142857142854</ele><time>2026-04-09T07:22:57.002Z</time></trkpt><trkpt lat="14.408202939712027" lon="120.92093438578937"><ele>17.0</ele><time>2026-04-09T07:22:58.002Z</time></trkpt><trkpt lat="14.408186257189362" lon="120.92086889891867"><ele>17.0</ele><time>2026-04-09T07:22:59.002Z</time></trkpt><trkpt lat="14.408161191700428" lon="120.92074734309327"><ele>17.0</ele><time>2026-04-09T07:23:01.002Z</time></trkpt><trkpt lat="14.408138417150974" lon="120.92063331276707"><ele>17.0</ele><time>2026-04-09T07:23:03.002Z</time></trkpt><trkpt lat="14.408101578274552" lon="120.92044155946049"><ele>17.0</ele><time>2026-04-09T07:23:06.001Z</time></trkpt><trkpt lat="14.408093220992624" lon="120.92036816658319"><ele>17.0</ele><time>2026-04-09T07:23:07.001Z</time></trkpt><trkpt lat="14.408086062911377" lon="120.92028968501965"><ele>17.0</ele><time>2026-04-09T07:23:08.001Z</time></trkpt><trkpt lat="14.408080734284027" lon="120.92020529709025"><ele>17.0</ele><time>2026-04-09T07:23:09.001Z</time></trkpt><trkpt lat="14.408073746747693" lon="120.9201159478154"><ele>17.0</ele><time>2026-04-09T07:23:10.001Z</time></trkpt><trkpt lat="14.408066146359507" lon="120.9200234242957"><ele>17.0</ele><time>2026-04-09T07:23:11.001Z</time></trkpt><trkpt lat="14.408061864577464" lon="120.9199250640828"><ele>17.0</ele><time>2026-04-09T07:23:12.001Z</time></trkpt><trkpt lat="14.408058043334023" lon="120.91982405669772"><ele>16.8</ele><time>2026-04-09T07:23:13.001Z</time></trkpt><trkpt lat="14.408052845070737" lon="120.91971876954025"><ele>16.6</ele><time>2026-04-09T07:23:14.001Z</time></trkpt><trkpt lat="14.408046745181796" lon="120.919609395388"><ele>16.400000000000002</ele><time>2026-04-09T07:23:15.001Z</time></trkpt><trkpt lat="14.408041338254845" lon="120.91949686043118"><ele>16.2</ele><time>2026-04-09T07:23:16.001Z</time></trkpt><trkpt lat="14.408034408789792" lon="120.91938018009606"><ele>16.0</ele><time>2026-04-09T07:23:17.001Z</time></trkpt><trkpt lat="14.408027372562286" lon="120.91926365328669"><ele>15.75</ele><time>2026-04-09T07:23:18.001Z</time></trkpt><trkpt lat="14.408022185276808" lon="120.919143565109"><ele>15.5</ele><time>2026-04-09T07:23:19.001Z</time></trkpt><trkpt lat="14.408015850676763" lon="120.91902189361137"><ele>15.25</ele><time>2026-04-09T07:23:20.001Z</time></trkpt><trkpt lat="14.40800877707261" lon="120.91889957513368"><ele>15.0</ele><time>2026-04-09T07:23:21.001Z</time></trkpt><trkpt lat="14.408000250509916" lon="120.91877198734166"><ele>15.333333333333332</ele><time>2026-04-09T07:23:22.001Z</time></trkpt><trkpt lat="14.407993354492682" lon="120.91864708071816"><ele>15.666666666666666</ele><time>2026-04-09T07:23:23.001Z</time></trkpt><trkpt lat="14.40798655708203" lon="120.91851819698165"><ele>16.0</ele><time>2026-04-09T07:23:24.001Z</time></trkpt><trkpt lat="14.407973229229155" lon="120.91826534622574"><ele>16.400000000000002</ele><time>2026-04-09T07:23:26.001Z</time></trkpt><trkpt lat="14.407969361892594" lon="120.91815196871785"><ele>16.8</ele><time>2026-04-09T07:23:27.001Z</time></trkpt><trkpt lat="14.407964535761968" lon="120.91804955543991"><ele>17.200000000000003</ele><time>2026-04-09T07:23:28.001Z</time></trkpt><trkpt lat="14.407956434139187" lon="120.91795404703046"><ele>17.6</ele><time>2026-04-09T07:23:29.001Z</time></trkpt><trkpt lat="14.407943270152284" lon="120.91786800281851"><ele>18.0</ele><time>2026-04-09T07:23:30.001Z</time></trkpt><trkpt lat="14.407920617842855" lon="120.91779183438787"><ele>18.000000000000004</ele><time>2026-04-09T07:23:31.001Z</time></trkpt><trkpt lat="14.407888370469646" lon="120.9177295200984"><ele>18.0</ele><time>2026-04-09T07:23:32.001Z</time></trkpt><trkpt lat="14.407847378975516" lon="120.91767590004828"><ele>18.0</ele><time>2026-04-09T07:23:33.001Z</time></trkpt><trkpt lat="14.407797441544671" lon="120.91763142345754"><ele>18.0</ele><time>2026-04-09T07:23:34.001Z</time></trkpt><trkpt lat="14.407731244543672" lon="120.9176040587724"><ele>18.0</ele><time>2026-04-09T07:23:35.001Z</time></trkpt><trkpt lat="14.407659579274595" lon="120.91757898118985"><ele>18.000000000000004</ele><time>2026-04-09T07:23:36.001Z</time></trkpt><trkpt lat="14.407579794840098" lon="120.91756693280298"><ele>18.0</ele><time>2026-04-09T07:23:37.001Z</time></trkpt><trkpt lat="14.407495685274277" lon="120.91756100977345"><ele>18.0</ele><time>2026-04-09T07:23:38.001Z</time></trkpt><trkpt lat="14.407401867905255" lon="120.91756723623443"><ele>18.0</ele><time>2026-04-09T07:23:39.001Z</time></trkpt><trkpt lat="14.407303891831114" lon="120.91758155680171"><ele>18.0</ele><time>2026-04-09T07:23:40.001Z</time></trkpt><trkpt lat="14.40720842232021" lon="120.91760390809942"><ele>18.0</ele><time>2026-04-09T07:23:41.001Z</time></trkpt><trkpt lat="14.407106032493337" lon="120.91762559929771"><ele>18.0</ele><time>2026-04-09T07:23:42.001Z</time></trkpt><trkpt lat="14.407004883771451" lon="120.9176479419924"><ele>17.75</ele><time>2026-04-09T07:23:43.001Z</time></trkpt><trkpt lat="14.406901637619494" lon="120.91767161636284"><ele>17.5</ele><time>2026-04-09T07:23:44.001Z</time></trkpt><trkpt lat="14.406795116110121" lon="120.91769496278678"><ele>17.25</ele><time>2026-04-09T07:23:45.001Z</time></trkpt><trkpt lat="14.4065870924766" lon="120.91774244740999"><ele>17.0</ele><time>2026-04-09T07:23:47.001Z</time></trkpt><trkpt lat="14.40648931770788" lon="120.91776468614128"><ele>17.0</ele><time>2026-04-09T07:23:48.001Z</time></trkpt><trkpt lat="14.40640133920464" lon="120.91778096857786"><ele>17.0</ele><time>2026-04-09T07:23:49.001Z</time></trkpt><trkpt lat="14.406309530974754" lon="120.91779236773775"><ele>17.0</ele><time>2026-04-09T07:23:50.001Z</time></trkpt><trkpt lat="14.40622485129407" lon="120.91779219330499"><ele>17.0</ele><time>2026-04-09T07:23:51.001Z</time></trkpt><trkpt lat="14.406145021923892" lon="120.91778714213065"><ele>17.0</ele><time>2026-04-09T07:23:52.001Z</time></trkpt><trkpt lat="14.406065172884553" lon="120.9177778952195"><ele>17.0</ele><time>2026-04-09T07:23:53.001Z</time></trkpt><trkpt lat="14.405986268889471" lon="120.91776528743453"><ele>17.142857142857142</ele><time>2026-04-09T07:23:54.001Z</time></trkpt><trkpt lat="14.405912455471457" lon="120.91774305040136"><ele>17.285714285714285</ele><time>2026-04-09T07:23:55.001Z</time></trkpt><trkpt lat="14.405846870813946" lon="120.91771133032826"><ele>17.42857142857143</ele><time>2026-04-09T07:23:56.001Z</time></trkpt><trkpt lat="14.405783190126582" lon="120.91766879220009"><ele>17.57142857142857</ele><time>2026-04-09T07:23:57.001Z</time></trkpt><trkpt lat="14.405727179168018" lon="120.91762242517179"><ele>17.714285714285715</ele><time>2026-04-09T07:23:58.001Z</time></trkpt><trkpt lat="14.405671412767626" lon="120.91757864968588"><ele>17.857142857142858</ele><time>2026-04-09T07:23:59.001Z</time></trkpt><trkpt lat="14.405610381271758" lon="120.91754423876391"><ele>18.0</ele><time>2026-04-09T07:24:00.001Z</time></trkpt><trkpt lat="14.405545247771485" lon="120.91752504710385"><ele>18.0</ele><time>2026-04-09T07:24:01.001Z</time></trkpt><trkpt lat="14.405477408903188" lon="120.9175240491718"><ele>18.0</ele><time>2026-04-09T07:24:02.001Z</time></trkpt><trkpt lat="14.405409453522719" lon="120.91754101873161"><ele>18.0</ele><time>2026-04-09T07:24:03.001Z</time></trkpt><trkpt lat="14.405347004337916" lon="120.91757193912872"><ele>18.0</ele><time>2026-04-09T07:24:04.001Z</time></trkpt><trkpt lat="14.40528068703298" lon="120.91761373130424"><ele>18.0</ele><time>2026-04-09T07:24:05.001Z</time></trkpt><trkpt lat="14.405214039945163" lon="120.91766081147345"><ele>18.0</ele><time>2026-04-09T07:24:06.001Z</time></trkpt><trkpt lat="14.405064666777058" lon="120.91772558165923"><ele>17.8</ele><time>2026-04-09T07:24:08.001Z</time></trkpt><trkpt lat="14.404976774398282" lon="120.91773689008788"><ele>17.6</ele><time>2026-04-09T07:24:09.001Z</time></trkpt><trkpt lat="14.404884581589688" lon="120.91773742895634"><ele>17.4</ele><time>2026-04-09T07:24:10.001Z</time></trkpt><trkpt lat="14.404787773602871" lon="120.91773538069212"><ele>17.2</ele><time>2026-04-09T07:24:11.001Z</time></trkpt><trkpt lat="14.40468589145776" lon="120.91773292653262"><ele>17.0</ele><time>2026-04-09T07:24:12.001Z</time></trkpt><trkpt lat="14.404584309102004" lon="120.91772758871174"><ele>17.0</ele><time>2026-04-09T07:24:13.001Z</time></trkpt><trkpt lat="14.404479279592389" lon="120.91772036408861"><ele>17.0</ele><time>2026-04-09T07:24:14.001Z</time></trkpt><trkpt lat="14.40437188984458" lon="120.91771400573666"><ele>17.0</ele><time>2026-04-09T07:24:15.001Z</time></trkpt><trkpt lat="14.40426578166651" lon="120.91770711790963"><ele>17.0</ele><time>2026-04-09T07:24:16.001Z</time></trkpt><trkpt lat="14.40416357218221" lon="120.91770013978844"><ele>17.0</ele><time>2026-04-09T07:24:17.001Z</time></trkpt><trkpt lat="14.404065546777561" lon="120.91769073812394"><ele>17.0</ele><time>2026-04-09T07:24:18.001Z</time></trkpt><trkpt lat="14.40397758388332" lon="120.91768494587161"><ele>17.0</ele><time>2026-04-09T07:24:19.001Z</time></trkpt><trkpt lat="14.403896623513461" lon="120.9176832560913"><ele>17.0</ele><time>2026-04-09T07:24:20.001Z</time></trkpt><trkpt lat="14.403818850736089" lon="120.917681710189"><ele>17.0</ele><time>2026-04-09T07:24:21.001Z</time></trkpt><trkpt lat="14.403735944749481" lon="120.91767927981071"><ele>17.0</ele><time>2026-04-09T07:24:22.001Z</time></trkpt><trkpt lat="14.403650073248098" lon="120.91767710700313"><ele>17.0</ele><time>2026-04-09T07:24:23.001Z</time></trkpt><trkpt lat="14.403559824262166" lon="120.91767342495139"><ele>17.25</ele><time>2026-04-09T07:24:24.001Z</time></trkpt><trkpt lat="14.403467069969187" lon="120.91766888643842"><ele>17.5</ele><time>2026-04-09T07:24:25.001Z</time></trkpt><trkpt lat="14.403368921481789" lon="120.91766120334064"><ele>17.75</ele><time>2026-04-09T07:24:26.001Z</time></trkpt><trkpt lat="14.403269608122635" lon="120.91765438405093"><ele>18.0</ele><time>2026-04-09T07:24:27.001Z</time></trkpt><trkpt lat="14.403061426746353" lon="120.91764256659971"><ele>17.8</ele><time>2026-04-09T07:24:29.001Z</time></trkpt><trkpt lat="14.402952856385474" lon="120.91763756580215"><ele>17.6</ele><time>2026-04-09T07:24:30.001Z</time></trkpt><trkpt lat="14.402841671427081" lon="120.91763002677882"><ele>17.4</ele><time>2026-04-09T07:24:31.001Z</time></trkpt><trkpt lat="14.40273279240817" lon="120.91762613781792"><ele>17.2</ele><time>2026-04-09T07:24:32.001Z</time></trkpt><trkpt lat="14.402617422600663" lon="120.91762112420435"><ele>17.0</ele><time>2026-04-09T07:24:33.001Z</time></trkpt><trkpt lat="14.402504018670703" lon="120.91761640524706"><ele>17.0</ele><time>2026-04-09T07:24:34.001Z</time></trkpt><trkpt lat="14.402387493204028" lon="120.91761274774338"><ele>17.0</ele><time>2026-04-09T07:24:35.001Z</time></trkpt><trkpt lat="14.402270083383087" lon="120.91760782318505"><ele>17.0</ele><time>2026-04-09T07:24:36.001Z</time></trkpt><trkpt lat="14.402150266417395" lon="120.91760219698774"><ele>17.0</ele><time>2026-04-09T07:24:37.001Z</time></trkpt><trkpt lat="14.402027293827976" lon="120.91759626316654"><ele>17.5</ele><time>2026-04-09T07:24:38.001Z</time></trkpt><trkpt lat="14.401903623398772" lon="120.91759006055646"><ele>18.0</ele><time>2026-04-09T07:24:39.002Z</time></trkpt><trkpt lat="14.401780025603985" lon="120.91758385077547"><ele>18.5</ele><time>2026-04-09T07:24:40.002Z</time></trkpt><trkpt lat="14.401664617482597" lon="120.91757262021025"><ele>19.0</ele><time>2026-04-09T07:24:41.002Z</time></trkpt><trkpt lat="14.40154755230768" lon="120.9175519318099"><ele>19.2</ele><time>2026-04-09T07:24:42.002Z</time></trkpt><trkpt lat="14.40144306891799" lon="120.9175238449277"><ele>19.4</ele><time>2026-04-09T07:24:43.002Z</time></trkpt><trkpt lat="14.401339987658854" lon="120.91748873692029"><ele>19.6</ele><time>2026-04-09T07:24:44.002Z</time></trkpt><trkpt lat="14.401239386869003" lon="120.91745500237523"><ele>19.8</ele><time>2026-04-09T07:24:45.002Z</time></trkpt><trkpt lat="14.40113785151937" lon="120.91742818991234"><ele>20.0</ele><time>2026-04-09T07:24:46.002Z</time></trkpt><trkpt lat="14.401034286318732" lon="120.91741430682667"><ele>20.5</ele><time>2026-04-09T07:24:47.002Z</time></trkpt><trkpt lat="14.400931639108494" lon="120.91741476332223"><ele>21.0</ele><time>2026-04-09T07:24:48.002Z</time></trkpt><trkpt lat="14.400718646592995" lon="120.91745335800874"><ele>21.5</ele><time>2026-04-09T07:24:50.002Z</time></trkpt><trkpt lat="14.400610679985173" lon="120.91747828821092"><ele>22.0</ele><time>2026-04-09T07:24:51.002Z</time></trkpt><trkpt lat="14.400500774565778" lon="120.91750342214803"><ele>21.5</ele><time>2026-04-09T07:24:52.002Z</time></trkpt><trkpt lat="14.400387600141284" lon="120.91752775753132"><ele>21.0</ele><time>2026-04-09T07:24:53.002Z</time></trkpt><trkpt lat="14.400270007503496" lon="120.91754701256811"><ele>20.5</ele><time>2026-04-09T07:24:54.002Z</time></trkpt><trkpt lat="14.400152554710932" lon="120.91756661721186"><ele>20.0</ele><time>2026-04-09T07:24:55.002Z</time></trkpt><trkpt lat="14.400032266739245" lon="120.91758452398305"><ele>20.0</ele><time>2026-04-09T07:24:56.002Z</time></trkpt><trkpt lat="14.399907806994221" lon="120.91759800549221"><ele>20.0</ele><time>2026-04-09T07:24:57.002Z</time></trkpt><trkpt lat="14.399780561412292" lon="120.91760906312375"><ele>20.0</ele><time>2026-04-09T07:24:58.002Z</time></trkpt><trkpt lat="14.399651077816385" lon="120.91761750695798"><ele>20.0</ele><time>2026-04-09T07:24:59.002Z</time></trkpt><trkpt lat="14.39951860167631" lon="120.91762725601363"><ele>19.75</ele><time>2026-04-09T07:25:00.002Z</time></trkpt><trkpt lat="14.399384572956818" lon="120.91763767843064"><ele>19.5</ele><time>2026-04-09T07:25:01.002Z</time></trkpt><trkpt lat="14.399248629947477" lon="120.91764870538466"><ele>19.25</ele><time>2026-04-09T07:25:02.002Z</time></trkpt><trkpt lat="14.399111038219706" lon="120.9176582984425"><ele>19.0</ele><time>2026-04-09T07:25:03.002Z</time></trkpt><trkpt lat="14.398972202539575" lon="120.91766439121261"><ele>19.5</ele><time>2026-04-09T07:25:04.002Z</time></trkpt><trkpt lat="14.39883297285245" lon="120.91767000933916"><ele>20.0</ele><time>2026-04-09T07:25:05.002Z</time></trkpt><trkpt lat="14.3986930958252" lon="120.9176720015308"><ele>20.5</ele><time>2026-04-09T07:25:06.002Z</time></trkpt><trkpt lat="14.39855112856441" lon="120.91767421893745"><ele>21.0</ele><time>2026-04-09T07:25:07.002Z</time></trkpt><trkpt lat="14.398410567261033" lon="120.91767526299435"><ele>21.0</ele><time>2026-04-09T07:25:08.002Z</time></trkpt><trkpt lat="14.398267535649733" lon="120.91767435649788"><ele>21.0</ele><time>2026-04-09T07:25:09.002Z</time></trkpt><trkpt lat="14.39798295457479" lon="120.91767503424552"><ele>21.0</ele><time>2026-04-09T07:25:11.001Z</time></trkpt><trkpt lat="14.397843452397883" lon="120.91767625065003"><ele>21.0</ele><time>2026-04-09T07:25:12.001Z</time></trkpt><trkpt lat="14.397706351877106" lon="120.91767740615796"><ele>21.0</ele><time>2026-04-09T07:25:13.001Z</time></trkpt><trkpt lat="14.39756856973248" lon="120.91767755764361"><ele>21.0</ele><time>2026-04-09T07:25:14.001Z</time></trkpt><trkpt lat="14.397428153431825" lon="120.9176767694216"><ele>21.0</ele><time>2026-04-09T07:25:15.001Z</time></trkpt><trkpt lat="14.397287615463563" lon="120.91767645456"><ele>21.0</ele><time>2026-04-09T07:25:16.001Z</time></trkpt><trkpt lat="14.397147131842031" lon="120.91767498775374"><ele>21.0</ele><time>2026-04-09T07:25:17.001Z</time></trkpt><trkpt lat="14.397012878785683" lon="120.9176738968752"><ele>21.0</ele><time>2026-04-09T07:25:18.001Z</time></trkpt><trkpt lat="14.39687912208584" lon="120.91767266212214"><ele>21.0</ele><time>2026-04-09T07:25:19.001Z</time></trkpt><trkpt lat="14.39675094375206" lon="120.91767057287302"><ele>21.0</ele><time>2026-04-09T07:25:20.001Z</time></trkpt><trkpt lat="14.396628122862825" lon="120.91766556151433"><ele>21.0</ele><time>2026-04-09T07:25:21.001Z</time></trkpt><trkpt lat="14.396507517483476" lon="120.91766117157914"><ele>21.0</ele><time>2026-04-09T07:25:22.001Z</time></trkpt><trkpt lat="14.39639073837218" lon="120.9176594136022"><ele>21.0</ele><time>2026-04-09T07:25:23.001Z</time></trkpt><trkpt lat="14.39627364400159" lon="120.91766038595676"><ele>21.0</ele><time>2026-04-09T07:25:24.001Z</time></trkpt><trkpt lat="14.396156465736283" lon="120.9176663172076"><ele>21.0</ele><time>2026-04-09T07:25:25.001Z</time></trkpt><trkpt lat="14.396037510811695" lon="120.91767638310247"><ele>21.0</ele><time>2026-04-09T07:25:26.001Z</time></trkpt><trkpt lat="14.395921324819902" lon="120.91768560802637"><ele>21.0</ele><time>2026-04-09T07:25:27.001Z</time></trkpt><trkpt lat="14.395799801513041" lon="120.91769249804904"><ele>21.0</ele><time>2026-04-09T07:25:28.001Z</time></trkpt><trkpt lat="14.39568155825044" lon="120.91769992988289"><ele>21.0</ele><time>2026-04-09T07:25:29.001Z</time></trkpt><trkpt lat="14.395560116443614" lon="120.9177084703156"><ele>21.0</ele><time>2026-04-09T07:25:30.001Z</time></trkpt><trkpt lat="14.39532244378108" lon="120.91772704309052"><ele>21.200000000000003</ele><time>2026-04-09T07:25:32.001Z</time></trkpt><trkpt lat="14.395206734590033" lon="120.91773442507254"><ele>21.400000000000002</ele><time>2026-04-09T07:25:33.001Z</time></trkpt><trkpt lat="14.395097597685504" lon="120.9177403440337"><ele>21.6</ele><time>2026-04-09T07:25:34.001Z</time></trkpt><trkpt lat="14.39499515648652" lon="120.91774492170606"><ele>21.8</ele><time>2026-04-09T07:25:35.001Z</time></trkpt><trkpt lat="14.394901710351187" lon="120.91774740842666"><ele>22.0</ele><time>2026-04-09T07:25:36.001Z</time></trkpt><trkpt lat="14.394810957059075" lon="120.91775133341119"><ele>22.0</ele><time>2026-04-09T07:25:37.001Z</time></trkpt><trkpt lat="14.394723106539361" lon="120.91775626571648"><ele>22.0</ele><time>2026-04-09T07:25:38.001Z</time></trkpt><trkpt lat="14.394628883643666" lon="120.91776075412842"><ele>22.0</ele><time>2026-04-09T07:25:39.001Z</time></trkpt><trkpt lat="14.394535777875193" lon="120.91776460427083"><ele>22.0</ele><time>2026-04-09T07:25:40.001Z</time></trkpt><trkpt lat="14.394443878743656" lon="120.91776682109185"><ele>22.0</ele><time>2026-04-09T07:25:41.001Z</time></trkpt><trkpt lat="14.394349053790572" lon="120.91776868888688"><ele>22.0</ele><time>2026-04-09T07:25:42.001Z</time></trkpt><trkpt lat="14.394251657930369" lon="120.91777166950841"><ele>22.0</ele><time>2026-04-09T07:25:43.001Z</time></trkpt><trkpt lat="14.394148389843195" lon="120.91777423998737"><ele>22.0</ele><time>2026-04-09T07:25:44.001Z</time></trkpt><trkpt lat="14.39404361761942" lon="120.91777828598347"><ele>22.0</ele><time>2026-04-09T07:25:45.001Z</time></trkpt><trkpt lat="14.393935099833557" lon="120.91778487283392"><ele>22.0</ele><time>2026-04-09T07:25:46.001Z</time></trkpt><trkpt lat="14.393824131161322" lon="120.9177898982791"><ele>22.0</ele><time>2026-04-09T07:25:47.001Z</time></trkpt><trkpt lat="14.393707516944257" lon="120.91779397264403"><ele>22.0</ele><time>2026-04-09T07:25:48.001Z</time></trkpt><trkpt lat="14.39359226946588" lon="120.9177983875287"><ele>22.0</ele><time>2026-04-09T07:25:49.001Z</time></trkpt><trkpt lat="14.3934733649077" lon="120.9178002224217"><ele>22.0</ele><time>2026-04-09T07:25:50.001Z</time></trkpt><trkpt lat="14.393349971131833" lon="120.91780264174314"><ele>22.0</ele><time>2026-04-09T07:25:51.001Z</time></trkpt><trkpt lat="14.393094670691905" lon="120.91780743274973"><ele>22.0</ele><time>2026-04-09T07:25:53.001Z</time></trkpt><trkpt lat="14.392961955812233" lon="120.91780984702316"><ele>22.0</ele><time>2026-04-09T07:25:54.001Z</time></trkpt><trkpt lat="14.392826348700442" lon="120.9178117847074"><ele>22.5</ele><time>2026-04-09T07:25:55.001Z</time></trkpt><trkpt lat="14.392689884971572" lon="120.91781419848024"><ele>23.0</ele><time>2026-04-09T07:25:56.001Z</time></trkpt><trkpt lat="14.392553616600928" lon="120.91781676875645"><ele>23.5</ele><time>2026-04-09T07:25:57.001Z</time></trkpt><trkpt lat="14.3924191962489" lon="120.91781839158412"><ele>24.0</ele><time>2026-04-09T07:25:58.001Z</time></trkpt><trkpt lat="14.392287280684442" lon="120.9178198727989"><ele>23.75</ele><time>2026-04-09T07:25:59.001Z</time></trkpt><trkpt lat="14.392157709734883" lon="120.91782380705945"><ele>23.5</ele><time>2026-04-09T07:26:00.001Z</time></trkpt><trkpt lat="14.392029087282731" lon="120.91782676990881"><ele>23.25</ele><time>2026-04-09T07:26:01.001Z</time></trkpt><trkpt lat="14.39190197995415" lon="120.91783142402461"><ele>23.0</ele><time>2026-04-09T07:26:02.001Z</time></trkpt><trkpt lat="14.391775111076099" lon="120.91783894738168"><ele>23.0</ele><time>2026-04-09T07:26:03.001Z</time></trkpt><trkpt lat="14.391651145089956" lon="120.91785428695474"><ele>23.0</ele><time>2026-04-09T07:26:04.001Z</time></trkpt><trkpt lat="14.39152649140649" lon="120.91787701854389"><ele>23.0</ele><time>2026-04-09T07:26:05.001Z</time></trkpt><trkpt lat="14.391402697152811" lon="120.91790811017593"><ele>23.0</ele><time>2026-04-09T07:26:06.001Z</time></trkpt><trkpt lat="14.39128010446389" lon="120.91794997801328"><ele>23.25</ele><time>2026-04-09T07:26:07.001Z</time></trkpt><trkpt lat="14.391157275024014" lon="120.91799462752033"><ele>23.5</ele><time>2026-04-09T07:26:08.001Z</time></trkpt><trkpt lat="14.391037157930258" lon="120.9180378045847"><ele>23.75</ele><time>2026-04-09T07:26:09.001Z</time></trkpt><trkpt lat="14.390918803647738" lon="120.91808348575242"><ele>24.0</ele><time>2026-04-09T07:26:10.001Z</time></trkpt><trkpt lat="14.390810109963075" lon="120.91812760192947"><ele>24.0</ele><time>2026-04-09T07:26:11.001Z</time></trkpt><trkpt lat="14.390702279435962" lon="120.91817907608582"><ele>24.0</ele><time>2026-04-09T07:26:12.001Z</time></trkpt><trkpt lat="14.390505884005433" lon="120.91830271957677"><ele>24.0</ele><time>2026-04-09T07:26:14.001Z</time></trkpt><trkpt lat="14.390413075135365" lon="120.91837563789069"><ele>24.0</ele><time>2026-04-09T07:26:15.001Z</time></trkpt><trkpt lat="14.390321752697494" lon="120.9184509324944"><ele>24.0</ele><time>2026-04-09T07:26:16.001Z</time></trkpt><trkpt lat="14.390233303627678" lon="120.91852343146346"><ele>24.0</ele><time>2026-04-09T07:26:17.001Z</time></trkpt><trkpt lat="14.390145135967627" lon="120.91859435113057"><ele>24.0</ele><time>2026-04-09T07:26:18.001Z</time></trkpt><trkpt lat="14.390057283639152" lon="120.91866345245488"><ele>24.0</ele><time>2026-04-09T07:26:19.001Z</time></trkpt><trkpt lat="14.38996869395771" lon="120.91871487585409"><ele>24.0</ele><time>2026-04-09T07:26:20.001Z</time></trkpt><trkpt lat="14.389877416028158" lon="120.91874819366939"><ele>24.0</ele><time>2026-04-09T07:26:21.001Z</time></trkpt><trkpt lat="14.389772365958928" lon="120.91876971527013"><ele>24.0</ele><time>2026-04-09T07:26:22.001Z</time></trkpt><trkpt lat="14.389667693891912" lon="120.91877861398027"><ele>24.0</ele><time>2026-04-09T07:26:23.001Z</time></trkpt><trkpt lat="14.389557959495669" lon="120.91879283161558"><ele>24.0</ele><time>2026-04-09T07:26:24.001Z</time></trkpt><trkpt lat="14.389444265363576" lon="120.91880428889354"><ele>24.0</ele><time>2026-04-09T07:26:25.001Z</time></trkpt><trkpt lat="14.389326850787947" lon="120.9188163277718"><ele>24.0</ele><time>2026-04-09T07:26:26.001Z</time></trkpt><trkpt lat="14.389208792863645" lon="120.91882598798506"><ele>24.0</ele><time>2026-04-09T07:26:27.001Z</time></trkpt><trkpt lat="14.389085544255213" lon="120.91883456576942"><ele>24.0</ele><time>2026-04-09T07:26:28.001Z</time></trkpt><trkpt lat="14.388962237140356" lon="120.91883960974879"><ele>24.0</ele><time>2026-04-09T07:26:29.001Z</time></trkpt><trkpt lat="14.388837893813562" lon="120.91884066710129"><ele>24.0</ele><time>2026-04-09T07:26:30.001Z</time></trkpt><trkpt lat="14.388711891492528" lon="120.91883694169542"><ele>24.0</ele><time>2026-04-09T07:26:31.001Z</time></trkpt><trkpt lat="14.388586037838957" lon="120.91883028966366"><ele>24.333333333333336</ele><time>2026-04-09T07:26:32.001Z</time></trkpt><trkpt lat="14.388466327579097" lon="120.9188184215493"><ele>24.666666666666668</ele><time>2026-04-09T07:26:33.001Z</time></trkpt><trkpt lat="14.38822497108196" lon="120.91879052396337"><ele>25.0</ele><time>2026-04-09T07:26:35.001Z</time></trkpt><trkpt lat="14.388098848977867" lon="120.91878375034852"><ele>24.5</ele><time>2026-04-09T07:26:36.001Z</time></trkpt><trkpt lat="14.387976831077099" lon="120.91878372849273"><ele>24.0</ele><time>2026-04-09T07:26:37.001Z</time></trkpt><trkpt lat="14.387853638939516" lon="120.91878757135062"><ele>23.5</ele><time>2026-04-09T07:26:38.001Z</time></trkpt><trkpt lat="14.387728940416828" lon="120.9187924745745"><ele>23.0</ele><time>2026-04-09T07:26:39.001Z</time></trkpt><trkpt lat="14.387602901349263" lon="120.91879691600167"><ele>23.0</ele><time>2026-04-09T07:26:40.001Z</time></trkpt><trkpt lat="14.38747459237004" lon="120.91880209005535"><ele>23.0</ele><time>2026-04-09T07:26:41.001Z</time></trkpt><trkpt lat="14.387347541719635" lon="120.91880799553104"><ele>23.0</ele><time>2026-04-09T07:26:42.001Z</time></trkpt><trkpt lat="14.387225628096221" lon="120.918816066731"><ele>23.0</ele><time>2026-04-09T07:26:43.001Z</time></trkpt><trkpt lat="14.387107155277475" lon="120.91882397457225"><ele>23.799999999999997</ele><time>2026-04-09T07:26:44.001Z</time></trkpt><trkpt lat="14.386990079831804" lon="120.91883109935478"><ele>24.6</ele><time>2026-04-09T07:26:45.001Z</time></trkpt><trkpt lat="14.386878426890927" lon="120.91883948207281"><ele>25.400000000000002</ele><time>2026-04-09T07:26:46.001Z</time></trkpt><trkpt lat="14.386771923324932" lon="120.9188455109159"><ele>26.200000000000003</ele><time>2026-04-09T07:26:47.001Z</time></trkpt><trkpt lat="14.386673049600482" lon="120.91884623901787"><ele>27.0</ele><time>2026-04-09T07:26:48.001Z</time></trkpt><trkpt lat="14.386583674304964" lon="120.91883429028935"><ele>27.0</ele><time>2026-04-09T07:26:49.001Z</time></trkpt><trkpt lat="14.386502765428794" lon="120.91880468546371"><ele>27.0</ele><time>2026-04-09T07:26:50.001Z</time></trkpt><trkpt lat="14.386431859256609" lon="120.91876003894166"><ele>27.0</ele><time>2026-04-09T07:26:51.001Z</time></trkpt><trkpt lat="14.386367828282465" lon="120.91870343428509"><ele>27.0</ele><time>2026-04-09T07:26:52.001Z</time></trkpt><trkpt lat="14.38630366067515" lon="120.91864651313377"><ele>27.0</ele><time>2026-04-09T07:26:53.001Z</time></trkpt><trkpt lat="14.386236251529686" lon="120.91858042017516"><ele>27.0</ele><time>2026-04-09T07:26:54.001Z</time></trkpt><trkpt lat="14.386094161841802" lon="120.91843286420801"><ele>27.0</ele><time>2026-04-09T07:26:56.001Z</time></trkpt><trkpt lat="14.386017907665508" lon="120.91835712198974"><ele>27.0</ele><time>2026-04-09T07:26:57.001Z</time></trkpt><trkpt lat="14.385937760384904" lon="120.91827512259414"><ele>27.0</ele><time>2026-04-09T07:26:58.001Z</time></trkpt><trkpt lat="14.3858581808981" lon="120.91818945777149"><ele>27.0</ele><time>2026-04-09T07:26:59.001Z</time></trkpt><trkpt lat="14.38577452925238" lon="120.9181019119218"><ele>27.0</ele><time>2026-04-09T07:27:00.001Z</time></trkpt><trkpt lat="14.385688147456246" lon="120.91800611698756"><ele>27.0</ele><time>2026-04-09T07:27:01.001Z</time></trkpt><trkpt lat="14.385601895023456" lon="120.91791066048647"><ele>27.0</ele><time>2026-04-09T07:27:02.001Z</time></trkpt><trkpt lat="14.385511920678601" lon="120.91781592412407"><ele>27.0</ele><time>2026-04-09T07:27:03.001Z</time></trkpt><trkpt lat="14.385423897373142" lon="120.91771322921976"><ele>27.0</ele><time>2026-04-09T07:27:04.001Z</time></trkpt><trkpt lat="14.385339137232316" lon="120.91760881506178"><ele>27.0</ele><time>2026-04-09T07:27:05.002Z</time></trkpt><trkpt lat="14.385254626817433" lon="120.91750112487901"><ele>27.0</ele><time>2026-04-09T07:27:06.002Z</time></trkpt><trkpt lat="14.385166782786245" lon="120.91739192455107"><ele>27.0</ele><time>2026-04-09T07:27:07.002Z</time></trkpt><trkpt lat="14.385077316518887" lon="120.91728255204157"><ele>27.25</ele><time>2026-04-09T07:27:08.002Z</time></trkpt><trkpt lat="14.384987681374875" lon="120.9171750627872"><ele>27.5</ele><time>2026-04-09T07:27:09.002Z</time></trkpt><trkpt lat="14.384900659983472" lon="120.91706864538276"><ele>27.75</ele><time>2026-04-09T07:27:10.002Z</time></trkpt><trkpt lat="14.384818553636999" lon="120.91696474623221"><ele>28.0</ele><time>2026-04-09T07:27:11.002Z</time></trkpt><trkpt lat="14.384739244950357" lon="120.91686337401809"><ele>28.0</ele><time>2026-04-09T07:27:12.002Z</time></trkpt><trkpt lat="14.384664514940706" lon="120.916759655573"><ele>28.0</ele><time>2026-04-09T07:27:13.002Z</time></trkpt><trkpt lat="14.384597336689987" lon="120.91665788524011"><ele>28.0</ele><time>2026-04-09T07:27:14.002Z</time></trkpt><trkpt lat="14.384531547773548" lon="120.91655494958933"><ele>28.0</ele><time>2026-04-09T07:27:15.002Z</time></trkpt><trkpt lat="14.384408708731172" lon="120.91636113915153"><ele>28.500000000000004</ele><time>2026-04-09T07:27:17.001Z</time></trkpt><trkpt lat="14.384345992894799" lon="120.91628301222595"><ele>29.0</ele><time>2026-04-09T07:27:18.001Z</time></trkpt><trkpt lat="14.384280390251911" lon="120.9162165237088"><ele>29.5</ele><time>2026-04-09T07:27:19.001Z</time></trkpt><trkpt lat="14.384208346016575" lon="120.91616549396073"><ele>30.0</ele><time>2026-04-09T07:27:20.001Z</time></trkpt><trkpt lat="14.384131578502604" lon="120.91613390267771"><ele>30.500000000000004</ele><time>2026-04-09T07:27:21.001Z</time></trkpt><trkpt lat="14.384059838444555" lon="120.91612018106362"><ele>31.0</ele><time>2026-04-09T07:27:22.001Z</time></trkpt><trkpt lat="14.383981099332829" lon="120.91612480205453"><ele>31.0</ele><time>2026-04-09T07:27:23.001Z</time></trkpt><trkpt lat="14.383900479510556" lon="120.91615545710901"><ele>31.0</ele><time>2026-04-09T07:27:24.001Z</time></trkpt><trkpt lat="14.383815777218516" lon="120.91616485120622"><ele>31.0</ele><time>2026-04-09T07:27:25.001Z</time></trkpt><trkpt lat="14.383721994890138" lon="120.91617333666079"><ele>31.0</ele><time>2026-04-09T07:27:26.001Z</time></trkpt><trkpt lat="14.383623071681038" lon="120.91616071127191"><ele>31.0</ele><time>2026-04-09T07:27:27.001Z</time></trkpt><trkpt lat="14.383522717109782" lon="120.91616389042105"><ele>30.75</ele><time>2026-04-09T07:27:28.001Z</time></trkpt><trkpt lat="14.383407461041251" lon="120.91616302782296"><ele>30.5</ele><time>2026-04-09T07:27:29.001Z</time></trkpt><trkpt lat="14.38329349148759" lon="120.91615925836675"><ele>30.25</ele><time>2026-04-09T07:27:30.001Z</time></trkpt><trkpt lat="14.383175794916905" lon="120.91615552784862"><ele>30.0</ele><time>2026-04-09T07:27:31.001Z</time></trkpt><trkpt lat="14.383052989473411" lon="120.91615436265857"><ele>30.0</ele><time>2026-04-09T07:27:32.001Z</time></trkpt><trkpt lat="14.382926721999095" lon="120.91615577108102"><ele>30.0</ele><time>2026-04-09T07:27:33.001Z</time></trkpt><trkpt lat="14.382796374283586" lon="120.91615751829994"><ele>30.0</ele><time>2026-04-09T07:27:34.001Z</time></trkpt><trkpt lat="14.382667288579775" lon="120.91616104683298"><ele>30.0</ele><time>2026-04-09T07:27:35.001Z</time></trkpt><trkpt lat="14.38253644474346" lon="120.91616838737441"><ele>30.0</ele><time>2026-04-09T07:27:36.001Z</time></trkpt><trkpt lat="14.38226819476634" lon="120.91618896671883"><ele>30.0</ele><time>2026-04-09T07:27:38.001Z</time></trkpt><trkpt lat="14.382135901558609" lon="120.91620049668427"><ele>30.0</ele><time>2026-04-09T07:27:39.001Z</time></trkpt><trkpt lat="14.382009141723653" lon="120.91621112088144"><ele>30.25</ele><time>2026-04-09T07:27:40.001Z</time></trkpt><trkpt lat="14.381886166010272" lon="120.91622257593683"><ele>30.5</ele><time>2026-04-09T07:27:41.001Z</time></trkpt><trkpt lat="14.381762602705752" lon="120.91623497492138"><ele>30.75</ele><time>2026-04-09T07:27:42.001Z</time></trkpt><trkpt lat="14.381641487886185" lon="120.91624574418532"><ele>31.0</ele><time>2026-04-09T07:27:43.001Z</time></trkpt><trkpt lat="14.381522134261981" lon="120.91625516739812"><ele>31.0</ele><time>2026-04-09T07:27:44.001Z</time></trkpt><trkpt lat="14.381400475643296" lon="120.9162626231006"><ele>31.0</ele><time>2026-04-09T07:27:45.001Z</time></trkpt><trkpt lat="14.381279832715572" lon="120.91627053374374"><ele>31.0</ele><time>2026-04-09T07:27:46.001Z</time></trkpt><trkpt lat="14.381157557744109" lon="120.91627674961322"><ele>31.0</ele><time>2026-04-09T07:27:47.001Z</time></trkpt><trkpt lat="14.381034589150902" lon="120.91628103763632"><ele>31.0</ele><time>2026-04-09T07:27:48.001Z</time></trkpt><trkpt lat="14.380909007719946" lon="120.91628598339942"><ele>31.0</ele><time>2026-04-09T07:27:49.001Z</time></trkpt><trkpt lat="14.380782676810309" lon="120.91629025975998"><ele>31.0</ele><time>2026-04-09T07:27:50.001Z</time></trkpt><trkpt lat="14.380656778673217" lon="120.91629764442457"><ele>31.0</ele><time>2026-04-09T07:27:51.001Z</time></trkpt><trkpt lat="14.380531462457485" lon="120.91630355871084"><ele>31.5</ele><time>2026-04-09T07:27:52.001Z</time></trkpt><trkpt lat="14.380406977097328" lon="120.91631035845624"><ele>32.0</ele><time>2026-04-09T07:27:53.001Z</time></trkpt><trkpt lat="14.380284426672578" lon="120.91631864960884"><ele>32.5</ele><time>2026-04-09T07:27:54.001Z</time></trkpt><trkpt lat="14.380160373547579" lon="120.91632918806759"><ele>33.0</ele><time>2026-04-09T07:27:55.001Z</time></trkpt><trkpt lat="14.380035981656118" lon="120.91633986564715"><ele>33.0</ele><time>2026-04-09T07:27:56.001Z</time></trkpt><trkpt lat="14.379908083482498" lon="120.91634875901693"><ele>33.0</ele><time>2026-04-09T07:27:57.001Z</time></trkpt><trkpt lat="14.379656909270464" lon="120.91636542140847"><ele>33.0</ele><time>2026-04-09T07:27:59.001Z</time></trkpt><trkpt lat="14.379533202274672" lon="120.91637528067467"><ele>33.75</ele><time>2026-04-09T07:28:00.001Z</time></trkpt><trkpt lat="14.37941200723389" lon="120.91638517378931"><ele>34.5</ele><time>2026-04-09T07:28:01.001Z</time></trkpt><trkpt lat="14.379295121758014" lon="120.91639531077783"><ele>35.25</ele><time>2026-04-09T07:28:02.001Z</time></trkpt><trkpt lat="14.379182945468195" lon="120.91640548390524"><ele>36.0</ele><time>2026-04-09T07:28:03.001Z</time></trkpt><trkpt lat="14.379081482044459" lon="120.91641593388452"><ele>36.0</ele><time>2026-04-09T07:28:04.001Z</time></trkpt><trkpt lat="14.37898444110657" lon="120.91642802788321"><ele>36.0</ele><time>2026-04-09T07:28:05.001Z</time></trkpt><trkpt lat="14.378896108968695" lon="120.91644195966516"><ele>36.0</ele><time>2026-04-09T07:28:06.001Z</time></trkpt><trkpt lat="14.378807999917433" lon="120.91646011499392"><ele>36.0</ele><time>2026-04-09T07:28:07.001Z</time></trkpt><trkpt lat="14.378717579186615" lon="120.9164794242454"><ele>36.0</ele><time>2026-04-09T07:28:08.001Z</time></trkpt><trkpt lat="14.3786239651877" lon="120.91650158274714"><ele>35.4</ele><time>2026-04-09T07:28:09.001Z</time></trkpt><trkpt lat="14.378527946101785" lon="120.9165258416764"><ele>34.8</ele><time>2026-04-09T07:28:10.001Z</time></trkpt><trkpt lat="14.378431235826922" lon="120.9165509059732"><ele>34.199999999999996</ele><time>2026-04-09T07:28:11.001Z</time></trkpt><trkpt lat="14.378333300796202" lon="120.91658163975745"><ele>33.6</ele><time>2026-04-09T07:28:12.001Z</time></trkpt><trkpt lat="14.378238294602536" lon="120.91661420720777"><ele>33.0</ele><time>2026-04-09T07:28:13.001Z</time></trkpt><trkpt lat="14.378142576372644" lon="120.91665299025122"><ele>33.0</ele><time>2026-04-09T07:28:14.001Z</time></trkpt><trkpt lat="14.378054867902737" lon="120.91669399398948"><ele>33.0</ele><time>2026-04-09T07:28:15.001Z</time></trkpt><trkpt lat="14.377965131851672" lon="120.91673570732304"><ele>33.0</ele><time>2026-04-09T07:28:16.001Z</time></trkpt><trkpt lat="14.37787698759128" lon="120.91677869208426"><ele>33.0</ele><time>2026-04-09T07:28:17.001Z</time></trkpt><trkpt lat="14.377792326926034" lon="120.91682049736166"><ele>33.0</ele><time>2026-04-09T07:28:18.001Z</time></trkpt><trkpt lat="14.377615246777717" lon="120.91690704496195"><ele>33.0</ele><time>2026-04-09T07:28:20.001Z</time></trkpt><trkpt lat="14.377526843859568" lon="120.9169517737802"><ele>33.0</ele><time>2026-04-09T07:28:21.001Z</time></trkpt><trkpt lat="14.377439459025835" lon="120.91699626692842"><ele>33.0</ele><time>2026-04-09T07:28:22.001Z</time></trkpt><trkpt lat="14.377355074425331" lon="120.91704251207358"><ele>33.0</ele><time>2026-04-09T07:28:23.001Z</time></trkpt><trkpt lat="14.377270729742051" lon="120.91709125381456"><ele>33.0</ele><time>2026-04-09T07:28:24.001Z</time></trkpt><trkpt lat="14.377191992751175" lon="120.91714203435642"><ele>33.4</ele><time>2026-04-09T07:28:25.001Z</time></trkpt><trkpt lat="14.37711422241091" lon="120.91719682272573"><ele>33.8</ele><time>2026-04-09T07:28:26.001Z</time></trkpt><trkpt lat="14.37703743683856" lon="120.91725606545671"><ele>34.2</ele><time>2026-04-09T07:28:27.001Z</time></trkpt><trkpt lat="14.376964653190663" lon="120.91731509227182"><ele>34.6</ele><time>2026-04-09T07:28:28.001Z</time></trkpt><trkpt lat="14.376888954645759" lon="120.91737577488193"><ele>35.0</ele><time>2026-04-09T07:28:29.001Z</time></trkpt><trkpt lat="14.37681078159063" lon="120.91743699201727"><ele>35.0</ele><time>2026-04-09T07:28:30.001Z</time></trkpt><trkpt lat="14.376729076444324" lon="120.91749908666401"><ele>35.0</ele><time>2026-04-09T07:28:31.001Z</time></trkpt><trkpt lat="14.376645352649204" lon="120.91756009525713"><ele>35.0</ele><time>2026-04-09T07:28:32.001Z</time></trkpt><trkpt lat="14.376560070865885" lon="120.91761329938608"><ele>35.0</ele><time>2026-04-09T07:28:33.001Z</time></trkpt><trkpt lat="14.376468318867852" lon="120.9176606414389"><ele>35.0</ele><time>2026-04-09T07:28:34.001Z</time></trkpt><trkpt lat="14.376376266844337" lon="120.91770065561352"><ele>34.8</ele><time>2026-04-09T07:28:35.001Z</time></trkpt><trkpt lat="14.376283200441259" lon="120.9177387708116"><ele>34.6</ele><time>2026-04-09T07:28:36.001Z</time></trkpt><trkpt lat="14.37619222982552" lon="120.9177742600557"><ele>34.4</ele><time>2026-04-09T07:28:37.001Z</time></trkpt><trkpt lat="14.376103230401073" lon="120.91780776969335"><ele>34.2</ele><time>2026-04-09T07:28:38.001Z</time></trkpt><trkpt lat="14.37601189952736" lon="120.9178413914414"><ele>34.0</ele><time>2026-04-09T07:28:39.001Z</time></trkpt><trkpt lat="14.375841565185217" lon="120.91791045689234"><ele>34.0</ele><time>2026-04-09T07:28:41.001Z</time></trkpt><trkpt lat="14.375754486625073" lon="120.91794013339828"><ele>34.0</ele><time>2026-04-09T07:28:42.001Z</time></trkpt><trkpt lat="14.37566377844849" lon="120.91796764145397"><ele>34.0</ele><time>2026-04-09T07:28:43.001Z</time></trkpt><trkpt lat="14.375566601494613" lon="120.91799411976909"><ele>34.0</ele><time>2026-04-09T07:28:44.001Z</time></trkpt><trkpt lat="14.375470695919665" lon="120.91801907590495"><ele>34.0</ele><time>2026-04-09T07:28:45.001Z</time></trkpt><trkpt lat="14.37537323089334" lon="120.91804347035315"><ele>34.4</ele><time>2026-04-09T07:28:46.001Z</time></trkpt><trkpt lat="14.375274212431847" lon="120.91806780644531"><ele>34.8</ele><time>2026-04-09T07:28:47.001Z</time></trkpt><trkpt lat="14.375175703211129" lon="120.9180902879435"><ele>35.2</ele><time>2026-04-09T07:28:48.001Z</time></trkpt><trkpt lat="14.375078115596521" lon="120.91811244487897"><ele>35.6</ele><time>2026-04-09T07:28:49.001Z</time></trkpt><trkpt lat="14.374978653386249" lon="120.91813593052831"><ele>36.0</ele><time>2026-04-09T07:28:50.001Z</time></trkpt><trkpt lat="14.374877225064242" lon="120.9181576841534"><ele>36.0</ele><time>2026-04-09T07:28:51.001Z</time></trkpt><trkpt lat="14.374772229457875" lon="120.91817885952598"><ele>36.0</ele><time>2026-04-09T07:28:52.001Z</time></trkpt><trkpt lat="14.374664853465527" lon="120.91819904024881"><ele>36.0</ele><time>2026-04-09T07:28:53.001Z</time></trkpt><trkpt lat="14.374553533723528" lon="120.91821760316816"><ele>36.0</ele><time>2026-04-09T07:28:54.001Z</time></trkpt><trkpt lat="14.374439951336683" lon="120.91823807049003"><ele>36.0</ele><time>2026-04-09T07:28:55.001Z</time></trkpt><trkpt lat="14.374323795352288" lon="120.91825873305433"><ele>35.75</ele><time>2026-04-09T07:28:56.001Z</time></trkpt><trkpt lat="14.374207578503569" lon="120.91827813376581"><ele>35.5</ele><time>2026-04-09T07:28:57.001Z</time></trkpt><trkpt lat="14.374088392246213" lon="120.91829758824457"><ele>35.25</ele><time>2026-04-09T07:28:58.001Z</time></trkpt><trkpt lat="14.373970410032237" lon="120.91831835515865"><ele>35.0</ele><time>2026-04-09T07:28:59.001Z</time></trkpt><trkpt lat="14.373851123632013" lon="120.91833806983371"><ele>35.0</ele><time>2026-04-09T07:29:00.001Z</time></trkpt><trkpt lat="14.373609043532836" lon="120.91837764284367"><ele>35.0</ele><time>2026-04-09T07:29:02.001Z</time></trkpt><trkpt lat="14.373489218156209" lon="120.91839258578473"><ele>35.0</ele><time>2026-04-09T07:29:03.001Z</time></trkpt><trkpt lat="14.373371150698812" lon="120.91840452033995"><ele>35.0</ele><time>2026-04-09T07:29:04.001Z</time></trkpt><trkpt lat="14.373253821905143" lon="120.91841587184813"><ele>35.0</ele><time>2026-04-09T07:29:05.001Z</time></trkpt><trkpt lat="14.373138510819073" lon="120.9184261641934"><ele>35.0</ele><time>2026-04-09T07:29:06.001Z</time></trkpt><trkpt lat="14.373028574356393" lon="120.91843666303052"><ele>35.0</ele><time>2026-04-09T07:29:07.001Z</time></trkpt><trkpt lat="14.372922187829166" lon="120.918446490826"><ele>35.0</ele><time>2026-04-09T07:29:08.001Z</time></trkpt><trkpt lat="14.3728253776623" lon="120.91845561235785"><ele>35.0</ele><time>2026-04-09T07:29:09.001Z</time></trkpt><trkpt lat="14.372741265872568" lon="120.91846546659869"><ele>35.0</ele><time>2026-04-09T07:29:10.001Z</time></trkpt><trkpt lat="14.372666516194771" lon="120.91847389968689"><ele>35.0</ele><time>2026-04-09T07:29:11.001Z</time></trkpt><trkpt lat="14.372594781039563" lon="120.91848252225918"><ele>35.0</ele><time>2026-04-09T07:29:12.001Z</time></trkpt><trkpt lat="14.37252362310683" lon="120.91849109138116"><ele>35.0</ele><time>2026-04-09T07:29:13.001Z</time></trkpt><trkpt lat="14.372452080023765" lon="120.91850000877744"><ele>35.0</ele><time>2026-04-09T07:29:14.001Z</time></trkpt><trkpt lat="14.372378195702867" lon="120.91850627719084"><ele>35.0</ele><time>2026-04-09T07:29:15.001Z</time></trkpt><trkpt lat="14.372301690914904" lon="120.91851555290138"><ele>35.0</ele><time>2026-04-09T07:29:16.001Z</time></trkpt><trkpt lat="14.372220514612577" lon="120.91852231833586"><ele>35.0</ele><time>2026-04-09T07:29:17.001Z</time></trkpt><trkpt lat="14.372135269380687" lon="120.91853085076367"><ele>35.0</ele><time>2026-04-09T07:29:18.001Z</time></trkpt><trkpt lat="14.372048970085897" lon="120.91853914534023"><ele>35.0</ele><time>2026-04-09T07:29:19.001Z</time></trkpt><trkpt lat="14.37195611568199" lon="120.91854712187595"><ele>35.0</ele><time>2026-04-09T07:29:20.001Z</time></trkpt><trkpt lat="14.371859992784973" lon="120.91855439457612"><ele>35.0</ele><time>2026-04-09T07:29:21.001Z</time></trkpt><trkpt lat="14.371658743878454" lon="120.91857637252863"><ele>35.0</ele><time>2026-04-09T07:29:23.001Z</time></trkpt><trkpt lat="14.371553573037934" lon="120.91858536146626"><ele>35.0</ele><time>2026-04-09T07:29:24.001Z</time></trkpt><trkpt lat="14.371448711748283" lon="120.91858972470531"><ele>35.6</ele><time>2026-04-09T07:29:25.001Z</time></trkpt><trkpt lat="14.371342440197992" lon="120.91858711772419"><ele>36.2</ele><time>2026-04-09T07:29:26.001Z</time></trkpt><trkpt lat="14.371236999015704" lon="120.91857963458637"><ele>36.8</ele><time>2026-04-09T07:29:27.001Z</time></trkpt><trkpt lat="14.371134813340749" lon="120.91857248315479"><ele>37.4</ele><time>2026-04-09T07:29:28.001Z</time></trkpt><trkpt lat="14.371029535895756" lon="120.91856442707613"><ele>38.0</ele><time>2026-04-09T07:29:29.001Z</time></trkpt><trkpt lat="14.37092617524905" lon="120.91856559175015"><ele>38.0</ele><time>2026-04-09T07:29:30.001Z</time></trkpt><trkpt lat="14.370819206100927" lon="120.91857384484622"><ele>38.0</ele><time>2026-04-09T07:29:31.001Z</time></trkpt><trkpt lat="14.370716468856806" lon="120.91858744801435"><ele>38.0</ele><time>2026-04-09T07:29:32.001Z</time></trkpt><trkpt lat="14.370612205437709" lon="120.91860272291467"><ele>38.0</ele><time>2026-04-09T07:29:33.001Z</time></trkpt><trkpt lat="14.370508893783441" lon="120.91861524806025"><ele>38.0</ele><time>2026-04-09T07:29:34.001Z</time></trkpt><trkpt lat="14.370405965841739" lon="120.91862980877835"><ele>37.8</ele><time>2026-04-09T07:29:35.001Z</time></trkpt><trkpt lat="14.370306083577491" lon="120.91864762524891"><ele>37.599999999999994</ele><time>2026-04-09T07:29:36.001Z</time></trkpt><trkpt lat="14.370205452174671" lon="120.9186628496174"><ele>37.400000000000006</ele><time>2026-04-09T07:29:37.001Z</time></trkpt><trkpt lat="14.370104610639821" lon="120.9186801544853"><ele>37.2</ele><time>2026-04-09T07:29:38.001Z</time></trkpt><trkpt lat="14.370007290347425" lon="120.91869320277884"><ele>37.0</ele><time>2026-04-09T07:29:39.001Z</time></trkpt><trkpt lat="14.36991278131296" lon="120.9187085848176"><ele>37.0</ele><time>2026-04-09T07:29:40.001Z</time></trkpt><trkpt lat="14.369817436191497" lon="120.91872341004546"><ele>37.0</ele><time>2026-04-09T07:29:41.001Z</time></trkpt><trkpt lat="14.369723453038096" lon="120.91873851608483"><ele>37.0</ele><time>2026-04-09T07:29:42.001Z</time></trkpt><trkpt lat="14.36953227804992" lon="120.91876754149735"><ele>37.0</ele><time>2026-04-09T07:29:44.001Z</time></trkpt><trkpt lat="14.36943710700092" lon="120.91878159998764"><ele>37.833333333333336</ele><time>2026-04-09T07:29:45.001Z</time></trkpt><trkpt lat="14.369346528874212" lon="120.91879575644852"><ele>38.66666666666667</ele><time>2026-04-09T07:29:46.001Z</time></trkpt><trkpt lat="14.369257189623436" lon="120.91880979934841"><ele>39.5</ele><time>2026-04-09T07:29:47.001Z</time></trkpt><trkpt lat="14.36917031854425" lon="120.91882376229009"><ele>40.333333333333336</ele><time>2026-04-09T07:29:48.001Z</time></trkpt><trkpt lat="14.369088693025978" lon="120.91883740383041"><ele>41.166666666666664</ele><time>2026-04-09T07:29:49.001Z</time></trkpt><trkpt lat="14.369014657456997" lon="120.91885201055135"><ele>42.0</ele><time>2026-04-09T07:29:50.001Z</time></trkpt><trkpt lat="14.368942051160392" lon="120.91886596515512"><ele>42.0</ele><time>2026-04-09T07:29:51.001Z</time></trkpt><trkpt lat="14.368873787087328" lon="120.91887791468824"><ele>42.0</ele><time>2026-04-09T07:29:52.001Z</time></trkpt><trkpt lat="14.368803768582467" lon="120.91888899671336"><ele>42.0</ele><time>2026-04-09T07:29:53.001Z</time></trkpt><trkpt lat="14.368734706817294" lon="120.91889281625623"><ele>42.0</ele><time>2026-04-09T07:29:54.001Z</time></trkpt><trkpt lat="14.368668191473082" lon="120.91890595885933"><ele>42.0</ele><time>2026-04-09T07:29:55.001Z</time></trkpt><trkpt lat="14.36860281639873" lon="120.91891458873303"><ele>42.0</ele><time>2026-04-09T07:29:56.001Z</time></trkpt><trkpt lat="14.368534427527369" lon="120.91892557067503"><ele>42.0</ele><time>2026-04-09T07:29:57.001Z</time></trkpt><trkpt lat="14.36846657252278" lon="120.91895521292007"><ele>42.400000000000006</ele><time>2026-04-09T07:29:58.001Z</time></trkpt><trkpt lat="14.36839567547306" lon="120.91896829165412"><ele>42.800000000000004</ele><time>2026-04-09T07:29:59.001Z</time></trkpt><trkpt lat="14.368322214847279" lon="120.91896579251897"><ele>43.2</ele><time>2026-04-09T07:30:00.001Z</time></trkpt><trkpt lat="14.36822556729924" lon="120.91899266179368"><ele>43.6</ele><time>2026-04-09T07:30:02.001Z</time></trkpt><trkpt lat="14.368157842819812" lon="120.9190096107521"><ele>44.0</ele><time>2026-04-09T07:30:10.001Z</time></trkpt><trkpt lat="14.367999872164441" lon="120.91905570000135"><ele>44.2</ele><time>2026-04-09T07:30:17.001Z</time></trkpt><trkpt lat="14.367928787766209" lon="120.91907458691324"><ele>44.400000000000006</ele><time>2026-04-09T07:30:19.001Z</time></trkpt><trkpt lat="14.36785573212402" lon="120.91909459447548"><ele>44.6</ele><time>2026-04-09T07:30:21.001Z</time></trkpt><trkpt lat="14.36777193144928" lon="120.91911855628281"><ele>44.8</ele><time>2026-04-09T07:30:23.001Z</time></trkpt><trkpt lat="14.367672105998482" lon="120.91915083869488"><ele>45.0</ele><time>2026-04-09T07:30:25.001Z</time></trkpt><trkpt lat="14.36756601756036" lon="120.91917914501487"><ele>45.0</ele><time>2026-04-09T07:30:27.001Z</time></trkpt><trkpt lat="14.367466250493994" lon="120.91920301572056"><ele>45.0</ele><time>2026-04-09T07:30:29.001Z</time></trkpt><trkpt lat="14.367367845194945" lon="120.919228872797"><ele>45.0</ele><time>2026-04-09T07:30:31.001Z</time></trkpt><trkpt lat="14.367190219278468" lon="120.91928180792529"><ele>45.0</ele><time>2026-04-09T07:30:35.001Z</time></trkpt><trkpt lat="14.367090858704087" lon="120.91930808934038"><ele>44.833333333333336</ele><time>2026-04-09T07:30:37.001Z</time></trkpt><trkpt lat="14.36699116655773" lon="120.91932872469356"><ele>44.666666666666664</ele><time>2026-04-09T07:30:39.001Z</time></trkpt><trkpt lat="14.366901733678324" lon="120.91935187605307"><ele>44.5</ele><time>2026-04-09T07:30:41.001Z</time></trkpt><trkpt lat="14.36683093514725" lon="120.9193740107776"><ele>44.33333333333333</ele><time>2026-04-09T07:30:43.001Z</time></trkpt><trkpt lat="14.366763881666484" lon="120.91939582227229"><ele>44.166666666666664</ele><time>2026-04-09T07:30:45.001Z</time></trkpt><trkpt lat="14.36668747602821" lon="120.9194069067928"><ele>44.0</ele><time>2026-04-09T07:30:47.001Z</time></trkpt><trkpt lat="14.366584435715682" lon="120.9193303375905"><ele>44.0</ele><time>2026-04-09T07:30:50.001Z</time></trkpt><trkpt lat="14.366508685762701" lon="120.91922767959251"><ele>44.0</ele><time>2026-04-09T07:30:52.001Z</time></trkpt><trkpt lat="14.366422435188111" lon="120.91909721560174"><ele>44.0</ele><time>2026-04-09T07:30:54.001Z</time></trkpt><trkpt lat="14.366378100235236" lon="120.91902533993294"><ele>44.0</ele><time>2026-04-09T07:30:55.001Z</time></trkpt><trkpt lat="14.366334626320008" lon="120.91895208139708"><ele>44.0</ele><time>2026-04-09T07:30:56.001Z</time></trkpt><trkpt lat="14.366291231870754" lon="120.91887784839246"><ele>44.0</ele><time>2026-04-09T07:30:57.001Z</time></trkpt><trkpt lat="14.3662526126336" lon="120.91880819654162"><ele>44.0</ele><time>2026-04-09T07:30:58.001Z</time></trkpt><trkpt lat="14.366217358992088" lon="120.91874573225736"><ele>44.0</ele><time>2026-04-09T07:30:59.001Z</time></trkpt><trkpt lat="14.366168867015613" lon="120.9186586210005"><ele>44.0</ele><time>2026-04-09T07:31:01.001Z</time></trkpt><trkpt lat="14.366129240971043" lon="120.91860623401776"><ele>44.0</ele><time>2026-04-09T07:31:06.001Z</time></trkpt><trkpt lat="14.366132326590183" lon="120.91880220708539"><ele>44.0</ele><time>2026-04-09T07:31:11.001Z</time></trkpt><trkpt lat="14.366177618663215" lon="120.91886479521037"><ele>44.0</ele><time>2026-04-09T07:31:12.001Z</time></trkpt><trkpt lat="14.36622143190453" lon="120.91893608219492"><ele>44.0</ele><time>2026-04-09T07:31:13.001Z</time></trkpt><trkpt lat="14.36631807932143" lon="120.91909324862975"><ele>44.0</ele><time>2026-04-09T07:31:15.001Z</time></trkpt><trkpt lat="14.366368013539722" lon="120.9191716223969"><ele>44.0</ele><time>2026-04-09T07:31:16.001Z</time></trkpt><trkpt lat="14.366419476694675" lon="120.91925242211956"><ele>44.0</ele><time>2026-04-09T07:31:17.001Z</time></trkpt><trkpt lat="14.366469705775923" lon="120.9193326626342"><ele>44.0</ele><time>2026-04-09T07:31:18.001Z</time></trkpt><trkpt lat="14.36651895221884" lon="120.91941768278801"><ele>44.0</ele><time>2026-04-09T07:31:19.001Z</time></trkpt><trkpt lat="14.366564856973197" lon="120.91951020801885"><ele>44.0</ele><time>2026-04-09T07:31:20.001Z</time></trkpt><trkpt lat="14.366604365929772" lon="120.91960817181725"><ele>44.0</ele><time>2026-04-09T07:31:21.001Z</time></trkpt><trkpt lat="14.366641701954668" lon="120.91971361120136"><ele>44.0</ele><time>2026-04-09T07:31:22.001Z</time></trkpt><trkpt lat="14.366676578662965" lon="120.91982669132507"><ele>44.0</ele><time>2026-04-09T07:31:23.001Z</time></trkpt><trkpt lat="14.366706324103763" lon="120.91994235194424"><ele>44.0</ele><time>2026-04-09T07:31:24.001Z</time></trkpt><trkpt lat="14.366734213939274" lon="120.92006107550118"><ele>44.0</ele><time>2026-04-09T07:31:25.001Z</time></trkpt><trkpt lat="14.366761553826972" lon="120.9201852076506"><ele>43.25</ele><time>2026-04-09T07:31:26.001Z</time></trkpt><trkpt lat="14.366787403067473" lon="120.92031178394072"><ele>42.5</ele><time>2026-04-09T07:31:27.001Z</time></trkpt><trkpt lat="14.366812039744092" lon="120.92044149924699"><ele>41.75</ele><time>2026-04-09T07:31:28.001Z</time></trkpt><trkpt lat="14.36683696933541" lon="120.92057185866335"><ele>41.0</ele><time>2026-04-09T07:31:29.001Z</time></trkpt><trkpt lat="14.36685926851637" lon="120.92070213731519"><ele>41.0</ele><time>2026-04-09T07:31:30.001Z</time></trkpt><trkpt lat="14.366863694687144" lon="120.920837432295"><ele>41.0</ele><time>2026-04-09T07:31:31.001Z</time></trkpt><trkpt lat="14.36688480945894" lon="120.92097249267265"><ele>41.0</ele><time>2026-04-09T07:31:32.001Z</time></trkpt><trkpt lat="14.366906548016523" lon="120.92111093224237"><ele>41.0</ele><time>2026-04-09T07:31:33.001Z</time></trkpt><trkpt lat="14.366928973599098" lon="120.92124763926616"><ele>40.33333333333333</ele><time>2026-04-09T07:31:34.001Z</time></trkpt><trkpt lat="14.366990251755597" lon="120.92152713957411"><ele>39.666666666666664</ele><time>2026-04-09T07:31:36.001Z</time></trkpt><trkpt lat="14.36700901539423" lon="120.92167208895324"><ele>39.0</ele><time>2026-04-09T07:31:37.001Z</time></trkpt><trkpt lat="14.367034533286564" lon="120.92181475271234"><ele>39.0</ele><time>2026-04-09T07:31:38.001Z</time></trkpt><trkpt lat="14.367056496039218" lon="120.92195585188978"><ele>39.0</ele><time>2026-04-09T07:31:39.001Z</time></trkpt><trkpt lat="14.367078057380459" lon="120.92209354750044"><ele>39.0</ele><time>2026-04-09T07:31:40.001Z</time></trkpt><trkpt lat="14.367097426281477" lon="120.92222744181845"><ele>39.0</ele><time>2026-04-09T07:31:41.001Z</time></trkpt><trkpt lat="14.367117004063523" lon="120.92235796638528"><ele>39.0</ele><time>2026-04-09T07:31:42.001Z</time></trkpt><trkpt lat="14.367136846894505" lon="120.92248583605594"><ele>39.0</ele><time>2026-04-09T07:31:43.001Z</time></trkpt><trkpt lat="14.367157258047557" lon="120.92261361241826"><ele>39.0</ele><time>2026-04-09T07:31:44.001Z</time></trkpt><trkpt lat="14.367176606478033" lon="120.92274397186135"><ele>39.0</ele><time>2026-04-09T07:31:45.001Z</time></trkpt><trkpt lat="14.367195964604905" lon="120.92287525116284"><ele>39.25</ele><time>2026-04-09T07:31:46.001Z</time></trkpt><trkpt lat="14.367214366527664" lon="120.92300642405459"><ele>39.5</ele><time>2026-04-09T07:31:47.001Z</time></trkpt><trkpt lat="14.367233556605868" lon="120.92313757884418"><ele>39.75</ele><time>2026-04-09T07:31:48.001Z</time></trkpt><trkpt lat="14.367254994078174" lon="120.9232694606712"><ele>40.0</ele><time>2026-04-09T07:31:49.001Z</time></trkpt><trkpt lat="14.367259905639326" lon="120.9234056891899"><ele>40.0</ele><time>2026-04-09T07:31:50.001Z</time></trkpt><trkpt lat="14.367278793859295" lon="120.92354208392256"><ele>40.0</ele><time>2026-04-09T07:31:51.001Z</time></trkpt><trkpt lat="14.367297858917631" lon="120.9236797556438"><ele>40.0</ele><time>2026-04-09T07:31:52.001Z</time></trkpt><trkpt lat="14.367318058383127" lon="120.92381991255458"><ele>40.0</ele><time>2026-04-09T07:31:53.001Z</time></trkpt><trkpt lat="14.367340066757368" lon="120.92395755333652"><ele>40.0</ele><time>2026-04-09T07:31:54.001Z</time></trkpt><trkpt lat="14.367361099379856" lon="120.92408561350287"><ele>40.0</ele><time>2026-04-09T07:31:55.001Z</time></trkpt><trkpt lat="14.36740891127094" lon="120.92431970972486"><ele>40.0</ele><time>2026-04-09T07:31:57.001Z</time></trkpt><trkpt lat="14.367448053964523" lon="120.92442795461142"><ele>40.2</ele><time>2026-04-09T07:31:58.001Z</time></trkpt><trkpt lat="14.36749104351332" lon="120.92452741205098"><ele>40.4</ele><time>2026-04-09T07:31:59.001Z</time></trkpt><trkpt lat="14.36754735825633" lon="120.92462131496886"><ele>40.599999999999994</ele><time>2026-04-09T07:32:00.001Z</time></trkpt><trkpt lat="14.367583185093084" lon="120.92473251788765"><ele>40.8</ele><time>2026-04-09T07:32:01.001Z</time></trkpt><trkpt lat="14.367616793894635" lon="120.92484610062755"><ele>41.0</ele><time>2026-04-09T07:32:02.001Z</time></trkpt><trkpt lat="14.367642918721389" lon="120.92496380629531"><ele>41.0</ele><time>2026-04-09T07:32:03.001Z</time></trkpt><trkpt lat="14.36766347111678" lon="120.92508601333627"><ele>41.0</ele><time>2026-04-09T07:32:04.001Z</time></trkpt><trkpt lat="14.36767448648701" lon="120.92521560810309"><ele>41.0</ele><time>2026-04-09T07:32:05.001Z</time></trkpt><trkpt lat="14.36767649478538" lon="120.92534347589789"><ele>41.0</ele><time>2026-04-09T07:32:06.001Z</time></trkpt><trkpt lat="14.367671149848476" lon="120.92547364794507"><ele>41.0</ele><time>2026-04-09T07:32:07.001Z</time></trkpt><trkpt lat="14.367664074308511" lon="120.92560529285615"><ele>41.0</ele><time>2026-04-09T07:32:08.001Z</time></trkpt><trkpt lat="14.36765595558337" lon="120.9257409178795"><ele>41.0</ele><time>2026-04-09T07:32:09.001Z</time></trkpt><trkpt lat="14.367649313636903" lon="120.92587413997563"><ele>41.0</ele><time>2026-04-09T07:32:10.001Z</time></trkpt><trkpt lat="14.367644503602897" lon="120.92600716789102"><ele>41.25</ele><time>2026-04-09T07:32:11.001Z</time></trkpt><trkpt lat="14.367644122696868" lon="120.92614307091849"><ele>41.5</ele><time>2026-04-09T07:32:12.001Z</time></trkpt><trkpt lat="14.367650595601068" lon="120.92627624515977"><ele>41.75</ele><time>2026-04-09T07:32:13.001Z</time></trkpt><trkpt lat="14.36766415969182" lon="120.92640592131885"><ele>42.0</ele><time>2026-04-09T07:32:14.001Z</time></trkpt><trkpt lat="14.367683911407774" lon="120.92653571385493"><ele>42.0</ele><time>2026-04-09T07:32:15.001Z</time></trkpt><trkpt lat="14.367707202998574" lon="120.92666113496453"><ele>42.0</ele><time>2026-04-09T07:32:16.001Z</time></trkpt><trkpt lat="14.36775714818673" lon="120.92691403237211"><ele>42.0</ele><time>2026-04-09T07:32:18.001Z</time></trkpt><trkpt lat="14.367784084033305" lon="120.92703120065694"><ele>42.0</ele><time>2026-04-09T07:32:19.001Z</time></trkpt><trkpt lat="14.367810643031385" lon="120.92714808480619"><ele>42.0</ele><time>2026-04-09T07:32:20.001Z</time></trkpt><trkpt lat="14.367834705795678" lon="120.92726256605383"><ele>42.0</ele><time>2026-04-09T07:32:21.001Z</time></trkpt><trkpt lat="14.367854949939254" lon="120.92737288305564"><ele>42.0</ele><time>2026-04-09T07:32:22.001Z</time></trkpt><trkpt lat="14.367865672988128" lon="120.92748116307519"><ele>42.0</ele><time>2026-04-09T07:32:23.001Z</time></trkpt><trkpt lat="14.367861337497814" lon="120.92758707465386"><ele>41.2</ele><time>2026-04-09T07:32:24.001Z</time></trkpt><trkpt lat="14.367840093807985" lon="120.9276904476408"><ele>40.400000000000006</ele><time>2026-04-09T07:32:25.001Z</time></trkpt><trkpt lat="14.367801708240345" lon="120.92778953798403"><ele>39.599999999999994</ele><time>2026-04-09T07:32:26.001Z</time></trkpt><trkpt lat="14.367762437001902" lon="120.92789094947553"><ele>38.8</ele><time>2026-04-09T07:32:27.001Z</time></trkpt><trkpt lat="14.36772474624569" lon="120.92798586008202"><ele>38.0</ele><time>2026-04-09T07:32:28.001Z</time></trkpt><trkpt lat="14.367689031209279" lon="120.92807482791042"><ele>38.0</ele><time>2026-04-09T07:32:29.001Z</time></trkpt><trkpt lat="14.367656216821507" lon="120.9281543575142"><ele>38.0</ele><time>2026-04-09T07:32:30.001Z</time></trkpt><trkpt lat="14.367628512249622" lon="120.92822346196638"><ele>38.0</ele><time>2026-04-09T07:32:31.001Z</time></trkpt><trkpt lat="14.367586730308593" lon="120.92832418640285"><ele>38.0</ele><time>2026-04-09T07:32:33.001Z</time></trkpt><trkpt lat="14.367551991393631" lon="120.92838848023716"><ele>38.0</ele><time>2026-04-09T07:32:35.001Z</time></trkpt><trkpt lat="14.367497582026083" lon="120.92845701521806"><ele>38.0</ele><time>2026-04-09T07:32:38.001Z</time></trkpt><trkpt lat="14.367403264951713" lon="120.92860324002295"><ele>38.599999999999994</ele><time>2026-04-09T07:32:44.001Z</time></trkpt><trkpt lat="14.367372772719923" lon="120.92869094958208"><ele>39.199999999999996</ele><time>2026-04-09T07:32:46.001Z</time></trkpt><trkpt lat="14.367356046046462" lon="120.92880053184915"><ele>39.8</ele><time>2026-04-09T07:32:48.001Z</time></trkpt><trkpt lat="14.367348618529327" lon="120.92892381456868"><ele>40.4</ele><time>2026-04-09T07:32:50.001Z</time></trkpt><trkpt lat="14.367351379621219" lon="120.929055466037"><ele>41.0</ele><time>2026-04-09T07:32:52.001Z</time></trkpt><trkpt lat="14.3673560188847" lon="120.92912436107835"><ele>40.99999999999999</ele><time>2026-04-09T07:32:53.001Z</time></trkpt><trkpt lat="14.367361409361294" lon="120.92919845513454"><ele>41.0</ele><time>2026-04-09T07:32:54.001Z</time></trkpt><trkpt lat="14.367365393986244" lon="120.92927241359804"><ele>41.0</ele><time>2026-04-09T07:32:55.001Z</time></trkpt><trkpt lat="14.36736959498127" lon="120.92934554302703"><ele>41.0</ele><time>2026-04-09T07:32:56.001Z</time></trkpt><trkpt lat="14.367373694019754" lon="120.92941925962735"><ele>41.0</ele><time>2026-04-09T07:32:57.001Z</time></trkpt><trkpt lat="14.36737779477588" lon="120.92949103552286"><ele>40.99999999999999</ele><time>2026-04-09T07:32:58.001Z</time></trkpt><trkpt lat="14.367382003216509" lon="120.92956048706716"><ele>41.0</ele><time>2026-04-09T07:32:59.001Z</time></trkpt><trkpt lat="14.367398831022484" lon="120.92975565329878"><ele>41.25</ele><time>2026-04-09T07:33:02.001Z</time></trkpt><trkpt lat="14.367409280286143" lon="120.9298778299039"><ele>41.5</ele><time>2026-04-09T07:33:04.001Z</time></trkpt><trkpt lat="14.367417442268472" lon="120.92999856656607"><ele>41.75</ele><time>2026-04-09T07:33:06.001Z</time></trkpt><trkpt lat="14.367426366435877" lon="120.93011348114861"><ele>42.0</ele><time>2026-04-09T07:33:08.001Z</time></trkpt><trkpt lat="14.3674358969925" lon="120.93023565311688"><ele>42.0</ele><time>2026-04-09T07:33:10.001Z</time></trkpt><trkpt lat="14.367437040943003" lon="120.9303046462646"><ele>42.0</ele><time>2026-04-09T07:33:11.001Z</time></trkpt><trkpt lat="14.367440099468684" lon="120.9303740030093"><ele>42.0</ele><time>2026-04-09T07:33:12.001Z</time></trkpt><trkpt lat="14.36744511292038" lon="120.93044681636971"><ele>42.0</ele><time>2026-04-09T07:33:13.001Z</time></trkpt><trkpt lat="14.367450529632638" lon="120.93052286792599"><ele>42.0</ele><time>2026-04-09T07:33:14.001Z</time></trkpt><trkpt lat="14.367455833308023" lon="120.93059883428087"><ele>42.0</ele><time>2026-04-09T07:33:15.001Z</time></trkpt><trkpt lat="14.367462259749962" lon="120.93067309977225"><ele>42.0</ele><time>2026-04-09T07:33:16.001Z</time></trkpt><trkpt lat="14.367468517224323" lon="120.93074379216678"><ele>42.0</ele><time>2026-04-09T07:33:17.001Z</time></trkpt><trkpt lat="14.36747368646244" lon="120.93081280071674"><ele>42.0</ele><time>2026-04-09T07:33:18.001Z</time></trkpt><trkpt lat="14.367480169738997" lon="120.9308836882006"><ele>42.0</ele><time>2026-04-09T07:33:19.001Z</time></trkpt><trkpt lat="14.367485793957538" lon="120.93095765948112"><ele>42.0</ele><time>2026-04-09T07:33:20.001Z</time></trkpt><trkpt lat="14.367498081523124" lon="120.93111298783485"><ele>42.0</ele><time>2026-04-09T07:33:22.001Z</time></trkpt><trkpt lat="14.367505475280405" lon="120.93119840323698"><ele>42.0</ele><time>2026-04-09T07:33:23.001Z</time></trkpt><trkpt lat="14.367512804208522" lon="120.93128669736527"><ele>42.2</ele><time>2026-04-09T07:33:24.001Z</time></trkpt><trkpt lat="14.367521104283556" lon="120.93138242539285"><ele>42.400000000000006</ele><time>2026-04-09T07:33:25.001Z</time></trkpt><trkpt lat="14.367529258170512" lon="120.93147752941704"><ele>42.599999999999994</ele><time>2026-04-09T07:33:26.001Z</time></trkpt><trkpt lat="14.367536840682702" lon="120.93158205665198"><ele>42.8</ele><time>2026-04-09T07:33:27.001Z</time></trkpt><trkpt lat="14.367578779180358" lon="120.93167496174031"><ele>43.0</ele><time>2026-04-09T07:33:28.001Z</time></trkpt><trkpt lat="14.36755220772302" lon="120.93178976284631"><ele>42.599999999999994</ele><time>2026-04-09T07:33:29.001Z</time></trkpt><trkpt lat="14.367559331622072" lon="120.93189374929476"><ele>42.199999999999996</ele><time>2026-04-09T07:33:30.001Z</time></trkpt><trkpt lat="14.367566988838455" lon="120.93200046589541"><ele>41.8</ele><time>2026-04-09T07:33:31.001Z</time></trkpt><trkpt lat="14.367575461280087" lon="120.93210829746774"><ele>41.4</ele><time>2026-04-09T07:33:32.001Z</time></trkpt><trkpt lat="14.367583695160159" lon="120.93221075888864"><ele>41.0</ele><time>2026-04-09T07:33:33.001Z</time></trkpt><trkpt lat="14.367591306236893" lon="120.932312675773"><ele>41.0</ele><time>2026-04-09T07:33:34.001Z</time></trkpt><trkpt lat="14.36759929150306" lon="120.93241039047359"><ele>41.0</ele><time>2026-04-09T07:33:35.001Z</time></trkpt><trkpt lat="14.367606696296432" lon="120.93250932703322"><ele>41.0</ele><time>2026-04-09T07:33:36.001Z</time></trkpt><trkpt lat="14.367613894758447" lon="120.93260397749472"><ele>41.0</ele><time>2026-04-09T07:33:37.001Z</time></trkpt><trkpt lat="14.367622002630323" lon="120.93269933167315"><ele>41.0</ele><time>2026-04-09T07:33:38.001Z</time></trkpt><trkpt lat="14.367629979851458" lon="120.93279104537115"><ele>41.199999999999996</ele><time>2026-04-09T07:33:39.001Z</time></trkpt><trkpt lat="14.367639463542153" lon="120.93287741753389"><ele>41.4</ele><time>2026-04-09T07:33:40.001Z</time></trkpt><trkpt lat="14.367652883171568" lon="120.93296063244544"><ele>41.6</ele><time>2026-04-09T07:33:41.001Z</time></trkpt><trkpt lat="14.367701635142199" lon="120.93310939156423"><ele>41.8</ele><time>2026-04-09T07:33:43.001Z</time></trkpt><trkpt lat="14.367734599369111" lon="120.93317966492216"><ele>42.0</ele><time>2026-04-09T07:33:44.001Z</time></trkpt><trkpt lat="14.367767204583089" lon="120.93324921897087"><ele>42.0</ele><time>2026-04-09T07:33:45.001Z</time></trkpt><trkpt lat="14.367801726519279" lon="120.9333200754523"><ele>42.0</ele><time>2026-04-09T07:33:46.001Z</time></trkpt><trkpt lat="14.367837558781531" lon="120.93339120124996"><ele>42.0</ele><time>2026-04-09T07:33:47.001Z</time></trkpt><trkpt lat="14.3678763883848" lon="120.93346395510903"><ele>42.0</ele><time>2026-04-09T07:33:48.001Z</time></trkpt><trkpt lat="14.367917883192153" lon="120.93353873440334"><ele>42.0</ele><time>2026-04-09T07:33:49.001Z</time></trkpt><trkpt lat="14.367957745629003" lon="120.93361244894912"><ele>42.0</ele><time>2026-04-09T07:33:50.001Z</time></trkpt><trkpt lat="14.367998371192092" lon="120.93368695953127"><ele>41.5</ele><time>2026-04-09T07:33:51.001Z</time></trkpt><trkpt lat="14.368036189660232" lon="120.93375605354883"><ele>41.0</ele><time>2026-04-09T07:33:52.001Z</time></trkpt><trkpt lat="14.368068457373198" lon="120.93381513803625"><ele>40.5</ele><time>2026-04-09T07:33:53.001Z</time></trkpt><trkpt lat="14.368121787704242" lon="120.933912260534"><ele>40.0</ele><time>2026-04-09T07:33:55.001Z</time></trkpt><trkpt lat="14.368164585276714" lon="120.93398883884413"><ele>39.5</ele><time>2026-04-09T07:33:57.001Z</time></trkpt><trkpt lat="14.368205525775018" lon="120.9340632600023"><ele>39.0</ele><time>2026-04-09T07:33:59.001Z</time></trkpt><trkpt lat="14.368244404848896" lon="120.93413303762875"><ele>39.0</ele><time>2026-04-09T07:34:01.001Z</time></trkpt><trkpt lat="14.368297521725165" lon="120.93420181591877"><ele>39.0</ele><time>2026-04-09T07:34:04.001Z</time></trkpt><trkpt lat="14.368407412846148" lon="120.93433674528549"><ele>39.0</ele><time>2026-04-09T07:34:10.001Z</time></trkpt><trkpt lat="14.368460649229117" lon="120.93442978127763"><ele>39.0</ele><time>2026-04-09T07:34:12.001Z</time></trkpt><trkpt lat="14.368519683524836" lon="120.93453898068431"><ele>39.166666666666664</ele><time>2026-04-09T07:34:14.001Z</time></trkpt><trkpt lat="14.368553503114684" lon="120.93460099866448"><ele>39.333333333333336</ele><time>2026-04-09T07:34:15.001Z</time></trkpt><trkpt lat="14.36858816396348" lon="120.93466423076036"><ele>39.5</ele><time>2026-04-09T07:34:16.001Z</time></trkpt><trkpt lat="14.368625125618518" lon="120.9347326831356"><ele>39.66666666666667</ele><time>2026-04-09T07:34:17.001Z</time></trkpt><trkpt lat="14.368661559243273" lon="120.93480075363445"><ele>39.833333333333336</ele><time>2026-04-09T07:34:18.001Z</time></trkpt><trkpt lat="14.368699547528188" lon="120.9348726404251"><ele>40.0</ele><time>2026-04-09T07:34:19.001Z</time></trkpt><trkpt lat="14.368738536522738" lon="120.93494530910083"><ele>40.0</ele><time>2026-04-09T07:34:20.001Z</time></trkpt><trkpt lat="14.36877820805794" lon="120.9350197864004"><ele>40.0</ele><time>2026-04-09T07:34:21.001Z</time></trkpt><trkpt lat="14.368819232990116" lon="120.93509605004448"><ele>40.0</ele><time>2026-04-09T07:34:22.001Z</time></trkpt><trkpt lat="14.368860287492165" lon="120.93517441342962"><ele>40.0</ele><time>2026-04-09T07:34:23.001Z</time></trkpt><trkpt lat="14.368900165769055" lon="120.93525315095764"><ele>40.0</ele><time>2026-04-09T07:34:24.001Z</time></trkpt><trkpt lat="14.368936713870486" lon="120.93533459938651"><ele>40.0</ele><time>2026-04-09T07:34:25.001Z</time></trkpt><trkpt lat="14.369004544401976" lon="120.93549589801954"><ele>40.0</ele><time>2026-04-09T07:34:27.001Z</time></trkpt><trkpt lat="14.369035828704913" lon="120.93557185899427"><ele>40.0</ele><time>2026-04-09T07:34:28.001Z</time></trkpt><trkpt lat="14.369064204221289" lon="120.93564423903966"><ele>40.0</ele><time>2026-04-09T07:34:29.001Z</time></trkpt><trkpt lat="14.36909243607166" lon="120.93571619833455"><ele>40.0</ele><time>2026-04-09T07:34:30.001Z</time></trkpt><trkpt lat="14.36912116691675" lon="120.93578871312526"><ele>40.0</ele><time>2026-04-09T07:34:31.001Z</time></trkpt><trkpt lat="14.369149267390968" lon="120.93586247331034"><ele>40.0</ele><time>2026-04-09T07:34:32.001Z</time></trkpt><trkpt lat="14.36917678704478" lon="120.9359347773672"><ele>40.0</ele><time>2026-04-09T07:34:33.001Z</time></trkpt><trkpt lat="14.3692051867366" lon="120.93600675307417"><ele>40.0</ele><time>2026-04-09T07:34:34.001Z</time></trkpt><trkpt lat="14.369233531180809" lon="120.93607841680415"><ele>40.0</ele><time>2026-04-09T07:34:35.001Z</time></trkpt><trkpt lat="14.36926226073414" lon="120.93615343944715"><ele>40.0</ele><time>2026-04-09T07:34:36.001Z</time></trkpt><trkpt lat="14.369291990546847" lon="120.9362278307932"><ele>40.0</ele><time>2026-04-09T07:34:37.001Z</time></trkpt><trkpt lat="14.3693224871241" lon="120.93630482222083"><ele>40.0</ele><time>2026-04-09T07:34:38.001Z</time></trkpt><trkpt lat="14.36935067085181" lon="120.93637783386285"><ele>40.0</ele><time>2026-04-09T07:34:39.001Z</time></trkpt><trkpt lat="14.3693797786501" lon="120.93645186229364"><ele>40.0</ele><time>2026-04-09T07:34:40.001Z</time></trkpt><trkpt lat="14.36940813303998" lon="120.93652319104714"><ele>40.0</ele><time>2026-04-09T07:34:41.001Z</time></trkpt><trkpt lat="14.369436101538259" lon="120.93659492471984"><ele>40.0</ele><time>2026-04-09T07:34:42.001Z</time></trkpt><trkpt lat="14.369463825680647" lon="120.93666556745428"><ele>40.0</ele><time>2026-04-09T07:34:43.001Z</time></trkpt><trkpt lat="14.369491729755529" lon="120.93673792397715"><ele>40.0</ele><time>2026-04-09T07:34:44.001Z</time></trkpt><trkpt lat="14.369519580145003" lon="120.93680976736117"><ele>39.66666666666667</ele><time>2026-04-09T07:34:45.001Z</time></trkpt><trkpt lat="14.369547082628548" lon="120.93688450806117"><ele>39.333333333333336</ele><time>2026-04-09T07:34:46.001Z</time></trkpt><trkpt lat="14.369602041091005" lon="120.93702867661557"><ele>39.0</ele><time>2026-04-09T07:34:48.001Z</time></trkpt><trkpt lat="14.369629738216046" lon="120.93709929428616"><ele>38.666666666666664</ele><time>2026-04-09T07:34:49.001Z</time></trkpt><trkpt lat="14.36965807516846" lon="120.93716752916005"><ele>38.33333333333333</ele><time>2026-04-09T07:34:50.001Z</time></trkpt><trkpt lat="14.36968893680011" lon="120.93723171953131"><ele>38.0</ele><time>2026-04-09T07:34:51.001Z</time></trkpt><trkpt lat="14.36972452554259" lon="120.93728921446846"><ele>38.666666666666664</ele><time>2026-04-09T07:34:52.001Z</time></trkpt><trkpt lat="14.369807048856497" lon="120.93736554968704"><ele>39.33333333333333</ele><time>2026-04-09T07:34:54.001Z</time></trkpt><trkpt lat="14.369898784022123" lon="120.93742698721202"><ele>40.0</ele><time>2026-04-09T07:34:56.001Z</time></trkpt><trkpt lat="14.369954969717908" lon="120.9374591554099"><ele>40.666666666666664</ele><time>2026-04-09T07:34:57.001Z</time></trkpt><trkpt lat="14.370019297635707" lon="120.93749557443802"><ele>41.333333333333336</ele><time>2026-04-09T07:34:58.001Z</time></trkpt><trkpt lat="14.37009151241975" lon="120.93753938881291"><ele>42.0</ele><time>2026-04-09T07:34:59.001Z</time></trkpt><trkpt lat="14.370169431526111" lon="120.9375881428304"><ele>42.400000000000006</ele><time>2026-04-09T07:35:00.001Z</time></trkpt><trkpt lat="14.370252355667688" lon="120.93764095085096"><ele>42.800000000000004</ele><time>2026-04-09T07:35:01.001Z</time></trkpt><trkpt lat="14.370338211789024" lon="120.93769974242542"><ele>43.2</ele><time>2026-04-09T07:35:02.001Z</time></trkpt><trkpt lat="14.370426003469548" lon="120.93776493062539"><ele>43.6</ele><time>2026-04-09T07:35:03.001Z</time></trkpt><trkpt lat="14.370516904559446" lon="120.93783405579909"><ele>44.0</ele><time>2026-04-09T07:35:04.001Z</time></trkpt><trkpt lat="14.370611922827104" lon="120.93790920660335"><ele>42.666666666666664</ele><time>2026-04-09T07:35:05.001Z</time></trkpt><trkpt lat="14.370712526524025" lon="120.93798570788847"><ele>41.333333333333336</ele><time>2026-04-09T07:35:06.001Z</time></trkpt><trkpt lat="14.370813388309152" lon="120.93806301865982"><ele>40.0</ele><time>2026-04-09T07:35:07.001Z</time></trkpt><trkpt lat="14.37101805999991" lon="120.9382199372835"><ele>40.0</ele><time>2026-04-09T07:35:09.001Z</time></trkpt><trkpt lat="14.371120237407094" lon="120.93830172756904"><ele>40.0</ele><time>2026-04-09T07:35:10.001Z</time></trkpt><trkpt lat="14.371221092984445" lon="120.93838682455431"><ele>40.0</ele><time>2026-04-09T07:35:11.001Z</time></trkpt><trkpt lat="14.371319767187961" lon="120.93847463980023"><ele>40.0</ele><time>2026-04-09T07:35:12.001Z</time></trkpt><trkpt lat="14.371417097774518" lon="120.93856702245904"><ele>40.25</ele><time>2026-04-09T07:35:13.001Z</time></trkpt><trkpt lat="14.371510681218604" lon="120.93866437758479"><ele>40.5</ele><time>2026-04-09T07:35:14.001Z</time></trkpt><trkpt lat="14.371599800299803" lon="120.93876877653382"><ele>40.75</ele><time>2026-04-09T07:35:15.001Z</time></trkpt><trkpt lat="14.371684848987272" lon="120.93887930773289"><ele>41.0</ele><time>2026-04-09T07:35:16.001Z</time></trkpt><trkpt lat="14.371767668568888" lon="120.93899497245238"><ele>41.0</ele><time>2026-04-09T07:35:17.001Z</time></trkpt><trkpt lat="14.371852387568111" lon="120.93911541477235"><ele>41.0</ele><time>2026-04-09T07:35:18.001Z</time></trkpt><trkpt lat="14.371937489578173" lon="120.93923809040439"><ele>41.0</ele><time>2026-04-09T07:35:19.001Z</time></trkpt><trkpt lat="14.372023337727729" lon="120.93936626668558"><ele>41.0</ele><time>2026-04-09T07:35:20.001Z</time></trkpt><trkpt lat="14.372111816949046" lon="120.93950142282469"><ele>41.33333333333333</ele><time>2026-04-09T07:35:21.001Z</time></trkpt><trkpt lat="14.372203259489844" lon="120.93964093330223"><ele>41.666666666666664</ele><time>2026-04-09T07:35:22.001Z</time></trkpt><trkpt lat="14.372295145627902" lon="120.93977848192444"><ele>42.0</ele><time>2026-04-09T07:35:23.001Z</time></trkpt><trkpt lat="14.372385257723694" lon="120.93991200026396"><ele>42.0</ele><time>2026-04-09T07:35:24.001Z</time></trkpt><trkpt lat="14.372469172733153" lon="120.94004063540649"><ele>42.0</ele><time>2026-04-09T07:35:25.001Z</time></trkpt><trkpt lat="14.37254684908702" lon="120.94016292259292"><ele>42.0</ele><time>2026-04-09T07:35:26.001Z</time></trkpt><trkpt lat="14.372618315660512" lon="120.94028121770475"><ele>42.0</ele><time>2026-04-09T07:35:27.001Z</time></trkpt><trkpt lat="14.37268598354793" lon="120.9403972816345"><ele>42.0</ele><time>2026-04-09T07:35:28.001Z</time></trkpt><trkpt lat="14.37280011501631" lon="120.94060890584232"><ele>42.0</ele><time>2026-04-09T07:35:30.001Z</time></trkpt><trkpt lat="14.372847526569606" lon="120.94070201731053"><ele>42.0</ele><time>2026-04-09T07:35:31.001Z</time></trkpt><trkpt lat="14.372886260438097" lon="120.94078011866972"><ele>42.0</ele><time>2026-04-09T07:35:32.001Z</time></trkpt><trkpt lat="14.37292082279819" lon="120.94085183372792"><ele>42.0</ele><time>2026-04-09T07:35:33.001Z</time></trkpt><trkpt lat="14.37295140345911" lon="120.94091901528463"><ele>42.0</ele><time>2026-04-09T07:35:34.001Z</time></trkpt><trkpt lat="14.372978288424935" lon="120.9409848943372"><ele>42.0</ele><time>2026-04-09T07:35:35.001Z</time></trkpt><trkpt lat="14.373004246247866" lon="120.94105752759864"><ele>42.0</ele><time>2026-04-09T07:35:36.001Z</time></trkpt><trkpt lat="14.373027847304236" lon="120.94113298687157"><ele>42.0</ele><time>2026-04-09T07:35:37.001Z</time></trkpt><trkpt lat="14.373049427423275" lon="120.94121359552945"><ele>42.0</ele><time>2026-04-09T07:35:38.001Z</time></trkpt><trkpt lat="14.373070499056114" lon="120.94129454614885"><ele>42.0</ele><time>2026-04-09T07:35:39.001Z</time></trkpt><trkpt lat="14.373087576161696" lon="120.94138693809559"><ele>42.0</ele><time>2026-04-09T07:35:40.001Z</time></trkpt><trkpt lat="14.373099858666714" lon="120.94148175548706"><ele>42.0</ele><time>2026-04-09T07:35:41.001Z</time></trkpt><trkpt lat="14.373109828215291" lon="120.94158069475598"><ele>42.0</ele><time>2026-04-09T07:35:42.001Z</time></trkpt><trkpt lat="14.373115317207802" lon="120.9416834404915"><ele>42.0</ele><time>2026-04-09T07:35:43.001Z</time></trkpt><trkpt lat="14.37311803998464" lon="120.94179296788013"><ele>41.0</ele><time>2026-04-09T07:35:44.001Z</time></trkpt><trkpt lat="14.373119898609211" lon="120.94190553493158"><ele>40.0</ele><time>2026-04-09T07:35:45.001Z</time></trkpt><trkpt lat="14.373122178468137" lon="120.94202335352757"><ele>39.0</ele><time>2026-04-09T07:35:46.001Z</time></trkpt><trkpt lat="14.373123319871658" lon="120.9421444176518"><ele>38.0</ele><time>2026-04-09T07:35:47.001Z</time></trkpt><trkpt lat="14.373125341385947" lon="120.94226710999851"><ele>38.0</ele><time>2026-04-09T07:35:48.001Z</time></trkpt><trkpt lat="14.373124223064906" lon="120.94239312733002"><ele>38.0</ele><time>2026-04-09T07:35:49.001Z</time></trkpt><trkpt lat="14.373128764007085" lon="120.94264885564185"><ele>38.0</ele><time>2026-04-09T07:35:51.001Z</time></trkpt><trkpt lat="14.373135300313095" lon="120.94278154598004"><ele>38.5</ele><time>2026-04-09T07:35:52.001Z</time></trkpt><trkpt lat="14.37314850126332" lon="120.94292214819286"><ele>39.0</ele><time>2026-04-09T07:35:53.001Z</time></trkpt><trkpt lat="14.373168822577082" lon="120.94305898080545"><ele>39.5</ele><time>2026-04-09T07:35:54.001Z</time></trkpt><trkpt lat="14.373194887749857" lon="120.94319078187975"><ele>40.0</ele><time>2026-04-09T07:35:55.001Z</time></trkpt><trkpt lat="14.373235588584755" lon="120.94332170035838"><ele>40.25</ele><time>2026-04-09T07:35:56.001Z</time></trkpt><trkpt lat="14.373283778863863" lon="120.94345278370498"><ele>40.5</ele><time>2026-04-09T07:35:57.001Z</time></trkpt><trkpt lat="14.37334152799407" lon="120.94357888487808"><ele>40.75</ele><time>2026-04-09T07:35:58.001Z</time></trkpt><trkpt lat="14.3734079830459" lon="120.94370366337736"><ele>41.0</ele><time>2026-04-09T07:35:59.001Z</time></trkpt><trkpt lat="14.373476271096322" lon="120.94382148526324"><ele>41.0</ele><time>2026-04-09T07:36:00.001Z</time></trkpt><trkpt lat="14.373548521358686" lon="120.94393474625089"><ele>41.0</ele><time>2026-04-09T07:36:01.001Z</time></trkpt><trkpt lat="14.37362560859213" lon="120.94404664372175"><ele>41.0</ele><time>2026-04-09T07:36:02.001Z</time></trkpt><trkpt lat="14.373708822316102" lon="120.94415692231824"><ele>41.0</ele><time>2026-04-09T07:36:03.001Z</time></trkpt><trkpt lat="14.373795820472994" lon="120.94425942852607"><ele>41.0</ele><time>2026-04-09T07:36:04.001Z</time></trkpt><trkpt lat="14.373884382519535" lon="120.94436176413566"><ele>41.0</ele><time>2026-04-09T07:36:05.001Z</time></trkpt><trkpt lat="14.373974750297414" lon="120.94446648493958"><ele>41.0</ele><time>2026-04-09T07:36:06.001Z</time></trkpt><trkpt lat="14.374067359546189" lon="120.94457309064168"><ele>41.0</ele><time>2026-04-09T07:36:07.001Z</time></trkpt><trkpt lat="14.374162329314514" lon="120.94468224577548"><ele>41.0</ele><time>2026-04-09T07:36:08.001Z</time></trkpt><trkpt lat="14.374256967939854" lon="120.94479391507979"><ele>41.0</ele><time>2026-04-09T07:36:09.001Z</time></trkpt><trkpt lat="14.374355041236248" lon="120.94490955413747"><ele>41.0</ele><time>2026-04-09T07:36:10.001Z</time></trkpt><trkpt lat="14.374551717631165" lon="120.94514723169019"><ele>41.33333333333333</ele><time>2026-04-09T07:36:12.001Z</time></trkpt><trkpt lat="14.374648725227415" lon="120.94526773980373"><ele>41.666666666666664</ele><time>2026-04-09T07:36:13.001Z</time></trkpt><trkpt lat="14.3747448163492" lon="120.94538876580091"><ele>42.0</ele><time>2026-04-09T07:36:14.001Z</time></trkpt><trkpt lat="14.374840949099406" lon="120.94550570229413"><ele>42.0</ele><time>2026-04-09T07:36:15.001Z</time></trkpt><trkpt lat="14.374935587977827" lon="120.94562216344835"><ele>42.0</ele><time>2026-04-09T07:36:16.001Z</time></trkpt><trkpt lat="14.375025462378455" lon="120.94573824498556"><ele>42.0</ele><time>2026-04-09T07:36:17.001Z</time></trkpt><trkpt lat="14.375108292432506" lon="120.94585503602212"><ele>42.0</ele><time>2026-04-09T07:36:18.001Z</time></trkpt><trkpt lat="14.37517889925741" lon="120.94596355600837"><ele>41.6</ele><time>2026-04-09T07:36:19.001Z</time></trkpt><trkpt lat="14.375239337211523" lon="120.94606406644998"><ele>41.2</ele><time>2026-04-09T07:36:20.001Z</time></trkpt><trkpt lat="14.375292067293447" lon="120.94616181964057"><ele>40.8</ele><time>2026-04-09T07:36:21.001Z</time></trkpt><trkpt lat="14.3753440122685" lon="120.946261620907"><ele>40.4</ele><time>2026-04-09T07:36:22.001Z</time></trkpt><trkpt lat="14.375394078285622" lon="120.94636161346482"><ele>40.0</ele><time>2026-04-09T07:36:23.001Z</time></trkpt><trkpt lat="14.375442016589249" lon="120.946459353617"><ele>40.0</ele><time>2026-04-09T07:36:24.001Z</time></trkpt><trkpt lat="14.375488165408896" lon="120.94655702458677"><ele>40.0</ele><time>2026-04-09T07:36:25.001Z</time></trkpt><trkpt lat="14.375533387548446" lon="120.94665731528436"><ele>40.0</ele><time>2026-04-09T07:36:26.001Z</time></trkpt><trkpt lat="14.375575603721813" lon="120.94676121281275"><ele>40.0</ele><time>2026-04-09T07:36:27.001Z</time></trkpt><trkpt lat="14.375616428788234" lon="120.94686452545415"><ele>40.0</ele><time>2026-04-09T07:36:28.001Z</time></trkpt><trkpt lat="14.375653182365744" lon="120.94696579897912"><ele>39.5</ele><time>2026-04-09T07:36:29.001Z</time></trkpt><trkpt lat="14.375688647016934" lon="120.94706459387658"><ele>39.0</ele><time>2026-04-09T07:36:30.001Z</time></trkpt><trkpt lat="14.375722887470676" lon="120.94715913183978"><ele>38.5</ele><time>2026-04-09T07:36:31.001Z</time></trkpt><trkpt lat="14.375791620971677" lon="120.94734888485526"><ele>38.0</ele><time>2026-04-09T07:36:33.001Z</time></trkpt><trkpt lat="14.375825524603881" lon="120.94744227422956"><ele>38.0</ele><time>2026-04-09T07:36:34.001Z</time></trkpt><trkpt lat="14.375857520221727" lon="120.94753439348024"><ele>38.0</ele><time>2026-04-09T07:36:35.001Z</time></trkpt><trkpt lat="14.37588976648221" lon="120.94762393467116"><ele>38.0</ele><time>2026-04-09T07:36:36.001Z</time></trkpt><trkpt lat="14.375921735230909" lon="120.94771211185675"><ele>38.0</ele><time>2026-04-09T07:36:37.001Z</time></trkpt><trkpt lat="14.375953373056824" lon="120.94780222960964"><ele>38.0</ele><time>2026-04-09T07:36:38.001Z</time></trkpt><trkpt lat="14.375985139751112" lon="120.94789168758858"><ele>37.6</ele><time>2026-04-09T07:36:39.001Z</time></trkpt><trkpt lat="14.376016272743025" lon="120.94798121681876"><ele>37.199999999999996</ele><time>2026-04-09T07:36:40.001Z</time></trkpt><trkpt lat="14.37604922764262" lon="120.9480730422095"><ele>36.8</ele><time>2026-04-09T07:36:41.001Z</time></trkpt><trkpt lat="14.376082169053648" lon="120.94816428996336"><ele>36.4</ele><time>2026-04-09T07:36:42.001Z</time></trkpt><trkpt lat="14.376116487361683" lon="120.9482580504802"><ele>36.0</ele><time>2026-04-09T07:36:43.001Z</time></trkpt><trkpt lat="14.376151043466601" lon="120.94835362630641"><ele>36.6</ele><time>2026-04-09T07:36:44.001Z</time></trkpt><trkpt lat="14.37618584988462" lon="120.94845208286202"><ele>37.2</ele><time>2026-04-09T07:36:45.001Z</time></trkpt><trkpt lat="14.376221973146507" lon="120.94855354303296"><ele>37.8</ele><time>2026-04-09T07:36:46.001Z</time></trkpt><trkpt lat="14.37625871053173" lon="120.94865685355278"><ele>38.4</ele><time>2026-04-09T07:36:47.001Z</time></trkpt><trkpt lat="14.376297514141799" lon="120.9487632495335"><ele>39.0</ele><time>2026-04-09T07:36:48.001Z</time></trkpt><trkpt lat="14.376338725775671" lon="120.94887137027735"><ele>39.0</ele><time>2026-04-09T07:36:49.001Z</time></trkpt><trkpt lat="14.376382137115398" lon="120.94898209201394"><ele>39.0</ele><time>2026-04-09T07:36:50.001Z</time></trkpt><trkpt lat="14.376427908325104" lon="120.94909815972825"><ele>39.0</ele><time>2026-04-09T07:36:51.001Z</time></trkpt><trkpt lat="14.37647485179116" lon="120.94921699787713"><ele>39.0</ele><time>2026-04-09T07:36:52.001Z</time></trkpt><trkpt lat="14.37657234413755" lon="120.94946586584034"><ele>39.0</ele><time>2026-04-09T07:36:54.001Z</time></trkpt><trkpt lat="14.376623520692227" lon="120.94959668687551"><ele>39.0</ele><time>2026-04-09T07:36:55.001Z</time></trkpt><trkpt lat="14.37667480760674" lon="120.9497308486193"><ele>39.0</ele><time>2026-04-09T07:36:56.001Z</time></trkpt><trkpt lat="14.376724238047636" lon="120.94986649204127"><ele>39.0</ele><time>2026-04-09T07:36:57.001Z</time></trkpt><trkpt lat="14.376772470382459" lon="120.95000227469569"><ele>39.75</ele><time>2026-04-09T07:36:58.001Z</time></trkpt><trkpt lat="14.376819487595855" lon="120.95013596280208"><ele>40.5</ele><time>2026-04-09T07:36:59.001Z</time></trkpt><trkpt lat="14.376864663067868" lon="120.95026716033856"><ele>41.25</ele><time>2026-04-09T07:37:00.001Z</time></trkpt><trkpt lat="14.376906568195446" lon="120.9503894764158"><ele>42.0</ele><time>2026-04-09T07:37:01.001Z</time></trkpt><trkpt lat="14.376943899075325" lon="120.95050172613321"><ele>42.0</ele><time>2026-04-09T07:37:02.001Z</time></trkpt><trkpt lat="14.376978993765567" lon="120.95059951893789"><ele>42.0</ele><time>2026-04-09T07:37:03.001Z</time></trkpt><trkpt lat="14.37701259618339" lon="120.9506962924752"><ele>42.0</ele><time>2026-04-09T07:37:04.001Z</time></trkpt><trkpt lat="14.377048262966442" lon="120.95079832452015"><ele>42.0</ele><time>2026-04-09T07:37:05.001Z</time></trkpt><trkpt lat="14.377085763463937" lon="120.95090785212837"><ele>42.0</ele><time>2026-04-09T07:37:06.001Z</time></trkpt><trkpt lat="14.377126502486018" lon="120.95102074475183"><ele>42.25</ele><time>2026-04-09T07:37:07.001Z</time></trkpt><trkpt lat="14.377168825523473" lon="120.9511372914674"><ele>42.5</ele><time>2026-04-09T07:37:08.001Z</time></trkpt><trkpt lat="14.377212395435732" lon="120.95125807500393"><ele>42.75</ele><time>2026-04-09T07:37:09.001Z</time></trkpt><trkpt lat="14.377256996250784" lon="120.95138285904748"><ele>43.0</ele><time>2026-04-09T07:37:10.001Z</time></trkpt><trkpt lat="14.377303611171316" lon="120.95150866114346"><ele>43.0</ele><time>2026-04-09T07:37:11.001Z</time></trkpt><trkpt lat="14.377353323064423" lon="120.9516396233309"><ele>43.0</ele><time>2026-04-09T07:37:12.001Z</time></trkpt><trkpt lat="14.377403215340905" lon="120.95177305890394"><ele>43.0</ele><time>2026-04-09T07:37:13.001Z</time></trkpt><trkpt lat="14.377498039291318" lon="120.95204258336662"><ele>42.25</ele><time>2026-04-09T07:37:15.001Z</time></trkpt><trkpt lat="14.37754313592098" lon="120.95217260961584"><ele>41.5</ele><time>2026-04-09T07:37:16.001Z</time></trkpt><trkpt lat="14.377587964438737" lon="120.95229848419109"><ele>40.75</ele><time>2026-04-09T07:37:17.001Z</time></trkpt><trkpt lat="14.377632295319877" lon="120.95241723821374"><ele>40.0</ele><time>2026-04-09T07:37:18.001Z</time></trkpt><trkpt lat="14.377671760070799" lon="120.95252726099105"><ele>41.0</ele><time>2026-04-09T07:37:19.001Z</time></trkpt><trkpt lat="14.377708857147784" lon="120.9526298989837"><ele>42.0</ele><time>2026-04-09T07:37:20.001Z</time></trkpt><trkpt lat="14.377744906340423" lon="120.95272913846202"><ele>43.0</ele><time>2026-04-09T07:37:21.001Z</time></trkpt><trkpt lat="14.377781606690027" lon="120.95282734746282"><ele>44.0</ele><time>2026-04-09T07:37:22.001Z</time></trkpt><trkpt lat="14.377819477846838" lon="120.95292384781872"><ele>45.0</ele><time>2026-04-09T07:37:23.001Z</time></trkpt><trkpt lat="14.377859122397961" lon="120.95301716599108"><ele>45.0</ele><time>2026-04-09T07:37:24.001Z</time></trkpt><trkpt lat="14.377900926309911" lon="120.9531092718964"><ele>45.0</ele><time>2026-04-09T07:37:25.001Z</time></trkpt><trkpt lat="14.377949243861782" lon="120.95320140242416"><ele>45.0</ele><time>2026-04-09T07:37:26.001Z</time></trkpt><trkpt lat="14.378005239754303" lon="120.95329391287947"><ele>45.0</ele><time>2026-04-09T07:37:27.001Z</time></trkpt><trkpt lat="14.378066053628963" lon="120.95338958564278"><ele>45.0</ele><time>2026-04-09T07:37:28.001Z</time></trkpt><trkpt lat="14.37813065537269" lon="120.95348650935607"><ele>44.75</ele><time>2026-04-09T07:37:29.001Z</time></trkpt><trkpt lat="14.378197902769765" lon="120.95358416275448"><ele>44.5</ele><time>2026-04-09T07:37:30.001Z</time></trkpt><trkpt lat="14.378265526962407" lon="120.95367953832158"><ele>44.25</ele><time>2026-04-09T07:37:31.001Z</time></trkpt><trkpt lat="14.378335128585293" lon="120.95377516237902"><ele>44.0</ele><time>2026-04-09T07:37:32.001Z</time></trkpt><trkpt lat="14.378404958359596" lon="120.95386680099469"><ele>44.0</ele><time>2026-04-09T07:37:33.001Z</time></trkpt><trkpt lat="14.378476820338301" lon="120.95395536964982"><ele>44.0</ele><time>2026-04-09T07:37:34.001Z</time></trkpt><trkpt lat="14.378628453240273" lon="120.95413467251872"><ele>44.0</ele><time>2026-04-09T07:37:36.001Z</time></trkpt><trkpt lat="14.378707627278878" lon="120.9542256681262"><ele>44.0</ele><time>2026-04-09T07:37:37.001Z</time></trkpt><trkpt lat="14.378787269421876" lon="120.95431738173292"><ele>44.0</ele><time>2026-04-09T07:37:38.001Z</time></trkpt><trkpt lat="14.37887027766084" lon="120.95440907033871"><ele>44.0</ele><time>2026-04-09T07:37:39.001Z</time></trkpt><trkpt lat="14.378956957317557" lon="120.954501343331"><ele>44.0</ele><time>2026-04-09T07:37:40.001Z</time></trkpt><trkpt lat="14.37904717826552" lon="120.95459742192004"><ele>43.75</ele><time>2026-04-09T07:37:41.001Z</time></trkpt><trkpt lat="14.37913754166292" lon="120.95469569109903"><ele>43.5</ele><time>2026-04-09T07:37:42.001Z</time></trkpt><trkpt lat="14.379226736847448" lon="120.95479639534591"><ele>43.25</ele><time>2026-04-09T07:37:43.001Z</time></trkpt><trkpt lat="14.379315330052101" lon="120.95489785748063"><ele>43.0</ele><time>2026-04-09T07:37:44.001Z</time></trkpt><trkpt lat="14.379403955343479" lon="120.95499795061558"><ele>43.25</ele><time>2026-04-09T07:37:45.001Z</time></trkpt><trkpt lat="14.37948952628814" lon="120.95509679684717"><ele>43.5</ele><time>2026-04-09T07:37:46.001Z</time></trkpt><trkpt lat="14.379572588637089" lon="120.95519343768125"><ele>43.75</ele><time>2026-04-09T07:37:47.001Z</time></trkpt><trkpt lat="14.379653531057516" lon="120.95528898625014"><ele>44.0</ele><time>2026-04-09T07:37:48.001Z</time></trkpt><trkpt lat="14.379731053649152" lon="120.95538079080349"><ele>43.400000000000006</ele><time>2026-04-09T07:37:49.001Z</time></trkpt><trkpt lat="14.379806886290268" lon="120.9554685183594"><ele>42.8</ele><time>2026-04-09T07:37:50.001Z</time></trkpt><trkpt lat="14.379879804769661" lon="120.95555241985193"><ele>42.2</ele><time>2026-04-09T07:37:51.001Z</time></trkpt><trkpt lat="14.379950264349699" lon="120.95563261730179"><ele>41.599999999999994</ele><time>2026-04-09T07:37:52Z</time></trkpt><trkpt lat="14.380018965192933" lon="120.95571060378039"><ele>41.0</ele><time>2026-04-09T07:37:53Z</time></trkpt><trkpt lat="14.380083889433424" lon="120.95578316930576"><ele>41.0</ele><time>2026-04-09T07:37:54Z</time></trkpt><trkpt lat="14.380148485471384" lon="120.95585539369219"><ele>41.0</ele><time>2026-04-09T07:37:55Z</time></trkpt><trkpt lat="14.38027649441769" lon="120.95599788503418"><ele>41.0</ele><time>2026-04-09T07:37:57Z</time></trkpt><trkpt lat="14.38034152982868" lon="120.95607072783146"><ele>41.0</ele><time>2026-04-09T07:37:58Z</time></trkpt><trkpt lat="14.380407488086886" lon="120.95614546320304"><ele>41.0</ele><time>2026-04-09T07:37:59Z</time></trkpt><trkpt lat="14.380475086047872" lon="120.95622489630401"><ele>41.0</ele><time>2026-04-09T07:38:00Z</time></trkpt><trkpt lat="14.380543432904632" lon="120.9563042966367"><ele>41.0</ele><time>2026-04-09T07:38:01Z</time></trkpt><trkpt lat="14.380613213629845" lon="120.95638359910691"><ele>41.0</ele><time>2026-04-09T07:38:02Z</time></trkpt><trkpt lat="14.380685710870662" lon="120.9564635417084"><ele>41.0</ele><time>2026-04-09T07:38:03Z</time></trkpt><trkpt lat="14.380760181865245" lon="120.95654459364988"><ele>41.5</ele><time>2026-04-09T07:38:04Z</time></trkpt><trkpt lat="14.380833739177293" lon="120.95662621195827"><ele>42.0</ele><time>2026-04-09T07:38:05Z</time></trkpt><trkpt lat="14.38090962649864" lon="120.95671016587934"><ele>42.5</ele><time>2026-04-09T07:38:06Z</time></trkpt><trkpt lat="14.380988098700573" lon="120.9567973020844"><ele>43.0</ele><time>2026-04-09T07:38:07Z</time></trkpt><trkpt lat="14.381068288427999" lon="120.95688643914094"><ele>43.0</ele><time>2026-04-09T07:38:08Z</time></trkpt><trkpt lat="14.381146707993464" lon="120.95697507180469"><ele>43.0</ele><time>2026-04-09T07:38:09Z</time></trkpt><trkpt lat="14.381224953996396" lon="120.95706349388301"><ele>43.0</ele><time>2026-04-09T07:38:10Z</time></trkpt><trkpt lat="14.381306192150683" lon="120.9571511572835"><ele>43.0</ele><time>2026-04-09T07:38:11Z</time></trkpt><trkpt lat="14.38138904025959" lon="120.95723747671505"><ele>43.0</ele><time>2026-04-09T07:38:12Z</time></trkpt><trkpt lat="14.381470738642307" lon="120.95732025509784"><ele>43.0</ele><time>2026-04-09T07:38:13Z</time></trkpt><trkpt lat="14.38155694799283" lon="120.9574046321227"><ele>43.0</ele><time>2026-04-09T07:38:14Z</time></trkpt><trkpt lat="14.381645660293545" lon="120.95748632565181"><ele>43.0</ele><time>2026-04-09T07:38:15Z</time></trkpt><trkpt lat="14.381736788545489" lon="120.95756954245593"><ele>42.66666666666667</ele><time>2026-04-09T07:38:16Z</time></trkpt><trkpt lat="14.381923429363987" lon="120.95772931360122"><ele>42.333333333333336</ele><time>2026-04-09T07:38:18Z</time></trkpt><trkpt lat="14.382017014525022" lon="120.95780345346692"><ele>42.0</ele><time>2026-04-09T07:38:19Z</time></trkpt><trkpt lat="14.382110205267535" lon="120.95787281385529"><ele>41.8</ele><time>2026-04-09T07:38:20Z</time></trkpt><trkpt lat="14.382201811840469" lon="120.95794064315174"><ele>41.6</ele><time>2026-04-09T07:38:21Z</time></trkpt><trkpt lat="14.382293266796932" lon="120.95800575267705"><ele>41.4</ele><time>2026-04-09T07:38:22Z</time></trkpt><trkpt lat="14.382380901277935" lon="120.95806745217287"><ele>41.199999999999996</ele><time>2026-04-09T07:38:23Z</time></trkpt><trkpt lat="14.38245619784308" lon="120.95811594235707"><ele>41.0</ele><time>2026-04-09T07:38:24Z</time></trkpt><trkpt lat="14.382516188159785" lon="120.95815374930284"><ele>41.0</ele><time>2026-04-09T07:38:25Z</time></trkpt><trkpt lat="14.38260215935893" lon="120.95821096044645"><ele>41.0</ele><time>2026-04-09T07:38:27.001Z</time></trkpt><trkpt lat="14.382659144857913" lon="120.95824973644335"><ele>41.0</ele><time>2026-04-09T07:38:30.001Z</time></trkpt><trkpt lat="14.382759410390054" lon="120.95828471606656"><ele>41.0</ele><time>2026-04-09T07:39:14.001Z</time></trkpt><trkpt lat="14.38286739698933" lon="120.9583768372787"><ele>41.0</ele><time>2026-04-09T07:39:16.001Z</time></trkpt><trkpt lat="14.38294339068996" lon="120.95843280230682"><ele>41.4</ele><time>2026-04-09T07:39:17.001Z</time></trkpt><trkpt lat="14.383031284990908" lon="120.95849195977517"><ele>41.8</ele><time>2026-04-09T07:39:18.001Z</time></trkpt><trkpt lat="14.383120666608692" lon="120.95855607805073"><ele>42.199999999999996</ele><time>2026-04-09T07:39:19.001Z</time></trkpt><trkpt lat="14.38321538032851" lon="120.95861932179989"><ele>42.599999999999994</ele><time>2026-04-09T07:39:20.001Z</time></trkpt><trkpt lat="14.383316163147136" lon="120.95868968679594"><ele>43.0</ele><time>2026-04-09T07:39:21.001Z</time></trkpt><trkpt lat="14.383419775159272" lon="120.95876219424322"><ele>43.0</ele><time>2026-04-09T07:39:22.001Z</time></trkpt><trkpt lat="14.383525030449762" lon="120.95883528285485"><ele>43.0</ele><time>2026-04-09T07:39:23.001Z</time></trkpt><trkpt lat="14.383631234974052" lon="120.95890826383192"><ele>43.0</ele><time>2026-04-09T07:39:24.001Z</time></trkpt><trkpt lat="14.383743163459322" lon="120.95899111282385"><ele>43.0</ele><time>2026-04-09T07:39:25.001Z</time></trkpt><trkpt lat="14.383859424620093" lon="120.95907348205904"><ele>43.0</ele><time>2026-04-09T07:39:26.001Z</time></trkpt><trkpt lat="14.383979048152451" lon="120.95915838756946"><ele>43.0</ele><time>2026-04-09T07:39:27.001Z</time></trkpt><trkpt lat="14.384100475795744" lon="120.95924196445247"><ele>43.0</ele><time>2026-04-09T07:39:28.001Z</time></trkpt><trkpt lat="14.384225233603908" lon="120.9593293383111"><ele>43.0</ele><time>2026-04-09T07:39:29.001Z</time></trkpt><trkpt lat="14.384353144435357" lon="120.95941861410887"><ele>43.0</ele><time>2026-04-09T07:39:30.001Z</time></trkpt><trkpt lat="14.384490497878796" lon="120.95949317335932"><ele>43.0</ele><time>2026-04-09T07:39:31.001Z</time></trkpt><trkpt lat="14.384604915093062" lon="120.95959100219208"><ele>43.0</ele><time>2026-04-09T07:39:32.001Z</time></trkpt><trkpt lat="14.384727000076179" lon="120.95967829516161"><ele>43.0</ele><time>2026-04-09T07:39:33.001Z</time></trkpt><trkpt lat="14.384843496618243" lon="120.95976249552515"><ele>43.0</ele><time>2026-04-09T07:39:34.001Z</time></trkpt><trkpt lat="14.384957730642729" lon="120.95984134960702"><ele>43.0</ele><time>2026-04-09T07:39:35.001Z</time></trkpt><trkpt lat="14.385194087158219" lon="120.95999094408376"><ele>43.0</ele><time>2026-04-09T07:39:37.001Z</time></trkpt><trkpt lat="14.385317088307382" lon="120.96007102317034"><ele>43.0</ele><time>2026-04-09T07:39:38.001Z</time></trkpt><trkpt lat="14.385444127851516" lon="120.96015445568942"><ele>43.0</ele><time>2026-04-09T07:39:39.001Z</time></trkpt><trkpt lat="14.38556697731273" lon="120.96023932791073"><ele>43.0</ele><time>2026-04-09T07:39:40.001Z</time></trkpt><trkpt lat="14.385676389304349" lon="120.9603288518901"><ele>42.75</ele><time>2026-04-09T07:39:41.001Z</time></trkpt><trkpt lat="14.385782651646101" lon="120.9604189862992"><ele>42.5</ele><time>2026-04-09T07:39:42.001Z</time></trkpt><trkpt lat="14.385883297835008" lon="120.96050956161747"><ele>42.25</ele><time>2026-04-09T07:39:43.001Z</time></trkpt><trkpt lat="14.38598413263957" lon="120.96059949800971"><ele>42.0</ele><time>2026-04-09T07:39:44.001Z</time></trkpt><trkpt lat="14.386082208770896" lon="120.96069437857359"><ele>42.0</ele><time>2026-04-09T07:39:45.001Z</time></trkpt><trkpt lat="14.386177396075253" lon="120.9607968906606"><ele>42.0</ele><time>2026-04-09T07:39:46.001Z</time></trkpt><trkpt lat="14.3862693594291" lon="120.96090193274678"><ele>42.0</ele><time>2026-04-09T07:39:47.001Z</time></trkpt><trkpt lat="14.386348507679042" lon="120.96100856416788"><ele>42.0</ele><time>2026-04-09T07:39:48.001Z</time></trkpt><trkpt lat="14.386416660452573" lon="120.96112385961288"><ele>41.0</ele><time>2026-04-09T07:39:49.001Z</time></trkpt><trkpt lat="14.386482405149428" lon="120.96123923785831"><ele>40.0</ele><time>2026-04-09T07:39:50.001Z</time></trkpt><trkpt lat="14.386545497432166" lon="120.96135028237087"><ele>39.0</ele><time>2026-04-09T07:39:51.001Z</time></trkpt><trkpt lat="14.386605370492296" lon="120.96146218896595"><ele>38.0</ele><time>2026-04-09T07:39:52Z</time></trkpt><trkpt lat="14.386664462425035" lon="120.96156947312359"><ele>38.0</ele><time>2026-04-09T07:39:53Z</time></trkpt><trkpt lat="14.386715891748313" lon="120.96166202694937"><ele>38.0</ele><time>2026-04-09T07:39:54Z</time></trkpt><trkpt lat="14.38675216636459" lon="120.96173144578437"><ele>38.0</ele><time>2026-04-09T07:39:55Z</time></trkpt><trkpt lat="14.386787562795389" lon="120.96180645865705"><ele>38.0</ele><time>2026-04-09T07:39:57Z</time></trkpt><trkpt lat="14.386945686103852" lon="120.9621268760323"><ele>38.5</ele><time>2026-04-09T07:40:50Z</time></trkpt><trkpt lat="14.386970252217909" lon="120.9621880545992"><ele>39.0</ele><time>2026-04-09T07:40:51Z</time></trkpt><trkpt lat="14.386995660135163" lon="120.96225343470499"><ele>39.5</ele><time>2026-04-09T07:40:52Z</time></trkpt><trkpt lat="14.387029199113744" lon="120.96233103344983"><ele>40.0</ele><time>2026-04-09T07:40:53Z</time></trkpt><trkpt lat="14.38706779956644" lon="120.96241599564868"><ele>40.5</ele><time>2026-04-09T07:40:54Z</time></trkpt><trkpt lat="14.38710362761544" lon="120.96249211117475"><ele>41.0</ele><time>2026-04-09T07:40:55Z</time></trkpt><trkpt lat="14.387139105170979" lon="120.96257103123986"><ele>41.0</ele><time>2026-04-09T07:40:56Z</time></trkpt><trkpt lat="14.387176534089184" lon="120.96264785733044"><ele>41.0</ele><time>2026-04-09T07:40:57Z</time></trkpt><trkpt lat="14.387213119031715" lon="120.96272698991741"><ele>41.0</ele><time>2026-04-09T07:40:58Z</time></trkpt><trkpt lat="14.387242911421431" lon="120.96281168563114"><ele>41.0</ele><time>2026-04-09T07:40:59Z</time></trkpt><trkpt lat="14.387285248356687" lon="120.96288499262106"><ele>41.0</ele><time>2026-04-09T07:41:00Z</time></trkpt><trkpt lat="14.38732460910411" lon="120.96296690685764"><ele>41.0</ele><time>2026-04-09T07:41:01Z</time></trkpt><trkpt lat="14.387363575553191" lon="120.96305191768084"><ele>41.0</ele><time>2026-04-09T07:41:02Z</time></trkpt><trkpt lat="14.387403301534116" lon="120.9631263700339"><ele>41.0</ele><time>2026-04-09T07:41:03Z</time></trkpt><trkpt lat="14.387444605856807" lon="120.96321813306898"><ele>41.0</ele><time>2026-04-09T07:41:04Z</time></trkpt><trkpt lat="14.387485185797935" lon="120.96329816505302"><ele>41.0</ele><time>2026-04-09T07:41:05Z</time></trkpt><trkpt lat="14.387526201629518" lon="120.9633913476605"><ele>41.0</ele><time>2026-04-09T07:41:06.001Z</time></trkpt><trkpt lat="14.387575553978506" lon="120.96348147304856"><ele>41.25</ele><time>2026-04-09T07:41:07.001Z</time></trkpt><trkpt lat="14.387671380198826" lon="120.96368319199395"><ele>41.5</ele><time>2026-04-09T07:41:09.001Z</time></trkpt><trkpt lat="14.387722600040236" lon="120.96378387152674"><ele>41.75</ele><time>2026-04-09T07:41:10.001Z</time></trkpt><trkpt lat="14.387765119797953" lon="120.96388857792229"><ele>42.0</ele><time>2026-04-09T07:41:11.001Z</time></trkpt><trkpt lat="14.387805840462795" lon="120.96398945908834"><ele>42.0</ele><time>2026-04-09T07:41:12.001Z</time></trkpt><trkpt lat="14.38785062294815" lon="120.96407950650614"><ele>42.0</ele><time>2026-04-09T07:41:13.001Z</time></trkpt><trkpt lat="14.387901367433383" lon="120.96419144872318"><ele>42.0</ele><time>2026-04-09T07:41:14.001Z</time></trkpt><trkpt lat="14.387954645407737" lon="120.96430765714535"><ele>42.0</ele><time>2026-04-09T07:41:15.001Z</time></trkpt><trkpt lat="14.3880143341769" lon="120.96442989811749"><ele>42.25</ele><time>2026-04-09T07:41:16.001Z</time></trkpt><trkpt lat="14.388063674202327" lon="120.96454041425363"><ele>42.5</ele><time>2026-04-09T07:41:17.001Z</time></trkpt><trkpt lat="14.388109164919102" lon="120.9646525279675"><ele>42.75</ele><time>2026-04-09T07:41:18.001Z</time></trkpt><trkpt lat="14.38815012352232" lon="120.96476763966594"><ele>43.0</ele><time>2026-04-09T07:41:19.001Z</time></trkpt><trkpt lat="14.388189729016867" lon="120.96488547892653"><ele>43.0</ele><time>2026-04-09T07:41:20.001Z</time></trkpt><trkpt lat="14.388227948512778" lon="120.96500421520055"><ele>43.0</ele><time>2026-04-09T07:41:21.001Z</time></trkpt><trkpt lat="14.388261338281776" lon="120.96512641858769"><ele>43.0</ele><time>2026-04-09T07:41:22.001Z</time></trkpt><trkpt lat="14.388305199575578" lon="120.96525720148341"><ele>43.0</ele><time>2026-04-09T07:41:23.001Z</time></trkpt><trkpt lat="14.388341345949176" lon="120.96539180514185"><ele>43.25</ele><time>2026-04-09T07:41:24.001Z</time></trkpt><trkpt lat="14.388373549691044" lon="120.96552393688782"><ele>43.5</ele><time>2026-04-09T07:41:25.001Z</time></trkpt><trkpt lat="14.388407118916625" lon="120.96565650412998"><ele>43.75</ele><time>2026-04-09T07:41:26.001Z</time></trkpt><trkpt lat="14.388437333307321" lon="120.965786769663"><ele>44.0</ele><time>2026-04-09T07:41:27.001Z</time></trkpt><trkpt lat="14.388469069088417" lon="120.96591311535076"><ele>44.33333333333333</ele><time>2026-04-09T07:41:28.001Z</time></trkpt><trkpt lat="14.388531112154718" lon="120.96616490774439"><ele>44.666666666666664</ele><time>2026-04-09T07:41:30.001Z</time></trkpt><trkpt lat="14.388561321274466" lon="120.96628944613396"><ele>45.0</ele><time>2026-04-09T07:41:31.001Z</time></trkpt><trkpt lat="14.388588529811068" lon="120.96641667329132"><ele>45.0</ele><time>2026-04-09T07:41:32.001Z</time></trkpt><trkpt lat="14.388620508782546" lon="120.96654219269726"><ele>45.0</ele><time>2026-04-09T07:41:33.001Z</time></trkpt><trkpt lat="14.388651277928034" lon="120.9666682537205"><ele>45.0</ele><time>2026-04-09T07:41:34.001Z</time></trkpt><trkpt lat="14.388678321844447" lon="120.96679521101828"><ele>45.0</ele><time>2026-04-09T07:41:35.001Z</time></trkpt><trkpt lat="14.388707869521108" lon="120.96692330568433"><ele>45.25</ele><time>2026-04-09T07:41:36.001Z</time></trkpt><trkpt lat="14.388732894763907" lon="120.96705180383454"><ele>45.5</ele><time>2026-04-09T07:41:37.001Z</time></trkpt><trkpt lat="14.388749238910213" lon="120.96717991474699"><ele>45.75</ele><time>2026-04-09T07:41:38.001Z</time></trkpt><trkpt lat="14.388763275779512" lon="120.96730734155256"><ele>46.0</ele><time>2026-04-09T07:41:39.001Z</time></trkpt><trkpt lat="14.388770340948753" lon="120.96743354157084"><ele>45.75</ele><time>2026-04-09T07:41:40.001Z</time></trkpt><trkpt lat="14.388769559213925" lon="120.9675581388138"><ele>45.5</ele><time>2026-04-09T07:41:41.001Z</time></trkpt><trkpt lat="14.388770426552796" lon="120.9676828786089"><ele>45.25</ele><time>2026-04-09T07:41:42.001Z</time></trkpt><trkpt lat="14.388766690402882" lon="120.96781053230733"><ele>45.0</ele><time>2026-04-09T07:41:43.001Z</time></trkpt><trkpt lat="14.388763308265602" lon="120.96793754952002"><ele>45.0</ele><time>2026-04-09T07:41:44.001Z</time></trkpt><trkpt lat="14.388760456605086" lon="120.96806465428367"><ele>45.0</ele><time>2026-04-09T07:41:45.001Z</time></trkpt><trkpt lat="14.388752866385703" lon="120.96819072728334"><ele>45.0</ele><time>2026-04-09T07:41:46.001Z</time></trkpt><trkpt lat="14.38873759511584" lon="120.96831510678642"><ele>45.0</ele><time>2026-04-09T07:41:47.001Z</time></trkpt><trkpt lat="14.38872709399193" lon="120.9684386031178"><ele>44.333333333333336</ele><time>2026-04-09T07:41:48.001Z</time></trkpt><trkpt lat="14.38870851644674" lon="120.96856815455111"><ele>43.66666666666667</ele><time>2026-04-09T07:41:49.001Z</time></trkpt><trkpt lat="14.388650287225385" lon="120.96882021824167"><ele>43.0</ele><time>2026-04-09T07:41:51.001Z</time></trkpt><trkpt lat="14.388616498377742" lon="120.96894713753665"><ele>43.0</ele><time>2026-04-09T07:41:52.001Z</time></trkpt><trkpt lat="14.38857587676828" lon="120.96907311484253"><ele>43.0</ele><time>2026-04-09T07:41:53.001Z</time></trkpt><trkpt lat="14.388535989248552" lon="120.96919986322683"><ele>43.0</ele><time>2026-04-09T07:41:54.001Z</time></trkpt><trkpt lat="14.388498308847499" lon="120.96932642848166"><ele>43.0</ele><time>2026-04-09T07:41:55.001Z</time></trkpt><trkpt lat="14.388461132259385" lon="120.96945133069634"><ele>43.5</ele><time>2026-04-09T07:41:56.001Z</time></trkpt><trkpt lat="14.38842522725412" lon="120.9695758526546"><ele>44.0</ele><time>2026-04-09T07:41:57.001Z</time></trkpt><trkpt lat="14.388385901856836" lon="120.96969831179821"><ele>44.5</ele><time>2026-04-09T07:41:58Z</time></trkpt><trkpt lat="14.388343472934027" lon="120.96981644215398"><ele>45.0</ele><time>2026-04-09T07:41:59Z</time></trkpt><trkpt lat="14.388294918198852" lon="120.96993104173474"><ele>45.0</ele><time>2026-04-09T07:42:00Z</time></trkpt><trkpt lat="14.38823868851713" lon="120.97003595431796"><ele>45.0</ele><time>2026-04-09T07:42:01Z</time></trkpt><trkpt lat="14.388177678741455" lon="120.97013374306428"><ele>45.0</ele><time>2026-04-09T07:42:02Z</time></trkpt><trkpt lat="14.388112957858086" lon="120.97022331085499"><ele>45.0</ele><time>2026-04-09T07:42:03Z</time></trkpt><trkpt lat="14.388047055795585" lon="120.97030988194172"><ele>45.0</ele><time>2026-04-09T07:42:04Z</time></trkpt><trkpt lat="14.387984839740648" lon="120.97039461191085"><ele>45.0</ele><time>2026-04-09T07:42:05Z</time></trkpt><trkpt lat="14.38792862998305" lon="120.97048378709653"><ele>45.0</ele><time>2026-04-09T07:42:06Z</time></trkpt><trkpt lat="14.38787933337197" lon="120.97057515446248"><ele>45.0</ele><time>2026-04-09T07:42:07Z</time></trkpt><trkpt lat="14.387834723028371" lon="120.9706691966109"><ele>45.0</ele><time>2026-04-09T07:42:08Z</time></trkpt><trkpt lat="14.387793442475338" lon="120.97076458938126"><ele>45.0</ele><time>2026-04-09T07:42:09Z</time></trkpt><trkpt lat="14.38775488474068" lon="120.97085688576298"><ele>42.0</ele><time>2026-04-09T07:42:10Z</time></trkpt><trkpt lat="14.387469265336668" lon="120.9718853393817"><ele>42.0</ele><time>2026-04-09T07:42:20Z</time></trkpt><trkpt lat="14.387401502522986" lon="120.97210467861694"><ele>42.0</ele><time>2026-04-09T07:42:22Z</time></trkpt><trkpt lat="14.387369929249159" lon="120.97221349406472"><ele>42.0</ele><time>2026-04-09T07:42:23Z</time></trkpt><trkpt lat="14.387340736883315" lon="120.97232073117644"><ele>42.0</ele><time>2026-04-09T07:42:24Z</time></trkpt><trkpt lat="14.387312195710184" lon="120.9724275383525"><ele>42.0</ele><time>2026-04-09T07:42:25Z</time></trkpt><trkpt lat="14.387285268078918" lon="120.97253356305973"><ele>44.0</ele><time>2026-04-09T07:42:26Z</time></trkpt><trkpt lat="14.387256734627124" lon="120.97264026943944"><ele>44.0</ele><time>2026-04-09T07:42:27Z</time></trkpt><trkpt lat="14.387229748731441" lon="120.97275098718305"><ele>44.0</ele><time>2026-04-09T07:42:28Z</time></trkpt></trkseg><trkseg><trkpt lat="14.453850097556055" lon="121.0448585193274"><ele>31.0</ele><time>2026-04-09T10:35:16.971Z</time></trkpt><trkpt lat="14.453948305268256" lon="121.0448279482577"><ele>31.0</ele><time>2026-04-09T10:35:17.971Z</time></trkpt><trkpt lat="14.454071222484298" lon="121.04479038822271"><ele>31.0</ele><time>2026-04-09T10:35:19.971Z</time></trkpt><trkpt lat="14.454201704709947" lon="121.04473813742007"><ele>31.0</ele><time>2026-04-09T10:35:21.879Z</time></trkpt><trkpt lat="14.454188962330367" lon="121.04466536129391"><ele>31.0</ele><time>2026-04-09T10:35:24Z</time></trkpt><trkpt lat="14.454151919527302" lon="121.04456758452463"><ele>31.000000000000004</ele><time>2026-04-09T10:35:26Z</time></trkpt><trkpt lat="14.454132947061355" lon="121.04447169179565"><ele>31.0</ele><time>2026-04-09T10:35:28Z</time></trkpt><trkpt lat="14.454150488094234" lon="121.04435290528086"><ele>31.0</ele><time>2026-04-09T10:35:30Z</time></trkpt><trkpt lat="14.454167199330058" lon="121.04428782787376"><ele>31.0</ele><time>2026-04-09T10:35:31Z</time></trkpt><trkpt lat="14.454178394984044" lon="121.04421868272925"><ele>31.000000000000004</ele><time>2026-04-09T10:35:32Z</time></trkpt><trkpt lat="14.454197386351643" lon="121.04414753392253"><ele>31.0</ele><time>2026-04-09T10:35:33Z</time></trkpt><trkpt lat="14.45421896175754" lon="121.04404323229757"><ele>31.6</ele><time>2026-04-09T10:35:34Z</time></trkpt><trkpt lat="14.454240259483411" lon="121.04396427188232"><ele>32.2</ele><time>2026-04-09T10:35:35Z</time></trkpt><trkpt lat="14.454281783102438" lon="121.0438915342824"><ele>32.8</ele><time>2026-04-09T10:35:36Z</time></trkpt><trkpt lat="14.454318515246317" lon="121.04379369478941"><ele>33.4</ele><time>2026-04-09T10:35:37Z</time></trkpt><trkpt lat="14.45433467191525" lon="121.04369514278608"><ele>34.0</ele><time>2026-04-09T10:35:38Z</time></trkpt><trkpt lat="14.454363526426455" lon="121.04360426100172"><ele>34.0</ele><time>2026-04-09T10:35:39Z</time></trkpt><trkpt lat="14.454396455949642" lon="121.04351287674618"><ele>34.0</ele><time>2026-04-09T10:35:40Z</time></trkpt><trkpt lat="14.45442860043205" lon="121.04340884367664"><ele>34.0</ele><time>2026-04-09T10:35:41Z</time></trkpt><trkpt lat="14.454458871981954" lon="121.04330898459679"><ele>34.0</ele><time>2026-04-09T10:35:42Z</time></trkpt><trkpt lat="14.454492161269783" lon="121.04321694157446"><ele>34.0</ele><time>2026-04-09T10:35:43Z</time></trkpt><trkpt lat="14.454523414918304" lon="121.04311498191682"><ele>34.333333333333336</ele><time>2026-04-09T10:35:44Z</time></trkpt><trkpt lat="14.454550320571812" lon="121.04302745281773"><ele>34.66666666666667</ele><time>2026-04-09T10:35:45Z</time></trkpt><trkpt lat="14.454571448767688" lon="121.04294114612553"><ele>35.0</ele><time>2026-04-09T10:35:46Z</time></trkpt><trkpt lat="14.454593146034496" lon="121.04285028661212"><ele>35.333333333333336</ele><time>2026-04-09T10:35:47Z</time></trkpt><trkpt lat="14.454616999814123" lon="121.04278193741627"><ele>35.666666666666664</ele><time>2026-04-09T10:35:48Z</time></trkpt><trkpt lat="14.45465234147517" lon="121.04269745031343"><ele>36.0</ele><time>2026-04-09T10:35:49Z</time></trkpt><trkpt lat="14.454690040583861" lon="121.0426079933698"><ele>36.0</ele><time>2026-04-09T10:35:50Z</time></trkpt><trkpt lat="14.454731420623283" lon="121.04250589359843"><ele>36.0</ele><time>2026-04-09T10:35:51Z</time></trkpt><trkpt lat="14.4547653737645" lon="121.04240018672131"><ele>36.0</ele><time>2026-04-09T10:35:52Z</time></trkpt><trkpt lat="14.454795345740111" lon="121.04230154818792"><ele>36.0</ele><time>2026-04-09T10:35:53Z</time></trkpt><trkpt lat="14.454829018568221" lon="121.04220132228734"><ele>36.0</ele><time>2026-04-09T10:35:54Z</time></trkpt><trkpt lat="14.454854192988433" lon="121.04210412047667"><ele>36.166666666666664</ele><time>2026-04-09T10:35:55Z</time></trkpt><trkpt lat="14.454885807038478" lon="121.0420182698734"><ele>36.333333333333336</ele><time>2026-04-09T10:35:56Z</time></trkpt><trkpt lat="14.4549134489276" lon="121.04193272655742"><ele>36.5</ele><time>2026-04-09T10:35:57.001Z</time></trkpt><trkpt lat="14.454939384930583" lon="121.04185266401282"><ele>36.66666666666667</ele><time>2026-04-09T10:35:58.001Z</time></trkpt><trkpt lat="14.454971007643723" lon="121.04177789209244"><ele>36.833333333333336</ele><time>2026-04-09T10:35:59.001Z</time></trkpt><trkpt lat="14.454997930976145" lon="121.04170457522044"><ele>37.0</ele><time>2026-04-09T10:36:00.001Z</time></trkpt><trkpt lat="14.455013574965626" lon="121.04162708409692"><ele>37.142857142857146</ele><time>2026-04-09T10:36:01.001Z</time></trkpt><trkpt lat="14.455022225741894" lon="121.04154678509451"><ele>37.285714285714285</ele><time>2026-04-09T10:36:02.001Z</time></trkpt><trkpt lat="14.455041561710896" lon="121.04147961718913"><ele>37.42857142857143</ele><time>2026-04-09T10:36:03.001Z</time></trkpt><trkpt lat="14.455054709921587" lon="121.04140726162285"><ele>37.57142857142857</ele><time>2026-04-09T10:36:04.001Z</time></trkpt><trkpt lat="14.45506384763671" lon="121.04132925598083"><ele>37.714285714285715</ele><time>2026-04-09T10:36:05.001Z</time></trkpt><trkpt lat="14.45507387339069" lon="121.0412519242666"><ele>37.857142857142854</ele><time>2026-04-09T10:36:06.001Z</time></trkpt><trkpt lat="14.45508714433447" lon="121.04117770952867"><ele>38.0</ele><time>2026-04-09T10:36:07.001Z</time></trkpt><trkpt lat="14.45510317166489" lon="121.04111292551352"><ele>38.0</ele><time>2026-04-09T10:36:08.001Z</time></trkpt><trkpt lat="14.455114533782824" lon="121.04104111742531"><ele>38.0</ele><time>2026-04-09T10:36:09.001Z</time></trkpt><trkpt lat="14.4551424025417" lon="121.0409650670324"><ele>38.0</ele><time>2026-04-09T10:36:10.001Z</time></trkpt><trkpt lat="14.455166077180108" lon="121.04089948519653"><ele>38.0</ele><time>2026-04-09T10:36:11.001Z</time></trkpt><trkpt lat="14.455183562484438" lon="121.04082125056851"><ele>38.0</ele><time>2026-04-09T10:36:12.001Z</time></trkpt><trkpt lat="14.455202755500318" lon="121.04074912123397"><ele>38.0</ele><time>2026-04-09T10:36:13.001Z</time></trkpt><trkpt lat="14.455221081289872" lon="121.04068565769944"><ele>38.0</ele><time>2026-04-09T10:36:14.001Z</time></trkpt><trkpt lat="14.45526235509562" lon="121.04057457144131"><ele>38.0</ele><time>2026-04-09T10:36:16.001Z</time></trkpt><trkpt lat="14.455282077521087" lon="121.04051043975502"><ele>38.0</ele><time>2026-04-09T10:36:17.001Z</time></trkpt><trkpt lat="14.455302114494417" lon="121.04044204873021"><ele>38.0</ele><time>2026-04-09T10:36:18.001Z</time></trkpt><trkpt lat="14.455322001400209" lon="121.04037434671098"><ele>38.0</ele><time>2026-04-09T10:36:19.001Z</time></trkpt><trkpt lat="14.455342858428539" lon="121.04030151454647"><ele>38.0</ele><time>2026-04-09T10:36:20.001Z</time></trkpt><trkpt lat="14.455363328355118" lon="121.04022990518254"><ele>38.0</ele><time>2026-04-09T10:36:21.001Z</time></trkpt><trkpt lat="14.45537959546712" lon="121.04015575819112"><ele>38.0</ele><time>2026-04-09T10:36:22.001Z</time></trkpt><trkpt lat="14.455401618668564" lon="121.04008290815675"><ele>38.0</ele><time>2026-04-09T10:36:23.001Z</time></trkpt><trkpt lat="14.455420337973038" lon="121.03999981937277"><ele>38.0</ele><time>2026-04-09T10:36:24.001Z</time></trkpt><trkpt lat="14.455444622914278" lon="121.0399137790923"><ele>38.0</ele><time>2026-04-09T10:36:25.001Z</time></trkpt><trkpt lat="14.455470707393893" lon="121.03983076127108"><ele>38.0</ele><time>2026-04-09T10:36:26.001Z</time></trkpt><trkpt lat="14.45549444086771" lon="121.03974121593878"><ele>38.0</ele><time>2026-04-09T10:36:27.001Z</time></trkpt><trkpt lat="14.455510873745832" lon="121.03964988708206"><ele>38.0</ele><time>2026-04-09T10:36:28.001Z</time></trkpt><trkpt lat="14.455543019963189" lon="121.03956161345108"><ele>38.0</ele><time>2026-04-09T10:36:29.001Z</time></trkpt><trkpt lat="14.455564670831253" lon="121.0394738896461"><ele>38.0</ele><time>2026-04-09T10:36:30.001Z</time></trkpt><trkpt lat="14.45558824628104" lon="121.03939093974078"><ele>38.0</ele><time>2026-04-09T10:36:31.001Z</time></trkpt><trkpt lat="14.455592398752017" lon="121.03930330811423"><ele>38.0</ele><time>2026-04-09T10:36:32.001Z</time></trkpt><trkpt lat="14.455612471370245" lon="121.03922046661576"><ele>38.0</ele><time>2026-04-09T10:36:33.001Z</time></trkpt><trkpt lat="14.455631209951878" lon="121.03914313073837"><ele>38.0</ele><time>2026-04-09T10:36:34.001Z</time></trkpt><trkpt lat="14.455650161908975" lon="121.0390659947741"><ele>37.666666666666664</ele><time>2026-04-09T10:36:35.001Z</time></trkpt><trkpt lat="14.455667774753175" lon="121.03899392046505"><ele>37.33333333333333</ele><time>2026-04-09T10:36:36.001Z</time></trkpt><trkpt lat="14.455685863905245" lon="121.03891987294429"><ele>37.0</ele><time>2026-04-09T10:36:37.001Z</time></trkpt><trkpt lat="14.455704859716617" lon="121.0388410352278"><ele>36.666666666666664</ele><time>2026-04-09T10:36:38.001Z</time></trkpt><trkpt lat="14.455723614798567" lon="121.03876319660563"><ele>36.333333333333336</ele><time>2026-04-09T10:36:39.001Z</time></trkpt><trkpt lat="14.455742933946809" lon="121.03868353925913"><ele>36.0</ele><time>2026-04-09T10:36:40.001Z</time></trkpt><trkpt lat="14.455763295461958" lon="121.03860371448376"><ele>36.0</ele><time>2026-04-09T10:36:41.001Z</time></trkpt><trkpt lat="14.455782819385323" lon="121.0385222233292"><ele>36.0</ele><time>2026-04-09T10:36:42.001Z</time></trkpt><trkpt lat="14.455802314083668" lon="121.03844480943032"><ele>36.0</ele><time>2026-04-09T10:36:43.001Z</time></trkpt><trkpt lat="14.455824039475782" lon="121.03836124116415"><ele>36.0</ele><time>2026-04-09T10:36:44.001Z</time></trkpt><trkpt lat="14.455845392331224" lon="121.0382798740885"><ele>36.0</ele><time>2026-04-09T10:36:45.001Z</time></trkpt><trkpt lat="14.455867489887714" lon="121.03819566927359"><ele>36.0</ele><time>2026-04-09T10:36:46.001Z</time></trkpt><trkpt lat="14.455887911526515" lon="121.03811701838524"><ele>36.00000000000001</ele><time>2026-04-09T10:36:47.001Z</time></trkpt><trkpt lat="14.455905791696367" lon="121.0380478439762"><ele>36.0</ele><time>2026-04-09T10:36:48.001Z</time></trkpt><trkpt lat="14.455926262991277" lon="121.03796864507724"><ele>36.0</ele><time>2026-04-09T10:36:49.001Z</time></trkpt><trkpt lat="14.455947171144478" lon="121.03788775608213"><ele>36.0</ele><time>2026-04-09T10:36:50.001Z</time></trkpt><trkpt lat="14.455967322030627" lon="121.03780979671883"><ele>36.0</ele><time>2026-04-09T10:36:51.001Z</time></trkpt><trkpt lat="14.455988700743088" lon="121.0377373915272"><ele>36.00000000000001</ele><time>2026-04-09T10:36:52.001Z</time></trkpt><trkpt lat="14.456007696789953" lon="121.03767023517945"><ele>36.0</ele><time>2026-04-09T10:36:53.001Z</time></trkpt><trkpt lat="14.456027044347698" lon="121.03760174539981"><ele>36.0</ele><time>2026-04-09T10:36:54.001Z</time></trkpt><trkpt lat="14.456046823350281" lon="121.03753172834045"><ele>36.0</ele><time>2026-04-09T10:36:55.001Z</time></trkpt><trkpt lat="14.45606578223304" lon="121.03746461442284"><ele>36.0</ele><time>2026-04-09T10:36:56.001Z</time></trkpt><trkpt lat="14.456087537951992" lon="121.03739493295238"><ele>36.0</ele><time>2026-04-09T10:36:57.001Z</time></trkpt><trkpt lat="14.456106997846392" lon="121.03732571006056"><ele>36.0</ele><time>2026-04-09T10:36:58.001Z</time></trkpt><trkpt lat="14.456138231494135" lon="121.03720738258977"><ele>36.0</ele><time>2026-04-09T10:37:00.002Z</time></trkpt><trkpt lat="14.45616727355105" lon="121.0370973578831"><ele>36.25</ele><time>2026-04-09T10:37:02.002Z</time></trkpt><trkpt lat="14.456199739571172" lon="121.03698082798147"><ele>36.5</ele><time>2026-04-09T10:37:04.002Z</time></trkpt><trkpt lat="14.456231031952733" lon="121.03687256705261"><ele>36.75</ele><time>2026-04-09T10:37:06.002Z</time></trkpt><trkpt lat="14.45627493574691" lon="121.03676347500625"><ele>37.0</ele><time>2026-04-09T10:37:08.002Z</time></trkpt><trkpt lat="14.456302126170893" lon="121.03664568272949"><ele>36.833333333333336</ele><time>2026-04-09T10:37:10.002Z</time></trkpt><trkpt lat="14.45632140859737" lon="121.03658150097408"><ele>36.66666666666667</ele><time>2026-04-09T10:37:11.002Z</time></trkpt><trkpt lat="14.456336002913064" lon="121.03651629287211"><ele>36.5</ele><time>2026-04-09T10:37:12.002Z</time></trkpt><trkpt lat="14.456349589515133" lon="121.0364510447265"><ele>36.333333333333336</ele><time>2026-04-09T10:37:13.002Z</time></trkpt><trkpt lat="14.456367939538978" lon="121.03638765513291"><ele>36.166666666666664</ele><time>2026-04-09T10:37:14.002Z</time></trkpt><trkpt lat="14.456408154923611" lon="121.03626332743514"><ele>36.0</ele><time>2026-04-09T10:37:16.002Z</time></trkpt><trkpt lat="14.456426668747792" lon="121.0361968434227"><ele>36.0</ele><time>2026-04-09T10:37:17.002Z</time></trkpt><trkpt lat="14.45644885955469" lon="121.03613353797923"><ele>36.0</ele><time>2026-04-09T10:37:18.002Z</time></trkpt><trkpt lat="14.456468869039517" lon="121.0360712539187"><ele>36.0</ele><time>2026-04-09T10:37:19.002Z</time></trkpt><trkpt lat="14.456493274530354" lon="121.0360072930266"><ele>36.0</ele><time>2026-04-09T10:37:20.002Z</time></trkpt><trkpt lat="14.456518702573987" lon="121.03594424021037"><ele>36.0</ele><time>2026-04-09T10:37:21.002Z</time></trkpt><trkpt lat="14.456563635073072" lon="121.03583147120979"><ele>36.0</ele><time>2026-04-09T10:37:23.002Z</time></trkpt><trkpt lat="14.456590818979732" lon="121.03573108285946"><ele>36.0</ele><time>2026-04-09T10:37:25.002Z</time></trkpt><trkpt lat="14.456632201201609" lon="121.0356324399066"><ele>36.0</ele><time>2026-04-09T10:37:27Z</time></trkpt><trkpt lat="14.45668244884083" lon="121.03551266429997"><ele>36.0</ele><time>2026-04-09T10:37:29Z</time></trkpt><trkpt lat="14.456715157586041" lon="121.03545571429821"><ele>36.0</ele><time>2026-04-09T10:37:30Z</time></trkpt><trkpt lat="14.456758100722078" lon="121.03540278191929"><ele>36.0</ele><time>2026-04-09T10:37:31Z</time></trkpt><trkpt lat="14.456785148939925" lon="121.03534323143793"><ele>36.0</ele><time>2026-04-09T10:37:32Z</time></trkpt><trkpt lat="14.456818606598402" lon="121.03527816369082"><ele>36.0</ele><time>2026-04-09T10:37:33Z</time></trkpt><trkpt lat="14.456848857832428" lon="121.03521431729234"><ele>36.0</ele><time>2026-04-09T10:37:34Z</time></trkpt><trkpt lat="14.4569083401525" lon="121.03509480587581"><ele>36.0</ele><time>2026-04-09T10:37:36Z</time></trkpt><trkpt lat="14.456940054057647" lon="121.03503200913588"><ele>36.0</ele><time>2026-04-09T10:37:37Z</time></trkpt><trkpt lat="14.456975983273697" lon="121.0349706675233"><ele>36.0</ele><time>2026-04-09T10:37:38Z</time></trkpt><trkpt lat="14.45700868287605" lon="121.03491318639527"><ele>36.0</ele><time>2026-04-09T10:37:39Z</time></trkpt><trkpt lat="14.457069300428842" lon="121.03480955833106"><ele>35.6</ele><time>2026-04-09T10:37:41Z</time></trkpt><trkpt lat="14.457118595829655" lon="121.03471668395355"><ele>35.2</ele><time>2026-04-09T10:37:43Z</time></trkpt><trkpt lat="14.457172975700676" lon="121.03462807501344"><ele>34.8</ele><time>2026-04-09T10:37:45Z</time></trkpt><trkpt lat="14.45722431480137" lon="121.03453892136382"><ele>34.4</ele><time>2026-04-09T10:37:47Z</time></trkpt><trkpt lat="14.457277159972353" lon="121.03444801388407"><ele>34.0</ele><time>2026-04-09T10:37:49Z</time></trkpt><trkpt lat="14.457327019197482" lon="121.03436364000663"><ele>33.833333333333336</ele><time>2026-04-09T10:37:51Z</time></trkpt><trkpt lat="14.457366824353299" lon="121.03428832513754"><ele>33.66666666666667</ele><time>2026-04-09T10:37:53Z</time></trkpt><trkpt lat="14.45740634740043" lon="121.03422578972958"><ele>33.5</ele><time>2026-04-09T10:37:56Z</time></trkpt><trkpt lat="14.457438056889263" lon="121.03416479042255"><ele>33.333333333333336</ele><time>2026-04-09T10:38:00.001Z</time></trkpt><trkpt lat="14.457480525038338" lon="121.0340865144307"><ele>33.166666666666664</ele><time>2026-04-09T10:38:02.001Z</time></trkpt><trkpt lat="14.457521035531558" lon="121.03399656145432"><ele>33.0</ele><time>2026-04-09T10:38:04.001Z</time></trkpt><trkpt lat="14.457582448936849" lon="121.03389018128945"><ele>33.0</ele><time>2026-04-09T10:38:06.001Z</time></trkpt><trkpt lat="14.457605280970721" lon="121.03382658188659"><ele>33.0</ele><time>2026-04-09T10:38:07.001Z</time></trkpt><trkpt lat="14.45764038637005" lon="121.03376690714296"><ele>33.0</ele><time>2026-04-09T10:38:08.001Z</time></trkpt><trkpt lat="14.457674312177382" lon="121.03370870335156"><ele>33.0</ele><time>2026-04-09T10:38:09.001Z</time></trkpt><trkpt lat="14.457705302552348" lon="121.03364780961782"><ele>33.0</ele><time>2026-04-09T10:38:10.001Z</time></trkpt><trkpt lat="14.45775752884394" lon="121.03355143191114"><ele>33.0</ele><time>2026-04-09T10:38:12.001Z</time></trkpt><trkpt lat="14.457793162273736" lon="121.03349291122815"><ele>33.0</ele><time>2026-04-09T10:38:14.001Z</time></trkpt><trkpt lat="14.457848857174282" lon="121.03343309605472"><ele>33.0</ele><time>2026-04-09T10:38:19.001Z</time></trkpt><trkpt lat="14.457892094072992" lon="121.0333556582829"><ele>33.0</ele><time>2026-04-09T10:38:22.001Z</time></trkpt><trkpt lat="14.457938509582148" lon="121.03331015366592"><ele>33.0</ele><time>2026-04-09T10:38:24.001Z</time></trkpt><trkpt lat="14.457970354995027" lon="121.0332270239469"><ele>33.0</ele><time>2026-04-09T10:38:26.001Z</time></trkpt><trkpt lat="14.458022694102583" lon="121.03313466903087"><ele>33.0</ele><time>2026-04-09T10:38:27.001Z</time></trkpt><trkpt lat="14.458058897815857" lon="121.033070212466"><ele>33.0</ele><time>2026-04-09T10:38:31.001Z</time></trkpt><trkpt lat="14.458112919384746" lon="121.03297709981817"><ele>33.199999999999996</ele><time>2026-04-09T10:38:33.001Z</time></trkpt><trkpt lat="14.458177678872358" lon="121.03286139141308"><ele>33.4</ele><time>2026-04-09T10:38:35.001Z</time></trkpt><trkpt lat="14.458224973372406" lon="121.03277612690026"><ele>33.599999999999994</ele><time>2026-04-09T10:38:36.001Z</time></trkpt><trkpt lat="14.458269693957886" lon="121.03269550276784"><ele>33.8</ele><time>2026-04-09T10:38:37.001Z</time></trkpt><trkpt lat="14.458339926888765" lon="121.03259699071877"><ele>34.0</ele><time>2026-04-09T10:38:39.001Z</time></trkpt><trkpt lat="14.4583754054579" lon="121.03250785586059"><ele>34.0</ele><time>2026-04-09T10:38:41.001Z</time></trkpt><trkpt lat="14.458400299836608" lon="121.0324409929878"><ele>34.0</ele><time>2026-04-09T10:38:43.001Z</time></trkpt><trkpt lat="14.458419305390047" lon="121.03236549184092"><ele>34.0</ele><time>2026-04-09T10:38:47.001Z</time></trkpt><trkpt lat="14.45853582520259" lon="121.03225366754602"><ele>34.0</ele><time>2026-04-09T10:39:49Z</time></trkpt><trkpt lat="14.458549395099496" lon="121.03218522213031"><ele>34.0</ele><time>2026-04-09T10:40:05.001Z</time></trkpt><trkpt lat="14.458606875595585" lon="121.0320758320149"><ele>34.0</ele><time>2026-04-09T10:40:06.001Z</time></trkpt><trkpt lat="14.458601197212532" lon="121.03200637800923"><ele>34.0</ele><time>2026-04-09T10:41:38.002Z</time></trkpt><trkpt lat="14.45859782126311" lon="121.03192649837263"><ele>34.0</ele><time>2026-04-09T10:41:43.001Z</time></trkpt><trkpt lat="14.458559680653353" lon="121.03183111051017"><ele>34.0</ele><time>2026-04-09T10:41:45.001Z</time></trkpt><trkpt lat="14.458516931290873" lon="121.03177064846088"><ele>34.0</ele><time>2026-04-09T10:41:47.001Z</time></trkpt><trkpt lat="14.458434443574857" lon="121.03172256274688"><ele>34.0</ele><time>2026-04-09T10:41:49.001Z</time></trkpt><trkpt lat="14.458372086491112" lon="121.03167657696049"><ele>33.4</ele><time>2026-04-09T10:41:51.001Z</time></trkpt><trkpt lat="14.458305436223723" lon="121.03160751400699"><ele>32.8</ele><time>2026-04-09T10:41:54.001Z</time></trkpt><trkpt lat="14.458211211633646" lon="121.03157095434698"><ele>32.2</ele><time>2026-04-09T10:41:57.001Z</time></trkpt><trkpt lat="14.45814379528259" lon="121.03153949949245"><ele>31.6</ele><time>2026-04-09T10:41:58.001Z</time></trkpt><trkpt lat="14.458057488338714" lon="121.0314749579772"><ele>31.0</ele><time>2026-04-09T10:42:00.001Z</time></trkpt><trkpt lat="14.457985630404774" lon="121.03144247287658"><ele>31.000000000000004</ele><time>2026-04-09T10:42:02.001Z</time></trkpt><trkpt lat="14.457906676536982" lon="121.03137988804245"><ele>31.0</ele><time>2026-04-09T10:42:04.001Z</time></trkpt><trkpt lat="14.457845899892046" lon="121.03134768631979"><ele>31.0</ele><time>2026-04-09T10:42:06.001Z</time></trkpt><trkpt lat="14.457789008687245" lon="121.03131481869056"><ele>31.0</ele><time>2026-04-09T10:42:08.001Z</time></trkpt><trkpt lat="14.457725225272005" lon="121.03128375641364"><ele>31.000000000000004</ele><time>2026-04-09T10:42:10.001Z</time></trkpt><trkpt lat="14.45766368443026" lon="121.03125440738471"><ele>31.0</ele><time>2026-04-09T10:42:12.001Z</time></trkpt><trkpt lat="14.457581168710606" lon="121.03121101808581"><ele>31.000000000000004</ele><time>2026-04-09T10:42:15.001Z</time></trkpt><trkpt lat="14.457525037447645" lon="121.03116026031928"><ele>31.0</ele><time>2026-04-09T10:42:17.001Z</time></trkpt><trkpt lat="14.457466889896796" lon="121.03111658996828"><ele>31.0</ele><time>2026-04-09T10:42:19.001Z</time></trkpt><trkpt lat="14.4573970564175" lon="121.03107850425005"><ele>31.0</ele><time>2026-04-09T10:42:21.001Z</time></trkpt><trkpt lat="14.457328902748248" lon="121.03105413774321"><ele>31.000000000000004</ele><time>2026-04-09T10:42:24.001Z</time></trkpt><trkpt lat="14.457367352424548" lon="121.03110775247744"><ele>31.0</ele><time>2026-04-09T10:58:58.001Z</time></trkpt><trkpt lat="14.45733977311845" lon="121.03101584157636"><ele>31.000000000000004</ele><time>2026-04-09T11:00:54.001Z</time></trkpt><trkpt lat="14.457375637547509" lon="121.03093472789114"><ele>31.0</ele><time>2026-04-09T11:00:55.001Z</time></trkpt><trkpt lat="14.457328806265693" lon="121.03098551267013"><ele>31.0</ele><time>2026-04-09T11:01:05.001Z</time></trkpt><trkpt lat="14.457303664909263" lon="121.03105017912745"><ele>31.0</ele><time>2026-04-09T11:01:08.001Z</time></trkpt><trkpt lat="14.457260106999781" lon="121.03117100288978"><ele>31.000000000000004</ele><time>2026-04-09T11:01:09.001Z</time></trkpt><trkpt lat="14.45722873805059" lon="121.0312578539202"><ele>31.0</ele><time>2026-04-09T11:01:11.001Z</time></trkpt><trkpt lat="14.457188997053727" lon="121.03132251803011"><ele>31.0</ele><time>2026-04-09T11:01:14.001Z</time></trkpt><trkpt lat="14.457290968182617" lon="121.03136124844109"><ele>31.0</ele><time>2026-04-09T11:01:22.001Z</time></trkpt><trkpt lat="14.457301791307247" lon="121.03128501001912"><ele>31.0</ele><time>2026-04-09T11:01:24.001Z</time></trkpt><trkpt lat="14.457328858573677" lon="121.0312260769935"><ele>31.0</ele><time>2026-04-09T11:01:40.001Z</time></trkpt><trkpt lat="14.457390789697923" lon="121.03114915403907"><ele>31.0</ele><time>2026-04-09T11:03:19.001Z</time></trkpt><trkpt lat="14.457329753066432" lon="121.0310521422347"><ele>31.0</ele><time>2026-04-09T11:04:43.001Z</time></trkpt><trkpt lat="14.45732583957744" lon="121.03084411905006"><ele>31.0</ele><time>2026-04-09T11:09:50.036Z</time></trkpt><trkpt lat="14.457378703238183" lon="121.03100792979302"><ele>31.0</ele><time>2026-04-09T11:12:19.021Z</time></trkpt><trkpt lat="14.45736807767358" lon="121.03108948620422"><ele>31.0</ele><time>2026-04-09T11:12:24Z</time></trkpt><trkpt lat="14.457378248939861" lon="121.03117253335648"><ele>31.0</ele><time>2026-04-09T11:12:27Z</time></trkpt><trkpt lat="14.45734162384318" lon="121.03111495487887"><ele>31.000000000000004</ele><time>2026-04-09T11:31:19Z</time></trkpt><trkpt lat="14.45735463017423" lon="121.03102930668334"><ele>31.0</ele><time>2026-04-09T11:31:23Z</time></trkpt><trkpt lat="14.457368591899245" lon="121.03095995186315"><ele>31.0</ele><time>2026-04-09T11:31:26Z</time></trkpt><trkpt lat="14.457385246080936" lon="121.03088705056688"><ele>31.000000000000004</ele><time>2026-04-09T11:31:31Z</time></trkpt><trkpt lat="14.457399514011998" lon="121.03082251553262"><ele>31.0</ele><time>2026-04-09T11:31:35Z</time></trkpt><trkpt lat="14.457408617266273" lon="121.03074983554411"><ele>31.0</ele><time>2026-04-09T11:31:40Z</time></trkpt><trkpt lat="14.457416910372471" lon="121.03066748257031"><ele>31.0</ele><time>2026-04-09T11:31:46Z</time></trkpt><trkpt lat="14.45745473470964" lon="121.03060176585288"><ele>31.0</ele><time>2026-04-09T11:31:51Z</time></trkpt><trkpt lat="14.457447454576956" lon="121.03083951994851"><ele>31.0</ele><time>2026-04-09T11:32:13Z</time></trkpt><trkpt lat="14.457409028735215" lon="121.03090033266007"><ele>31.0</ele><time>2026-04-09T11:33:12Z</time></trkpt><trkpt lat="14.457400577544364" lon="121.03097530313975"><ele>31.0</ele><time>2026-04-09T11:33:16Z</time></trkpt><trkpt lat="14.45738635448331" lon="121.03104655010354"><ele>31.0</ele><time>2026-04-09T11:33:19Z</time></trkpt><trkpt lat="14.457377370675772" lon="121.03122970346583"><ele>31.0</ele><time>2026-04-09T11:33:26Z</time></trkpt><trkpt lat="14.457363757445787" lon="121.03130274895929"><ele>31.0</ele><time>2026-04-09T11:33:29Z</time></trkpt><trkpt lat="14.457314624668726" lon="121.0312255869783"><ele>31.0</ele><time>2026-04-09T11:36:02.04Z</time></trkpt><trkpt lat="14.45728681791206" lon="121.03116618600971"><ele>31.0</ele><time>2026-04-09T11:36:05.04Z</time></trkpt><trkpt lat="14.457292390267936" lon="121.0310698677624"><ele>31.0</ele><time>2026-04-09T11:36:06.044Z</time></trkpt><trkpt lat="14.457267990333294" lon="121.03093434388671"><ele>31.0</ele><time>2026-04-09T11:37:24.03Z</time></trkpt><trkpt lat="14.457323482842064" lon="121.03089765450942"><ele>31.0</ele><time>2026-04-09T11:37:26.029Z</time></trkpt><trkpt lat="14.457352351336825" lon="121.03100647672552"><ele>31.0</ele><time>2026-04-09T11:37:47.014Z</time></trkpt><trkpt lat="14.457283243235379" lon="121.03105099357984"><ele>31.0</ele><time>2026-04-09T11:37:48.014Z</time></trkpt><trkpt lat="14.457357241710405" lon="121.03102963554953"><ele>31.0</ele><time>2026-04-09T11:38:52.019Z</time></trkpt><trkpt lat="14.457418974732022" lon="121.03094382358374"><ele>31.0</ele><time>2026-04-09T11:38:53.019Z</time></trkpt><trkpt lat="14.457327270807108" lon="121.03093298274986"><ele>31.0</ele><time>2026-04-09T11:46:09.998Z</time></trkpt><trkpt lat="14.457342478564472" lon="121.03108056005296"><ele>31.0</ele><time>2026-04-09T11:46:11.998Z</time></trkpt><trkpt lat="14.457371111339855" lon="121.03116616140603"><ele>31.0</ele><time>2026-04-09T11:47:37Z</time></trkpt><trkpt lat="14.457445242419388" lon="121.03121227673346"><ele>31.0</ele><time>2026-04-09T11:47:41Z</time></trkpt><trkpt lat="14.457503460490367" lon="121.03127266368955"><ele>31.0</ele><time>2026-04-09T11:47:43Z</time></trkpt><trkpt lat="14.457578303741121" lon="121.03130274469412"><ele>31.0</ele><time>2026-04-09T11:47:45Z</time></trkpt><trkpt lat="14.457660693027659" lon="121.03134891052208"><ele>31.0</ele><time>2026-04-09T11:47:47Z</time></trkpt><trkpt lat="14.45773108450144" lon="121.03138511607263"><ele>31.0</ele><time>2026-04-09T11:47:49Z</time></trkpt><trkpt lat="14.45787397882565" lon="121.03146547912478"><ele>31.0</ele><time>2026-04-09T11:47:53Z</time></trkpt><trkpt lat="14.457965883462656" lon="121.03155149017294"><ele>31.0</ele><time>2026-04-09T11:47:55Z</time></trkpt><trkpt lat="14.458018353115893" lon="121.03159097594744"><ele>31.0</ele><time>2026-04-09T11:47:56Z</time></trkpt><trkpt lat="14.45811901138237" lon="121.03165850669866"><ele>31.0</ele><time>2026-04-09T11:47:58Z</time></trkpt><trkpt lat="14.458183272973459" lon="121.03166589511987"><ele>31.0</ele><time>2026-04-09T11:47:59Z</time></trkpt><trkpt lat="14.458288184071504" lon="121.03172851254259"><ele>31.75</ele><time>2026-04-09T11:48:01Z</time></trkpt><trkpt lat="14.458347846022088" lon="121.03176376717686"><ele>32.5</ele><time>2026-04-09T11:48:02Z</time></trkpt><trkpt lat="14.458416891080459" lon="121.03180520080322"><ele>33.25</ele><time>2026-04-09T11:48:04Z</time></trkpt><trkpt lat="14.458471815045701" lon="121.03183816042217"><ele>34.0</ele><time>2026-04-09T11:48:06Z</time></trkpt><trkpt lat="14.458393883617461" lon="121.03207302210495"><ele>34.0</ele><time>2026-04-09T11:48:10Z</time></trkpt><trkpt lat="14.45834482226346" lon="121.03212806545037"><ele>34.0</ele><time>2026-04-09T11:48:11Z</time></trkpt><trkpt lat="14.458316754405239" lon="121.03220162189506"><ele>34.0</ele><time>2026-04-09T11:48:12Z</time></trkpt><trkpt lat="14.458276969830107" lon="121.03227029058529"><ele>34.0</ele><time>2026-04-09T11:48:13Z</time></trkpt><trkpt lat="14.458238353276473" lon="121.03233240388695"><ele>34.0</ele><time>2026-04-09T11:48:14Z</time></trkpt><trkpt lat="14.458205998787856" lon="121.03240775981808"><ele>34.0</ele><time>2026-04-09T11:48:15Z</time></trkpt><trkpt lat="14.458160239622728" lon="121.0324833953632"><ele>34.0</ele><time>2026-04-09T11:48:16Z</time></trkpt><trkpt lat="14.458113963848135" lon="121.03255945422569"><ele>34.0</ele><time>2026-04-09T11:48:17Z</time></trkpt><trkpt lat="14.45805077245572" lon="121.03266829959068"><ele>34.0</ele><time>2026-04-09T11:48:19Z</time></trkpt><trkpt lat="14.458023914729067" lon="121.03275237460484"><ele>34.0</ele><time>2026-04-09T11:48:20Z</time></trkpt><trkpt lat="14.45796951814758" lon="121.03284137926715"><ele>34.0</ele><time>2026-04-09T11:48:21Z</time></trkpt><trkpt lat="14.45792260816745" lon="121.03292678411206"><ele>33.8</ele><time>2026-04-09T11:48:22Z</time></trkpt><trkpt lat="14.457877376659091" lon="121.03300874215984"><ele>33.599999999999994</ele><time>2026-04-09T11:48:23Z</time></trkpt><trkpt lat="14.457846987401618" lon="121.03313639737536"><ele>33.4</ele><time>2026-04-09T11:48:25Z</time></trkpt><trkpt lat="14.457799290396926" lon="121.03320488892781"><ele>33.199999999999996</ele><time>2026-04-09T11:48:26Z</time></trkpt><trkpt lat="14.457754387061375" lon="121.03327384255091"><ele>33.0</ele><time>2026-04-09T11:48:27Z</time></trkpt><trkpt lat="14.457743310909684" lon="121.03335466336382"><ele>33.0</ele><time>2026-04-09T11:48:28Z</time></trkpt><trkpt lat="14.457709884737138" lon="121.03342833488253"><ele>33.0</ele><time>2026-04-09T11:48:29Z</time></trkpt><trkpt lat="14.457673828723058" lon="121.03348972542189"><ele>33.0</ele><time>2026-04-09T11:48:30Z</time></trkpt><trkpt lat="14.457642738839105" lon="121.03354632711827"><ele>33.0</ele><time>2026-04-09T11:48:31Z</time></trkpt><trkpt lat="14.45758611839802" lon="121.03362172367888"><ele>33.0</ele><time>2026-04-09T11:48:32Z</time></trkpt><trkpt lat="14.457554668135243" lon="121.03368186638991"><ele>33.0</ele><time>2026-04-09T11:48:33Z</time></trkpt><trkpt lat="14.457510142131765" lon="121.03380363195988"><ele>33.0</ele><time>2026-04-09T11:48:35Z</time></trkpt><trkpt lat="14.457473775291023" lon="121.03386226976954"><ele>33.0</ele><time>2026-04-09T11:48:36Z</time></trkpt><trkpt lat="14.457408167797535" lon="121.03393147049582"><ele>33.0</ele><time>2026-04-09T11:48:37Z</time></trkpt><trkpt lat="14.457320654926537" lon="121.03402345297346"><ele>33.0</ele><time>2026-04-09T11:48:38Z</time></trkpt><trkpt lat="14.457261425478395" lon="121.03409346519915"><ele>33.0</ele><time>2026-04-09T11:48:39Z</time></trkpt><trkpt lat="14.457212278890179" lon="121.03417587415561"><ele>32.8</ele><time>2026-04-09T11:48:40Z</time></trkpt><trkpt lat="14.457157773174373" lon="121.03425717242844"><ele>32.599999999999994</ele><time>2026-04-09T11:48:41Z</time></trkpt><trkpt lat="14.457123470609934" lon="121.03436612917223"><ele>32.400000000000006</ele><time>2026-04-09T11:48:42Z</time></trkpt><trkpt lat="14.457071181073484" lon="121.03445955720356"><ele>32.2</ele><time>2026-04-09T11:48:43Z</time></trkpt><trkpt lat="14.457009832352611" lon="121.03456766329977"><ele>32.0</ele><time>2026-04-09T11:48:44Z</time></trkpt><trkpt lat="14.456962654948551" lon="121.03465093267633"><ele>32.4</ele><time>2026-04-09T11:48:45Z</time></trkpt><trkpt lat="14.456913399741705" lon="121.03473786960794"><ele>32.800000000000004</ele><time>2026-04-09T11:48:46Z</time></trkpt><trkpt lat="14.456864215579238" lon="121.03482468110076"><ele>33.2</ele><time>2026-04-09T11:48:47Z</time></trkpt><trkpt lat="14.456803753913675" lon="121.03491156623477"><ele>33.6</ele><time>2026-04-09T11:48:48Z</time></trkpt><trkpt lat="14.456760219474626" lon="121.03499306787052"><ele>34.0</ele><time>2026-04-09T11:48:49Z</time></trkpt><trkpt lat="14.456724516835068" lon="121.03507196343445"><ele>34.333333333333336</ele><time>2026-04-09T11:48:50Z</time></trkpt><trkpt lat="14.456683000606835" lon="121.0351454257523"><ele>34.66666666666667</ele><time>2026-04-09T11:48:51Z</time></trkpt><trkpt lat="14.456642078135655" lon="121.03521775240384"><ele>35.0</ele><time>2026-04-09T11:48:52Z</time></trkpt><trkpt lat="14.456605619157653" lon="121.03527858761784"><ele>35.333333333333336</ele><time>2026-04-09T11:48:53Z</time></trkpt><trkpt lat="14.456571710109834" lon="121.03535117282561"><ele>35.666666666666664</ele><time>2026-04-09T11:48:54Z</time></trkpt><trkpt lat="14.45653700326377" lon="121.03542335221991"><ele>36.0</ele><time>2026-04-09T11:48:55Z</time></trkpt><trkpt lat="14.456506965785996" lon="121.03549902645238"><ele>36.0</ele><time>2026-04-09T11:48:56Z</time></trkpt><trkpt lat="14.456474959776498" lon="121.03557049442243"><ele>36.0</ele><time>2026-04-09T11:48:57Z</time></trkpt><trkpt lat="14.456442314299423" lon="121.03563712953392"><ele>36.0</ele><time>2026-04-09T11:48:58Z</time></trkpt><trkpt lat="14.456406794547679" lon="121.03570979146755"><ele>36.0</ele><time>2026-04-09T11:48:59Z</time></trkpt><trkpt lat="14.456377003824105" lon="121.03578348179306"><ele>36.0</ele><time>2026-04-09T11:49:00Z</time></trkpt><trkpt lat="14.456351836794344" lon="121.03585682593172"><ele>36.0</ele><time>2026-04-09T11:49:01Z</time></trkpt><trkpt lat="14.456321989905964" lon="121.03593490857499"><ele>36.0</ele><time>2026-04-09T11:49:02Z</time></trkpt><trkpt lat="14.45629341792027" lon="121.03601408696201"><ele>36.0</ele><time>2026-04-09T11:49:03Z</time></trkpt><trkpt lat="14.456262721316792" lon="121.03608554402244"><ele>36.0</ele><time>2026-04-09T11:49:04Z</time></trkpt><trkpt lat="14.456239230884353" lon="121.03616047989105"><ele>36.0</ele><time>2026-04-09T11:49:05Z</time></trkpt><trkpt lat="14.456213372256205" lon="121.03624016034286"><ele>36.0</ele><time>2026-04-09T11:49:06Z</time></trkpt><trkpt lat="14.456187010805946" lon="121.03632858041148"><ele>36.0</ele><time>2026-04-09T11:49:07Z</time></trkpt><trkpt lat="14.456162894812916" lon="121.03641370264292"><ele>36.166666666666664</ele><time>2026-04-09T11:49:08Z</time></trkpt><trkpt lat="14.456138060192414" lon="121.03649799147286"><ele>36.333333333333336</ele><time>2026-04-09T11:49:09Z</time></trkpt><trkpt lat="14.456112002614727" lon="121.03658118639767"><ele>36.5</ele><time>2026-04-09T11:49:10Z</time></trkpt><trkpt lat="14.45608705483715" lon="121.03667097268003"><ele>36.66666666666667</ele><time>2026-04-09T11:49:11Z</time></trkpt><trkpt lat="14.456064098041237" lon="121.03675710256188"><ele>36.833333333333336</ele><time>2026-04-09T11:49:12Z</time></trkpt><trkpt lat="14.456044119768984" lon="121.03684243573613"><ele>37.0</ele><time>2026-04-09T11:49:13Z</time></trkpt><trkpt lat="14.456028654414848" lon="121.0369258075291"><ele>37.0</ele><time>2026-04-09T11:49:14Z</time></trkpt><trkpt lat="14.456004165839484" lon="121.03700739321765"><ele>37.0</ele><time>2026-04-09T11:49:15Z</time></trkpt><trkpt lat="14.455981069768104" lon="121.03708724804868"><ele>37.0</ele><time>2026-04-09T11:49:16Z</time></trkpt><trkpt lat="14.455960150442476" lon="121.03716530119632"><ele>37.0</ele><time>2026-04-09T11:49:17Z</time></trkpt><trkpt lat="14.455939329035722" lon="121.0372500282221"><ele>37.0</ele><time>2026-04-09T11:49:18Z</time></trkpt><trkpt lat="14.455918266432635" lon="121.03733330791432"><ele>37.0</ele><time>2026-04-09T11:49:19Z</time></trkpt><trkpt lat="14.45589570592615" lon="121.03741869818722"><ele>36.833333333333336</ele><time>2026-04-09T11:49:20Z</time></trkpt><trkpt lat="14.455870841419665" lon="121.03750306411887"><ele>36.66666666666667</ele><time>2026-04-09T11:49:21Z</time></trkpt><trkpt lat="14.455850711356845" lon="121.03759209261847"><ele>36.5</ele><time>2026-04-09T11:49:22Z</time></trkpt><trkpt lat="14.455828105696211" lon="121.03768321356148"><ele>36.333333333333336</ele><time>2026-04-09T11:49:23Z</time></trkpt><trkpt lat="14.455810827623404" lon="121.03777562873236"><ele>36.166666666666664</ele><time>2026-04-09T11:49:24Z</time></trkpt><trkpt lat="14.455787615905622" lon="121.03786379754999"><ele>36.0</ele><time>2026-04-09T11:49:25Z</time></trkpt><trkpt lat="14.455761501408713" lon="121.03795031783541"><ele>36.0</ele><time>2026-04-09T11:49:26Z</time></trkpt><trkpt lat="14.455738422953406" lon="121.03803777198141"><ele>36.0</ele><time>2026-04-09T11:49:27Z</time></trkpt><trkpt lat="14.455715968691047" lon="121.03812510338211"><ele>36.0</ele><time>2026-04-09T11:49:28Z</time></trkpt><trkpt lat="14.455691939755962" lon="121.03821596581362"><ele>36.0</ele><time>2026-04-09T11:49:29Z</time></trkpt><trkpt lat="14.455665009948902" lon="121.03830823476764"><ele>36.0</ele><time>2026-04-09T11:49:30Z</time></trkpt><trkpt lat="14.455641474852126" lon="121.03839865225994"><ele>36.0</ele><time>2026-04-09T11:49:31Z</time></trkpt><trkpt lat="14.455616794372043" lon="121.03849202478933"><ele>36.0</ele><time>2026-04-09T11:49:32Z</time></trkpt><trkpt lat="14.455591181539477" lon="121.03858871166754"><ele>36.0</ele><time>2026-04-09T11:49:33Z</time></trkpt><trkpt lat="14.455567864151746" lon="121.0386900369576"><ele>36.0</ele><time>2026-04-09T11:49:34Z</time></trkpt><trkpt lat="14.455540007067045" lon="121.03878861470096"><ele>36.0</ele><time>2026-04-09T11:49:35Z</time></trkpt><trkpt lat="14.455510621608855" lon="121.0388873795417"><ele>36.0</ele><time>2026-04-09T11:49:36Z</time></trkpt><trkpt lat="14.455487079695889" lon="121.03898826990473"><ele>36.0</ele><time>2026-04-09T11:49:37Z</time></trkpt><trkpt lat="14.455460894608283" lon="121.03908742546614"><ele>36.0</ele><time>2026-04-09T11:49:38Z</time></trkpt><trkpt lat="14.455436974418463" lon="121.03918177227837"><ele>36.0</ele><time>2026-04-09T11:49:39Z</time></trkpt><trkpt lat="14.455410123486788" lon="121.03927924062894"><ele>36.0</ele><time>2026-04-09T11:49:40Z</time></trkpt><trkpt lat="14.455385335799336" lon="121.03937585380298"><ele>37.8</ele><time>2026-04-09T11:49:41Z</time></trkpt><trkpt lat="14.455360841457072" lon="121.03947056510667"><ele>39.6</ele><time>2026-04-09T11:49:42Z</time></trkpt><trkpt lat="14.455335861071282" lon="121.0395635537733"><ele>41.4</ele><time>2026-04-09T11:49:43Z</time></trkpt><trkpt lat="14.455310740803457" lon="121.03965509731104"><ele>43.2</ele><time>2026-04-09T11:49:44Z</time></trkpt><trkpt lat="14.455282705115655" lon="121.03974897608111"><ele>45.0</ele><time>2026-04-09T11:49:45Z</time></trkpt><trkpt lat="14.455262315420786" lon="121.03984466086692"><ele>45.0</ele><time>2026-04-09T11:49:46Z</time></trkpt><trkpt lat="14.45523715142994" lon="121.03994141352574"><ele>45.0</ele><time>2026-04-09T11:49:47Z</time></trkpt><trkpt lat="14.455215970742366" lon="121.04003264695017"><ele>45.0</ele><time>2026-04-09T11:49:48Z</time></trkpt><trkpt lat="14.455195014138424" lon="121.04011880372022"><ele>45.0</ele><time>2026-04-09T11:49:49Z</time></trkpt><trkpt lat="14.455173443968137" lon="121.0402000180625"><ele>45.0</ele><time>2026-04-09T11:49:50Z</time></trkpt><trkpt lat="14.455150935624129" lon="121.04028433964503"><ele>45.0</ele><time>2026-04-09T11:49:51Z</time></trkpt><trkpt lat="14.455122734664382" lon="121.04037031504785"><ele>43.6</ele><time>2026-04-09T11:49:52Z</time></trkpt><trkpt lat="14.455098925010178" lon="121.0404582828679"><ele>42.2</ele><time>2026-04-09T11:49:53Z</time></trkpt><trkpt lat="14.455075544473674" lon="121.04054833424657"><ele>40.8</ele><time>2026-04-09T11:49:54Z</time></trkpt><trkpt lat="14.45505280993158" lon="121.04063866301671"><ele>39.4</ele><time>2026-04-09T11:49:55Z</time></trkpt><trkpt lat="14.455048195428537" lon="121.0407366547201"><ele>38.0</ele><time>2026-04-09T11:49:56Z</time></trkpt><trkpt lat="14.454999887073345" lon="121.04083421537275"><ele>38.0</ele><time>2026-04-09T11:49:57Z</time></trkpt><trkpt lat="14.454972803052089" lon="121.04093780419969"><ele>38.0</ele><time>2026-04-09T11:49:58Z</time></trkpt><trkpt lat="14.454944431407059" lon="121.04103863683603"><ele>38.0</ele><time>2026-04-09T11:49:59Z</time></trkpt><trkpt lat="14.454918133154095" lon="121.04113374170801"><ele>38.0</ele><time>2026-04-09T11:50:00Z</time></trkpt><trkpt lat="14.454894015460328" lon="121.04123107679972"><ele>38.0</ele><time>2026-04-09T11:50:01Z</time></trkpt><trkpt lat="14.454863929539787" lon="121.0413289275713"><ele>38.0</ele><time>2026-04-09T11:50:02Z</time></trkpt><trkpt lat="14.454834831559966" lon="121.04142707147008"><ele>38.0</ele><time>2026-04-09T11:50:03Z</time></trkpt><trkpt lat="14.454807315152271" lon="121.04152494563625"><ele>38.0</ele><time>2026-04-09T11:50:04Z</time></trkpt><trkpt lat="14.454781254879322" lon="121.04162234345024"><ele>38.0</ele><time>2026-04-09T11:50:05Z</time></trkpt><trkpt lat="14.45475201897649" lon="121.04171693705443"><ele>38.0</ele><time>2026-04-09T11:50:06Z</time></trkpt><trkpt lat="14.454725583380636" lon="121.04180933052854"><ele>38.0</ele><time>2026-04-09T11:50:07Z</time></trkpt><trkpt lat="14.454698348239615" lon="121.04190014413498"><ele>38.0</ele><time>2026-04-09T11:50:08Z</time></trkpt><trkpt lat="14.454672078947317" lon="121.04198976439228"><ele>38.0</ele><time>2026-04-09T11:50:09Z</time></trkpt><trkpt lat="14.45464742995981" lon="121.04207800160913"><ele>38.0</ele><time>2026-04-09T11:50:10Z</time></trkpt><trkpt lat="14.454616886844299" lon="121.0421636783054"><ele>38.0</ele><time>2026-04-09T11:50:11Z</time></trkpt><trkpt lat="14.45459195221799" lon="121.0422463404809"><ele>38.0</ele><time>2026-04-09T11:50:12Z</time></trkpt><trkpt lat="14.454567705471385" lon="121.04232433229075"><ele>38.0</ele><time>2026-04-09T11:50:13Z</time></trkpt><trkpt lat="14.454548696953792" lon="121.04240043969497"><ele>38.0</ele><time>2026-04-09T11:50:14Z</time></trkpt><trkpt lat="14.454529158087936" lon="121.04246994715331"><ele>38.0</ele><time>2026-04-09T11:50:15Z</time></trkpt><trkpt lat="14.454508058915607" lon="121.04253881590874"><ele>38.0</ele><time>2026-04-09T11:50:16Z</time></trkpt><trkpt lat="14.454487004823102" lon="121.04261044391062"><ele>38.0</ele><time>2026-04-09T11:50:17Z</time></trkpt><trkpt lat="14.454467621551679" lon="121.04268611429355"><ele>38.0</ele><time>2026-04-09T11:50:18Z</time></trkpt><trkpt lat="14.454447786990363" lon="121.04276051906375"><ele>38.0</ele><time>2026-04-09T11:50:19Z</time></trkpt><trkpt lat="14.454427541724652" lon="121.04283801281491"><ele>38.166666666666664</ele><time>2026-04-09T11:50:20Z</time></trkpt><trkpt lat="14.454403870148768" lon="121.04291599349905"><ele>38.33333333333333</ele><time>2026-04-09T11:50:21Z</time></trkpt><trkpt lat="14.45438683635518" lon="121.04299535580121"><ele>38.5</ele><time>2026-04-09T11:50:22Z</time></trkpt><trkpt lat="14.454360258574587" lon="121.04306475389643"><ele>38.666666666666664</ele><time>2026-04-09T11:50:23Z</time></trkpt><trkpt lat="14.454335993246492" lon="121.04313242434988"><ele>38.833333333333336</ele><time>2026-04-09T11:50:24Z</time></trkpt><trkpt lat="14.45431312794425" lon="121.04319837252952"><ele>39.0</ele><time>2026-04-09T11:50:25Z</time></trkpt><trkpt lat="14.454279090776494" lon="121.04331747524091"><ele>38.0</ele><time>2026-04-09T11:50:26.999Z</time></trkpt><trkpt lat="14.454239693342496" lon="121.04342763048636"><ele>37.0</ele><time>2026-04-09T11:50:28.999Z</time></trkpt><trkpt lat="14.454217351724637" lon="121.04355213604326"><ele>36.0</ele><time>2026-04-09T11:50:30.999Z</time></trkpt><trkpt lat="14.454195833811788" lon="121.04362269738452"><ele>35.0</ele><time>2026-04-09T11:50:31.999Z</time></trkpt><trkpt lat="14.454173129846447" lon="121.04369717141209"><ele>34.0</ele><time>2026-04-09T11:50:32.999Z</time></trkpt><trkpt lat="14.454133151963136" lon="121.04375933862163"><ele>34.0</ele><time>2026-04-09T11:50:33.999Z</time></trkpt><trkpt lat="14.454111225829624" lon="121.0438223498703"><ele>34.0</ele><time>2026-04-09T11:50:34.999Z</time></trkpt><trkpt lat="14.454090476753862" lon="121.0438860352147"><ele>34.0</ele><time>2026-04-09T11:50:35.999Z</time></trkpt><trkpt lat="14.454069280373599" lon="121.0439505766166"><ele>34.0</ele><time>2026-04-09T11:50:36.999Z</time></trkpt><trkpt lat="14.454049746673887" lon="121.04401359375737"><ele>34.0</ele><time>2026-04-09T11:50:37.999Z</time></trkpt><trkpt lat="14.454015292456427" lon="121.04412887659028"><ele>34.0</ele><time>2026-04-09T11:50:39.999Z</time></trkpt><trkpt lat="14.453981223451795" lon="121.04423320458653"><ele>33.4</ele><time>2026-04-09T11:50:41.999Z</time></trkpt><trkpt lat="14.453942457062219" lon="121.04434576366273"><ele>32.8</ele><time>2026-04-09T11:50:43.999Z</time></trkpt><trkpt lat="14.453911683400337" lon="121.04442842751902"><ele>32.2</ele><time>2026-04-09T11:50:45.999Z</time></trkpt><trkpt lat="14.453888135124355" lon="121.04449830455813"><ele>31.6</ele><time>2026-04-09T11:50:48.999Z</time></trkpt><trkpt lat="14.453851475708083" lon="121.04459296968483"><ele>31.0</ele><time>2026-04-09T11:50:51.999Z</time></trkpt><trkpt lat="14.453818536468868" lon="121.04469960504986"><ele>31.0</ele><time>2026-04-09T11:50:53.999Z</time></trkpt><trkpt lat="14.453791701897849" lon="121.04480780318242"><ele>31.0</ele><time>2026-04-09T11:50:55.999Z</time></trkpt><trkpt lat="14.453772019375569" lon="121.04490052186546"><ele>31.0</ele><time>2026-04-09T11:50:57.999Z</time></trkpt><trkpt lat="14.453745085206863" lon="121.04500092374282"><ele>31.0</ele><time>2026-04-09T11:51:00Z</time></trkpt><trkpt lat="14.453714489986094" lon="121.04510670303183"><ele>31.0</ele><time>2026-04-09T11:51:02Z</time></trkpt><trkpt lat="14.45368418716724" lon="121.04520696955151"><ele>29.666666666666668</ele><time>2026-04-09T11:51:04Z</time></trkpt><trkpt lat="14.453659276604757" lon="121.0453012406946"><ele>28.333333333333336</ele><time>2026-04-09T11:51:06Z</time></trkpt><trkpt lat="14.453632772790403" lon="121.04538767067432"><ele>27.0</ele><time>2026-04-09T11:51:08Z</time></trkpt><trkpt lat="14.453628141140841" lon="121.0454748232522"><ele>25.666666666666668</ele><time>2026-04-09T11:51:10Z</time></trkpt><trkpt lat="14.453607632582836" lon="121.04555002636322"><ele>24.333333333333336</ele><time>2026-04-09T11:51:12Z</time></trkpt><trkpt lat="14.453588995256725" lon="121.04561494556175"><ele>23.0</ele><time>2026-04-09T11:51:14Z</time></trkpt><trkpt lat="14.45356920147137" lon="121.0456849698102"><ele>23.0</ele><time>2026-04-09T11:51:16Z</time></trkpt><trkpt lat="14.453550263847688" lon="121.04575240276661"><ele>23.0</ele><time>2026-04-09T11:51:18Z</time></trkpt><trkpt lat="14.453529245504031" lon="121.04582724479967"><ele>23.0</ele><time>2026-04-09T11:51:21Z</time></trkpt><trkpt lat="14.453465765532583" lon="121.04588603594961"><ele>23.0</ele><time>2026-04-09T11:51:25Z</time></trkpt><trkpt lat="14.453418140885098" lon="121.04593293387683"><ele>23.0</ele><time>2026-04-09T11:51:29Z</time></trkpt><trkpt lat="14.453327207548366" lon="121.04592782724472"><ele>23.0</ele><time>2026-04-09T11:51:32Z</time></trkpt><trkpt lat="14.453251494761343" lon="121.04590139314989"><ele>23.0</ele><time>2026-04-09T11:51:34Z</time></trkpt><trkpt lat="14.453158851032578" lon="121.04585519521208"><ele>23.0</ele><time>2026-04-09T11:51:36Z</time></trkpt><trkpt lat="14.453070717525078" lon="121.04578474437626"><ele>23.0</ele><time>2026-04-09T11:51:38Z</time></trkpt><trkpt lat="14.452967350989134" lon="121.04573086848079"><ele>23.0</ele><time>2026-04-09T11:51:40Z</time></trkpt><trkpt lat="14.45284243631201" lon="121.0456777539966"><ele>22.333333333333336</ele><time>2026-04-09T11:51:42Z</time></trkpt><trkpt lat="14.452775783098597" lon="121.04565191251002"><ele>21.666666666666668</ele><time>2026-04-09T11:51:43Z</time></trkpt><trkpt lat="14.452703562495943" lon="121.04562593567066"><ele>21.0</ele><time>2026-04-09T11:51:44Z</time></trkpt><trkpt lat="14.45262626989889" lon="121.04559982954457"><ele>20.333333333333332</ele><time>2026-04-09T11:51:45Z</time></trkpt><trkpt lat="14.45254225100223" lon="121.04557624680226"><ele>19.666666666666664</ele><time>2026-04-09T11:51:46Z</time></trkpt><trkpt lat="14.452454398449763" lon="121.04555498428999"><ele>19.0</ele><time>2026-04-09T11:51:47Z</time></trkpt><trkpt lat="14.452364173789132" lon="121.04553649670537"><ele>19.0</ele><time>2026-04-09T11:51:48Z</time></trkpt><trkpt lat="14.452272202253864" lon="121.04553444321033"><ele>19.0</ele><time>2026-04-09T11:51:49Z</time></trkpt><trkpt lat="14.452179430853421" lon="121.04551615957114"><ele>19.0</ele><time>2026-04-09T11:51:50Z</time></trkpt><trkpt lat="14.452084435196277" lon="121.04550084147861"><ele>19.0</ele><time>2026-04-09T11:51:51Z</time></trkpt><trkpt lat="14.451993965055536" lon="121.04548632372102"><ele>19.0</ele><time>2026-04-09T11:51:52Z</time></trkpt><trkpt lat="14.451900623856998" lon="121.0454731805437"><ele>17.8</ele><time>2026-04-09T11:51:53Z</time></trkpt><trkpt lat="14.451806787797647" lon="121.04545792152432"><ele>16.599999999999998</ele><time>2026-04-09T11:51:54Z</time></trkpt><trkpt lat="14.451715151588672" lon="121.04545798085302"><ele>15.4</ele><time>2026-04-09T11:51:55Z</time></trkpt><trkpt lat="14.451622503096274" lon="121.04545556262572"><ele>14.2</ele><time>2026-04-09T11:51:56Z</time></trkpt><trkpt lat="14.451534402716733" lon="121.04544549922859"><ele>13.0</ele><time>2026-04-09T11:51:57Z</time></trkpt><trkpt lat="14.45143146402851" lon="121.04544276125533"><ele>13.0</ele><time>2026-04-09T11:51:58Z</time></trkpt><trkpt lat="14.451337976971752" lon="121.04545004338715"><ele>13.0</ele><time>2026-04-09T11:51:59Z</time></trkpt><trkpt lat="14.451248069641816" lon="121.04544935138829"><ele>13.0</ele><time>2026-04-09T11:52:00Z</time></trkpt><trkpt lat="14.451154981116204" lon="121.04544557801668"><ele>13.0</ele><time>2026-04-09T11:52:01Z</time></trkpt><trkpt lat="14.451059061255759" lon="121.04545483775492"><ele>13.0</ele><time>2026-04-09T11:52:02Z</time></trkpt><trkpt lat="14.4509691254789" lon="121.0454519277705"><ele>14.4</ele><time>2026-04-09T11:52:03Z</time></trkpt><trkpt lat="14.450878950684759" lon="121.04545126769709"><ele>15.8</ele><time>2026-04-09T11:52:04Z</time></trkpt><trkpt lat="14.450787367202544" lon="121.04545395035838"><ele>17.2</ele><time>2026-04-09T11:52:05Z</time></trkpt><trkpt lat="14.45069437028199" lon="121.04544961760173"><ele>18.6</ele><time>2026-04-09T11:52:06Z</time></trkpt><trkpt lat="14.450602284657036" lon="121.04544791037921"><ele>20.0</ele><time>2026-04-09T11:52:07Z</time></trkpt><trkpt lat="14.45051657499112" lon="121.0454592298343"><ele>19.833333333333336</ele><time>2026-04-09T11:52:08Z</time></trkpt><trkpt lat="14.450426937899547" lon="121.04546767895633"><ele>19.666666666666668</ele><time>2026-04-09T11:52:09Z</time></trkpt><trkpt lat="14.450339550585088" lon="121.04546605322633"><ele>19.5</ele><time>2026-04-09T11:52:10Z</time></trkpt><trkpt lat="14.45025664460392" lon="121.04545216480338"><ele>19.333333333333332</ele><time>2026-04-09T11:52:11Z</time></trkpt><trkpt lat="14.45018408678949" lon="121.0454504462611"><ele>19.166666666666664</ele><time>2026-04-09T11:52:12Z</time></trkpt><trkpt lat="14.450109102860743" lon="121.04544867025668"><ele>19.0</ele><time>2026-04-09T11:52:13Z</time></trkpt><trkpt lat="14.450031593471047" lon="121.04544683443606"><ele>19.0</ele><time>2026-04-09T11:52:14Z</time></trkpt><trkpt lat="14.449957027091928" lon="121.04544506831826"><ele>19.0</ele><time>2026-04-09T11:52:15Z</time></trkpt><trkpt lat="14.449884779384352" lon="121.04545073465754"><ele>19.0</ele><time>2026-04-09T11:52:16Z</time></trkpt><trkpt lat="14.449814609205367" lon="121.04545109351902"><ele>19.0</ele><time>2026-04-09T11:52:17Z</time></trkpt><trkpt lat="14.449746386385781" lon="121.0454512588305"><ele>19.0</ele><time>2026-04-09T11:52:18Z</time></trkpt><trkpt lat="14.449675852935329" lon="121.0454514297418"><ele>19.0</ele><time>2026-04-09T11:52:19Z</time></trkpt><trkpt lat="14.449603536384382" lon="121.0454516049728"><ele>19.0</ele><time>2026-04-09T11:52:20Z</time></trkpt><trkpt lat="14.449533028034347" lon="121.0454517758225"><ele>18.71428571428571</ele><time>2026-04-09T11:52:21Z</time></trkpt><trkpt lat="14.449456821111106" lon="121.04545196048042"><ele>18.42857142857143</ele><time>2026-04-09T11:52:22Z</time></trkpt><trkpt lat="14.449378056526564" lon="121.0454521513354"><ele>18.142857142857142</ele><time>2026-04-09T11:52:23Z</time></trkpt><trkpt lat="14.44930017837033" lon="121.04545224190205"><ele>17.857142857142854</ele><time>2026-04-09T11:52:24Z</time></trkpt><trkpt lat="14.449227697608578" lon="121.04545224190211"><ele>17.57142857142857</ele><time>2026-04-09T11:52:25Z</time></trkpt><trkpt lat="14.449160013312792" lon="121.04545224190237"><ele>17.285714285714285</ele><time>2026-04-09T11:52:26Z</time></trkpt><trkpt lat="14.44909650562269" lon="121.0454522419011"><ele>17.0</ele><time>2026-04-09T11:52:27Z</time></trkpt><trkpt lat="14.448974137208191" lon="121.04546202323937"><ele>17.0</ele><time>2026-04-09T11:52:29Z</time></trkpt><trkpt lat="14.448869062951356" lon="121.04546053027201"><ele>17.0</ele><time>2026-04-09T11:52:31Z</time></trkpt><trkpt lat="14.448772084232273" lon="121.04545084887162"><ele>17.0</ele><time>2026-04-09T11:52:33Z</time></trkpt><trkpt lat="14.448663337152835" lon="121.0454464823624"><ele>17.0</ele><time>2026-04-09T11:52:35Z</time></trkpt><trkpt lat="14.4485603942421" lon="121.0454427072006"><ele>17.0</ele><time>2026-04-09T11:52:37Z</time></trkpt><trkpt lat="14.448451590577431" lon="121.04544303833673"><ele>16.666666666666668</ele><time>2026-04-09T11:52:39Z</time></trkpt><trkpt lat="14.448329605443615" lon="121.04544595799199"><ele>16.333333333333336</ele><time>2026-04-09T11:52:41Z</time></trkpt><trkpt lat="14.448203210800681" lon="121.04544501909372"><ele>16.0</ele><time>2026-04-09T11:52:43Z</time></trkpt><trkpt lat="14.44813854181139" lon="121.04544231201538"><ele>15.666666666666668</ele><time>2026-04-09T11:52:44Z</time></trkpt><trkpt lat="14.448073143800116" lon="121.0454426857877"><ele>15.333333333333334</ele><time>2026-04-09T11:52:45Z</time></trkpt><trkpt lat="14.448002487781203" lon="121.04544381854473"><ele>15.0</ele><time>2026-04-09T11:52:46Z</time></trkpt><trkpt lat="14.44793336659473" lon="121.0454440786567"><ele>15.0</ele><time>2026-04-09T11:52:47Z</time></trkpt><trkpt lat="14.447862841275292" lon="121.045443606722"><ele>15.0</ele><time>2026-04-09T11:52:48Z</time></trkpt><trkpt lat="14.447791664407006" lon="121.04544476718206"><ele>15.0</ele><time>2026-04-09T11:52:49Z</time></trkpt><trkpt lat="14.44771893866031" lon="121.04544267825486"><ele>15.0</ele><time>2026-04-09T11:52:50Z</time></trkpt><trkpt lat="14.447649960131574" lon="121.04544408517388"><ele>15.0</ele><time>2026-04-09T11:52:51Z</time></trkpt><trkpt lat="14.44757756992909" lon="121.04544476245346"><ele>15.0</ele><time>2026-04-09T11:52:52Z</time></trkpt><trkpt lat="14.447509006081827" lon="121.04544481225646"><ele>15.0</ele><time>2026-04-09T11:52:53Z</time></trkpt><trkpt lat="14.447441110855321" lon="121.04544284012493"><ele>15.0</ele><time>2026-04-09T11:52:54Z</time></trkpt><trkpt lat="14.447371224267291" lon="121.04543673446841"><ele>15.0</ele><time>2026-04-09T11:52:55Z</time></trkpt><trkpt lat="14.447302414465492" lon="121.04543532538261"><ele>15.0</ele><time>2026-04-09T11:52:56Z</time></trkpt><trkpt lat="14.447185763890442" lon="121.04543924778521"><ele>15.0</ele><time>2026-04-09T11:52:58Z</time></trkpt><trkpt lat="14.447068738305884" lon="121.04544051239526"><ele>15.0</ele><time>2026-04-09T11:53:00Z</time></trkpt><trkpt lat="14.4469625602112" lon="121.04543803229792"><ele>15.4</ele><time>2026-04-09T11:53:02Z</time></trkpt><trkpt lat="14.446856863609034" lon="121.04542999454324"><ele>15.8</ele><time>2026-04-09T11:53:04Z</time></trkpt><trkpt lat="14.446760171030348" lon="121.04542860581161"><ele>16.2</ele><time>2026-04-09T11:53:06Z</time></trkpt><trkpt lat="14.446661607313702" lon="121.0454294672254"><ele>16.6</ele><time>2026-04-09T11:53:08Z</time></trkpt><trkpt lat="14.446571933640662" lon="121.04545269704414"><ele>17.0</ele><time>2026-04-09T11:53:10Z</time></trkpt><trkpt lat="14.446485927930185" lon="121.04545501979457"><ele>17.0</ele><time>2026-04-09T11:53:12Z</time></trkpt><trkpt lat="14.446396240144292" lon="121.04545408908723"><ele>17.0</ele><time>2026-04-09T11:53:14Z</time></trkpt><trkpt lat="14.446300949734306" lon="121.04544901024701"><ele>17.0</ele><time>2026-04-09T11:53:16Z</time></trkpt><trkpt lat="14.446211638897815" lon="121.04546249291447"><ele>17.0</ele><time>2026-04-09T11:53:18Z</time></trkpt><trkpt lat="14.446131469176533" lon="121.04545958553763"><ele>17.0</ele><time>2026-04-09T11:53:20Z</time></trkpt><trkpt lat="14.4460349274869" lon="121.04544722133191"><ele>17.166666666666668</ele><time>2026-04-09T11:53:22Z</time></trkpt><trkpt lat="14.445942845102543" lon="121.04545357077457"><ele>17.333333333333336</ele><time>2026-04-09T11:53:24Z</time></trkpt><trkpt lat="14.445859599124496" lon="121.04545378477593"><ele>17.5</ele><time>2026-04-09T11:53:26Z</time></trkpt><trkpt lat="14.445796023636795" lon="121.04546074999692"><ele>17.666666666666668</ele><time>2026-04-09T11:53:28Z</time></trkpt><trkpt lat="14.445714657263279" lon="121.04547262416543"><ele>17.833333333333332</ele><time>2026-04-09T11:53:31Z</time></trkpt><trkpt lat="14.445657136550803" lon="121.0455117243627"><ele>18.0</ele><time>2026-04-09T11:53:35Z</time></trkpt><trkpt lat="14.445632060016196" lon="121.04557801160755"><ele>18.000000000000004</ele><time>2026-04-09T11:53:39Z</time></trkpt><trkpt lat="14.44562555435868" lon="121.04565011587977"><ele>18.0</ele><time>2026-04-09T11:53:42Z</time></trkpt><trkpt lat="14.445621985691606" lon="121.04571726422633"><ele>18.0</ele><time>2026-04-09T11:53:50Z</time></trkpt><trkpt lat="14.445621581013922" lon="121.04580621652416"><ele>18.0</ele><time>2026-04-09T11:53:55Z</time></trkpt><trkpt lat="14.445634446726254" lon="121.04587368605237"><ele>18.0</ele><time>2026-04-09T11:53:58Z</time></trkpt><trkpt lat="14.445611861416097" lon="121.04593841655188"><ele>18.000000000000004</ele><time>2026-04-09T11:54:01Z</time></trkpt><trkpt lat="14.44554080077676" lon="121.04596872408776"><ele>18.0</ele><time>2026-04-09T11:54:04Z</time></trkpt><trkpt lat="14.44546355239932" lon="121.04596469483474"><ele>17.42857142857143</ele><time>2026-04-09T11:54:07Z</time></trkpt><trkpt lat="14.44537874473078" lon="121.04596449432137"><ele>16.857142857142858</ele><time>2026-04-09T11:54:10Z</time></trkpt><trkpt lat="14.445307020676815" lon="121.0459434449471"><ele>16.285714285714285</ele><time>2026-04-09T11:54:13Z</time></trkpt><trkpt lat="14.445234798752173" lon="121.04594992064422"><ele>15.714285714285715</ele><time>2026-04-09T11:54:17Z</time></trkpt><trkpt lat="14.445174621311407" lon="121.04597853566314"><ele>15.142857142857142</ele><time>2026-04-09T11:54:20Z</time></trkpt><trkpt lat="14.445130512645557" lon="121.0460301424685"><ele>14.571428571428571</ele><time>2026-04-09T11:54:23Z</time></trkpt><trkpt lat="14.445107291181186" lon="121.04610149626721"><ele>14.0</ele><time>2026-04-09T11:54:29Z</time></trkpt><trkpt lat="14.445103643567997" lon="121.04619312766108"><ele>14.0</ele><time>2026-04-09T11:54:34Z</time></trkpt><trkpt lat="14.445120717905876" lon="121.04628346541101"><ele>13.999999999999998</ele><time>2026-04-09T11:54:36Z</time></trkpt><trkpt lat="14.445127793151556" lon="121.04639143876949"><ele>13.999999999999998</ele><time>2026-04-09T11:54:38Z</time></trkpt><trkpt lat="14.445147174478297" lon="121.04650423771956"><ele>14.0</ele><time>2026-04-09T11:54:39.999Z</time></trkpt><trkpt lat="14.445134372504446" lon="121.04661148028262"><ele>14.0</ele><time>2026-04-09T11:54:41.999Z</time></trkpt><trkpt lat="14.445123783139925" lon="121.04669756191171"><ele>13.666666666666668</ele><time>2026-04-09T11:54:43.999Z</time></trkpt><trkpt lat="14.445135562893133" lon="121.0467985184693"><ele>13.333333333333334</ele><time>2026-04-09T11:54:45.999Z</time></trkpt><trkpt lat="14.445145243595098" lon="121.04687498197896"><ele>13.0</ele><time>2026-04-09T11:54:47.999Z</time></trkpt><trkpt lat="14.445156532524766" lon="121.0469490979534"><ele>12.666666666666668</ele><time>2026-04-09T11:54:50Z</time></trkpt><trkpt lat="14.445178191101297" lon="121.04701138565497"><ele>12.333333333333334</ele><time>2026-04-09T11:54:53Z</time></trkpt><trkpt lat="14.445223822572347" lon="121.04706606208539"><ele>12.0</ele><time>2026-04-09T11:54:57Z</time></trkpt><trkpt lat="14.445354807149153" lon="121.04705476922159"><ele>11.999999999999998</ele><time>2026-04-09T11:56:23Z</time></trkpt><trkpt lat="14.445296517024351" lon="121.04702055652199"><ele>12.0</ele><time>2026-04-09T11:56:44Z</time></trkpt><trkpt lat="14.44522504080353" lon="121.04702378668269"><ele>12.0</ele><time>2026-04-09T11:56:48Z</time></trkpt><trkpt lat="14.445177902309586" lon="121.04696287688262"><ele>12.0</ele><time>2026-04-09T11:56:53Z</time></trkpt><trkpt lat="14.4451663905507" lon="121.04689650807235"><ele>12.0</ele><time>2026-04-09T11:56:56Z</time></trkpt><trkpt lat="14.445168163439227" lon="121.0468076204751"><ele>11.999999999999998</ele><time>2026-04-09T11:56:59Z</time></trkpt><trkpt lat="14.445170365789862" lon="121.04672989680171"><ele>12.0</ele><time>2026-04-09T11:57:01Z</time></trkpt><trkpt lat="14.445176424522685" lon="121.04663986975034"><ele>12.333333333333334</ele><time>2026-04-09T11:57:03Z</time></trkpt><trkpt lat="14.445167734015511" lon="121.04656864887981"><ele>12.666666666666668</ele><time>2026-04-09T11:57:04Z</time></trkpt><trkpt lat="14.445214269822205" lon="121.04647974738825"><ele>13.0</ele><time>2026-04-09T11:57:06Z</time></trkpt><trkpt lat="14.44521516869309" lon="121.04639259144528"><ele>13.333333333333334</ele><time>2026-04-09T11:57:08Z</time></trkpt><trkpt lat="14.445214248493574" lon="121.04631088897423"><ele>13.666666666666668</ele><time>2026-04-09T11:57:10Z</time></trkpt><trkpt lat="14.445212432546686" lon="121.04622251290625"><ele>14.0</ele><time>2026-04-09T11:57:13Z</time></trkpt><trkpt lat="14.44521093630446" lon="121.04614969580568"><ele>14.000000000000002</ele><time>2026-04-09T11:57:17Z</time></trkpt><trkpt lat="14.445209592840046" lon="121.04608431391617"><ele>14.0</ele><time>2026-04-09T11:57:20Z</time></trkpt><trkpt lat="14.445225010153234" lon="121.04602071896703"><ele>14.0</ele><time>2026-04-09T11:57:28Z</time></trkpt><trkpt lat="14.445344018319568" lon="121.04601027567007"><ele>14.0</ele><time>2026-04-09T11:57:30Z</time></trkpt><trkpt lat="14.445413352760806" lon="121.04600270859821"><ele>14.000000000000002</ele><time>2026-04-09T11:57:33Z</time></trkpt><trkpt lat="14.445494777464368" lon="121.0460024897949"><ele>14.0</ele><time>2026-04-09T11:57:36Z</time></trkpt><trkpt lat="14.445562300646976" lon="121.04600246386255"><ele>14.000000000000002</ele><time>2026-04-09T11:57:38Z</time></trkpt><trkpt lat="14.44562720169887" lon="121.04599566290337"><ele>14.0</ele><time>2026-04-09T11:57:40Z</time></trkpt><trkpt lat="14.445699115467475" lon="121.0460000668821"><ele>14.0</ele><time>2026-04-09T11:57:44Z</time></trkpt><trkpt lat="14.445710246631391" lon="121.0458854635662"><ele>14.0</ele><time>2026-04-09T11:57:46Z</time></trkpt><trkpt lat="14.445712687481967" lon="121.04581275423392"><ele>14.000000000000002</ele><time>2026-04-09T11:57:50Z</time></trkpt><trkpt lat="14.445711201410033" lon="121.04574161160014"><ele>14.0</ele><time>2026-04-09T11:57:55Z</time></trkpt><trkpt lat="14.445710359580291" lon="121.0456671106186"><ele>14.799999999999999</ele><time>2026-04-09T11:57:59Z</time></trkpt><trkpt lat="14.445692432822554" lon="121.04559927573409"><ele>15.599999999999998</ele><time>2026-04-09T11:58:03Z</time></trkpt><trkpt lat="14.44569583988288" lon="121.04553077534041"><ele>16.4</ele><time>2026-04-09T11:58:14Z</time></trkpt><trkpt lat="14.445850645600256" lon="121.0455027936692"><ele>17.2</ele><time>2026-04-09T11:58:21Z</time></trkpt><trkpt lat="14.445954859326639" lon="121.04550444345072"><ele>18.0</ele><time>2026-04-09T11:58:23Z</time></trkpt><trkpt lat="14.446067332519243" lon="121.04550812750419"><ele>18.0</ele><time>2026-04-09T11:58:25Z</time></trkpt><trkpt lat="14.446186419833955" lon="121.04551378558051"><ele>18.0</ele><time>2026-04-09T11:58:27Z</time></trkpt><trkpt lat="14.446251248650908" lon="121.04551338978176"><ele>18.0</ele><time>2026-04-09T11:58:28Z</time></trkpt><trkpt lat="14.446317366676661" lon="121.04551337429864"><ele>18.0</ele><time>2026-04-09T11:58:29Z</time></trkpt><trkpt lat="14.446384722252109" lon="121.04551287480086"><ele>18.0</ele><time>2026-04-09T11:58:30Z</time></trkpt><trkpt lat="14.446453406007448" lon="121.04551331689842"><ele>18.0</ele><time>2026-04-09T11:58:31Z</time></trkpt><trkpt lat="14.446523636706024" lon="121.04551566279791"><ele>17.857142857142858</ele><time>2026-04-09T11:58:32Z</time></trkpt><trkpt lat="14.446594691454827" lon="121.04551881851073"><ele>17.714285714285715</ele><time>2026-04-09T11:58:33Z</time></trkpt><trkpt lat="14.446665632242244" lon="121.04552105784597"><ele>17.57142857142857</ele><time>2026-04-09T11:58:34Z</time></trkpt><trkpt lat="14.446734859966025" lon="121.04552065322198"><ele>17.42857142857143</ele><time>2026-04-09T11:58:35Z</time></trkpt><trkpt lat="14.446803583831892" lon="121.0455232688082"><ele>17.285714285714285</ele><time>2026-04-09T11:58:36Z</time></trkpt><trkpt lat="14.446870817609321" lon="121.04552757637795"><ele>17.142857142857142</ele><time>2026-04-09T11:58:37Z</time></trkpt><trkpt lat="14.446939011127883" lon="121.04552710954884"><ele>17.0</ele><time>2026-04-09T11:58:38Z</time></trkpt><trkpt lat="14.44701228182391" lon="121.04552853751845"><ele>16.999999999999996</ele><time>2026-04-09T11:58:39Z</time></trkpt><trkpt lat="14.447083450010544" lon="121.04552824866968"><ele>17.0</ele><time>2026-04-09T11:58:40Z</time></trkpt><trkpt lat="14.447151060118763" lon="121.04552812747859"><ele>17.0</ele><time>2026-04-09T11:58:41Z</time></trkpt><trkpt lat="14.447227042598069" lon="121.04552638550442"><ele>17.0</ele><time>2026-04-09T11:58:42Z</time></trkpt><trkpt lat="14.447304347585918" lon="121.04552585921155"><ele>17.0</ele><time>2026-04-09T11:58:43Z</time></trkpt><trkpt lat="14.447381327766447" lon="121.04552553526547"><ele>16.999999999999996</ele><time>2026-04-09T11:58:44Z</time></trkpt><trkpt lat="14.447461152806454" lon="121.04552320881236"><ele>17.0</ele><time>2026-04-09T11:58:45Z</time></trkpt><trkpt lat="14.447542396230215" lon="121.04552311286355"><ele>16.666666666666668</ele><time>2026-04-09T11:58:46Z</time></trkpt><trkpt lat="14.44762542972874" lon="121.04552132863478"><ele>16.333333333333336</ele><time>2026-04-09T11:58:47Z</time></trkpt><trkpt lat="14.447709507195706" lon="121.04552115110778"><ele>16.0</ele><time>2026-04-09T11:58:48Z</time></trkpt><trkpt lat="14.447789602374495" lon="121.04551898512149"><ele>15.666666666666668</ele><time>2026-04-09T11:58:49Z</time></trkpt><trkpt lat="14.447862084087115" lon="121.04551652244201"><ele>15.333333333333334</ele><time>2026-04-09T11:58:50Z</time></trkpt><trkpt lat="14.447941613191842" lon="121.04552273564087"><ele>15.0</ele><time>2026-04-09T11:58:51Z</time></trkpt><trkpt lat="14.44802422194407" lon="121.04552165420944"><ele>14.833333333333334</ele><time>2026-04-09T11:58:52Z</time></trkpt><trkpt lat="14.448103118821919" lon="121.04552002368422"><ele>14.666666666666668</ele><time>2026-04-09T11:58:53Z</time></trkpt><trkpt lat="14.448181390440583" lon="121.04552274236482"><ele>14.5</ele><time>2026-04-09T11:58:54Z</time></trkpt><trkpt lat="14.448259938107256" lon="121.04552236727446"><ele>14.333333333333334</ele><time>2026-04-09T11:58:55Z</time></trkpt><trkpt lat="14.448336935119906" lon="121.04552010479085"><ele>14.166666666666668</ele><time>2026-04-09T11:58:56Z</time></trkpt><trkpt lat="14.448408085128648" lon="121.0455165315683"><ele>14.0</ele><time>2026-04-09T11:58:57Z</time></trkpt><trkpt lat="14.448474291982162" lon="121.04551234163726"><ele>14.000000000000002</ele><time>2026-04-09T11:58:58Z</time></trkpt><trkpt lat="14.448545608761187" lon="121.04550913303528"><ele>14.0</ele><time>2026-04-09T11:58:59Z</time></trkpt><trkpt lat="14.44862399296665" lon="121.04551359315421"><ele>14.0</ele><time>2026-04-09T11:59:00Z</time></trkpt><trkpt lat="14.44870801077386" lon="121.04551299723177"><ele>14.0</ele><time>2026-04-09T11:59:01Z</time></trkpt><trkpt lat="14.448797184784501" lon="121.04551572748596"><ele>14.000000000000002</ele><time>2026-04-09T11:59:02Z</time></trkpt><trkpt lat="14.448889622844273" lon="121.0455166522025"><ele>14.0</ele><time>2026-04-09T11:59:03Z</time></trkpt><trkpt lat="14.448985541708746" lon="121.04551582794653"><ele>14.6</ele><time>2026-04-09T11:59:04Z</time></trkpt><trkpt lat="14.449084822115097" lon="121.04551577895917"><ele>15.2</ele><time>2026-04-09T11:59:05Z</time></trkpt><trkpt lat="14.449186283600017" lon="121.045512929256"><ele>15.799999999999999</ele><time>2026-04-09T11:59:06Z</time></trkpt><trkpt lat="14.449288670348743" lon="121.04550910352266"><ele>16.4</ele><time>2026-04-09T11:59:07Z</time></trkpt><trkpt lat="14.449395163043194" lon="121.04550198695293"><ele>17.0</ele><time>2026-04-09T11:59:08Z</time></trkpt><trkpt lat="14.449503687534358" lon="121.04549921861755"><ele>17.0</ele><time>2026-04-09T11:59:09Z</time></trkpt><trkpt lat="14.449611883070641" lon="121.04550808282335"><ele>17.0</ele><time>2026-04-09T11:59:10Z</time></trkpt><trkpt lat="14.449718280960429" lon="121.04551334971809"><ele>17.0</ele><time>2026-04-09T11:59:11Z</time></trkpt><trkpt lat="14.449820913259737" lon="121.04551620551437"><ele>17.0</ele><time>2026-04-09T11:59:12Z</time></trkpt><trkpt lat="14.449924236494134" lon="121.04551687427228"><ele>17.0</ele><time>2026-04-09T11:59:13Z</time></trkpt><trkpt lat="14.450028892947941" lon="121.04551668047286"><ele>17.4</ele><time>2026-04-09T11:59:14Z</time></trkpt><trkpt lat="14.450134302554952" lon="121.04551468093184"><ele>17.799999999999997</ele><time>2026-04-09T11:59:15Z</time></trkpt><trkpt lat="14.450238172521557" lon="121.04551090093204"><ele>18.2</ele><time>2026-04-09T11:59:16Z</time></trkpt><trkpt lat="14.450345250852196" lon="121.04551168241146"><ele>18.599999999999998</ele><time>2026-04-09T11:59:17Z</time></trkpt><trkpt lat="14.450454786277987" lon="121.04551224634262"><ele>19.0</ele><time>2026-04-09T11:59:18Z</time></trkpt><trkpt lat="14.450567300260934" lon="121.04551256583342"><ele>19.25</ele><time>2026-04-09T11:59:19Z</time></trkpt><trkpt lat="14.450681757092395" lon="121.04551171906104"><ele>19.5</ele><time>2026-04-09T11:59:20Z</time></trkpt><trkpt lat="14.450798839251124" lon="121.04551310795154"><ele>19.75</ele><time>2026-04-09T11:59:21Z</time></trkpt><trkpt lat="14.45091632555258" lon="121.04551562219123"><ele>20.0</ele><time>2026-04-09T11:59:22Z</time></trkpt><trkpt lat="14.45103242663502" lon="121.04551438451502"><ele>20.0</ele><time>2026-04-09T11:59:23Z</time></trkpt><trkpt lat="14.451146527294988" lon="121.04551091622922"><ele>20.0</ele><time>2026-04-09T11:59:24Z</time></trkpt><trkpt lat="14.451260263328875" lon="121.04551223001582"><ele>20.0</ele><time>2026-04-09T11:59:25Z</time></trkpt><trkpt lat="14.451373436008144" lon="121.04551151802094"><ele>20.0</ele><time>2026-04-09T11:59:26Z</time></trkpt><trkpt lat="14.451484355706729" lon="121.04550926965167"><ele>18.6</ele><time>2026-04-09T11:59:27Z</time></trkpt><trkpt lat="14.451594779876267" lon="121.04551054381672"><ele>17.2</ele><time>2026-04-09T11:59:28Z</time></trkpt><trkpt lat="14.45170274024844" lon="121.04551079085799"><ele>15.8</ele><time>2026-04-09T11:59:29Z</time></trkpt><trkpt lat="14.451810221807728" lon="121.04551349177996"><ele>14.4</ele><time>2026-04-09T11:59:30Z</time></trkpt><trkpt lat="14.451915776404078" lon="121.04551716926275"><ele>13.0</ele><time>2026-04-09T11:59:31Z</time></trkpt><trkpt lat="14.452017561469708" lon="121.04552561067015"><ele>13.0</ele><time>2026-04-09T11:59:32Z</time></trkpt><trkpt lat="14.452116686407898" lon="121.0455355543048"><ele>13.0</ele><time>2026-04-09T11:59:33Z</time></trkpt><trkpt lat="14.452214311629787" lon="121.04554934199946"><ele>13.0</ele><time>2026-04-09T11:59:34Z</time></trkpt><trkpt lat="14.452311976310257" lon="121.04556676902382"><ele>13.0</ele><time>2026-04-09T11:59:35Z</time></trkpt><trkpt lat="14.452407291792781" lon="121.0455876848065"><ele>13.0</ele><time>2026-04-09T11:59:36Z</time></trkpt><trkpt lat="14.452500305756722" lon="121.04561060926986"><ele>14.2</ele><time>2026-04-09T11:59:37Z</time></trkpt><trkpt lat="14.452590930685181" lon="121.04563534895419"><ele>15.4</ele><time>2026-04-09T11:59:38Z</time></trkpt><trkpt lat="14.45267955102899" lon="121.0456632520495"><ele>16.599999999999998</ele><time>2026-04-09T11:59:39Z</time></trkpt><trkpt lat="14.452765762173716" lon="121.04569180640647"><ele>17.8</ele><time>2026-04-09T11:59:40Z</time></trkpt><trkpt lat="14.452852089367711" lon="121.04572027694161"><ele>19.0</ele><time>2026-04-09T11:59:41Z</time></trkpt><trkpt lat="14.452933276426227" lon="121.04575403896695"><ele>19.666666666666664</ele><time>2026-04-09T11:59:42Z</time></trkpt><trkpt lat="14.453009622928409" lon="121.04579201576426"><ele>20.333333333333332</ele><time>2026-04-09T11:59:43Z</time></trkpt><trkpt lat="14.453082082465965" lon="121.04583218061858"><ele>21.0</ele><time>2026-04-09T11:59:44Z</time></trkpt><trkpt lat="14.45315281566929" lon="121.04586910430565"><ele>21.666666666666668</ele><time>2026-04-09T11:59:45Z</time></trkpt><trkpt lat="14.45321985640463" lon="121.04590455645493"><ele>22.333333333333336</ele><time>2026-04-09T11:59:46Z</time></trkpt><trkpt lat="14.453280575386744" lon="121.04593726394496"><ele>23.0</ele><time>2026-04-09T11:59:47Z</time></trkpt><trkpt lat="14.453384828116244" lon="121.04598265427309"><ele>23.2</ele><time>2026-04-09T11:59:49Z</time></trkpt><trkpt lat="14.453463163018403" lon="121.04600370308044"><ele>23.4</ele><time>2026-04-09T11:59:51Z</time></trkpt><trkpt lat="14.453533574558968" lon="121.04599749608784"><ele>23.599999999999998</ele><time>2026-04-09T11:59:54Z</time></trkpt><trkpt lat="14.453593218626269" lon="121.04595617766377"><ele>23.799999999999997</ele><time>2026-04-09T11:59:57Z</time></trkpt><trkpt lat="14.453673880240261" lon="121.04598704616838"><ele>24.0</ele><time>2026-04-09T12:00:00Z</time></trkpt><trkpt lat="14.453813963578323" lon="121.04577085532425"><ele>24.6</ele><time>2026-04-09T12:00:08Z</time></trkpt><trkpt lat="14.453902461675536" lon="121.04574136500804"><ele>25.2</ele><time>2026-04-09T12:00:10Z</time></trkpt><trkpt lat="14.454005826867805" lon="121.0457093067403"><ele>25.800000000000004</ele><time>2026-04-09T12:00:12Z</time></trkpt><trkpt lat="14.454112195846479" lon="121.04567133654544"><ele>26.400000000000002</ele><time>2026-04-09T12:00:14Z</time></trkpt><trkpt lat="14.454216651697857" lon="121.0456282061811"><ele>27.0</ele><time>2026-04-09T12:00:16Z</time></trkpt><trkpt lat="14.454313056553588" lon="121.0455914175169"><ele>27.0</ele><time>2026-04-09T12:00:18Z</time></trkpt><trkpt lat="14.454393708764178" lon="121.0455702665459"><ele>27.0</ele><time>2026-04-09T12:00:20Z</time></trkpt><trkpt lat="14.454455149964174" lon="121.0455553501594"><ele>27.0</ele><time>2026-04-09T12:00:22Z</time></trkpt><trkpt lat="14.454540354555547" lon="121.0455367168218"><ele>27.0</ele><time>2026-04-09T12:00:25Z</time></trkpt><trkpt lat="14.454618516929848" lon="121.04551461824403"><ele>27.0</ele><time>2026-04-09T12:00:27Z</time></trkpt><trkpt lat="14.454731756652308" lon="121.04549663945875"><ele>27.0</ele><time>2026-04-09T12:00:29Z</time></trkpt><trkpt lat="14.454794558286252" lon="121.0454853114887"><ele>27.833333333333332</ele><time>2026-04-09T12:00:30Z</time></trkpt><trkpt lat="14.454868549108305" lon="121.04547480369472"><ele>28.666666666666664</ele><time>2026-04-09T12:00:31Z</time></trkpt><trkpt lat="14.454941775321588" lon="121.04546483334869"><ele>29.5</ele><time>2026-04-09T12:00:32Z</time></trkpt><trkpt lat="14.455027280462126" lon="121.04545074036598"><ele>30.333333333333332</ele><time>2026-04-09T12:00:33Z</time></trkpt><trkpt lat="14.455112494664355" lon="121.04543793172424"><ele>31.166666666666664</ele><time>2026-04-09T12:00:34Z</time></trkpt><trkpt lat="14.455198340604172" lon="121.04542532847209"><ele>32.0</ele><time>2026-04-09T12:00:35Z</time></trkpt><trkpt lat="14.455289308206972" lon="121.04541498795106"><ele>32.0</ele><time>2026-04-09T12:00:36Z</time></trkpt><trkpt lat="14.455385076073318" lon="121.04540656743241"><ele>32.0</ele><time>2026-04-09T12:00:37Z</time></trkpt><trkpt lat="14.45548502340818" lon="121.04539945837693"><ele>32.0</ele><time>2026-04-09T12:00:38Z</time></trkpt><trkpt lat="14.455588840751439" lon="121.04539108772829"><ele>32.0</ele><time>2026-04-09T12:00:39Z</time></trkpt><trkpt lat="14.45569471868359" lon="121.0453841022285"><ele>32.0</ele><time>2026-04-09T12:00:40Z</time></trkpt><trkpt lat="14.455805034598647" lon="121.04537640973479"><ele>33.0</ele><time>2026-04-09T12:00:41Z</time></trkpt><trkpt lat="14.455921234377035" lon="121.04537286412555"><ele>34.0</ele><time>2026-04-09T12:00:42Z</time></trkpt><trkpt lat="14.456038023362229" lon="121.04537352494533"><ele>35.0</ele><time>2026-04-09T12:00:43Z</time></trkpt><trkpt lat="14.456164831828135" lon="121.0453861258014"><ele>36.0</ele><time>2026-04-09T12:00:44Z</time></trkpt><trkpt lat="14.456301189662833" lon="121.04538313117072"><ele>36.0</ele><time>2026-04-09T12:00:45Z</time></trkpt><trkpt lat="14.4564672034419" lon="121.04536454169491"><ele>36.0</ele><time>2026-04-09T12:00:46Z</time></trkpt><trkpt lat="14.456608252972295" lon="121.04536296394382"><ele>36.0</ele><time>2026-04-09T12:00:47Z</time></trkpt><trkpt lat="14.456748029547354" lon="121.0453566452974"><ele>36.0</ele><time>2026-04-09T12:00:48Z</time></trkpt><trkpt lat="14.456889528384222" lon="121.04534958414597"><ele>36.0</ele><time>2026-04-09T12:00:49Z</time></trkpt><trkpt lat="14.457033309209836" lon="121.04534557862861"><ele>36.0</ele><time>2026-04-09T12:00:50Z</time></trkpt><trkpt lat="14.457178505537179" lon="121.04533620508276"><ele>36.0</ele><time>2026-04-09T12:00:51Z</time></trkpt><trkpt lat="14.457324033294098" lon="121.04533382778324"><ele>36.0</ele><time>2026-04-09T12:00:52Z</time></trkpt><trkpt lat="14.457470289721385" lon="121.04532531881655"><ele>36.25</ele><time>2026-04-09T12:00:53Z</time></trkpt><trkpt lat="14.457618087785043" lon="121.04532084405916"><ele>36.5</ele><time>2026-04-09T12:00:54Z</time></trkpt><trkpt lat="14.457766211923065" lon="121.04531692902593"><ele>36.75</ele><time>2026-04-09T12:00:55Z</time></trkpt><trkpt lat="14.457914085686308" lon="121.04531268052548"><ele>37.0</ele><time>2026-04-09T12:00:56Z</time></trkpt><trkpt lat="14.458065438528338" lon="121.04531662028865"><ele>38.333333333333336</ele><time>2026-04-09T12:00:57Z</time></trkpt><trkpt lat="14.458213255963686" lon="121.04531217939696"><ele>39.666666666666664</ele><time>2026-04-09T12:00:58Z</time></trkpt><trkpt lat="14.45836240493418" lon="121.04530900795062"><ele>41.0</ele><time>2026-04-09T12:00:59Z</time></trkpt><trkpt lat="14.458516316536185" lon="121.04531653383407"><ele>41.0</ele><time>2026-04-09T12:01:00Z</time></trkpt><trkpt lat="14.458685054258181" lon="121.04532019004644"><ele>41.0</ele><time>2026-04-09T12:01:01.087Z</time></trkpt><trkpt lat="14.458836776287656" lon="121.04532998314696"><ele>41.0</ele><time>2026-04-09T12:01:02.046Z</time></trkpt><trkpt lat="14.458996856625742" lon="121.04533837821947"><ele>41.33333333333333</ele><time>2026-04-09T12:01:03.051Z</time></trkpt><trkpt lat="14.459157574497864" lon="121.04534445237967"><ele>41.666666666666664</ele><time>2026-04-09T12:01:04.044Z</time></trkpt><trkpt lat="14.45931871866441" lon="121.04535591966226"><ele>42.0</ele><time>2026-04-09T12:01:05.044Z</time></trkpt><trkpt lat="14.459481860531666" lon="121.04536429864635"><ele>42.0</ele><time>2026-04-09T12:01:06.038Z</time></trkpt><trkpt lat="14.459643407793166" lon="121.0453750602492"><ele>42.0</ele><time>2026-04-09T12:01:07.035Z</time></trkpt><trkpt lat="14.45980836463759" lon="121.04538639346734"><ele>42.0</ele><time>2026-04-09T12:01:08.038Z</time></trkpt><trkpt lat="14.459974271114412" lon="121.04539768252734"><ele>42.0</ele><time>2026-04-09T12:01:09.036Z</time></trkpt><trkpt lat="14.460219445500753" lon="121.04531231653353"><ele>42.0</ele><time>2026-04-09T12:01:10.036Z</time></trkpt><trkpt lat="14.460411282512808" lon="121.04529885974745"><ele>41.333333333333336</ele><time>2026-04-09T12:01:11.037Z</time></trkpt><trkpt lat="14.4605865156868" lon="121.04528872294377"><ele>40.66666666666667</ele><time>2026-04-09T12:01:12.041Z</time></trkpt><trkpt lat="14.460770718132425" lon="121.04528796323243"><ele>40.0</ele><time>2026-04-09T12:01:13.036Z</time></trkpt><trkpt lat="14.460931458171428" lon="121.04530287293117"><ele>40.0</ele><time>2026-04-09T12:01:14.035Z</time></trkpt><trkpt lat="14.461082739819135" lon="121.04532220931529"><ele>40.0</ele><time>2026-04-09T12:01:15.035Z</time></trkpt><trkpt lat="14.461224658293661" lon="121.0453411790737"><ele>40.0</ele><time>2026-04-09T12:01:16.034Z</time></trkpt><trkpt lat="14.461384408189257" lon="121.0453526607677"><ele>39.333333333333336</ele><time>2026-04-09T12:01:17.033Z</time></trkpt><trkpt lat="14.461547844210973" lon="121.0453663203923"><ele>38.666666666666664</ele><time>2026-04-09T12:01:18.037Z</time></trkpt><trkpt lat="14.461704388105018" lon="121.04537262607593"><ele>38.0</ele><time>2026-04-09T12:01:19.033Z</time></trkpt><trkpt lat="14.461858502891399" lon="121.04538154967452"><ele>37.666666666666664</ele><time>2026-04-09T12:01:20.032Z</time></trkpt><trkpt lat="14.46214649291991" lon="121.04538720156901"><ele>37.333333333333336</ele><time>2026-04-09T12:01:22.037Z</time></trkpt><trkpt lat="14.462293662610707" lon="121.04539944752364"><ele>37.0</ele><time>2026-04-09T12:01:23.035Z</time></trkpt><trkpt lat="14.462641382643232" lon="121.04542336892203"><ele>36.5</ele><time>2026-04-09T12:01:24.035Z</time></trkpt><trkpt lat="14.46295980242887" lon="121.04531809125974"><ele>36.0</ele><time>2026-04-09T12:01:26.035Z</time></trkpt><trkpt lat="14.463116168224305" lon="121.0453172518548"><ele>36.0</ele><time>2026-04-09T12:01:27.035Z</time></trkpt><trkpt lat="14.463259908664666" lon="121.04527092696605"><ele>36.0</ele><time>2026-04-09T12:01:28.036Z</time></trkpt><trkpt lat="14.463328594694314" lon="121.045183109566"><ele>36.0</ele><time>2026-04-09T12:01:29.033Z</time></trkpt><trkpt lat="14.46353680379377" lon="121.04524010935023"><ele>36.0</ele><time>2026-04-09T12:01:30.035Z</time></trkpt><trkpt lat="14.463709484423964" lon="121.04526321767385"><ele>36.0</ele><time>2026-04-09T12:01:31.032Z</time></trkpt><trkpt lat="14.463901055416951" lon="121.04529193848043"><ele>36.0</ele><time>2026-04-09T12:01:32.034Z</time></trkpt><trkpt lat="14.464109470339169" lon="121.04534373681761"><ele>36.666666666666664</ele><time>2026-04-09T12:01:33.034Z</time></trkpt><trkpt lat="14.464298347050805" lon="121.04537376845191"><ele>37.33333333333333</ele><time>2026-04-09T12:01:34.033Z</time></trkpt><trkpt lat="14.464471614685127" lon="121.0453872179972"><ele>38.0</ele><time>2026-04-09T12:01:35.035Z</time></trkpt><trkpt lat="14.464642064143904" lon="121.04540214317126"><ele>38.0</ele><time>2026-04-09T12:01:36.034Z</time></trkpt><trkpt lat="14.464813785579834" lon="121.04541794316168"><ele>38.0</ele><time>2026-04-09T12:01:37.034Z</time></trkpt><trkpt lat="14.46498628749871" lon="121.04543757389128"><ele>38.0</ele><time>2026-04-09T12:01:38.033Z</time></trkpt><trkpt lat="14.465102103205297" lon="121.04540493475349"><ele>38.0</ele><time>2026-04-09T12:01:39.031Z</time></trkpt><trkpt lat="14.46532156445684" lon="121.04546638196592"><ele>38.0</ele><time>2026-04-09T12:01:40.03Z</time></trkpt><trkpt lat="14.465499953092412" lon="121.04529003888992"><ele>38.0</ele><time>2026-04-09T12:01:41.026Z</time></trkpt><trkpt lat="14.466034659014634" lon="121.04528181020144"><ele>38.0</ele><time>2026-04-09T12:01:44.028Z</time></trkpt><trkpt lat="14.466177859245654" lon="121.04524151010651"><ele>38.0</ele><time>2026-04-09T12:01:45.027Z</time></trkpt><trkpt lat="14.46629287752615" lon="121.0451587263549"><ele>38.0</ele><time>2026-04-09T12:01:46.028Z</time></trkpt><trkpt lat="14.466395722840014" lon="121.0450578198526"><ele>38.0</ele><time>2026-04-09T12:01:47.027Z</time></trkpt><trkpt lat="14.466516420665238" lon="121.04499874895316"><ele>38.0</ele><time>2026-04-09T12:01:48.031Z</time></trkpt><trkpt lat="14.466810228176257" lon="121.04504561075996"><ele>38.0</ele><time>2026-04-09T12:01:49.027Z</time></trkpt><trkpt lat="14.466987838012889" lon="121.04523927247156"><ele>37.33333333333333</ele><time>2026-04-09T12:01:50.019Z</time></trkpt><trkpt lat="14.46718532430145" lon="121.04523772915266"><ele>36.666666666666664</ele><time>2026-04-09T12:01:51.018Z</time></trkpt><trkpt lat="14.467373237597082" lon="121.04523613688045"><ele>36.0</ele><time>2026-04-09T12:01:52.015Z</time></trkpt><trkpt lat="14.467559897922051" lon="121.04523520739265"><ele>36.0</ele><time>2026-04-09T12:01:53.017Z</time></trkpt><trkpt lat="14.467779869954887" lon="121.04523411202628"><ele>36.0</ele><time>2026-04-09T12:01:54.017Z</time></trkpt><trkpt lat="14.468404578557685" lon="121.04536827604247"><ele>34.5</ele><time>2026-04-09T12:01:56.016Z</time></trkpt><trkpt lat="14.46866002012797" lon="121.0453670055383"><ele>33.0</ele><time>2026-04-09T12:01:57.015Z</time></trkpt><trkpt lat="14.468968607594478" lon="121.04536546888163"><ele>36.0</ele><time>2026-04-09T12:01:58.014Z</time></trkpt><trkpt lat="14.469202718051818" lon="121.0458067619196"><ele>36.0</ele><time>2026-04-09T12:01:59.015Z</time></trkpt><trkpt lat="14.46946777073204" lon="121.0458817709132"><ele>36.0</ele><time>2026-04-09T12:02:00.015Z</time></trkpt><trkpt lat="14.469674004699831" lon="121.04589362775285"><ele>35.5</ele><time>2026-04-09T12:02:01.016Z</time></trkpt><trkpt lat="14.469883138523441" lon="121.04588314467257"><ele>35.0</ele><time>2026-04-09T12:02:02.014Z</time></trkpt><trkpt lat="14.47017760801002" lon="121.04573329594874"><ele>33.666666666666664</ele><time>2026-04-09T12:02:04.017Z</time></trkpt><trkpt lat="14.470371728054971" lon="121.0456963448194"><ele>32.333333333333336</ele><time>2026-04-09T12:02:05.016Z</time></trkpt><trkpt lat="14.470550334202168" lon="121.0456516736692"><ele>31.0</ele><time>2026-04-09T12:02:06.015Z</time></trkpt><trkpt lat="14.470838827954639" lon="121.04545308873622"><ele>31.0</ele><time>2026-04-09T12:02:07.015Z</time></trkpt><trkpt lat="14.471133292797798" lon="121.045467022671"><ele>31.0</ele><time>2026-04-09T12:02:09.014Z</time></trkpt><trkpt lat="14.471490545735376" lon="121.04545645558392"><ele>30.666666666666668</ele><time>2026-04-09T12:02:10.014Z</time></trkpt><trkpt lat="14.471691210730405" lon="121.04545483406721"><ele>30.333333333333336</ele><time>2026-04-09T12:02:11.013Z</time></trkpt><trkpt lat="14.471889183390113" lon="121.04541490247973"><ele>30.0</ele><time>2026-04-09T12:02:12.014Z</time></trkpt><trkpt lat="14.472091032912067" lon="121.04539158961903"><ele>29.666666666666664</ele><time>2026-04-09T12:02:13.014Z</time></trkpt><trkpt lat="14.472287526203413" lon="121.04537224647706"><ele>29.333333333333332</ele><time>2026-04-09T12:02:14.014Z</time></trkpt><trkpt lat="14.472479606351376" lon="121.04535795118343"><ele>29.0</ele><time>2026-04-09T12:02:15.015Z</time></trkpt><trkpt lat="14.472763688065134" lon="121.04534917545378"><ele>29.0</ele><time>2026-04-09T12:02:16.015Z</time></trkpt><trkpt lat="14.472930267814693" lon="121.04533275160368"><ele>29.0</ele><time>2026-04-09T12:02:17.017Z</time></trkpt><trkpt lat="14.473069812073252" lon="121.04531310798863"><ele>29.0</ele><time>2026-04-09T12:02:18.015Z</time></trkpt><trkpt lat="14.47325414259089" lon="121.04530412161803"><ele>30.0</ele><time>2026-04-09T12:02:19.014Z</time></trkpt><trkpt lat="14.473433369962525" lon="121.04530647424471"><ele>31.0</ele><time>2026-04-09T12:02:20.015Z</time></trkpt><trkpt lat="14.473612811470797" lon="121.04531117465157"><ele>32.0</ele><time>2026-04-09T12:02:21.014Z</time></trkpt><trkpt lat="14.473842222130944" lon="121.04533309462809"><ele>33.0</ele><time>2026-04-09T12:02:22.013Z</time></trkpt><trkpt lat="14.474026084879497" lon="121.045324565208"><ele>34.0</ele><time>2026-04-09T12:02:23.014Z</time></trkpt><trkpt lat="14.474210515704279" lon="121.04531507211294"><ele>35.0</ele><time>2026-04-09T12:02:24.013Z</time></trkpt><trkpt lat="14.474391484613937" lon="121.0453170114149"><ele>35.0</ele><time>2026-04-09T12:02:25.013Z</time></trkpt><trkpt lat="14.474574428762333" lon="121.0452998642716"><ele>35.0</ele><time>2026-04-09T12:02:26.014Z</time></trkpt><trkpt lat="14.47475959676638" lon="121.04528684492256"><ele>35.0</ele><time>2026-04-09T12:02:27.014Z</time></trkpt><trkpt lat="14.474943185176953" lon="121.04538106820573"><ele>35.33333333333333</ele><time>2026-04-09T12:02:28.013Z</time></trkpt><trkpt lat="14.475127813951367" lon="121.0452772034768"><ele>35.666666666666664</ele><time>2026-04-09T12:02:29.013Z</time></trkpt><trkpt lat="14.475313843093105" lon="121.04527149556317"><ele>36.0</ele><time>2026-04-09T12:02:30.013Z</time></trkpt><trkpt lat="14.475500243580639" lon="121.04526481218431"><ele>36.333333333333336</ele><time>2026-04-09T12:02:31.017Z</time></trkpt><trkpt lat="14.475685541075554" lon="121.04525949135967"><ele>36.66666666666667</ele><time>2026-04-09T12:02:32.014Z</time></trkpt><trkpt lat="14.475871469606933" lon="121.04525488032172"><ele>37.0</ele><time>2026-04-09T12:02:33.013Z</time></trkpt><trkpt lat="14.476063469212836" lon="121.04523947369289"><ele>37.0</ele><time>2026-04-09T12:02:34.012Z</time></trkpt><trkpt lat="14.476263710575253" lon="121.04519302649443"><ele>37.0</ele><time>2026-04-09T12:02:35.012Z</time></trkpt><trkpt lat="14.476456189554082" lon="121.0451800053091"><ele>37.0</ele><time>2026-04-09T12:02:36.014Z</time></trkpt><trkpt lat="14.476563309894193" lon="121.04556993898136"><ele>36.66666666666667</ele><time>2026-04-09T12:02:37.015Z</time></trkpt><trkpt lat="14.47667490937629" lon="121.04543463013019"><ele>36.333333333333336</ele><time>2026-04-09T12:02:38.014Z</time></trkpt><trkpt lat="14.476784774086523" lon="121.04543353472013"><ele>36.0</ele><time>2026-04-09T12:02:39.017Z</time></trkpt><trkpt lat="14.47696353000771" lon="121.04543316653647"><ele>36.0</ele><time>2026-04-09T12:02:40.013Z</time></trkpt><trkpt lat="14.47706755559976" lon="121.04541272736756"><ele>36.0</ele><time>2026-04-09T12:02:41.014Z</time></trkpt><trkpt lat="14.477202791945198" lon="121.04536456010906"><ele>36.0</ele><time>2026-04-09T12:02:42.015Z</time></trkpt><trkpt lat="14.477315943785088" lon="121.04536427593018"><ele>36.0</ele><time>2026-04-09T12:02:43.015Z</time></trkpt><trkpt lat="14.477629986528" lon="121.04536321069892"><ele>35.666666666666664</ele><time>2026-04-09T12:02:45.015Z</time></trkpt><trkpt lat="14.477810222981645" lon="121.04536210324004"><ele>35.33333333333333</ele><time>2026-04-09T12:02:46.016Z</time></trkpt><trkpt lat="14.477979138148012" lon="121.04535676386011"><ele>35.0</ele><time>2026-04-09T12:02:47.016Z</time></trkpt><trkpt lat="14.478103661050946" lon="121.04535646780832"><ele>35.0</ele><time>2026-04-09T12:02:48.015Z</time></trkpt><trkpt lat="14.478299948516034" lon="121.04535600114943"><ele>35.0</ele><time>2026-04-09T12:02:49.014Z</time></trkpt><trkpt lat="14.478617215635618" lon="121.04535516010843"><ele>35.0</ele><time>2026-04-09T12:02:50.014Z</time></trkpt><trkpt lat="14.478926323442376" lon="121.04535483297838"><ele>35.0</ele><time>2026-04-09T12:02:51.016Z</time></trkpt><trkpt lat="14.479372757472687" lon="121.04535613980856"><ele>34.0</ele><time>2026-04-09T12:02:52.016Z</time></trkpt><trkpt lat="14.479763055125336" lon="121.0453550188922"><ele>33.0</ele><time>2026-04-09T12:02:53.011Z</time></trkpt><trkpt lat="14.480041703814042" lon="121.04536163326794"><ele>33.0</ele><time>2026-04-09T12:02:54.011Z</time></trkpt><trkpt lat="14.480381452062653" lon="121.04535772857136"><ele>33.0</ele><time>2026-04-09T12:02:55.011Z</time></trkpt><trkpt lat="14.480700762477698" lon="121.04536706996996"><ele>33.0</ele><time>2026-04-09T12:02:56.01Z</time></trkpt><trkpt lat="14.48098179320552" lon="121.04536108788771"><ele>33.0</ele><time>2026-04-09T12:02:57.01Z</time></trkpt><trkpt lat="14.481548178874963" lon="121.04537988447099"><ele>33.0</ele><time>2026-04-09T12:02:58.01Z</time></trkpt><trkpt lat="14.481762470587213" lon="121.04538471638259"><ele>33.0</ele><time>2026-04-09T12:02:59.014Z</time></trkpt><trkpt lat="14.481978195631388" lon="121.04538563867295"><ele>33.0</ele><time>2026-04-09T12:03:00.012Z</time></trkpt><trkpt lat="14.482190367629821" lon="121.04538408736708"><ele>33.0</ele><time>2026-04-09T12:03:01.011Z</time></trkpt><trkpt lat="14.482402508092685" lon="121.04538053650737"><ele>33.0</ele><time>2026-04-09T12:03:02.011Z</time></trkpt><trkpt lat="14.48261390604883" lon="121.04537778558374"><ele>33.0</ele><time>2026-04-09T12:03:03.011Z</time></trkpt><trkpt lat="14.48277365260377" lon="121.04538103368023"><ele>32.666666666666664</ele><time>2026-04-09T12:03:04.011Z</time></trkpt><trkpt lat="14.482964638279462" lon="121.04538280652888"><ele>32.33333333333333</ele><time>2026-04-09T12:03:05.01Z</time></trkpt><trkpt lat="14.483166050966865" lon="121.0453821399404"><ele>32.0</ele><time>2026-04-09T12:03:06.008Z</time></trkpt><trkpt lat="14.483371483045586" lon="121.04538156830218"><ele>32.0</ele><time>2026-04-09T12:03:07.009Z</time></trkpt><trkpt lat="14.48358160809264" lon="121.04537932118"><ele>32.0</ele><time>2026-04-09T12:03:08.009Z</time></trkpt><trkpt lat="14.483789297795708" lon="121.04537252903125"><ele>32.0</ele><time>2026-04-09T12:03:09.008Z</time></trkpt><trkpt lat="14.484002052207419" lon="121.04537415162785"><ele>31.666666666666664</ele><time>2026-04-09T12:03:10.008Z</time></trkpt><trkpt lat="14.484215847056333" lon="121.04537622914349"><ele>31.333333333333336</ele><time>2026-04-09T12:03:11.011Z</time></trkpt><trkpt lat="14.48442872032702" lon="121.0453775505177"><ele>31.0</ele><time>2026-04-09T12:03:12.01Z</time></trkpt><trkpt lat="14.4848438278078" lon="121.04537659573154"><ele>23.0</ele><time>2026-04-09T12:03:14.01Z</time></trkpt><trkpt lat="14.509646843620715" lon="121.03354248105403"><ele>23.0</ele><time>2026-04-09T12:05:34Z</time></trkpt><trkpt lat="14.509845170231284" lon="121.03343555645341"><ele>23.0</ele><time>2026-04-09T12:05:35Z</time></trkpt><trkpt lat="14.510022535524115" lon="121.03327440126351"><ele>23.0</ele><time>2026-04-09T12:05:36Z</time></trkpt><trkpt lat="14.510198549883967" lon="121.03331584094668"><ele>23.0</ele><time>2026-04-09T12:05:37Z</time></trkpt><trkpt lat="14.510397783899915" lon="121.0331530665387"><ele>23.0</ele><time>2026-04-09T12:05:38Z</time></trkpt><trkpt lat="14.510579630034353" lon="121.03301786647917"><ele>24.333333333333336</ele><time>2026-04-09T12:05:39Z</time></trkpt><trkpt lat="14.510775239443058" lon="121.03291658311147"><ele>25.666666666666668</ele><time>2026-04-09T12:05:40Z</time></trkpt><trkpt lat="14.510972611654429" lon="121.03282098811331"><ele>27.0</ele><time>2026-04-09T12:05:41Z</time></trkpt><trkpt lat="14.511162921287836" lon="121.03271654820675"><ele>27.0</ele><time>2026-04-09T12:05:42Z</time></trkpt><trkpt lat="14.511349344876336" lon="121.03260633229968"><ele>27.0</ele><time>2026-04-09T12:05:43Z</time></trkpt><trkpt lat="14.511545356525227" lon="121.0325070072482"><ele>27.0</ele><time>2026-04-09T12:05:44Z</time></trkpt><trkpt lat="14.511741805083863" lon="121.03240757093377"><ele>26.333333333333336</ele><time>2026-04-09T12:05:45Z</time></trkpt><trkpt lat="14.511934793549788" lon="121.03230997186267"><ele>25.666666666666668</ele><time>2026-04-09T12:05:46Z</time></trkpt><trkpt lat="14.512126831451697" lon="121.03221070242536"><ele>25.0</ele><time>2026-04-09T12:05:47Z</time></trkpt><trkpt lat="14.512317406170379" lon="121.03211772289606"><ele>25.0</ele><time>2026-04-09T12:05:48Z</time></trkpt><trkpt lat="14.512505740878224" lon="121.03203235481571"><ele>25.0</ele><time>2026-04-09T12:05:49Z</time></trkpt><trkpt lat="14.512682096180436" lon="121.03193585145975"><ele>25.0</ele><time>2026-04-09T12:05:50Z</time></trkpt><trkpt lat="14.51286364496784" lon="121.03183584380228"><ele>24.666666666666668</ele><time>2026-04-09T12:05:51Z</time></trkpt><trkpt lat="14.513035823752455" lon="121.03170079381343"><ele>24.333333333333336</ele><time>2026-04-09T12:05:52Z</time></trkpt><trkpt lat="14.513225862753648" lon="121.03160801489915"><ele>24.0</ele><time>2026-04-09T12:05:53Z</time></trkpt><trkpt lat="14.513414756315473" lon="121.03150628464255"><ele>24.0</ele><time>2026-04-09T12:05:54Z</time></trkpt><trkpt lat="14.513602177443131" lon="121.03140443602632"><ele>24.0</ele><time>2026-04-09T12:05:55Z</time></trkpt><trkpt lat="14.513791089314674" lon="121.03130354865465"><ele>24.0</ele><time>2026-04-09T12:05:56Z</time></trkpt><trkpt lat="14.513980120608059" lon="121.03120150377484"><ele>24.0</ele><time>2026-04-09T12:05:57Z</time></trkpt><trkpt lat="14.51416503916152" lon="121.03109954892076"><ele>24.0</ele><time>2026-04-09T12:05:58Z</time></trkpt><trkpt lat="14.51434853562074" lon="121.03099973524601"><ele>24.0</ele><time>2026-04-09T12:05:59Z</time></trkpt><trkpt lat="14.514530153781905" lon="121.03090155247571"><ele>24.0</ele><time>2026-04-09T12:06:00Z</time></trkpt><trkpt lat="14.514708699163366" lon="121.0308046869046"><ele>24.0</ele><time>2026-04-09T12:06:01Z</time></trkpt><trkpt lat="14.51488762399409" lon="121.03070735231974"><ele>24.0</ele><time>2026-04-09T12:06:02Z</time></trkpt><trkpt lat="14.515062542977983" lon="121.03060871228763"><ele>24.0</ele><time>2026-04-09T12:06:03Z</time></trkpt><trkpt lat="14.515235875257906" lon="121.03051138892585"><ele>24.0</ele><time>2026-04-09T12:06:04Z</time></trkpt><trkpt lat="14.515404955484676" lon="121.03041848473987"><ele>24.0</ele><time>2026-04-09T12:06:05Z</time></trkpt><trkpt lat="14.515574551668717" lon="121.03032504617063"><ele>23.0</ele><time>2026-04-09T12:06:06Z</time></trkpt><trkpt lat="14.515741126047095" lon="121.03023627252264"><ele>22.0</ele><time>2026-04-09T12:06:07Z</time></trkpt><trkpt lat="14.515905970346523" lon="121.03015063514161"><ele>21.0</ele><time>2026-04-09T12:06:08Z</time></trkpt><trkpt lat="14.516067782812938" lon="121.03006711135706"><ele>21.0</ele><time>2026-04-09T12:06:09Z</time></trkpt><trkpt lat="14.516228837459145" lon="121.02998431443176"><ele>21.0</ele><time>2026-04-09T12:06:10Z</time></trkpt><trkpt lat="14.516384773116235" lon="121.02989953921497"><ele>21.0</ele><time>2026-04-09T12:06:11Z</time></trkpt><trkpt lat="14.51654127082133" lon="121.02981585727036"><ele>22.333333333333336</ele><time>2026-04-09T12:06:12Z</time></trkpt><trkpt lat="14.516695621853623" lon="121.02973298951326"><ele>23.666666666666668</ele><time>2026-04-09T12:06:13Z</time></trkpt><trkpt lat="14.516848512818532" lon="121.0296503049758"><ele>25.0</ele><time>2026-04-09T12:06:14Z</time></trkpt><trkpt lat="14.516998854145406" lon="121.029564179222"><ele>23.666666666666668</ele><time>2026-04-09T12:06:15Z</time></trkpt><trkpt lat="14.517146131839592" lon="121.02948053713796"><ele>22.333333333333336</ele><time>2026-04-09T12:06:16Z</time></trkpt><trkpt lat="14.517285240794768" lon="121.02939311870531"><ele>21.0</ele><time>2026-04-09T12:06:17Z</time></trkpt><trkpt lat="14.517419806346723" lon="121.02931049801371"><ele>21.0</ele><time>2026-04-09T12:06:18Z</time></trkpt><trkpt lat="14.517549530563945" lon="121.02922940144336"><ele>21.0</ele><time>2026-04-09T12:06:19Z</time></trkpt><trkpt lat="14.517673368474416" lon="121.02915313844971"><ele>21.0</ele><time>2026-04-09T12:06:20Z</time></trkpt><trkpt lat="14.51778694929428" lon="121.02907467822989"><ele>21.0</ele><time>2026-04-09T12:06:21Z</time></trkpt><trkpt lat="14.517892658869167" lon="121.0289964556053"><ele>21.0</ele><time>2026-04-09T12:06:22Z</time></trkpt><trkpt lat="14.51799166908545" lon="121.02891913826345"><ele>21.0</ele><time>2026-04-09T12:06:23Z</time></trkpt><trkpt lat="14.51808416800028" lon="121.02884517869975"><ele>21.0</ele><time>2026-04-09T12:06:24Z</time></trkpt><trkpt lat="14.518172056045564" lon="121.02877482517304"><ele>21.0</ele><time>2026-04-09T12:06:25Z</time></trkpt><trkpt lat="14.518253257933097" lon="121.02870932516385"><ele>21.0</ele><time>2026-04-09T12:06:26Z</time></trkpt><trkpt lat="14.518329101339875" lon="121.02865383495761"><ele>21.0</ele><time>2026-04-09T12:06:27Z</time></trkpt><trkpt lat="14.518401138427404" lon="121.02860220833696"><ele>21.0</ele><time>2026-04-09T12:06:28Z</time></trkpt><trkpt lat="14.51849316302494" lon="121.0286033502785"><ele>21.0</ele><time>2026-04-09T12:06:29Z</time></trkpt><trkpt lat="14.518558283388746" lon="121.02856855848927"><ele>21.0</ele><time>2026-04-09T12:06:30Z</time></trkpt><trkpt lat="14.518616041447448" lon="121.02853770017677"><ele>21.0</ele><time>2026-04-09T12:06:31Z</time></trkpt><trkpt lat="14.518712779386428" lon="121.02848601651378"><ele>20.714285714285715</ele><time>2026-04-09T12:06:33Z</time></trkpt><trkpt lat="14.518779356498603" lon="121.02845044671619"><ele>20.42857142857143</ele><time>2026-04-09T12:06:35Z</time></trkpt><trkpt lat="14.518838864124428" lon="121.02841865389817"><ele>20.142857142857142</ele><time>2026-04-09T12:06:38Z</time></trkpt><trkpt lat="14.518882239039234" lon="121.0284677346477"><ele>19.857142857142858</ele><time>2026-04-09T12:06:49Z</time></trkpt><trkpt lat="14.518928798805062" lon="121.0284214857408"><ele>19.571428571428573</ele><time>2026-04-09T12:06:59Z</time></trkpt><trkpt lat="14.51900985703086" lon="121.02837108941101"><ele>19.285714285714285</ele><time>2026-04-09T12:07:01Z</time></trkpt><trkpt lat="14.519079859030324" lon="121.02834194171075"><ele>19.0</ele><time>2026-04-09T12:07:02Z</time></trkpt><trkpt lat="14.519155648426707" lon="121.02830555693323"><ele>18.599999999999998</ele><time>2026-04-09T12:07:03Z</time></trkpt><trkpt lat="14.519245447588629" lon="121.02826851892635"><ele>18.2</ele><time>2026-04-09T12:07:04Z</time></trkpt><trkpt lat="14.519330994576816" lon="121.0282337187752"><ele>17.799999999999997</ele><time>2026-04-09T12:07:05Z</time></trkpt><trkpt lat="14.519424478305963" lon="121.02819853231041"><ele>17.4</ele><time>2026-04-09T12:07:06Z</time></trkpt><trkpt lat="14.519520658255534" lon="121.02816426532777"><ele>17.0</ele><time>2026-04-09T12:07:07Z</time></trkpt><trkpt lat="14.519622544431137" lon="121.02812987925326"><ele>17.0</ele><time>2026-04-09T12:07:08Z</time></trkpt><trkpt lat="14.519730007464869" lon="121.02809686290729"><ele>17.0</ele><time>2026-04-09T12:07:09Z</time></trkpt><trkpt lat="14.519840460436379" lon="121.0280616654958"><ele>17.0</ele><time>2026-04-09T12:07:10Z</time></trkpt><trkpt lat="14.519956490696474" lon="121.02802241333991"><ele>17.0</ele><time>2026-04-09T12:07:11Z</time></trkpt><trkpt lat="14.520075759697528" lon="121.02797962648019"><ele>17.0</ele><time>2026-04-09T12:07:12Z</time></trkpt><trkpt lat="14.520197820453188" lon="121.02793176525664"><ele>17.0</ele><time>2026-04-09T12:07:13Z</time></trkpt><trkpt lat="14.520320574197486" lon="121.02787727180988"><ele>17.0</ele><time>2026-04-09T12:07:14Z</time></trkpt><trkpt lat="14.520445600810683" lon="121.02781675407365"><ele>17.0</ele><time>2026-04-09T12:07:15Z</time></trkpt><trkpt lat="14.52057252989868" lon="121.02774949462228"><ele>16.75</ele><time>2026-04-09T12:07:16Z</time></trkpt><trkpt lat="14.520701532774487" lon="121.02768209823161"><ele>16.5</ele><time>2026-04-09T12:07:17Z</time></trkpt><trkpt lat="14.520833901988825" lon="121.0276098615032"><ele>16.25</ele><time>2026-04-09T12:07:18Z</time></trkpt><trkpt lat="14.520968060830794" lon="121.02753442828016"><ele>16.0</ele><time>2026-04-09T12:07:19Z</time></trkpt><trkpt lat="14.521104079734352" lon="121.02745733515673"><ele>16.0</ele><time>2026-04-09T12:07:20Z</time></trkpt><trkpt lat="14.52124216946884" lon="121.0273758822104"><ele>16.0</ele><time>2026-04-09T12:07:21Z</time></trkpt><trkpt lat="14.521380624065014" lon="121.02729219588595"><ele>16.0</ele><time>2026-04-09T12:07:22Z</time></trkpt><trkpt lat="14.52151997974267" lon="121.02720802431128"><ele>16.0</ele><time>2026-04-09T12:07:23Z</time></trkpt><trkpt lat="14.521659718646339" lon="121.0271214628704"><ele>16.0</ele><time>2026-04-09T12:07:24Z</time></trkpt><trkpt lat="14.521801534086048" lon="121.02703597190734"><ele>16.0</ele><time>2026-04-09T12:07:25Z</time></trkpt><trkpt lat="14.521944444557988" lon="121.02695131567634"><ele>16.333333333333332</ele><time>2026-04-09T12:07:26Z</time></trkpt><trkpt lat="14.522088393362921" lon="121.02686696383992"><ele>16.666666666666668</ele><time>2026-04-09T12:07:27Z</time></trkpt><trkpt lat="14.522233409801675" lon="121.02678465320444"><ele>17.0</ele><time>2026-04-09T12:07:28Z</time></trkpt><trkpt lat="14.522379725047822" lon="121.02670187882543"><ele>16.0</ele><time>2026-04-09T12:07:29Z</time></trkpt><trkpt lat="14.522528716014083" lon="121.02661803399414"><ele>15.0</ele><time>2026-04-09T12:07:30Z</time></trkpt><trkpt lat="14.522678792381159" lon="121.02653367974851"><ele>14.0</ele><time>2026-04-09T12:07:31Z</time></trkpt><trkpt lat="14.522831438117592" lon="121.0264462338631"><ele>14.666666666666668</ele><time>2026-04-09T12:07:32Z</time></trkpt><trkpt lat="14.52298842694881" lon="121.02636196841381"><ele>15.333333333333332</ele><time>2026-04-09T12:07:33Z</time></trkpt><trkpt lat="14.523147656588208" lon="121.02627652260601"><ele>16.0</ele><time>2026-04-09T12:07:34Z</time></trkpt><trkpt lat="14.52331012222254" lon="121.02619056905101"><ele>16.0</ele><time>2026-04-09T12:07:35Z</time></trkpt><trkpt lat="14.523474702195575" lon="121.02610311860577"><ele>16.0</ele><time>2026-04-09T12:07:36Z</time></trkpt><trkpt lat="14.523639928924066" lon="121.02601511070732"><ele>16.0</ele><time>2026-04-09T12:07:37Z</time></trkpt><trkpt lat="14.523806370904422" lon="121.02592759558748"><ele>16.333333333333332</ele><time>2026-04-09T12:07:38Z</time></trkpt><trkpt lat="14.523972306004861" lon="121.0258362776375"><ele>16.666666666666668</ele><time>2026-04-09T12:07:39Z</time></trkpt><trkpt lat="14.524138906833029" lon="121.0257454172274"><ele>17.0</ele><time>2026-04-09T12:07:40Z</time></trkpt><trkpt lat="14.524296658776999" lon="121.02565522943534"><ele>16.333333333333336</ele><time>2026-04-09T12:07:41Z</time></trkpt><trkpt lat="14.524458803563935" lon="121.02556514095137"><ele>15.666666666666668</ele><time>2026-04-09T12:07:42Z</time></trkpt><trkpt lat="14.524617058135275" lon="121.02547567788487"><ele>15.0</ele><time>2026-04-09T12:07:43Z</time></trkpt><trkpt lat="14.52477511158313" lon="121.02538633343826"><ele>13.666666666666666</ele><time>2026-04-09T12:07:44Z</time></trkpt><trkpt lat="14.52492856927167" lon="121.02530279225401"><ele>12.333333333333332</ele><time>2026-04-09T12:07:45Z</time></trkpt><trkpt lat="14.525090187326652" lon="121.02521647468167"><ele>11.0</ele><time>2026-04-09T12:07:46Z</time></trkpt><trkpt lat="14.52525250396139" lon="121.02513016790797"><ele>10.666666666666666</ele><time>2026-04-09T12:07:47Z</time></trkpt><trkpt lat="14.525414495447263" lon="121.02504447624322"><ele>10.333333333333334</ele><time>2026-04-09T12:07:48Z</time></trkpt><trkpt lat="14.525576810366957" lon="121.02495874144181"><ele>10.0</ele><time>2026-04-09T12:07:49Z</time></trkpt><trkpt lat="14.525738689451396" lon="121.02487099816294"><ele>10.666666666666668</ele><time>2026-04-09T12:07:50Z</time></trkpt><trkpt lat="14.525962985611663" lon="121.024864418589"><ele>11.333333333333334</ele><time>2026-04-09T12:07:51Z</time></trkpt><trkpt lat="14.52610479872374" lon="121.02474974791807"><ele>12.0</ele><time>2026-04-09T12:07:52Z</time></trkpt><trkpt lat="14.526246440092331" lon="121.02463537856771"><ele>12.0</ele><time>2026-04-09T12:07:53Z</time></trkpt><trkpt lat="14.526391412622065" lon="121.02452712480475"><ele>12.0</ele><time>2026-04-09T12:07:54Z</time></trkpt><trkpt lat="14.526551613153696" lon="121.02444303031902"><ele>12.0</ele><time>2026-04-09T12:07:55Z</time></trkpt><trkpt lat="14.526714440479145" lon="121.02436467330926"><ele>12.0</ele><time>2026-04-09T12:07:56Z</time></trkpt><trkpt lat="14.526877826912875" lon="121.02428603609356"><ele>12.0</ele><time>2026-04-09T12:07:57Z</time></trkpt><trkpt lat="14.52703515452702" lon="121.02419696258401"><ele>12.0</ele><time>2026-04-09T12:07:58Z</time></trkpt><trkpt lat="14.527191406825352" lon="121.02410197076205"><ele>11.666666666666666</ele><time>2026-04-09T12:07:59Z</time></trkpt><trkpt lat="14.527348674976482" lon="121.024016528886"><ele>11.333333333333332</ele><time>2026-04-09T12:08:00Z</time></trkpt><trkpt lat="14.527505916607689" lon="121.02393012598309"><ele>11.0</ele><time>2026-04-09T12:08:01Z</time></trkpt><trkpt lat="14.527667041960818" lon="121.02384065391868"><ele>11.0</ele><time>2026-04-09T12:08:02Z</time></trkpt><trkpt lat="14.527818964589734" lon="121.0237565681314"><ele>11.0</ele><time>2026-04-09T12:08:03Z</time></trkpt><trkpt lat="14.527971168579278" lon="121.02367265434988"><ele>11.0</ele><time>2026-04-09T12:08:04Z</time></trkpt><trkpt lat="14.528122555713626" lon="121.02358810097601"><ele>10.666666666666666</ele><time>2026-04-09T12:08:05Z</time></trkpt><trkpt lat="14.528275597337267" lon="121.02350413902562"><ele>10.333333333333334</ele><time>2026-04-09T12:08:06Z</time></trkpt><trkpt lat="14.52842913047584" lon="121.02341988702769"><ele>10.0</ele><time>2026-04-09T12:08:07Z</time></trkpt><trkpt lat="14.528583407085517" lon="121.02333486969286"><ele>10.0</ele><time>2026-04-09T12:08:08Z</time></trkpt><trkpt lat="14.528741739010867" lon="121.02325058005728"><ele>10.0</ele><time>2026-04-09T12:08:09Z</time></trkpt><trkpt lat="14.528897582496617" lon="121.02316668740332"><ele>10.0</ele><time>2026-04-09T12:08:10Z</time></trkpt><trkpt lat="14.52905328481673" lon="121.02308234699483"><ele>10.0</ele><time>2026-04-09T12:08:11Z</time></trkpt><trkpt lat="14.529211480149105" lon="121.02299743376784"><ele>10.0</ele><time>2026-04-09T12:08:12Z</time></trkpt><trkpt lat="14.529370666466438" lon="121.02291090607928"><ele>10.0</ele><time>2026-04-09T12:08:13Z</time></trkpt><trkpt lat="14.529529505992508" lon="121.02282445385612"><ele>10.333333333333334</ele><time>2026-04-09T12:08:14Z</time></trkpt><trkpt lat="14.529693919669667" lon="121.0227384018615"><ele>10.666666666666666</ele><time>2026-04-09T12:08:15Z</time></trkpt><trkpt lat="14.52985353008812" lon="121.02265268146795"><ele>11.0</ele><time>2026-04-09T12:08:16Z</time></trkpt><trkpt lat="14.530028520364759" lon="121.02256295842423"><ele>10.333333333333332</ele><time>2026-04-09T12:08:17Z</time></trkpt><trkpt lat="14.530192457113497" lon="121.02247478807496"><ele>9.666666666666666</ele><time>2026-04-09T12:08:18Z</time></trkpt><trkpt lat="14.530358841274142" lon="121.02238452957275"><ele>9.0</ele><time>2026-04-09T12:08:19Z</time></trkpt><trkpt lat="14.530525940481786" lon="121.02229199516275"><ele>9.0</ele><time>2026-04-09T12:08:20Z</time></trkpt><trkpt lat="14.530691044495661" lon="121.02220041817928"><ele>9.0</ele><time>2026-04-09T12:08:21Z</time></trkpt><trkpt lat="14.530849490279763" lon="121.02210351540982"><ele>9.0</ele><time>2026-04-09T12:08:22Z</time></trkpt><trkpt lat="14.53101269119708" lon="121.02201261592187"><ele>9.0</ele><time>2026-04-09T12:08:23Z</time></trkpt><trkpt lat="14.531170196565748" lon="121.02192118597651"><ele>9.0</ele><time>2026-04-09T12:08:24Z</time></trkpt><trkpt lat="14.531325385089142" lon="121.02182988227811"><ele>9.0</ele><time>2026-04-09T12:08:25Z</time></trkpt><trkpt lat="14.53148084857459" lon="121.02174231397169"><ele>8.666666666666666</ele><time>2026-04-09T12:08:26Z</time></trkpt><trkpt lat="14.531649032862925" lon="121.021651273123"><ele>8.333333333333332</ele><time>2026-04-09T12:08:27Z</time></trkpt><trkpt lat="14.531804388587629" lon="121.021558128765"><ele>8.0</ele><time>2026-04-09T12:08:28Z</time></trkpt><trkpt lat="14.531957471731076" lon="121.02146842619342"><ele>9.333333333333332</ele><time>2026-04-09T12:08:29Z</time></trkpt><trkpt lat="14.5320797161969" lon="121.02136504705743"><ele>10.666666666666666</ele><time>2026-04-09T12:08:30Z</time></trkpt><trkpt lat="14.53222590544886" lon="121.02127649381622"><ele>12.0</ele><time>2026-04-09T12:08:31Z</time></trkpt><trkpt lat="14.53244151310209" lon="121.02127157700258"><ele>12.0</ele><time>2026-04-09T12:08:32Z</time></trkpt><trkpt lat="14.532589552543532" lon="121.02118331454174"><ele>12.0</ele><time>2026-04-09T12:08:33Z</time></trkpt><trkpt lat="14.53274073500879" lon="121.0210981357936"><ele>12.0</ele><time>2026-04-09T12:08:34Z</time></trkpt><trkpt lat="14.53289087041481" lon="121.02101706776374"><ele>13.666666666666668</ele><time>2026-04-09T12:08:35Z</time></trkpt><trkpt lat="14.533041784736922" lon="121.02093000317828"><ele>15.333333333333334</ele><time>2026-04-09T12:08:36Z</time></trkpt><trkpt lat="14.533185158210165" lon="121.02084307009203"><ele>17.0</ele><time>2026-04-09T12:08:37Z</time></trkpt><trkpt lat="14.533345519803738" lon="121.02074344011749"><ele>17.0</ele><time>2026-04-09T12:08:38.071Z</time></trkpt><trkpt lat="14.5335061868997" lon="121.02064993430145"><ele>17.0</ele><time>2026-04-09T12:08:39.071Z</time></trkpt><trkpt lat="14.533658717317877" lon="121.02056287491878"><ele>17.0</ele><time>2026-04-09T12:08:40.026Z</time></trkpt><trkpt lat="14.533815909854509" lon="121.02047593815828"><ele>16.666666666666668</ele><time>2026-04-09T12:08:41.024Z</time></trkpt><trkpt lat="14.533978488462864" lon="121.02039294042363"><ele>16.333333333333332</ele><time>2026-04-09T12:08:42.023Z</time></trkpt><trkpt lat="14.534139567040603" lon="121.02030638777914"><ele>16.0</ele><time>2026-04-09T12:08:43.022Z</time></trkpt><trkpt lat="14.534310495795316" lon="121.02021621188618"><ele>16.0</ele><time>2026-04-09T12:08:44.021Z</time></trkpt><trkpt lat="14.534478149864778" lon="121.02012633457348"><ele>16.0</ele><time>2026-04-09T12:08:45.017Z</time></trkpt><trkpt lat="14.534646972814285" lon="121.02002874492327"><ele>16.0</ele><time>2026-04-09T12:08:46.017Z</time></trkpt><trkpt lat="14.53481865552862" lon="121.01992965099693"><ele>15.0</ele><time>2026-04-09T12:08:47.02Z</time></trkpt><trkpt lat="14.534989250453746" lon="121.01982729029528"><ele>14.0</ele><time>2026-04-09T12:08:48.019Z</time></trkpt><trkpt lat="14.535191633583175" lon="121.01973946850333"><ele>13.0</ele><time>2026-04-09T12:08:49.018Z</time></trkpt><trkpt lat="14.535370575672042" lon="121.01964399697552"><ele>13.666666666666666</ele><time>2026-04-09T12:08:50.016Z</time></trkpt><trkpt lat="14.535531426256828" lon="121.01955298305181"><ele>14.333333333333332</ele><time>2026-04-09T12:08:51.017Z</time></trkpt><trkpt lat="14.535700704512896" lon="121.01945098254157"><ele>15.0</ele><time>2026-04-09T12:08:52.016Z</time></trkpt><trkpt lat="14.535874166792945" lon="121.01935683145068"><ele>15.0</ele><time>2026-04-09T12:08:53.016Z</time></trkpt><trkpt lat="14.536028329471817" lon="121.01927261548784"><ele>15.0</ele><time>2026-04-09T12:08:54.017Z</time></trkpt><trkpt lat="14.536184683652333" lon="121.01916898435822"><ele>15.0</ele><time>2026-04-09T12:08:55.017Z</time></trkpt><trkpt lat="14.53633706816872" lon="121.01906446689893"><ele>13.666666666666666</ele><time>2026-04-09T12:08:56.017Z</time></trkpt><trkpt lat="14.536497155539752" lon="121.01896634208772"><ele>12.333333333333332</ele><time>2026-04-09T12:08:57.016Z</time></trkpt><trkpt lat="14.536657959895063" lon="121.01886755449449"><ele>11.0</ele><time>2026-04-09T12:08:58.019Z</time></trkpt><trkpt lat="14.536802641612784" lon="121.01876261974489"><ele>11.0</ele><time>2026-04-09T12:08:59.019Z</time></trkpt><trkpt lat="14.536944407239416" lon="121.0186639806595"><ele>11.0</ele><time>2026-04-09T12:09:00.019Z</time></trkpt><trkpt lat="14.537092824515755" lon="121.01856938128657"><ele>11.0</ele><time>2026-04-09T12:09:01.019Z</time></trkpt><trkpt lat="14.53725184570832" lon="121.01848016300161"><ele>11.0</ele><time>2026-04-09T12:09:02.018Z</time></trkpt><trkpt lat="14.537416120868922" lon="121.01838553156692"><ele>11.0</ele><time>2026-04-09T12:09:03.018Z</time></trkpt><trkpt lat="14.5375876362415" lon="121.01831012001746"><ele>11.0</ele><time>2026-04-09T12:09:04.019Z</time></trkpt><trkpt lat="14.537716008543299" lon="121.01820172247477"><ele>11.0</ele><time>2026-04-09T12:09:05.018Z</time></trkpt><trkpt lat="14.537830543908873" lon="121.0180857269077"><ele>11.0</ele><time>2026-04-09T12:09:06.019Z</time></trkpt><trkpt lat="14.537963905006706" lon="121.01798638634152"><ele>11.0</ele><time>2026-04-09T12:09:07.02Z</time></trkpt><trkpt lat="14.538087819774011" lon="121.01788799343348"><ele>11.0</ele><time>2026-04-09T12:09:08.019Z</time></trkpt><trkpt lat="14.53820784347725" lon="121.01778909693418"><ele>11.0</ele><time>2026-04-09T12:09:09.019Z</time></trkpt><trkpt lat="14.538323659736408" lon="121.01768844182952"><ele>11.0</ele><time>2026-04-09T12:09:10.019Z</time></trkpt><trkpt lat="14.538445074227266" lon="121.01760438293728"><ele>11.0</ele><time>2026-04-09T12:09:11.019Z</time></trkpt><trkpt lat="14.53857211425993" lon="121.01752042338897"><ele>11.0</ele><time>2026-04-09T12:09:12.019Z</time></trkpt><trkpt lat="14.538692207928255" lon="121.01743220138285"><ele>11.0</ele><time>2026-04-09T12:09:13.018Z</time></trkpt><trkpt lat="14.538799354191486" lon="121.01733531179912"><ele>11.0</ele><time>2026-04-09T12:09:14.017Z</time></trkpt><trkpt lat="14.538915628802187" lon="121.01724832962715"><ele>11.5</ele><time>2026-04-09T12:09:15.02Z</time></trkpt><trkpt lat="14.539018039211047" lon="121.01714659444012"><ele>12.0</ele><time>2026-04-09T12:09:16.017Z</time></trkpt><trkpt lat="14.539120266814965" lon="121.01704354244693"><ele>12.5</ele><time>2026-04-09T12:09:17.019Z</time></trkpt><trkpt lat="14.539217895200048" lon="121.01695831169086"><ele>13.0</ele><time>2026-04-09T12:09:18.019Z</time></trkpt><trkpt lat="14.539319432226256" lon="121.01686743947107"><ele>13.0</ele><time>2026-04-09T12:09:19.019Z</time></trkpt><trkpt lat="14.53941981078965" lon="121.0167785482251"><ele>13.0</ele><time>2026-04-09T12:09:20.018Z</time></trkpt><trkpt lat="14.53951506934563" lon="121.01669281288599"><ele>13.0</ele><time>2026-04-09T12:09:21.019Z</time></trkpt><trkpt lat="14.539616891515116" lon="121.01660591240197"><ele>13.0</ele><time>2026-04-09T12:09:22.022Z</time></trkpt><trkpt lat="14.539925787554148" lon="121.01691821080627"><ele>12.5</ele><time>2026-04-09T12:09:23.02Z</time></trkpt><trkpt lat="14.54020666850388" lon="121.01666813724081"><ele>12.0</ele><time>2026-04-09T12:09:24.018Z</time></trkpt><trkpt lat="14.540407314060179" lon="121.01663549073675"><ele>12.0</ele><time>2026-04-09T12:09:25.016Z</time></trkpt><trkpt lat="14.540579338494252" lon="121.01657340534489"><ele>12.0</ele><time>2026-04-09T12:09:26.016Z</time></trkpt><trkpt lat="14.540722674665659" lon="121.01648424910493"><ele>12.0</ele><time>2026-04-09T12:09:27.014Z</time></trkpt><trkpt lat="14.540864107943618" lon="121.01638582594569"><ele>12.0</ele><time>2026-04-09T12:09:28.016Z</time></trkpt><trkpt lat="14.54100354156787" lon="121.0162849748402"><ele>12.0</ele><time>2026-04-09T12:09:29.016Z</time></trkpt><trkpt lat="14.541140914877406" lon="121.01618307739028"><ele>12.0</ele><time>2026-04-09T12:09:30.015Z</time></trkpt><trkpt lat="14.541399809959628" lon="121.01632709018745"><ele>11.666666666666666</ele><time>2026-04-09T12:09:31.015Z</time></trkpt><trkpt lat="14.54154941210515" lon="121.01624982517626"><ele>11.333333333333332</ele><time>2026-04-09T12:09:32.016Z</time></trkpt><trkpt lat="14.541701651713561" lon="121.01617121381337"><ele>11.0</ele><time>2026-04-09T12:09:33.016Z</time></trkpt><trkpt lat="14.541851134428043" lon="121.01609871886367"><ele>11.0</ele><time>2026-04-09T12:09:34.015Z</time></trkpt><trkpt lat="14.54201304685971" lon="121.01601794723983"><ele>11.0</ele><time>2026-04-09T12:09:35.014Z</time></trkpt><trkpt lat="14.542169088124718" lon="121.01593780982427"><ele>11.0</ele><time>2026-04-09T12:09:36.015Z</time></trkpt><trkpt lat="14.542334806347315" lon="121.01585562799355"><ele>13.0</ele><time>2026-04-09T12:09:37.015Z</time></trkpt><trkpt lat="14.542508467563737" lon="121.0157694270653"><ele>15.0</ele><time>2026-04-09T12:09:38.016Z</time></trkpt><trkpt lat="14.542648025026285" lon="121.01569786106026"><ele>17.0</ele><time>2026-04-09T12:09:39.015Z</time></trkpt><trkpt lat="14.542790817657075" lon="121.01562306554915"><ele>15.333333333333334</ele><time>2026-04-09T12:09:40.012Z</time></trkpt><trkpt lat="14.542950922082747" lon="121.01553920209469"><ele>13.666666666666668</ele><time>2026-04-09T12:09:41.012Z</time></trkpt><trkpt lat="14.543120201752902" lon="121.01545053258323"><ele>12.0</ele><time>2026-04-09T12:09:42.011Z</time></trkpt><trkpt lat="14.543285477125897" lon="121.01536396055083"><ele>12.0</ele><time>2026-04-09T12:09:43.011Z</time></trkpt><trkpt lat="14.54345057200658" lon="121.01527748308226"><ele>12.0</ele><time>2026-04-09T12:09:44.012Z</time></trkpt><trkpt lat="14.543539505495282" lon="121.01523089861492"><ele>12.0</ele><time>2026-04-09T12:09:45.011Z</time></trkpt><trkpt lat="14.543622679960597" lon="121.01518658219734"><ele>12.0</ele><time>2026-04-09T12:09:46.011Z</time></trkpt><trkpt lat="14.54369141939076" lon="121.01514935516857"><ele>12.0</ele><time>2026-04-09T12:09:47.01Z</time></trkpt><trkpt lat="14.543447498733006" lon="121.01527909241086"><ele>12.0</ele><time>2026-04-09T12:09:49.014Z</time></trkpt><trkpt lat="14.543345929396631" lon="121.0153322947339"><ele>12.0</ele><time>2026-04-09T12:09:50.013Z</time></trkpt><trkpt lat="14.542891908466665" lon="121.01559287860127"><ele>12.0</ele><time>2026-04-09T12:09:51.009Z</time></trkpt><trkpt lat="14.543008216555705" lon="121.015538915625"><ele>12.0</ele><time>2026-04-09T12:09:53.012Z</time></trkpt><trkpt lat="14.543099796369841" lon="121.01549081924753"><ele>12.0</ele><time>2026-04-09T12:09:55.011Z</time></trkpt><trkpt lat="14.543179009301694" lon="121.01544885400753"><ele>12.0</ele><time>2026-04-09T12:09:56.01Z</time></trkpt><trkpt lat="14.543303560438266" lon="121.01538259598324"><ele>12.0</ele><time>2026-04-09T12:09:59.009Z</time></trkpt><trkpt lat="14.54350494400712" lon="121.01527605668754"><ele>12.0</ele><time>2026-04-09T12:10:01.012Z</time></trkpt><trkpt lat="14.543580056297532" lon="121.01523731954529"><ele>12.0</ele><time>2026-04-09T12:10:02.01Z</time></trkpt><trkpt lat="14.543758257335792" lon="121.01514344615906"><ele>12.0</ele><time>2026-04-09T12:10:03.01Z</time></trkpt><trkpt lat="14.543881722874602" lon="121.01507588230129"><ele>12.0</ele><time>2026-04-09T12:10:04.01Z</time></trkpt><trkpt lat="14.543967394211844" lon="121.01502672847458"><ele>12.0</ele><time>2026-04-09T12:10:05.01Z</time></trkpt><trkpt lat="14.544046458769602" lon="121.01498055536078"><ele>12.0</ele><time>2026-04-09T12:10:06.011Z</time></trkpt><trkpt lat="14.544151118942377" lon="121.0149212569797"><ele>12.0</ele><time>2026-04-09T12:10:07.011Z</time></trkpt><trkpt lat="14.544258427142406" lon="121.01486200609058"><ele>12.0</ele><time>2026-04-09T12:10:08.014Z</time></trkpt><trkpt lat="14.54438407739555" lon="121.01479282678109"><ele>12.0</ele><time>2026-04-09T12:10:09.012Z</time></trkpt><trkpt lat="14.544471660696207" lon="121.0147441600718"><ele>12.0</ele><time>2026-04-09T12:10:10.012Z</time></trkpt><trkpt lat="14.544553218767396" lon="121.0147001510262"><ele>12.0</ele><time>2026-04-09T12:10:11.013Z</time></trkpt><trkpt lat="14.54463845327784" lon="121.01465585123776"><ele>12.0</ele><time>2026-04-09T12:10:12.012Z</time></trkpt><trkpt lat="14.54472649059758" lon="121.01461341104125"><ele>12.0</ele><time>2026-04-09T12:10:13.011Z</time></trkpt><trkpt lat="14.544806530423102" lon="121.01457693196664"><ele>12.0</ele><time>2026-04-09T12:10:14.012Z</time></trkpt><trkpt lat="14.544895723103282" lon="121.01453570709921"><ele>12.0</ele><time>2026-04-09T12:10:15.03Z</time></trkpt><trkpt lat="14.544985246540724" lon="121.01449351810626"><ele>12.0</ele><time>2026-04-09T12:10:16.03Z</time></trkpt><trkpt lat="14.545048716613064" lon="121.01446545207718"><ele>12.0</ele><time>2026-04-09T12:10:17.028Z</time></trkpt><trkpt lat="14.545151157878397" lon="121.01441819170977"><ele>5.0</ele><time>2026-04-09T12:10:19.027Z</time></trkpt><trkpt lat="14.556925184129348" lon="121.00826611614032"><ele>8.0</ele><time>2026-04-09T12:13:38Z</time></trkpt><trkpt lat="14.557805672349756" lon="121.00728893389294"><ele>8.0</ele><time>2026-04-09T12:14:09Z</time></trkpt><trkpt lat="14.557762237158668" lon="121.00722731314004"><ele>8.0</ele><time>2026-04-09T12:14:10Z</time></trkpt><trkpt lat="14.557634451433769" lon="121.00712580236299"><ele>8.0</ele><time>2026-04-09T12:14:12Z</time></trkpt><trkpt lat="14.557564858949293" lon="121.00707608678547"><ele>8.0</ele><time>2026-04-09T12:14:13Z</time></trkpt><trkpt lat="14.55753673477749" lon="121.00700718399459"><ele>8.0</ele><time>2026-04-09T12:14:15Z</time></trkpt><trkpt lat="14.557468701090878" lon="121.006896859203"><ele>8.0</ele><time>2026-04-09T12:14:17Z</time></trkpt><trkpt lat="14.557418028107174" lon="121.00677802796805"><ele>8.0</ele><time>2026-04-09T12:14:19Z</time></trkpt><trkpt lat="14.557315805652681" lon="121.00658954818738"><ele>8.0</ele><time>2026-04-09T12:14:21Z</time></trkpt><trkpt lat="14.557265284087329" lon="121.0064481428799"><ele>7.666666666666666</ele><time>2026-04-09T12:14:22Z</time></trkpt><trkpt lat="14.557182853004766" lon="121.00622088669414"><ele>7.333333333333334</ele><time>2026-04-09T12:14:23Z</time></trkpt><trkpt lat="14.557123419817778" lon="121.00606455306135"><ele>7.0</ele><time>2026-04-09T12:14:24Z</time></trkpt><trkpt lat="14.557075363043028" lon="121.005978051388"><ele>7.0</ele><time>2026-04-09T12:14:25Z</time></trkpt><trkpt lat="14.557038643216197" lon="121.00591800532393"><ele>6.999999999999999</ele><time>2026-04-09T12:14:26Z</time></trkpt><trkpt lat="14.55699822988591" lon="121.0057854503713"><ele>6.999999999999999</ele><time>2026-04-09T12:14:28Z</time></trkpt><trkpt lat="14.556956350069886" lon="121.00572334922155"><ele>7.0</ele><time>2026-04-09T12:14:29Z</time></trkpt><trkpt lat="14.556887635464893" lon="121.00563088922468"><ele>7.0</ele><time>2026-04-09T12:14:31Z</time></trkpt><trkpt lat="14.556845770939779" lon="121.00555879399747"><ele>7.8</ele><time>2026-04-09T12:14:32Z</time></trkpt><trkpt lat="14.55680719799794" lon="121.0054837603267"><ele>8.6</ele><time>2026-04-09T12:14:33Z</time></trkpt><trkpt lat="14.556766811920017" lon="121.00540226911697"><ele>9.4</ele><time>2026-04-09T12:14:34Z</time></trkpt><trkpt lat="14.556728716663507" lon="121.00532035068795"><ele>10.200000000000001</ele><time>2026-04-09T12:14:35Z</time></trkpt><trkpt lat="14.556690080878685" lon="121.0052198739919"><ele>11.0</ele><time>2026-04-09T12:14:36Z</time></trkpt><trkpt lat="14.55665103362178" lon="121.00511755846745"><ele>11.0</ele><time>2026-04-09T12:14:37Z</time></trkpt><trkpt lat="14.556609074489478" lon="121.00501871454702"><ele>11.0</ele><time>2026-04-09T12:14:38Z</time></trkpt><trkpt lat="14.556570693615884" lon="121.00492901914456"><ele>11.0</ele><time>2026-04-09T12:14:39Z</time></trkpt><trkpt lat="14.556528435136533" lon="121.00483002739146"><ele>11.0</ele><time>2026-04-09T12:14:40Z</time></trkpt><trkpt lat="14.556486087821446" lon="121.00473195992177"><ele>11.0</ele><time>2026-04-09T12:14:41Z</time></trkpt><trkpt lat="14.55643682475472" lon="121.00463442235088"><ele>10.8</ele><time>2026-04-09T12:14:42Z</time></trkpt><trkpt lat="14.556391826029632" lon="121.00453401781843"><ele>10.600000000000001</ele><time>2026-04-09T12:14:43Z</time></trkpt><trkpt lat="14.55634723887499" lon="121.00444043348007"><ele>10.4</ele><time>2026-04-09T12:14:44Z</time></trkpt><trkpt lat="14.556300019020892" lon="121.00433877383952"><ele>10.2</ele><time>2026-04-09T12:14:45Z</time></trkpt><trkpt lat="14.556254093041552" lon="121.00423979365539"><ele>10.0</ele><time>2026-04-09T12:14:46Z</time></trkpt><trkpt lat="14.556211037900717" lon="121.00413766206314"><ele>9.4</ele><time>2026-04-09T12:14:47Z</time></trkpt><trkpt lat="14.55616921432208" lon="121.00403693132347"><ele>8.8</ele><time>2026-04-09T12:14:48Z</time></trkpt><trkpt lat="14.556127263384683" lon="121.00393282317414"><ele>8.2</ele><time>2026-04-09T12:14:49Z</time></trkpt><trkpt lat="14.556085909045132" lon="121.00382843624737"><ele>7.6</ele><time>2026-04-09T12:14:50Z</time></trkpt><trkpt lat="14.556045463826525" lon="121.0037267944306"><ele>7.0</ele><time>2026-04-09T12:14:51Z</time></trkpt><trkpt lat="14.55600733723084" lon="121.00362954146733"><ele>7.0</ele><time>2026-04-09T12:14:52Z</time></trkpt><trkpt lat="14.55597122360613" lon="121.0035372951048"><ele>6.999999999999999</ele><time>2026-04-09T12:14:53Z</time></trkpt><trkpt lat="14.555934410825074" lon="121.00344324323761"><ele>6.999999999999999</ele><time>2026-04-09T12:14:54Z</time></trkpt><trkpt lat="14.555898167807262" lon="121.0033509352998"><ele>7.0</ele><time>2026-04-09T12:14:55Z</time></trkpt><trkpt lat="14.555864243929154" lon="121.00325719313474"><ele>7.0</ele><time>2026-04-09T12:14:56Z</time></trkpt><trkpt lat="14.555831211244367" lon="121.00316024094181"><ele>7.0</ele><time>2026-04-09T12:14:57Z</time></trkpt><trkpt lat="14.55579488586241" lon="121.00305846759981"><ele>6.999999999999999</ele><time>2026-04-09T12:14:58Z</time></trkpt><trkpt lat="14.555763559639365" lon="121.00295518459971"><ele>6.999999999999999</ele><time>2026-04-09T12:14:59Z</time></trkpt><trkpt lat="14.555730499441742" lon="121.00284999487475"><ele>7.0</ele><time>2026-04-09T12:15:00Z</time></trkpt><trkpt lat="14.5556971286986" lon="121.00274344003945"><ele>7.0</ele><time>2026-04-09T12:15:01Z</time></trkpt><trkpt lat="14.555668783114553" lon="121.0026330487314"><ele>7.0</ele><time>2026-04-09T12:15:02Z</time></trkpt><trkpt lat="14.555635371200596" lon="121.00252103433114"><ele>7.0</ele><time>2026-04-09T12:15:03Z</time></trkpt><trkpt lat="14.555604529529049" lon="121.00240957994086"><ele>7.0</ele><time>2026-04-09T12:15:04Z</time></trkpt><trkpt lat="14.555572655733634" lon="121.00229880850256"><ele>7.0</ele><time>2026-04-09T12:15:05Z</time></trkpt><trkpt lat="14.55554109147267" lon="121.00218528646764"><ele>7.6</ele><time>2026-04-09T12:15:06Z</time></trkpt><trkpt lat="14.555511571250472" lon="121.00207870680485"><ele>8.2</ele><time>2026-04-09T12:15:07Z</time></trkpt><trkpt lat="14.55548250061958" lon="121.00197976740651"><ele>8.8</ele><time>2026-04-09T12:15:08Z</time></trkpt><trkpt lat="14.555455986928955" lon="121.00188368805924"><ele>9.4</ele><time>2026-04-09T12:15:09Z</time></trkpt><trkpt lat="14.55542955906745" lon="121.0017828233354"><ele>10.0</ele><time>2026-04-09T12:15:10Z</time></trkpt><trkpt lat="14.555401954857226" lon="121.00167975164784"><ele>9.6</ele><time>2026-04-09T12:15:11Z</time></trkpt><trkpt lat="14.55537511822418" lon="121.00157594750806"><ele>9.2</ele><time>2026-04-09T12:15:12Z</time></trkpt><trkpt lat="14.555348539311701" lon="121.00147018493472"><ele>8.8</ele><time>2026-04-09T12:15:13Z</time></trkpt><trkpt lat="14.555320640690693" lon="121.00136105427964"><ele>8.4</ele><time>2026-04-09T12:15:14Z</time></trkpt><trkpt lat="14.555295304996823" lon="121.0012500069302"><ele>8.0</ele><time>2026-04-09T12:15:15Z</time></trkpt><trkpt lat="14.555269332768239" lon="121.0011405964729"><ele>8.0</ele><time>2026-04-09T12:15:16Z</time></trkpt><trkpt lat="14.555243230584338" lon="121.00103296619919"><ele>8.0</ele><time>2026-04-09T12:15:17Z</time></trkpt><trkpt lat="14.555213605249984" lon="121.00092570769804"><ele>8.0</ele><time>2026-04-09T12:15:18Z</time></trkpt><trkpt lat="14.555182912571459" lon="121.00082102916886"><ele>8.0</ele><time>2026-04-09T12:15:19Z</time></trkpt><trkpt lat="14.555152177173301" lon="121.00071825463662"><ele>8.0</ele><time>2026-04-09T12:15:20Z</time></trkpt><trkpt lat="14.555123632362978" lon="121.00062172722639"><ele>7.833333333333333</ele><time>2026-04-09T12:15:21Z</time></trkpt><trkpt lat="14.555097046897135" lon="121.00052779728944"><ele>7.666666666666666</ele><time>2026-04-09T12:15:22Z</time></trkpt><trkpt lat="14.555071247687994" lon="121.00044148131606"><ele>7.5</ele><time>2026-04-09T12:15:23Z</time></trkpt><trkpt lat="14.555047780922907" lon="121.00036151025718"><ele>7.333333333333334</ele><time>2026-04-09T12:15:24Z</time></trkpt><trkpt lat="14.555025128204178" lon="121.00028357856947"><ele>7.166666666666667</ele><time>2026-04-09T12:15:25Z</time></trkpt><trkpt lat="14.55500307257021" lon="121.00020309337785"><ele>7.0</ele><time>2026-04-09T12:15:26Z</time></trkpt><trkpt lat="14.554980877802226" lon="121.00012489284632"><ele>7.000000000000001</ele><time>2026-04-09T12:15:27Z</time></trkpt><trkpt lat="14.554957874675969" lon="121.00004708356927"><ele>7.0</ele><time>2026-04-09T12:15:28Z</time></trkpt><trkpt lat="14.55493761171258" lon="120.99997059173718"><ele>7.0</ele><time>2026-04-09T12:15:29Z</time></trkpt><trkpt lat="14.554916224027458" lon="120.99989405122781"><ele>7.0</ele><time>2026-04-09T12:15:30Z</time></trkpt><trkpt lat="14.554899925507554" lon="120.99982661680988"><ele>7.000000000000001</ele><time>2026-04-09T12:15:31Z</time></trkpt><trkpt lat="14.554880244617346" lon="120.99975926331325"><ele>7.0</ele><time>2026-04-09T12:15:32Z</time></trkpt><trkpt lat="14.554850564546541" lon="120.99965183095337"><ele>7.000000000000001</ele><time>2026-04-09T12:15:34Z</time></trkpt><trkpt lat="14.554831682220234" lon="120.99957824078889"><ele>7.0</ele><time>2026-04-09T12:15:36Z</time></trkpt><trkpt lat="14.55481785005593" lon="120.99950304283256"><ele>7.0</ele><time>2026-04-09T12:15:38Z</time></trkpt><trkpt lat="14.554794881700241" lon="120.999373821936"><ele>7.0</ele><time>2026-04-09T12:15:40Z</time></trkpt><trkpt lat="14.554778341694773" lon="120.99929670028867"><ele>7.000000000000001</ele><time>2026-04-09T12:15:41Z</time></trkpt><trkpt lat="14.55475654788635" lon="120.99921300487327"><ele>7.0</ele><time>2026-04-09T12:15:42Z</time></trkpt><trkpt lat="14.554729875908315" lon="120.99912656240136"><ele>7.199999999999999</ele><time>2026-04-09T12:15:43Z</time></trkpt><trkpt lat="14.554703963540568" lon="120.99903937617954"><ele>7.3999999999999995</ele><time>2026-04-09T12:15:44Z</time></trkpt><trkpt lat="14.554674455191263" lon="120.99894628221783"><ele>7.6000000000000005</ele><time>2026-04-09T12:15:45Z</time></trkpt><trkpt lat="14.554645579134922" lon="120.99885205282087"><ele>7.800000000000001</ele><time>2026-04-09T12:15:46Z</time></trkpt><trkpt lat="14.554617731575359" lon="120.99875518876999"><ele>8.0</ele><time>2026-04-09T12:15:47Z</time></trkpt><trkpt lat="14.554590794970832" lon="120.99865844737504"><ele>7.999999999999999</ele><time>2026-04-09T12:15:48Z</time></trkpt><trkpt lat="14.554565726226969" lon="120.99856596368967"><ele>8.0</ele><time>2026-04-09T12:15:49Z</time></trkpt><trkpt lat="14.554542281497625" lon="120.99847151143157"><ele>8.0</ele><time>2026-04-09T12:15:50Z</time></trkpt><trkpt lat="14.554520009724794" lon="120.99838369008594"><ele>8.0</ele><time>2026-04-09T12:15:51Z</time></trkpt><trkpt lat="14.554496602226067" lon="120.99829688028302"><ele>7.999999999999999</ele><time>2026-04-09T12:15:52Z</time></trkpt><trkpt lat="14.55447195620341" lon="120.99821219533818"><ele>8.0</ele><time>2026-04-09T12:15:53Z</time></trkpt><trkpt lat="14.55444897867519" lon="120.99812864026154"><ele>7.833333333333333</ele><time>2026-04-09T12:15:54Z</time></trkpt><trkpt lat="14.554428425575011" lon="120.99804346756872"><ele>7.666666666666666</ele><time>2026-04-09T12:15:55Z</time></trkpt><trkpt lat="14.554408915586011" lon="120.9979574152947"><ele>7.5</ele><time>2026-04-09T12:15:56Z</time></trkpt><trkpt lat="14.55438855072025" lon="120.99787241607552"><ele>7.333333333333334</ele><time>2026-04-09T12:15:57Z</time></trkpt><trkpt lat="14.55436818558585" lon="120.99778955321634"><ele>7.166666666666667</ele><time>2026-04-09T12:15:58Z</time></trkpt><trkpt lat="14.554350491076862" lon="120.99770724962748"><ele>7.0</ele><time>2026-04-09T12:15:59Z</time></trkpt><trkpt lat="14.55433032280657" lon="120.99761954001539"><ele>7.000000000000001</ele><time>2026-04-09T12:16:00Z</time></trkpt><trkpt lat="14.554312919408803" lon="120.99753602869337"><ele>7.0</ele><time>2026-04-09T12:16:01Z</time></trkpt><trkpt lat="14.554295883256803" lon="120.99745727428221"><ele>7.0</ele><time>2026-04-09T12:16:02Z</time></trkpt><trkpt lat="14.554281080868858" lon="120.99738663071766"><ele>7.0</ele><time>2026-04-09T12:16:03Z</time></trkpt><trkpt lat="14.554239383743514" lon="120.99729202754965"><ele>7.000000000000001</ele><time>2026-04-09T12:16:05Z</time></trkpt><trkpt lat="14.554261925338603" lon="120.99721285908062"><ele>7.0</ele><time>2026-04-09T12:16:07Z</time></trkpt><trkpt lat="14.554292018008466" lon="120.99713146420015"><ele>6.833333333333334</ele><time>2026-04-09T12:16:10Z</time></trkpt><trkpt lat="14.554353643633803" lon="120.99706416930685"><ele>6.666666666666667</ele><time>2026-04-09T12:16:13Z</time></trkpt><trkpt lat="14.554430732122215" lon="120.99701098272928"><ele>6.5</ele><time>2026-04-09T12:16:16Z</time></trkpt><trkpt lat="14.554477533092642" lon="120.99706802898906"><ele>6.333333333333334</ele><time>2026-04-09T12:16:17Z</time></trkpt><trkpt lat="14.554587088969688" lon="120.99704263606128"><ele>6.166666666666667</ele><time>2026-04-09T12:16:20.054Z</time></trkpt><trkpt lat="14.554657304378262" lon="120.99705157968339"><ele>6.0</ele><time>2026-04-09T12:16:21.051Z</time></trkpt><trkpt lat="14.554779055287439" lon="120.99703914149423"><ele>6.75</ele><time>2026-04-09T12:16:23.044Z</time></trkpt><trkpt lat="14.554899405710088" lon="120.99701956665014"><ele>7.5</ele><time>2026-04-09T12:16:25.042Z</time></trkpt><trkpt lat="14.555014590653348" lon="120.99699415657041"><ele>8.25</ele><time>2026-04-09T12:16:27.042Z</time></trkpt><trkpt lat="14.55517566622493" lon="120.99695574576081"><ele>9.0</ele><time>2026-04-09T12:16:29.035Z</time></trkpt><trkpt lat="14.555241782664805" lon="120.99693884467243"><ele>9.0</ele><time>2026-04-09T12:16:30.035Z</time></trkpt><trkpt lat="14.555307402669403" lon="120.99692208910037"><ele>9.0</ele><time>2026-04-09T12:16:31.035Z</time></trkpt><trkpt lat="14.555375149518103" lon="120.99690594445102"><ele>9.0</ele><time>2026-04-09T12:16:32.036Z</time></trkpt><trkpt lat="14.555495028562586" lon="120.99687248448211"><ele>9.0</ele><time>2026-04-09T12:16:34.033Z</time></trkpt><trkpt lat="14.555610747292835" lon="120.99683411193192"><ele>9.0</ele><time>2026-04-09T12:16:36.034Z</time></trkpt><trkpt lat="14.555711977982078" lon="120.99679877874725"><ele>9.0</ele><time>2026-04-09T12:16:38.032Z</time></trkpt><trkpt lat="14.555533023940617" lon="120.99682138100293"><ele>9.0</ele><time>2026-04-09T12:16:39.036Z</time></trkpt><trkpt lat="14.555624202680258" lon="120.99682015791947"><ele>9.0</ele><time>2026-04-09T12:16:43.034Z</time></trkpt><trkpt lat="14.555685607196214" lon="120.99680537780895"><ele>9.0</ele><time>2026-04-09T12:16:46.032Z</time></trkpt><trkpt lat="14.555859215966034" lon="120.99679863567947"><ele>9.0</ele><time>2026-04-09T12:16:51.032Z</time></trkpt><trkpt lat="14.555950033520856" lon="120.99678106266262"><ele>9.0</ele><time>2026-04-09T12:16:52.035Z</time></trkpt><trkpt lat="14.556030388232141" lon="120.99676194894109"><ele>9.0</ele><time>2026-04-09T12:16:53.032Z</time></trkpt><trkpt lat="14.55610127015673" lon="120.9967433375527"><ele>9.0</ele><time>2026-04-09T12:16:54.032Z</time></trkpt><trkpt lat="14.556168778017327" lon="120.99672660138127"><ele>9.0</ele><time>2026-04-09T12:16:55.032Z</time></trkpt><trkpt lat="14.556233053536356" lon="120.9966870730904"><ele>9.0</ele><time>2026-04-09T12:16:56.033Z</time></trkpt><trkpt lat="14.556296263953401" lon="120.99666054238834"><ele>8.8</ele><time>2026-04-09T12:16:57.032Z</time></trkpt><trkpt lat="14.556388052628353" lon="120.99664940073352"><ele>8.600000000000001</ele><time>2026-04-09T12:16:58.027Z</time></trkpt><trkpt lat="14.55649705786243" lon="120.99662311932957"><ele>8.4</ele><time>2026-04-09T12:17:00.025Z</time></trkpt><trkpt lat="14.556583804075412" lon="120.99660298881058"><ele>8.200000000000001</ele><time>2026-04-09T12:17:02.027Z</time></trkpt><trkpt lat="14.556726494079452" lon="120.99656990763089"><ele>8.0</ele><time>2026-04-09T12:17:09.009Z</time></trkpt><trkpt lat="14.556862192215807" lon="120.99653885351654"><ele>9.5</ele><time>2026-04-09T12:17:11.01Z</time></trkpt><trkpt lat="14.557082732743979" lon="120.99648849150094"><ele>11.0</ele><time>2026-04-09T12:17:12.01Z</time></trkpt><trkpt lat="14.557347904243914" lon="120.99641547871106"><ele>11.0</ele><time>2026-04-09T12:17:13.011Z</time></trkpt><trkpt lat="14.557470928702518" lon="120.99626414209746"><ele>11.0</ele><time>2026-04-09T12:17:22.014Z</time></trkpt><trkpt lat="14.5577305178876" lon="120.99621545052239"><ele>10.0</ele><time>2026-04-09T12:17:23.014Z</time></trkpt><trkpt lat="14.558017091836959" lon="120.99602531046736"><ele>9.0</ele><time>2026-04-09T12:17:24.016Z</time></trkpt><trkpt lat="14.558158800836711" lon="120.9960688835282"><ele>9.0</ele><time>2026-04-09T12:17:28Z</time></trkpt><trkpt lat="14.558177897018115" lon="120.99615889743008"><ele>9.0</ele><time>2026-04-09T12:17:30Z</time></trkpt><trkpt lat="14.558151897812447" lon="120.9959680745418"><ele>9.0</ele><time>2026-04-09T12:17:38Z</time></trkpt><trkpt lat="14.55812946507202" lon="120.99589830530243"><ele>9.0</ele><time>2026-04-09T12:17:41Z</time></trkpt><trkpt lat="14.558087137119946" lon="120.99583837224007"><ele>9.0</ele><time>2026-04-09T12:17:44Z</time></trkpt><trkpt lat="14.55806467287343" lon="120.9957389401532"><ele>9.0</ele><time>2026-04-09T12:17:47Z</time></trkpt><trkpt lat="14.558050303841185" lon="120.99564709205868"><ele>9.0</ele><time>2026-04-09T12:17:49Z</time></trkpt><trkpt lat="14.558040515786617" lon="120.99556313125255"><ele>9.0</ele><time>2026-04-09T12:17:51Z</time></trkpt><trkpt lat="14.55802551443022" lon="120.99548797340319"><ele>9.0</ele><time>2026-04-09T12:17:53Z</time></trkpt><trkpt lat="14.557998457891491" lon="120.99542789034876"><ele>9.0</ele><time>2026-04-09T12:17:54.999Z</time></trkpt><trkpt lat="14.557824871064957" lon="120.99549678315255"><ele>9.000000000000002</ele><time>2026-04-09T12:17:58.999Z</time></trkpt><trkpt lat="14.557768725627506" lon="120.99552914852957"><ele>9.0</ele><time>2026-04-09T12:18:01.999Z</time></trkpt><trkpt lat="14.557730826642985" lon="120.99560207434841"><ele>9.0</ele><time>2026-04-09T12:18:04.999Z</time></trkpt><trkpt lat="14.557743475593915" lon="120.9956660723415"><ele>9.0</ele><time>2026-04-09T12:18:06.999Z</time></trkpt><trkpt lat="14.557809426222581" lon="120.9957282019132"><ele>9.0</ele><time>2026-04-09T12:18:09.999Z</time></trkpt><trkpt lat="14.557872620857664" lon="120.99571580398882"><ele>9.000000000000002</ele><time>2026-04-09T12:18:11.999Z</time></trkpt><trkpt lat="14.557932015450639" lon="120.99568921271036"><ele>9.0</ele><time>2026-04-09T12:18:15Z</time></trkpt><trkpt lat="14.55794409778778" lon="120.9956214681682"><ele>9.0</ele><time>2026-04-09T12:18:19Z</time></trkpt><trkpt lat="14.557915581773281" lon="120.99553246947688"><ele>9.0</ele><time>2026-04-09T12:18:22Z</time></trkpt><trkpt lat="14.557859762625784" lon="120.9954910834282"><ele>9.0</ele><time>2026-04-09T12:18:25Z</time></trkpt><trkpt lat="14.557791528915443" lon="120.99551561351713"><ele>9.0</ele><time>2026-04-09T12:18:29Z</time></trkpt><trkpt lat="14.557741249166298" lon="120.99557363247503"><ele>9.0</ele><time>2026-04-09T12:18:32Z</time></trkpt><trkpt lat="14.557741815164288" lon="120.99566196758356"><ele>9.0</ele><time>2026-04-09T12:18:35Z</time></trkpt><trkpt lat="14.557792918561342" lon="120.9957249414324"><ele>9.0</ele><time>2026-04-09T12:18:38Z</time></trkpt><trkpt lat="14.557874710862661" lon="120.99571990289634"><ele>9.0</ele><time>2026-04-09T12:18:41Z</time></trkpt><trkpt lat="14.557938147283396" lon="120.99566539870789"><ele>9.0</ele><time>2026-04-09T12:18:44Z</time></trkpt><trkpt lat="14.557945881068093" lon="120.99559743396911"><ele>9.0</ele><time>2026-04-09T12:18:46Z</time></trkpt><trkpt lat="14.557925709042259" lon="120.99553298726713"><ele>9.0</ele><time>2026-04-09T12:18:48Z</time></trkpt><trkpt lat="14.55785842072634" lon="120.99548228188584"><ele>9.0</ele><time>2026-04-09T12:18:51Z</time></trkpt><trkpt lat="14.557783537449874" lon="120.99552174692997"><ele>9.0</ele><time>2026-04-09T12:18:55Z</time></trkpt><trkpt lat="14.557736392238162" lon="120.99558306006902"><ele>9.0</ele><time>2026-04-09T12:18:58Z</time></trkpt><trkpt lat="14.55774338934062" lon="120.99567071322471"><ele>9.0</ele><time>2026-04-09T12:19:01Z</time></trkpt><trkpt lat="14.557800857282333" lon="120.99573031367883"><ele>9.0</ele><time>2026-04-09T12:19:04Z</time></trkpt><trkpt lat="14.557884700019585" lon="120.99571804017022"><ele>9.0</ele><time>2026-04-09T12:19:07Z</time></trkpt><trkpt lat="14.557948569455979" lon="120.99564941148378"><ele>9.0</ele><time>2026-04-09T12:19:10Z</time></trkpt><trkpt lat="14.557943289354878" lon="120.99558064387989"><ele>9.0</ele><time>2026-04-09T12:19:12Z</time></trkpt><trkpt lat="14.557919508970121" lon="120.99551714635123"><ele>9.0</ele><time>2026-04-09T12:19:14Z</time></trkpt><trkpt lat="14.557859237156467" lon="120.99549024393497"><ele>9.0</ele><time>2026-04-09T12:19:17Z</time></trkpt><trkpt lat="14.557784118651016" lon="120.99552409073918"><ele>9.0</ele><time>2026-04-09T12:19:21Z</time></trkpt><trkpt lat="14.557738274313405" lon="120.99559670390522"><ele>9.0</ele><time>2026-04-09T12:19:24Z</time></trkpt><trkpt lat="14.557758636875306" lon="120.99568700867533"><ele>9.0</ele><time>2026-04-09T12:19:27Z</time></trkpt><trkpt lat="14.55783315588436" lon="120.9957339497704"><ele>9.0</ele><time>2026-04-09T12:19:30Z</time></trkpt><trkpt lat="14.557917403499705" lon="120.99570122072366"><ele>9.0</ele><time>2026-04-09T12:19:33Z</time></trkpt><trkpt lat="14.558126087771816" lon="120.99567678072648"><ele>9.0</ele><time>2026-04-09T12:19:41Z</time></trkpt><trkpt lat="14.55811094925775" lon="120.9955893894123"><ele>9.0</ele><time>2026-04-09T12:19:44Z</time></trkpt><trkpt lat="14.558089399212536" lon="120.99552638231097"><ele>9.0</ele><time>2026-04-09T12:19:46Z</time></trkpt><trkpt lat="14.558061597503668" lon="120.99546538073447"><ele>9.0</ele><time>2026-04-09T12:19:48Z</time></trkpt><trkpt lat="14.558049877073378" lon="120.99538420412222"><ele>9.0</ele><time>2026-04-09T12:19:51Z</time></trkpt><trkpt lat="14.558116318466558" lon="120.9953522049972"><ele>9.0</ele><time>2026-04-09T12:19:55Z</time></trkpt><trkpt lat="14.558195025134742" lon="120.99537240078439"><ele>9.0</ele><time>2026-04-09T12:19:59Z</time></trkpt><trkpt lat="14.558434725353836" lon="120.9959275987928"><ele>9.0</ele><time>2026-04-09T12:20:48.056Z</time></trkpt><trkpt lat="14.55818185757742" lon="120.99568641152366"><ele>9.0</ele><time>2026-04-09T12:20:49.057Z</time></trkpt><trkpt lat="14.558142906551664" lon="120.99561541077546"><ele>9.0</ele><time>2026-04-09T12:20:50.057Z</time></trkpt><trkpt lat="14.558116041220332" lon="120.99553021215202"><ele>9.0</ele><time>2026-04-09T12:20:53.056Z</time></trkpt><trkpt lat="14.558198929557872" lon="120.99543295509636"><ele>9.0</ele><time>2026-04-09T12:21:10.027Z</time></trkpt><trkpt lat="14.558266464367977" lon="120.99542897987362"><ele>9.0</ele><time>2026-04-09T12:21:30Z</time></trkpt><trkpt lat="14.558332730991486" lon="120.99543480541695"><ele>9.0</ele><time>2026-04-09T12:21:31Z</time></trkpt><trkpt lat="14.558264486711487" lon="120.995434561622"><ele>9.0</ele><time>2026-04-09T12:21:52Z</time></trkpt><trkpt lat="14.558328539834555" lon="120.99542268485588"><ele>9.0</ele><time>2026-04-09T12:27:42Z</time></trkpt></trkseg></trk></gpx>